<?xml version='1.0' encoding='UTF-8'?><gpx version="1.1" creator="JPX - https://github.com/jenetics/jpx" xmlns="http://www.topografix.com/GPX/1/1"><trk><trkseg><trkpt lat="44.0435617" lon="12.0059217"><ele>119.0</ele><time>2026-04-07T12:27:27.73Z</time></trkpt><trkpt lat="44.04342" lon="12.0058917"><ele>119.0</ele><time>2026-04-07T12:27:29.729Z</time></trkpt><trkpt lat="44.0433167" lon="12.0058617"><ele>119.0</ele><time>2026-04-07T12:27:30.729Z</time></trkpt><trkpt lat="44.0432017" lon="12.005805"><ele>119.0</ele><time>2026-04-07T12:27:31.732Z</time></trkpt><trkpt lat="44.04308" lon="12.0057183"><ele>118.5</ele><time>2026-04-07T12:27:32.73Z</time></trkpt><trkpt lat="44.04297" lon="12.00559"><ele>118.0</ele><time>2026-04-07T12:27:33.73Z</time></trkpt><trkpt lat="44.0428833" lon="12.0054233"><ele>117.5</ele><time>2026-04-07T12:27:34.732Z</time></trkpt><trkpt lat="44.0428267" lon="12.0052367"><ele>117.0</ele><time>2026-04-07T12:27:35.731Z</time></trkpt><trkpt lat="44.042795" lon="12.0050283"><ele>117.0</ele><time>2026-04-07T12:27:36.73Z</time></trkpt><trkpt lat="44.04277" lon="12.0048133"><ele>117.0</ele><time>2026-04-07T12:27:37.73Z</time></trkpt><trkpt lat="44.0427417" lon="12.00458"><ele>117.0</ele><time>2026-04-07T12:27:38.73Z</time></trkpt><trkpt lat="44.042705" lon="12.004335"><ele>117.33333333333334</ele><time>2026-04-07T12:27:39.73Z</time></trkpt><trkpt lat="44.0426533" lon="12.0040917"><ele>117.66666666666667</ele><time>2026-04-07T12:27:40.731Z</time></trkpt><trkpt lat="44.0425833" lon="12.0038617"><ele>118.0</ele><time>2026-04-07T12:27:41.73Z</time></trkpt><trkpt lat="44.042505" lon="12.0036583"><ele>118.0</ele><time>2026-04-07T12:27:42.731Z</time></trkpt><trkpt lat="44.0424167" lon="12.0034717"><ele>118.0</ele><time>2026-04-07T12:27:43.73Z</time></trkpt><trkpt lat="44.0423283" lon="12.003295"><ele>118.0</ele><time>2026-04-07T12:27:44.732Z</time></trkpt><trkpt lat="44.0422483" lon="12.00313"><ele>118.0</ele><time>2026-04-07T12:27:45.73Z</time></trkpt><trkpt lat="44.0421783" lon="12.0029683"><ele>118.0</ele><time>2026-04-07T12:27:46.731Z</time></trkpt><trkpt lat="44.0421" lon="12.002805"><ele>118.0</ele><time>2026-04-07T12:27:47.726Z</time></trkpt><trkpt lat="44.0420167" lon="12.0026317"><ele>118.0</ele><time>2026-04-07T12:27:48.728Z</time></trkpt><trkpt lat="44.041925" lon="12.0024483"><ele>118.0</ele><time>2026-04-07T12:27:49.727Z</time></trkpt><trkpt lat="44.041825" lon="12.0022433"><ele>118.0</ele><time>2026-04-07T12:27:50.727Z</time></trkpt><trkpt lat="44.041725" lon="12.00202"><ele>118.0</ele><time>2026-04-07T12:27:51.727Z</time></trkpt><trkpt lat="44.041625" lon="12.0017783"><ele>118.33333333333334</ele><time>2026-04-07T12:27:52.728Z</time></trkpt><trkpt lat="44.0415167" lon="12.0015283"><ele>118.66666666666666</ele><time>2026-04-07T12:27:53.727Z</time></trkpt><trkpt lat="44.0414017" lon="12.00127"><ele>119.0</ele><time>2026-04-07T12:27:54.727Z</time></trkpt><trkpt lat="44.0412817" lon="12.0010133"><ele>119.33333333333333</ele><time>2026-04-07T12:27:55.727Z</time></trkpt><trkpt lat="44.0411633" lon="12.00076"><ele>119.66666666666666</ele><time>2026-04-07T12:27:56.728Z</time></trkpt><trkpt lat="44.0410467" lon="12.0005033"><ele>120.0</ele><time>2026-04-07T12:27:57.726Z</time></trkpt><trkpt lat="44.040925" lon="12.0002483"><ele>120.0</ele><time>2026-04-07T12:27:58.73Z</time></trkpt><trkpt lat="44.0408017" lon="11.9999933"><ele>120.0</ele><time>2026-04-07T12:27:59.732Z</time></trkpt><trkpt lat="44.0406717" lon="11.99974"><ele>120.0</ele><time>2026-04-07T12:28:00.731Z</time></trkpt><trkpt lat="44.0405317" lon="11.99949"><ele>119.5</ele><time>2026-04-07T12:28:01.731Z</time></trkpt><trkpt lat="44.0403817" lon="11.9992417"><ele>119.0</ele><time>2026-04-07T12:28:02.73Z</time></trkpt><trkpt lat="44.0402267" lon="11.998995"><ele>119.5</ele><time>2026-04-07T12:28:03.73Z</time></trkpt><trkpt lat="44.0400717" lon="11.9987483"><ele>120.0</ele><time>2026-04-07T12:28:04.73Z</time></trkpt><trkpt lat="44.0399183" lon="11.9985"><ele>120.5</ele><time>2026-04-07T12:28:05.73Z</time></trkpt><trkpt lat="44.0397633" lon="11.9982483"><ele>121.0</ele><time>2026-04-07T12:28:06.73Z</time></trkpt><trkpt lat="44.03961" lon="11.9979983"><ele>121.0</ele><time>2026-04-07T12:28:07.732Z</time></trkpt><trkpt lat="44.03946" lon="11.9977533"><ele>121.0</ele><time>2026-04-07T12:28:08.731Z</time></trkpt><trkpt lat="44.0393117" lon="11.9975167"><ele>121.0</ele><time>2026-04-07T12:28:09.732Z</time></trkpt><trkpt lat="44.03917" lon="11.99729"><ele>121.0</ele><time>2026-04-07T12:28:10.731Z</time></trkpt><trkpt lat="44.03904" lon="11.9970783"><ele>121.0</ele><time>2026-04-07T12:28:11.73Z</time></trkpt><trkpt lat="44.0389283" lon="11.9968683"><ele>125.66666666666667</ele><time>2026-04-07T12:28:12.731Z</time></trkpt><trkpt lat="44.0388367" lon="11.99664"><ele>130.33333333333334</ele><time>2026-04-07T12:28:13.732Z</time></trkpt><trkpt lat="44.0387667" lon="11.996385"><ele>135.0</ele><time>2026-04-07T12:28:14.731Z</time></trkpt><trkpt lat="44.038715" lon="11.9961017"><ele>137.66666666666666</ele><time>2026-04-07T12:28:15.732Z</time></trkpt><trkpt lat="44.03868" lon="11.9957967"><ele>140.33333333333331</ele><time>2026-04-07T12:28:16.731Z</time></trkpt><trkpt lat="44.0386633" lon="11.9954967"><ele>143.0</ele><time>2026-04-07T12:28:17.729Z</time></trkpt><trkpt lat="44.0386517" lon="11.995215"><ele>142.0</ele><time>2026-04-07T12:28:18.73Z</time></trkpt><trkpt lat="44.0386283" lon="11.9949433"><ele>141.0</ele><time>2026-04-07T12:28:19.73Z</time></trkpt><trkpt lat="44.0385833" lon="11.9946733"><ele>140.0</ele><time>2026-04-07T12:28:20.729Z</time></trkpt><trkpt lat="44.0385117" lon="11.9944067"><ele>142.0</ele><time>2026-04-07T12:28:21.73Z</time></trkpt><trkpt lat="44.0384067" lon="11.994155"><ele>144.0</ele><time>2026-04-07T12:28:22.729Z</time></trkpt><trkpt lat="44.0382617" lon="11.99393"><ele>146.0</ele><time>2026-04-07T12:28:23.729Z</time></trkpt><trkpt lat="44.0380733" lon="11.9937367"><ele>146.0</ele><time>2026-04-07T12:28:24.729Z</time></trkpt><trkpt lat="44.0378667" lon="11.9935617"><ele>146.0</ele><time>2026-04-07T12:28:25.728Z</time></trkpt><trkpt lat="44.0376483" lon="11.993385"><ele>147.5</ele><time>2026-04-07T12:28:26.729Z</time></trkpt><trkpt lat="44.037425" lon="11.9932067"><ele>149.0</ele><time>2026-04-07T12:28:27.729Z</time></trkpt><trkpt lat="44.0371983" lon="11.993025"><ele>149.0</ele><time>2026-04-07T12:28:28.73Z</time></trkpt><trkpt lat="44.0369767" lon="11.992845"><ele>149.0</ele><time>2026-04-07T12:28:29.73Z</time></trkpt><trkpt lat="44.0367717" lon="11.9926733"><ele>149.0</ele><time>2026-04-07T12:28:30.73Z</time></trkpt><trkpt lat="44.03658" lon="11.9924883"><ele>149.0</ele><time>2026-04-07T12:28:31.73Z</time></trkpt><trkpt lat="44.0363933" lon="11.99228"><ele>149.0</ele><time>2026-04-07T12:28:32.73Z</time></trkpt><trkpt lat="44.0362083" lon="11.992045"><ele>149.0</ele><time>2026-04-07T12:28:33.73Z</time></trkpt><trkpt lat="44.0360383" lon="11.9917817"><ele>147.0</ele><time>2026-04-07T12:28:34.73Z</time></trkpt><trkpt lat="44.03587" lon="11.9915083"><ele>145.0</ele><time>2026-04-07T12:28:35.731Z</time></trkpt><trkpt lat="44.0356983" lon="11.9912283"><ele>146.0</ele><time>2026-04-07T12:28:36.73Z</time></trkpt><trkpt lat="44.0355317" lon="11.9909483"><ele>147.0</ele><time>2026-04-07T12:28:37.732Z</time></trkpt><trkpt lat="44.03536" lon="11.9906767"><ele>147.0</ele><time>2026-04-07T12:28:38.731Z</time></trkpt><trkpt lat="44.035185" lon="11.990405"><ele>147.0</ele><time>2026-04-07T12:28:39.73Z</time></trkpt><trkpt lat="44.0350117" lon="11.9901333"><ele>150.0</ele><time>2026-04-07T12:28:40.731Z</time></trkpt><trkpt lat="44.0348383" lon="11.9898567"><ele>153.0</ele><time>2026-04-07T12:28:41.731Z</time></trkpt><trkpt lat="44.0346633" lon="11.9895833"><ele>153.0</ele><time>2026-04-07T12:28:42.731Z</time></trkpt><trkpt lat="44.034485" lon="11.9893117"><ele>153.0</ele><time>2026-04-07T12:28:43.732Z</time></trkpt><trkpt lat="44.03431" lon="11.9890367"><ele>151.0</ele><time>2026-04-07T12:28:44.731Z</time></trkpt><trkpt lat="44.0341383" lon="11.9887633"><ele>149.0</ele><time>2026-04-07T12:28:45.731Z</time></trkpt><trkpt lat="44.0339667" lon="11.98849"><ele>154.0</ele><time>2026-04-07T12:28:46.729Z</time></trkpt><trkpt lat="44.0337933" lon="11.9882183"><ele>159.0</ele><time>2026-04-07T12:28:47.73Z</time></trkpt><trkpt lat="44.0336233" lon="11.9879583"><ele>159.0</ele><time>2026-04-07T12:28:48.73Z</time></trkpt><trkpt lat="44.0334517" lon="11.9877083"><ele>159.0</ele><time>2026-04-07T12:28:49.73Z</time></trkpt><trkpt lat="44.033265" lon="11.9874683"><ele>160.5</ele><time>2026-04-07T12:28:50.729Z</time></trkpt><trkpt lat="44.0330733" lon="11.9872367"><ele>162.0</ele><time>2026-04-07T12:28:51.729Z</time></trkpt><trkpt lat="44.0328733" lon="11.9870083"><ele>162.0</ele><time>2026-04-07T12:28:52.731Z</time></trkpt><trkpt lat="44.0326667" lon="11.986775"><ele>162.0</ele><time>2026-04-07T12:28:53.731Z</time></trkpt><trkpt lat="44.0324567" lon="11.9865433"><ele>161.5</ele><time>2026-04-07T12:28:54.728Z</time></trkpt><trkpt lat="44.0322417" lon="11.986305"><ele>161.0</ele><time>2026-04-07T12:28:55.728Z</time></trkpt><trkpt lat="44.032025" lon="11.9860667"><ele>160.0</ele><time>2026-04-07T12:28:56.729Z</time></trkpt><trkpt lat="44.0318067" lon="11.985825"><ele>159.0</ele><time>2026-04-07T12:28:57.729Z</time></trkpt><trkpt lat="44.03159" lon="11.9855833"><ele>159.0</ele><time>2026-04-07T12:28:58.73Z</time></trkpt><trkpt lat="44.03137" lon="11.98534"><ele>159.0</ele><time>2026-04-07T12:28:59.731Z</time></trkpt><trkpt lat="44.03115" lon="11.985095"><ele>159.0</ele><time>2026-04-07T12:29:00.73Z</time></trkpt><trkpt lat="44.0309317" lon="11.9848517"><ele>159.0</ele><time>2026-04-07T12:29:01.732Z</time></trkpt><trkpt lat="44.030715" lon="11.98461"><ele>159.0</ele><time>2026-04-07T12:29:02.731Z</time></trkpt><trkpt lat="44.0305" lon="11.9843767"><ele>159.0</ele><time>2026-04-07T12:29:03.73Z</time></trkpt><trkpt lat="44.03029" lon="11.9841433"><ele>159.5</ele><time>2026-04-07T12:29:04.732Z</time></trkpt><trkpt lat="44.0300833" lon="11.9839133"><ele>160.0</ele><time>2026-04-07T12:29:05.731Z</time></trkpt><trkpt lat="44.0298767" lon="11.983685"><ele>159.5</ele><time>2026-04-07T12:29:06.73Z</time></trkpt><trkpt lat="44.0296733" lon="11.9834567"><ele>159.0</ele><time>2026-04-07T12:29:07.732Z</time></trkpt><trkpt lat="44.029475" lon="11.9832267"><ele>159.0</ele><time>2026-04-07T12:29:08.731Z</time></trkpt><trkpt lat="44.0292783" lon="11.9829933"><ele>159.0</ele><time>2026-04-07T12:29:09.73Z</time></trkpt><trkpt lat="44.0290817" lon="11.9827633"><ele>162.5</ele><time>2026-04-07T12:29:10.731Z</time></trkpt><trkpt lat="44.0288867" lon="11.982535"><ele>166.0</ele><time>2026-04-07T12:29:11.731Z</time></trkpt><trkpt lat="44.028695" lon="11.9823117"><ele>166.0</ele><time>2026-04-07T12:29:12.732Z</time></trkpt><trkpt lat="44.0285017" lon="11.98209"><ele>166.0</ele><time>2026-04-07T12:29:13.731Z</time></trkpt><trkpt lat="44.02831" lon="11.9818633"><ele>170.0</ele><time>2026-04-07T12:29:14.73Z</time></trkpt><trkpt lat="44.02812" lon="11.98163"><ele>174.0</ele><time>2026-04-07T12:29:15.731Z</time></trkpt><trkpt lat="44.02794" lon="11.9813917"><ele>174.0</ele><time>2026-04-07T12:29:16.729Z</time></trkpt><trkpt lat="44.0277767" lon="11.9811467"><ele>174.0</ele><time>2026-04-07T12:29:17.731Z</time></trkpt><trkpt lat="44.0276317" lon="11.9808917"><ele>171.5</ele><time>2026-04-07T12:29:18.73Z</time></trkpt><trkpt lat="44.0275067" lon="11.980615"><ele>169.0</ele><time>2026-04-07T12:29:19.73Z</time></trkpt><trkpt lat="44.0273983" lon="11.98033"><ele>173.0</ele><time>2026-04-07T12:29:20.729Z</time></trkpt><trkpt lat="44.0272883" lon="11.9800583"><ele>177.0</ele><time>2026-04-07T12:29:21.729Z</time></trkpt><trkpt lat="44.0271717" lon="11.9798183"><ele>181.0</ele><time>2026-04-07T12:29:22.729Z</time></trkpt><trkpt lat="44.027045" lon="11.9796183"><ele>181.0</ele><time>2026-04-07T12:29:23.731Z</time></trkpt><trkpt lat="44.0269183" lon="11.97945"><ele>181.0</ele><time>2026-04-07T12:29:24.731Z</time></trkpt><trkpt lat="44.026795" lon="11.9793"><ele>181.0</ele><time>2026-04-07T12:29:25.731Z</time></trkpt><trkpt lat="44.0266817" lon="11.97916"><ele>181.5</ele><time>2026-04-07T12:29:26.731Z</time></trkpt><trkpt lat="44.02658" lon="11.979025"><ele>182.0</ele><time>2026-04-07T12:29:27.731Z</time></trkpt><trkpt lat="44.0264817" lon="11.978895"><ele>182.5</ele><time>2026-04-07T12:29:28.731Z</time></trkpt><trkpt lat="44.0263867" lon="11.9787633"><ele>183.0</ele><time>2026-04-07T12:29:29.732Z</time></trkpt><trkpt lat="44.0263017" lon="11.9786333"><ele>183.0</ele><time>2026-04-07T12:29:30.731Z</time></trkpt><trkpt lat="44.0262267" lon="11.978495"><ele>183.0</ele><time>2026-04-07T12:29:31.731Z</time></trkpt><trkpt lat="44.0261567" lon="11.9783467"><ele>183.0</ele><time>2026-04-07T12:29:32.732Z</time></trkpt><trkpt lat="44.0260833" lon="11.9781967"><ele>183.0</ele><time>2026-04-07T12:29:33.731Z</time></trkpt><trkpt lat="44.0260067" lon="11.9780367"><ele>183.0</ele><time>2026-04-07T12:29:34.731Z</time></trkpt><trkpt lat="44.0259283" lon="11.9778717"><ele>183.0</ele><time>2026-04-07T12:29:35.73Z</time></trkpt><trkpt lat="44.0258517" lon="11.9776983"><ele>183.0</ele><time>2026-04-07T12:29:36.73Z</time></trkpt><trkpt lat="44.02577" lon="11.9775233"><ele>183.0</ele><time>2026-04-07T12:29:37.731Z</time></trkpt><trkpt lat="44.0256883" lon="11.9773483"><ele>183.0</ele><time>2026-04-07T12:29:38.731Z</time></trkpt><trkpt lat="44.0256083" lon="11.977175"><ele>183.0</ele><time>2026-04-07T12:29:39.73Z</time></trkpt><trkpt lat="44.0255283" lon="11.9770017"><ele>183.0</ele><time>2026-04-07T12:29:40.73Z</time></trkpt><trkpt lat="44.0254483" lon="11.9768283"><ele>183.0</ele><time>2026-04-07T12:29:41.731Z</time></trkpt><trkpt lat="44.02537" lon="11.9766583"><ele>182.75</ele><time>2026-04-07T12:29:42.73Z</time></trkpt><trkpt lat="44.0252967" lon="11.9765"><ele>182.5</ele><time>2026-04-07T12:29:43.73Z</time></trkpt><trkpt lat="44.025225" lon="11.976345"><ele>182.25</ele><time>2026-04-07T12:29:44.729Z</time></trkpt><trkpt lat="44.0251517" lon="11.9761983"><ele>182.0</ele><time>2026-04-07T12:29:45.731Z</time></trkpt><trkpt lat="44.0250717" lon="11.9760617"><ele>182.0</ele><time>2026-04-07T12:29:46.728Z</time></trkpt><trkpt lat="44.0249817" lon="11.9759333"><ele>182.0</ele><time>2026-04-07T12:29:47.726Z</time></trkpt><trkpt lat="44.0248833" lon="11.97582"><ele>182.0</ele><time>2026-04-07T12:29:48.727Z</time></trkpt><trkpt lat="44.0247767" lon="11.9757117"><ele>182.0</ele><time>2026-04-07T12:29:49.727Z</time></trkpt><trkpt lat="44.0246667" lon="11.9756067"><ele>184.25</ele><time>2026-04-07T12:29:50.726Z</time></trkpt><trkpt lat="44.0245533" lon="11.9755017"><ele>186.5</ele><time>2026-04-07T12:29:51.725Z</time></trkpt><trkpt lat="44.0244367" lon="11.9753917"><ele>188.75</ele><time>2026-04-07T12:29:52.726Z</time></trkpt><trkpt lat="44.0243133" lon="11.9752733"><ele>191.0</ele><time>2026-04-07T12:29:53.731Z</time></trkpt><trkpt lat="44.0241783" lon="11.9751483"><ele>193.0</ele><time>2026-04-07T12:29:54.731Z</time></trkpt><trkpt lat="44.0240283" lon="11.9750167"><ele>195.0</ele><time>2026-04-07T12:29:55.73Z</time></trkpt><trkpt lat="44.0238683" lon="11.974875"><ele>197.0</ele><time>2026-04-07T12:29:56.73Z</time></trkpt><trkpt lat="44.0237067" lon="11.9747267"><ele>197.0</ele><time>2026-04-07T12:29:57.727Z</time></trkpt><trkpt lat="44.0235417" lon="11.9745733"><ele>197.0</ele><time>2026-04-07T12:29:58.728Z</time></trkpt><trkpt lat="44.02337" lon="11.974415"><ele>197.0</ele><time>2026-04-07T12:29:59.728Z</time></trkpt><trkpt lat="44.0231933" lon="11.97425"><ele>196.33333333333334</ele><time>2026-04-07T12:30:00.733Z</time></trkpt><trkpt lat="44.0230117" lon="11.97408"><ele>195.66666666666669</ele><time>2026-04-07T12:30:01.728Z</time></trkpt><trkpt lat="44.0228267" lon="11.9739033"><ele>195.0</ele><time>2026-04-07T12:30:02.728Z</time></trkpt><trkpt lat="44.0226367" lon="11.97372"><ele>196.5</ele><time>2026-04-07T12:30:03.728Z</time></trkpt><trkpt lat="44.0224417" lon="11.973535"><ele>198.0</ele><time>2026-04-07T12:30:04.727Z</time></trkpt><trkpt lat="44.0222433" lon="11.97335"><ele>195.0</ele><time>2026-04-07T12:30:05.729Z</time></trkpt><trkpt lat="44.0220417" lon="11.9731583"><ele>192.0</ele><time>2026-04-07T12:30:06.728Z</time></trkpt><trkpt lat="44.0218333" lon="11.9729667"><ele>195.0</ele><time>2026-04-07T12:30:07.729Z</time></trkpt><trkpt lat="44.0216217" lon="11.9727683"><ele>198.0</ele><time>2026-04-07T12:30:08.726Z</time></trkpt><trkpt lat="44.0214083" lon="11.97257"><ele>194.5</ele><time>2026-04-07T12:30:09.727Z</time></trkpt><trkpt lat="44.0211933" lon="11.9723733"><ele>191.0</ele><time>2026-04-07T12:30:10.731Z</time></trkpt><trkpt lat="44.0209817" lon="11.9721767"><ele>196.0</ele><time>2026-04-07T12:30:11.729Z</time></trkpt><trkpt lat="44.02077" lon="11.9719783"><ele>201.0</ele><time>2026-04-07T12:30:12.729Z</time></trkpt><trkpt lat="44.02056" lon="11.9717817"><ele>196.5</ele><time>2026-04-07T12:30:13.73Z</time></trkpt><trkpt lat="44.02035" lon="11.9715833"><ele>192.0</ele><time>2026-04-07T12:30:14.729Z</time></trkpt><trkpt lat="44.0201383" lon="11.971385"><ele>198.5</ele><time>2026-04-07T12:30:15.731Z</time></trkpt><trkpt lat="44.0199283" lon="11.97119"><ele>205.0</ele><time>2026-04-07T12:30:16.73Z</time></trkpt><trkpt lat="44.01972" lon="11.9709933"><ele>199.5</ele><time>2026-04-07T12:30:17.729Z</time></trkpt><trkpt lat="44.0195133" lon="11.9708"><ele>194.0</ele><time>2026-04-07T12:30:18.731Z</time></trkpt><trkpt lat="44.019305" lon="11.9706067"><ele>202.5</ele><time>2026-04-07T12:30:19.731Z</time></trkpt><trkpt lat="44.0190983" lon="11.9704183"><ele>211.0</ele><time>2026-04-07T12:30:20.73Z</time></trkpt><trkpt lat="44.0188917" lon="11.9702317"><ele>211.0</ele><time>2026-04-07T12:30:21.731Z</time></trkpt><trkpt lat="44.0186867" lon="11.97005"><ele>211.0</ele><time>2026-04-07T12:30:22.73Z</time></trkpt><trkpt lat="44.0184883" lon="11.9698733"><ele>213.0</ele><time>2026-04-07T12:30:23.73Z</time></trkpt><trkpt lat="44.0183067" lon="11.9697017"><ele>215.0</ele><time>2026-04-07T12:30:24.73Z</time></trkpt><trkpt lat="44.018135" lon="11.9695367"><ele>217.0</ele><time>2026-04-07T12:30:25.73Z</time></trkpt><trkpt lat="44.0179733" lon="11.9693683"><ele>217.0</ele><time>2026-04-07T12:30:26.73Z</time></trkpt><trkpt lat="44.0178233" lon="11.9691967"><ele>217.0</ele><time>2026-04-07T12:30:27.728Z</time></trkpt><trkpt lat="44.0176833" lon="11.9690183"><ele>217.0</ele><time>2026-04-07T12:30:28.729Z</time></trkpt><trkpt lat="44.01756" lon="11.9688383"><ele>212.33333333333331</ele><time>2026-04-07T12:30:29.728Z</time></trkpt><trkpt lat="44.017455" lon="11.9686683"><ele>207.66666666666669</ele><time>2026-04-07T12:30:30.729Z</time></trkpt><trkpt lat="44.0173633" lon="11.968505"><ele>203.0</ele><time>2026-04-07T12:30:31.728Z</time></trkpt><trkpt lat="44.01728" lon="11.96834"><ele>201.33333333333334</ele><time>2026-04-07T12:30:32.729Z</time></trkpt><trkpt lat="44.0172033" lon="11.968175"><ele>199.66666666666669</ele><time>2026-04-07T12:30:33.728Z</time></trkpt><trkpt lat="44.01713" lon="11.9679967"><ele>198.0</ele><time>2026-04-07T12:30:34.729Z</time></trkpt><trkpt lat="44.0170567" lon="11.9677967"><ele>198.0</ele><time>2026-04-07T12:30:35.729Z</time></trkpt><trkpt lat="44.0169867" lon="11.9675683"><ele>198.0</ele><time>2026-04-07T12:30:36.729Z</time></trkpt><trkpt lat="44.01692" lon="11.9673233"><ele>198.0</ele><time>2026-04-07T12:30:37.728Z</time></trkpt><trkpt lat="44.0168533" lon="11.96707"><ele>195.66666666666666</ele><time>2026-04-07T12:30:38.729Z</time></trkpt><trkpt lat="44.01678" lon="11.96681"><ele>193.33333333333331</ele><time>2026-04-07T12:30:39.728Z</time></trkpt><trkpt lat="44.0167" lon="11.9665467"><ele>191.0</ele><time>2026-04-07T12:30:40.731Z</time></trkpt><trkpt lat="44.0166083" lon="11.9662817"><ele>188.33333333333331</ele><time>2026-04-07T12:30:41.731Z</time></trkpt><trkpt lat="44.0165017" lon="11.96603"><ele>185.66666666666666</ele><time>2026-04-07T12:30:42.729Z</time></trkpt><trkpt lat="44.01638" lon="11.96579"><ele>183.0</ele><time>2026-04-07T12:30:43.733Z</time></trkpt><trkpt lat="44.01624" lon="11.965565"><ele>183.66666666666666</ele><time>2026-04-07T12:30:44.731Z</time></trkpt><trkpt lat="44.0160883" lon="11.965355"><ele>184.33333333333331</ele><time>2026-04-07T12:30:45.73Z</time></trkpt><trkpt lat="44.0159233" lon="11.96515"><ele>185.0</ele><time>2026-04-07T12:30:46.73Z</time></trkpt><trkpt lat="44.015755" lon="11.96495"><ele>185.0</ele><time>2026-04-07T12:30:47.731Z</time></trkpt><trkpt lat="44.015585" lon="11.9647467"><ele>185.0</ele><time>2026-04-07T12:30:48.73Z</time></trkpt><trkpt lat="44.015415" lon="11.9645383"><ele>185.0</ele><time>2026-04-07T12:30:49.729Z</time></trkpt><trkpt lat="44.0152417" lon="11.96433"><ele>185.0</ele><time>2026-04-07T12:30:50.731Z</time></trkpt><trkpt lat="44.0150667" lon="11.9641217"><ele>191.0</ele><time>2026-04-07T12:30:51.729Z</time></trkpt><trkpt lat="44.0148917" lon="11.9639117"><ele>197.0</ele><time>2026-04-07T12:30:52.731Z</time></trkpt><trkpt lat="44.0147183" lon="11.9637033"><ele>197.0</ele><time>2026-04-07T12:30:53.73Z</time></trkpt><trkpt lat="44.0145467" lon="11.9634983"><ele>197.0</ele><time>2026-04-07T12:30:54.73Z</time></trkpt><trkpt lat="44.01438" lon="11.96329"><ele>194.0</ele><time>2026-04-07T12:30:55.731Z</time></trkpt><trkpt lat="44.01422" lon="11.963075"><ele>191.0</ele><time>2026-04-07T12:30:56.731Z</time></trkpt><trkpt lat="44.0140683" lon="11.96285"><ele>188.0</ele><time>2026-04-07T12:30:57.725Z</time></trkpt><trkpt lat="44.0139233" lon="11.9626183"><ele>192.0</ele><time>2026-04-07T12:30:58.728Z</time></trkpt><trkpt lat="44.013785" lon="11.962375"><ele>196.0</ele><time>2026-04-07T12:30:59.73Z</time></trkpt><trkpt lat="44.0136533" lon="11.9621183"><ele>196.0</ele><time>2026-04-07T12:31:00.728Z</time></trkpt><trkpt lat="44.0135233" lon="11.96186"><ele>196.0</ele><time>2026-04-07T12:31:01.729Z</time></trkpt><trkpt lat="44.0133967" lon="11.96161"><ele>196.0</ele><time>2026-04-07T12:31:02.728Z</time></trkpt><trkpt lat="44.0132817" lon="11.9613633"><ele>198.0</ele><time>2026-04-07T12:31:03.729Z</time></trkpt><trkpt lat="44.013185" lon="11.9610983"><ele>200.0</ele><time>2026-04-07T12:31:04.728Z</time></trkpt><trkpt lat="44.0131067" lon="11.96081"><ele>202.0</ele><time>2026-04-07T12:31:05.729Z</time></trkpt><trkpt lat="44.0130433" lon="11.9605017"><ele>202.0</ele><time>2026-04-07T12:31:06.729Z</time></trkpt><trkpt lat="44.01299" lon="11.9601717"><ele>202.0</ele><time>2026-04-07T12:31:07.73Z</time></trkpt><trkpt lat="44.0129417" lon="11.9598233"><ele>197.5</ele><time>2026-04-07T12:31:08.729Z</time></trkpt><trkpt lat="44.0128917" lon="11.9594633"><ele>193.0</ele><time>2026-04-07T12:31:09.728Z</time></trkpt><trkpt lat="44.0128417" lon="11.9591067"><ele>190.5</ele><time>2026-04-07T12:31:10.732Z</time></trkpt><trkpt lat="44.01279" lon="11.9587417"><ele>188.0</ele><time>2026-04-07T12:31:11.731Z</time></trkpt><trkpt lat="44.0127333" lon="11.9583733"><ele>186.5</ele><time>2026-04-07T12:31:12.73Z</time></trkpt><trkpt lat="44.0126783" lon="11.9580017"><ele>185.0</ele><time>2026-04-07T12:31:13.731Z</time></trkpt><trkpt lat="44.0126233" lon="11.9576283"><ele>184.5</ele><time>2026-04-07T12:31:14.73Z</time></trkpt><trkpt lat="44.01257" lon="11.9572583"><ele>184.0</ele><time>2026-04-07T12:31:15.731Z</time></trkpt><trkpt lat="44.0125183" lon="11.9568933"><ele>189.0</ele><time>2026-04-07T12:31:16.731Z</time></trkpt><trkpt lat="44.0124667" lon="11.9565433"><ele>194.0</ele><time>2026-04-07T12:31:17.731Z</time></trkpt><trkpt lat="44.0124183" lon="11.9562217"><ele>194.0</ele><time>2026-04-07T12:31:18.73Z</time></trkpt><trkpt lat="44.0123733" lon="11.9559217"><ele>194.0</ele><time>2026-04-07T12:31:19.73Z</time></trkpt><trkpt lat="44.0123283" lon="11.9556283"><ele>194.0</ele><time>2026-04-07T12:31:20.729Z</time></trkpt><trkpt lat="44.0122783" lon="11.955335"><ele>193.66666666666669</ele><time>2026-04-07T12:31:21.73Z</time></trkpt><trkpt lat="44.01222" lon="11.9550417"><ele>193.33333333333331</ele><time>2026-04-07T12:31:22.731Z</time></trkpt><trkpt lat="44.012155" lon="11.9547467"><ele>193.0</ele><time>2026-04-07T12:31:23.734Z</time></trkpt><trkpt lat="44.0120817" lon="11.95445"><ele>192.0</ele><time>2026-04-07T12:31:24.731Z</time></trkpt><trkpt lat="44.012" lon="11.9541567"><ele>191.0</ele><time>2026-04-07T12:31:25.732Z</time></trkpt><trkpt lat="44.011915" lon="11.95388"><ele>190.0</ele><time>2026-04-07T12:31:26.73Z</time></trkpt><trkpt lat="44.0118317" lon="11.9536233"><ele>190.0</ele><time>2026-04-07T12:31:27.728Z</time></trkpt><trkpt lat="44.0117517" lon="11.9533817"><ele>190.0</ele><time>2026-04-07T12:31:28.727Z</time></trkpt><trkpt lat="44.01167" lon="11.9531367"><ele>190.0</ele><time>2026-04-07T12:31:29.729Z</time></trkpt><trkpt lat="44.011585" lon="11.9528867"><ele>192.33333333333334</ele><time>2026-04-07T12:31:30.729Z</time></trkpt><trkpt lat="44.0114967" lon="11.9526283"><ele>194.66666666666669</ele><time>2026-04-07T12:31:31.729Z</time></trkpt><trkpt lat="44.0114033" lon="11.9523617"><ele>197.0</ele><time>2026-04-07T12:31:32.728Z</time></trkpt><trkpt lat="44.0113067" lon="11.952085"><ele>197.0</ele><time>2026-04-07T12:31:33.728Z</time></trkpt><trkpt lat="44.01121" lon="11.9518017"><ele>197.0</ele><time>2026-04-07T12:31:34.728Z</time></trkpt><trkpt lat="44.011115" lon="11.9515117"><ele>195.5</ele><time>2026-04-07T12:31:35.729Z</time></trkpt><trkpt lat="44.0110217" lon="11.9512217"><ele>194.0</ele><time>2026-04-07T12:31:36.729Z</time></trkpt><trkpt lat="44.0109267" lon="11.9509333"><ele>193.0</ele><time>2026-04-07T12:31:37.728Z</time></trkpt><trkpt lat="44.0108317" lon="11.9506433"><ele>192.0</ele><time>2026-04-07T12:31:38.729Z</time></trkpt><trkpt lat="44.010735" lon="11.9503517"><ele>198.0</ele><time>2026-04-07T12:31:39.729Z</time></trkpt><trkpt lat="44.0106367" lon="11.9500567"><ele>204.0</ele><time>2026-04-07T12:31:40.731Z</time></trkpt><trkpt lat="44.0105383" lon="11.949765"><ele>204.0</ele><time>2026-04-07T12:31:41.73Z</time></trkpt><trkpt lat="44.010435" lon="11.9494717"><ele>204.0</ele><time>2026-04-07T12:31:42.73Z</time></trkpt><trkpt lat="44.0103383" lon="11.949185"><ele>203.0</ele><time>2026-04-07T12:31:43.731Z</time></trkpt><trkpt lat="44.0102433" lon="11.9489183"><ele>202.0</ele><time>2026-04-07T12:31:44.731Z</time></trkpt><trkpt lat="44.0101417" lon="11.9486567"><ele>201.0</ele><time>2026-04-07T12:31:45.733Z</time></trkpt><trkpt lat="44.0100317" lon="11.948405"><ele>202.33333333333331</ele><time>2026-04-07T12:31:46.73Z</time></trkpt><trkpt lat="44.0099167" lon="11.9481617"><ele>203.66666666666666</ele><time>2026-04-07T12:31:47.73Z</time></trkpt><trkpt lat="44.0098" lon="11.947915"><ele>205.0</ele><time>2026-04-07T12:31:48.731Z</time></trkpt><trkpt lat="44.00968" lon="11.9476683"><ele>203.0</ele><time>2026-04-07T12:31:49.731Z</time></trkpt><trkpt lat="44.0095583" lon="11.94742"><ele>201.0</ele><time>2026-04-07T12:31:50.731Z</time></trkpt><trkpt lat="44.0094433" lon="11.94718"><ele>199.0</ele><time>2026-04-07T12:31:51.731Z</time></trkpt><trkpt lat="44.0093417" lon="11.9469783"><ele>199.0</ele><time>2026-04-07T12:31:52.731Z</time></trkpt><trkpt lat="44.0092517" lon="11.946795"><ele>199.0</ele><time>2026-04-07T12:31:53.73Z</time></trkpt><trkpt lat="44.0091617" lon="11.9466133"><ele>199.0</ele><time>2026-04-07T12:31:54.73Z</time></trkpt><trkpt lat="44.0090667" lon="11.94642"><ele>200.66666666666666</ele><time>2026-04-07T12:31:55.731Z</time></trkpt><trkpt lat="44.008965" lon="11.946225"><ele>202.33333333333331</ele><time>2026-04-07T12:31:56.731Z</time></trkpt><trkpt lat="44.0088617" lon="11.9460283"><ele>204.0</ele><time>2026-04-07T12:31:57.728Z</time></trkpt><trkpt lat="44.0087333" lon="11.9458333"><ele>204.0</ele><time>2026-04-07T12:31:58.726Z</time></trkpt><trkpt lat="44.0085833" lon="11.945655"><ele>204.0</ele><time>2026-04-07T12:31:59.728Z</time></trkpt><trkpt lat="44.0084183" lon="11.9455"><ele>204.0</ele><time>2026-04-07T12:32:00.727Z</time></trkpt><trkpt lat="44.0082367" lon="11.9453517"><ele>206.66666666666669</ele><time>2026-04-07T12:32:01.727Z</time></trkpt><trkpt lat="44.0080467" lon="11.9452133"><ele>209.33333333333334</ele><time>2026-04-07T12:32:02.727Z</time></trkpt><trkpt lat="44.0078533" lon="11.945075"><ele>212.0</ele><time>2026-04-07T12:32:03.726Z</time></trkpt><trkpt lat="44.0076567" lon="11.9449383"><ele>214.0</ele><time>2026-04-07T12:32:04.727Z</time></trkpt><trkpt lat="44.0074633" lon="11.9448133"><ele>216.0</ele><time>2026-04-07T12:32:05.727Z</time></trkpt><trkpt lat="44.0072833" lon="11.9446917"><ele>218.0</ele><time>2026-04-07T12:32:06.727Z</time></trkpt><trkpt lat="44.0071083" lon="11.9445767"><ele>218.0</ele><time>2026-04-07T12:32:07.73Z</time></trkpt><trkpt lat="44.0069383" lon="11.9444583"><ele>218.0</ele><time>2026-04-07T12:32:08.728Z</time></trkpt><trkpt lat="44.0067833" lon="11.9443217"><ele>218.0</ele><time>2026-04-07T12:32:09.73Z</time></trkpt><trkpt lat="44.0066533" lon="11.9441667"><ele>220.33333333333334</ele><time>2026-04-07T12:32:10.73Z</time></trkpt><trkpt lat="44.0065417" lon="11.9439867"><ele>222.66666666666669</ele><time>2026-04-07T12:32:11.731Z</time></trkpt><trkpt lat="44.006455" lon="11.94378"><ele>225.0</ele><time>2026-04-07T12:32:12.729Z</time></trkpt><trkpt lat="44.0063967" lon="11.943555"><ele>224.33333333333331</ele><time>2026-04-07T12:32:13.731Z</time></trkpt><trkpt lat="44.006375" lon="11.9433167"><ele>223.66666666666666</ele><time>2026-04-07T12:32:14.729Z</time></trkpt><trkpt lat="44.0063833" lon="11.9430683"><ele>223.0</ele><time>2026-04-07T12:32:15.729Z</time></trkpt><trkpt lat="44.0064117" lon="11.942815"><ele>223.0</ele><time>2026-04-07T12:32:16.731Z</time></trkpt><trkpt lat="44.0064467" lon="11.9425717"><ele>223.0</ele><time>2026-04-07T12:32:17.731Z</time></trkpt><trkpt lat="44.0064833" lon="11.9423483"><ele>223.0</ele><time>2026-04-07T12:32:18.728Z</time></trkpt><trkpt lat="44.0065333" lon="11.9421517"><ele>223.25</ele><time>2026-04-07T12:32:19.731Z</time></trkpt><trkpt lat="44.006605" lon="11.94199"><ele>223.5</ele><time>2026-04-07T12:32:20.731Z</time></trkpt><trkpt lat="44.0066867" lon="11.94185"><ele>223.75</ele><time>2026-04-07T12:32:21.73Z</time></trkpt><trkpt lat="44.0067783" lon="11.9417183"><ele>224.0</ele><time>2026-04-07T12:32:22.731Z</time></trkpt><trkpt lat="44.0068767" lon="11.941595"><ele>222.5</ele><time>2026-04-07T12:32:23.732Z</time></trkpt><trkpt lat="44.0069717" lon="11.9414783"><ele>221.0</ele><time>2026-04-07T12:32:24.731Z</time></trkpt><trkpt lat="44.0070583" lon="11.9413633"><ele>219.5</ele><time>2026-04-07T12:32:25.73Z</time></trkpt><trkpt lat="44.00713" lon="11.9412383"><ele>218.0</ele><time>2026-04-07T12:32:26.731Z</time></trkpt><trkpt lat="44.00719" lon="11.9411033"><ele>218.0</ele><time>2026-04-07T12:32:27.728Z</time></trkpt><trkpt lat="44.00724" lon="11.9409617"><ele>218.0</ele><time>2026-04-07T12:32:28.73Z</time></trkpt><trkpt lat="44.0072717" lon="11.9408067"><ele>218.0</ele><time>2026-04-07T12:32:29.731Z</time></trkpt><trkpt lat="44.0072833" lon="11.9406383"><ele>218.0</ele><time>2026-04-07T12:32:30.73Z</time></trkpt><trkpt lat="44.0072917" lon="11.940465"><ele>218.5</ele><time>2026-04-07T12:32:31.729Z</time></trkpt><trkpt lat="44.00729" lon="11.940285"><ele>219.0</ele><time>2026-04-07T12:32:32.728Z</time></trkpt><trkpt lat="44.0072783" lon="11.9401017"><ele>219.5</ele><time>2026-04-07T12:32:33.727Z</time></trkpt><trkpt lat="44.0072633" lon="11.9399133"><ele>220.0</ele><time>2026-04-07T12:32:34.727Z</time></trkpt><trkpt lat="44.0072483" lon="11.9397217"><ele>219.75</ele><time>2026-04-07T12:32:35.731Z</time></trkpt><trkpt lat="44.0072333" lon="11.9395283"><ele>219.5</ele><time>2026-04-07T12:32:36.727Z</time></trkpt><trkpt lat="44.00722" lon="11.9393333"><ele>219.25</ele><time>2026-04-07T12:32:37.728Z</time></trkpt><trkpt lat="44.007205" lon="11.939135"><ele>219.0</ele><time>2026-04-07T12:32:38.727Z</time></trkpt><trkpt lat="44.0071917" lon="11.93894"><ele>219.0</ele><time>2026-04-07T12:32:39.73Z</time></trkpt><trkpt lat="44.0071767" lon="11.9387483"><ele>219.0</ele><time>2026-04-07T12:32:40.731Z</time></trkpt><trkpt lat="44.0071617" lon="11.9385567"><ele>219.0</ele><time>2026-04-07T12:32:41.731Z</time></trkpt><trkpt lat="44.0071483" lon="11.93836"><ele>219.0</ele><time>2026-04-07T12:32:42.73Z</time></trkpt><trkpt lat="44.0071383" lon="11.93816"><ele>219.0</ele><time>2026-04-07T12:32:43.732Z</time></trkpt><trkpt lat="44.00713" lon="11.937955"><ele>219.0</ele><time>2026-04-07T12:32:44.731Z</time></trkpt><trkpt lat="44.007115" lon="11.937745"><ele>219.0</ele><time>2026-04-07T12:32:45.73Z</time></trkpt><trkpt lat="44.0071017" lon="11.9375383"><ele>219.0</ele><time>2026-04-07T12:32:46.73Z</time></trkpt><trkpt lat="44.0070867" lon="11.9373317"><ele>219.0</ele><time>2026-04-07T12:32:47.73Z</time></trkpt><trkpt lat="44.0070717" lon="11.937125"><ele>219.0</ele><time>2026-04-07T12:32:48.73Z</time></trkpt><trkpt lat="44.0070583" lon="11.9369167"><ele>219.0</ele><time>2026-04-07T12:32:49.731Z</time></trkpt><trkpt lat="44.007045" lon="11.936705"><ele>219.0</ele><time>2026-04-07T12:32:50.729Z</time></trkpt><trkpt lat="44.00703" lon="11.9364883"><ele>219.0</ele><time>2026-04-07T12:32:51.73Z</time></trkpt><trkpt lat="44.0070183" lon="11.9362667"><ele>219.0</ele><time>2026-04-07T12:32:52.731Z</time></trkpt><trkpt lat="44.007005" lon="11.936045"><ele>218.5</ele><time>2026-04-07T12:32:53.73Z</time></trkpt><trkpt lat="44.0069917" lon="11.9358467"><ele>218.0</ele><time>2026-04-07T12:32:54.731Z</time></trkpt><trkpt lat="44.0069783" lon="11.9356733"><ele>217.5</ele><time>2026-04-07T12:32:55.731Z</time></trkpt><trkpt lat="44.006965" lon="11.9355"><ele>217.0</ele><time>2026-04-07T12:32:56.731Z</time></trkpt><trkpt lat="44.0069533" lon="11.9353133"><ele>217.0</ele><time>2026-04-07T12:32:57.728Z</time></trkpt><trkpt lat="44.006945" lon="11.9351117"><ele>217.0</ele><time>2026-04-07T12:32:58.727Z</time></trkpt><trkpt lat="44.0069317" lon="11.93489"><ele>217.0</ele><time>2026-04-07T12:32:59.726Z</time></trkpt><trkpt lat="44.0069167" lon="11.9346567"><ele>217.66666666666666</ele><time>2026-04-07T12:33:00.728Z</time></trkpt><trkpt lat="44.006885" lon="11.9344117"><ele>218.33333333333331</ele><time>2026-04-07T12:33:01.727Z</time></trkpt><trkpt lat="44.0068433" lon="11.9341633"><ele>219.0</ele><time>2026-04-07T12:33:02.727Z</time></trkpt><trkpt lat="44.0067833" lon="11.9339133"><ele>219.0</ele><time>2026-04-07T12:33:03.731Z</time></trkpt><trkpt lat="44.0067017" lon="11.9336583"><ele>219.0</ele><time>2026-04-07T12:33:04.729Z</time></trkpt><trkpt lat="44.006605" lon="11.9334033"><ele>219.0</ele><time>2026-04-07T12:33:05.728Z</time></trkpt><trkpt lat="44.0064933" lon="11.9331433"><ele>217.0</ele><time>2026-04-07T12:33:06.731Z</time></trkpt><trkpt lat="44.0063783" lon="11.9328783"><ele>215.0</ele><time>2026-04-07T12:33:07.729Z</time></trkpt><trkpt lat="44.0062633" lon="11.9326083"><ele>213.0</ele><time>2026-04-07T12:33:08.73Z</time></trkpt><trkpt lat="44.0061467" lon="11.932335"><ele>207.0</ele><time>2026-04-07T12:33:09.729Z</time></trkpt><trkpt lat="44.0060283" lon="11.9320617"><ele>201.0</ele><time>2026-04-07T12:33:10.731Z</time></trkpt><trkpt lat="44.00591" lon="11.9317867"><ele>210.0</ele><time>2026-04-07T12:33:11.73Z</time></trkpt><trkpt lat="44.0057917" lon="11.9315083"><ele>219.0</ele><time>2026-04-07T12:33:12.729Z</time></trkpt><trkpt lat="44.0056717" lon="11.9312283"><ele>219.0</ele><time>2026-04-07T12:33:13.73Z</time></trkpt><trkpt lat="44.005555" lon="11.9309383"><ele>219.0</ele><time>2026-04-07T12:33:14.735Z</time></trkpt><trkpt lat="44.0054467" lon="11.93064"><ele>223.0</ele><time>2026-04-07T12:33:15.73Z</time></trkpt><trkpt lat="44.0053517" lon="11.9303333"><ele>227.0</ele><time>2026-04-07T12:33:16.73Z</time></trkpt><trkpt lat="44.00528" lon="11.9300183"><ele>230.0</ele><time>2026-04-07T12:33:17.732Z</time></trkpt><trkpt lat="44.005235" lon="11.9296967"><ele>233.0</ele><time>2026-04-07T12:33:18.73Z</time></trkpt><trkpt lat="44.0052217" lon="11.929375"><ele>233.33333333333334</ele><time>2026-04-07T12:33:19.731Z</time></trkpt><trkpt lat="44.0052283" lon="11.9290617"><ele>233.66666666666669</ele><time>2026-04-07T12:33:20.731Z</time></trkpt><trkpt lat="44.0052567" lon="11.9287617"><ele>234.0</ele><time>2026-04-07T12:33:21.731Z</time></trkpt><trkpt lat="44.005295" lon="11.9284717"><ele>234.66666666666669</ele><time>2026-04-07T12:33:22.73Z</time></trkpt><trkpt lat="44.0053317" lon="11.92819"><ele>235.33333333333334</ele><time>2026-04-07T12:33:23.73Z</time></trkpt><trkpt lat="44.0053533" lon="11.9279083"><ele>236.0</ele><time>2026-04-07T12:33:24.73Z</time></trkpt><trkpt lat="44.005365" lon="11.92763"><ele>237.0</ele><time>2026-04-07T12:33:25.731Z</time></trkpt><trkpt lat="44.0053567" lon="11.9273533"><ele>238.0</ele><time>2026-04-07T12:33:26.729Z</time></trkpt><trkpt lat="44.0053367" lon="11.92708"><ele>239.0</ele><time>2026-04-07T12:33:27.729Z</time></trkpt><trkpt lat="44.0053" lon="11.9268083"><ele>238.66666666666669</ele><time>2026-04-07T12:33:28.728Z</time></trkpt><trkpt lat="44.0052483" lon="11.926535"><ele>238.33333333333331</ele><time>2026-04-07T12:33:29.73Z</time></trkpt><trkpt lat="44.0051883" lon="11.92626"><ele>238.0</ele><time>2026-04-07T12:33:30.73Z</time></trkpt><trkpt lat="44.005125" lon="11.9259867"><ele>237.66666666666666</ele><time>2026-04-07T12:33:31.729Z</time></trkpt><trkpt lat="44.0050633" lon="11.9257117"><ele>237.33333333333331</ele><time>2026-04-07T12:33:32.729Z</time></trkpt><trkpt lat="44.0050017" lon="11.9254333"><ele>237.0</ele><time>2026-04-07T12:33:33.728Z</time></trkpt><trkpt lat="44.0049383" lon="11.9251567"><ele>238.0</ele><time>2026-04-07T12:33:34.727Z</time></trkpt><trkpt lat="44.004875" lon="11.9248783"><ele>239.0</ele><time>2026-04-07T12:33:35.729Z</time></trkpt><trkpt lat="44.0048083" lon="11.924595"><ele>240.0</ele><time>2026-04-07T12:33:36.726Z</time></trkpt><trkpt lat="44.0047383" lon="11.924305"><ele>239.0</ele><time>2026-04-07T12:33:37.732Z</time></trkpt><trkpt lat="44.00467" lon="11.924005"><ele>238.0</ele><time>2026-04-07T12:33:38.728Z</time></trkpt><trkpt lat="44.004605" lon="11.9236917"><ele>237.0</ele><time>2026-04-07T12:33:39.727Z</time></trkpt><trkpt lat="44.0045433" lon="11.9233767"><ele>236.0</ele><time>2026-04-07T12:33:40.731Z</time></trkpt><trkpt lat="44.00448" lon="11.9230633"><ele>236.0</ele><time>2026-04-07T12:33:41.729Z</time></trkpt><trkpt lat="44.0044017" lon="11.9227533"><ele>236.0</ele><time>2026-04-07T12:33:42.73Z</time></trkpt><trkpt lat="44.004305" lon="11.92245"><ele>235.5</ele><time>2026-04-07T12:33:43.73Z</time></trkpt><trkpt lat="44.0041983" lon="11.9221483"><ele>235.0</ele><time>2026-04-07T12:33:44.731Z</time></trkpt><trkpt lat="44.0040833" lon="11.9218533"><ele>245.5</ele><time>2026-04-07T12:33:45.731Z</time></trkpt><trkpt lat="44.0039683" lon="11.9215567"><ele>256.0</ele><time>2026-04-07T12:33:46.729Z</time></trkpt><trkpt lat="44.00385" lon="11.9212567"><ele>256.0</ele><time>2026-04-07T12:33:47.729Z</time></trkpt><trkpt lat="44.003735" lon="11.920955"><ele>256.0</ele><time>2026-04-07T12:33:48.729Z</time></trkpt><trkpt lat="44.003625" lon="11.9206483"><ele>246.5</ele><time>2026-04-07T12:33:49.729Z</time></trkpt><trkpt lat="44.0035167" lon="11.9203367"><ele>237.0</ele><time>2026-04-07T12:33:50.728Z</time></trkpt><trkpt lat="44.00341" lon="11.9200267"><ele>247.5</ele><time>2026-04-07T12:33:51.729Z</time></trkpt><trkpt lat="44.003305" lon="11.91972"><ele>258.0</ele><time>2026-04-07T12:33:52.729Z</time></trkpt><trkpt lat="44.0032017" lon="11.9194167"><ele>247.0</ele><time>2026-04-07T12:33:53.73Z</time></trkpt><trkpt lat="44.0030983" lon="11.919115"><ele>236.0</ele><time>2026-04-07T12:33:54.73Z</time></trkpt><trkpt lat="44.0029933" lon="11.9188167"><ele>236.0</ele><time>2026-04-07T12:33:55.73Z</time></trkpt><trkpt lat="44.00289" lon="11.9185167"><ele>236.0</ele><time>2026-04-07T12:33:56.729Z</time></trkpt><trkpt lat="44.0027917" lon="11.918215"><ele>228.0</ele><time>2026-04-07T12:33:57.727Z</time></trkpt><trkpt lat="44.002705" lon="11.9179117"><ele>220.0</ele><time>2026-04-07T12:33:58.728Z</time></trkpt><trkpt lat="44.0026267" lon="11.917615"><ele>221.0</ele><time>2026-04-07T12:33:59.728Z</time></trkpt><trkpt lat="44.0025517" lon="11.917325"><ele>222.0</ele><time>2026-04-07T12:34:00.727Z</time></trkpt><trkpt lat="44.0024783" lon="11.91704"><ele>223.0</ele><time>2026-04-07T12:34:01.73Z</time></trkpt><trkpt lat="44.00241" lon="11.9167633"><ele>220.33333333333331</ele><time>2026-04-07T12:34:02.727Z</time></trkpt><trkpt lat="44.0023433" lon="11.9165017"><ele>217.66666666666669</ele><time>2026-04-07T12:34:03.729Z</time></trkpt><trkpt lat="44.0022717" lon="11.9162517"><ele>215.0</ele><time>2026-04-07T12:34:04.727Z</time></trkpt><trkpt lat="44.0021917" lon="11.9160083"><ele>212.66666666666669</ele><time>2026-04-07T12:34:05.73Z</time></trkpt><trkpt lat="44.0020983" lon="11.9157733"><ele>210.33333333333331</ele><time>2026-04-07T12:34:06.73Z</time></trkpt><trkpt lat="44.0019867" lon="11.9155467"><ele>208.0</ele><time>2026-04-07T12:34:07.73Z</time></trkpt><trkpt lat="44.0018583" lon="11.9153317"><ele>208.0</ele><time>2026-04-07T12:34:08.728Z</time></trkpt><trkpt lat="44.001715" lon="11.9151317"><ele>208.0</ele><time>2026-04-07T12:34:09.728Z</time></trkpt><trkpt lat="44.0015567" lon="11.9149467"><ele>208.0</ele><time>2026-04-07T12:34:10.731Z</time></trkpt><trkpt lat="44.001385" lon="11.914775"><ele>205.33333333333331</ele><time>2026-04-07T12:34:11.73Z</time></trkpt><trkpt lat="44.0012083" lon="11.9146133"><ele>202.66666666666669</ele><time>2026-04-07T12:34:12.731Z</time></trkpt><trkpt lat="44.001035" lon="11.9144583"><ele>200.0</ele><time>2026-04-07T12:34:13.731Z</time></trkpt><trkpt lat="44.0008733" lon="11.91431"><ele>204.0</ele><time>2026-04-07T12:34:14.731Z</time></trkpt><trkpt lat="44.0007183" lon="11.914175"><ele>208.0</ele><time>2026-04-07T12:34:15.73Z</time></trkpt><trkpt lat="44.0005617" lon="11.9140617"><ele>212.0</ele><time>2026-04-07T12:34:16.729Z</time></trkpt><trkpt lat="44.0003917" lon="11.91398"><ele>212.0</ele><time>2026-04-07T12:34:17.73Z</time></trkpt><trkpt lat="44.0002133" lon="11.91393"><ele>212.0</ele><time>2026-04-07T12:34:18.73Z</time></trkpt><trkpt lat="44.000035" lon="11.9138933"><ele>212.0</ele><time>2026-04-07T12:34:19.731Z</time></trkpt><trkpt lat="43.9998583" lon="11.9138583"><ele>212.0</ele><time>2026-04-07T12:34:20.728Z</time></trkpt><trkpt lat="43.9996883" lon="11.91382"><ele>212.0</ele><time>2026-04-07T12:34:21.727Z</time></trkpt><trkpt lat="43.999525" lon="11.9137867"><ele>212.0</ele><time>2026-04-07T12:34:22.729Z</time></trkpt><trkpt lat="43.9993667" lon="11.9137567"><ele>212.0</ele><time>2026-04-07T12:34:23.731Z</time></trkpt><trkpt lat="43.9992083" lon="11.913725"><ele>212.0</ele><time>2026-04-07T12:34:24.731Z</time></trkpt><trkpt lat="43.9990533" lon="11.9136883"><ele>212.0</ele><time>2026-04-07T12:34:25.73Z</time></trkpt><trkpt lat="43.9988967" lon="11.9136517"><ele>213.66666666666669</ele><time>2026-04-07T12:34:26.73Z</time></trkpt><trkpt lat="43.9987417" lon="11.9136133"><ele>215.33333333333331</ele><time>2026-04-07T12:34:27.73Z</time></trkpt><trkpt lat="43.9985883" lon="11.9135717"><ele>217.0</ele><time>2026-04-07T12:34:28.729Z</time></trkpt><trkpt lat="43.99844" lon="11.9135367"><ele>217.75</ele><time>2026-04-07T12:34:29.73Z</time></trkpt><trkpt lat="43.9982983" lon="11.913505"><ele>218.5</ele><time>2026-04-07T12:34:30.729Z</time></trkpt><trkpt lat="43.99816" lon="11.913475"><ele>219.25</ele><time>2026-04-07T12:34:31.731Z</time></trkpt><trkpt lat="43.9980217" lon="11.913445"><ele>220.0</ele><time>2026-04-07T12:34:32.732Z</time></trkpt><trkpt lat="43.997885" lon="11.9134133"><ele>221.0</ele><time>2026-04-07T12:34:33.73Z</time></trkpt><trkpt lat="43.9977467" lon="11.9133817"><ele>222.0</ele><time>2026-04-07T12:34:34.73Z</time></trkpt><trkpt lat="43.99761" lon="11.91335"><ele>223.0</ele><time>2026-04-07T12:34:35.73Z</time></trkpt><trkpt lat="43.9974683" lon="11.9133167"><ele>224.0</ele><time>2026-04-07T12:34:36.726Z</time></trkpt><trkpt lat="43.9973267" lon="11.9132867"><ele>225.0</ele><time>2026-04-07T12:34:37.731Z</time></trkpt><trkpt lat="43.9971867" lon="11.9132567"><ele>226.0</ele><time>2026-04-07T12:34:38.731Z</time></trkpt><trkpt lat="43.9970533" lon="11.913225"><ele>227.0</ele><time>2026-04-07T12:34:39.728Z</time></trkpt><trkpt lat="43.99693" lon="11.9131983"><ele>228.0</ele><time>2026-04-07T12:34:40.731Z</time></trkpt><trkpt lat="43.99682" lon="11.9131717"><ele>228.0</ele><time>2026-04-07T12:34:41.731Z</time></trkpt><trkpt lat="43.996725" lon="11.9131333"><ele>228.0</ele><time>2026-04-07T12:34:42.731Z</time></trkpt><trkpt lat="43.99665" lon="11.91306"><ele>228.0</ele><time>2026-04-07T12:34:43.731Z</time></trkpt><trkpt lat="43.9965967" lon="11.912955"><ele>228.0</ele><time>2026-04-07T12:34:44.73Z</time></trkpt><trkpt lat="43.9965633" lon="11.91282"><ele>228.0</ele><time>2026-04-07T12:34:45.73Z</time></trkpt><trkpt lat="43.99655" lon="11.9126733"><ele>229.25</ele><time>2026-04-07T12:34:46.727Z</time></trkpt><trkpt lat="43.9965467" lon="11.9125233"><ele>230.5</ele><time>2026-04-07T12:34:47.73Z</time></trkpt><trkpt lat="43.9965533" lon="11.9123683"><ele>231.75</ele><time>2026-04-07T12:34:48.728Z</time></trkpt><trkpt lat="43.99656" lon="11.912205"><ele>233.0</ele><time>2026-04-07T12:34:49.729Z</time></trkpt><trkpt lat="43.99659" lon="11.9120517"><ele>233.0</ele><time>2026-04-07T12:34:50.729Z</time></trkpt><trkpt lat="43.996605" lon="11.9118883"><ele>233.0</ele><time>2026-04-07T12:34:51.73Z</time></trkpt><trkpt lat="43.99663" lon="11.91173"><ele>233.0</ele><time>2026-04-07T12:34:52.729Z</time></trkpt><trkpt lat="43.9966583" lon="11.9115733"><ele>233.0</ele><time>2026-04-07T12:34:53.731Z</time></trkpt><trkpt lat="43.9966783" lon="11.9114117"><ele>233.5</ele><time>2026-04-07T12:34:54.731Z</time></trkpt><trkpt lat="43.9966983" lon="11.911245"><ele>234.0</ele><time>2026-04-07T12:34:55.73Z</time></trkpt><trkpt lat="43.99672" lon="11.9110817"><ele>234.5</ele><time>2026-04-07T12:34:56.731Z</time></trkpt><trkpt lat="43.9967383" lon="11.9109267"><ele>235.0</ele><time>2026-04-07T12:34:57.728Z</time></trkpt><trkpt lat="43.996755" lon="11.9107817"><ele>235.0</ele><time>2026-04-07T12:34:58.728Z</time></trkpt><trkpt lat="43.9967567" lon="11.9106483"><ele>235.0</ele><time>2026-04-07T12:34:59.731Z</time></trkpt><trkpt lat="43.9967267" lon="11.910515"><ele>235.0</ele><time>2026-04-07T12:35:00.731Z</time></trkpt><trkpt lat="43.99667" lon="11.9103917"><ele>235.0</ele><time>2026-04-07T12:35:01.727Z</time></trkpt><trkpt lat="43.9965833" lon="11.9102883"><ele>235.0</ele><time>2026-04-07T12:35:02.728Z</time></trkpt><trkpt lat="43.9964783" lon="11.9101967"><ele>235.25</ele><time>2026-04-07T12:35:03.729Z</time></trkpt><trkpt lat="43.9963633" lon="11.9101033"><ele>235.5</ele><time>2026-04-07T12:35:04.731Z</time></trkpt><trkpt lat="43.9962433" lon="11.91"><ele>235.75</ele><time>2026-04-07T12:35:05.727Z</time></trkpt><trkpt lat="43.9961133" lon="11.9098933"><ele>236.0</ele><time>2026-04-07T12:35:06.728Z</time></trkpt><trkpt lat="43.9959783" lon="11.90978"><ele>236.33333333333334</ele><time>2026-04-07T12:35:07.729Z</time></trkpt><trkpt lat="43.9958383" lon="11.90966"><ele>236.66666666666669</ele><time>2026-04-07T12:35:08.729Z</time></trkpt><trkpt lat="43.9956967" lon="11.909535"><ele>237.0</ele><time>2026-04-07T12:35:09.729Z</time></trkpt><trkpt lat="43.99554" lon="11.9094083"><ele>237.0</ele><time>2026-04-07T12:35:10.73Z</time></trkpt><trkpt lat="43.9953767" lon="11.909275"><ele>237.0</ele><time>2026-04-07T12:35:11.731Z</time></trkpt><trkpt lat="43.9952167" lon="11.9091317"><ele>237.0</ele><time>2026-04-07T12:35:12.73Z</time></trkpt><trkpt lat="43.995055" lon="11.9089883"><ele>237.66666666666669</ele><time>2026-04-07T12:35:13.732Z</time></trkpt><trkpt lat="43.9948867" lon="11.90884"><ele>238.33333333333334</ele><time>2026-04-07T12:35:14.73Z</time></trkpt><trkpt lat="43.9947167" lon="11.90869"><ele>239.0</ele><time>2026-04-07T12:35:15.73Z</time></trkpt><trkpt lat="43.9945383" lon="11.90854"><ele>239.66666666666669</ele><time>2026-04-07T12:35:16.727Z</time></trkpt><trkpt lat="43.99435" lon="11.908395"><ele>240.33333333333331</ele><time>2026-04-07T12:35:17.73Z</time></trkpt><trkpt lat="43.9941517" lon="11.9082517"><ele>241.0</ele><time>2026-04-07T12:35:18.728Z</time></trkpt><trkpt lat="43.9939467" lon="11.908125"><ele>241.33333333333331</ele><time>2026-04-07T12:35:19.727Z</time></trkpt><trkpt lat="43.9937483" lon="11.90801"><ele>241.66666666666669</ele><time>2026-04-07T12:35:20.727Z</time></trkpt><trkpt lat="43.993555" lon="11.9079033"><ele>242.0</ele><time>2026-04-07T12:35:21.729Z</time></trkpt><trkpt lat="43.9933633" lon="11.907805"><ele>241.0</ele><time>2026-04-07T12:35:22.728Z</time></trkpt><trkpt lat="43.993175" lon="11.907705"><ele>240.0</ele><time>2026-04-07T12:35:23.73Z</time></trkpt><trkpt lat="43.99299" lon="11.9076033"><ele>239.0</ele><time>2026-04-07T12:35:24.731Z</time></trkpt><trkpt lat="43.9928" lon="11.9075017"><ele>242.0</ele><time>2026-04-07T12:35:25.73Z</time></trkpt><trkpt lat="43.9926217" lon="11.907405"><ele>245.0</ele><time>2026-04-07T12:35:26.73Z</time></trkpt><trkpt lat="43.9924467" lon="11.907315"><ele>248.0</ele><time>2026-04-07T12:35:27.731Z</time></trkpt><trkpt lat="43.9922733" lon="11.9072317"><ele>248.0</ele><time>2026-04-07T12:35:28.73Z</time></trkpt><trkpt lat="43.9921" lon="11.9071517"><ele>248.0</ele><time>2026-04-07T12:35:29.731Z</time></trkpt><trkpt lat="43.991925" lon="11.907075"><ele>248.0</ele><time>2026-04-07T12:35:30.727Z</time></trkpt><trkpt lat="43.9917483" lon="11.90701"><ele>247.0</ele><time>2026-04-07T12:35:31.731Z</time></trkpt><trkpt lat="43.9915683" lon="11.9069567"><ele>246.0</ele><time>2026-04-07T12:35:32.728Z</time></trkpt><trkpt lat="43.9913817" lon="11.9069267"><ele>245.0</ele><time>2026-04-07T12:35:33.729Z</time></trkpt><trkpt lat="43.9911917" lon="11.9069167"><ele>245.0</ele><time>2026-04-07T12:35:34.728Z</time></trkpt><trkpt lat="43.991" lon="11.9069183"><ele>245.0</ele><time>2026-04-07T12:35:35.729Z</time></trkpt><trkpt lat="43.990805" lon="11.9069267"><ele>245.0</ele><time>2026-04-07T12:35:36.728Z</time></trkpt><trkpt lat="43.9906033" lon="11.906935"><ele>247.0</ele><time>2026-04-07T12:35:37.73Z</time></trkpt><trkpt lat="43.9904017" lon="11.9069383"><ele>249.0</ele><time>2026-04-07T12:35:38.729Z</time></trkpt><trkpt lat="43.990205" lon="11.906935"><ele>251.0</ele><time>2026-04-07T12:35:39.73Z</time></trkpt><trkpt lat="43.9900067" lon="11.9069317"><ele>252.33333333333334</ele><time>2026-04-07T12:35:40.73Z</time></trkpt><trkpt lat="43.9898033" lon="11.9069267"><ele>253.66666666666669</ele><time>2026-04-07T12:35:41.727Z</time></trkpt><trkpt lat="43.9896033" lon="11.9069167"><ele>255.0</ele><time>2026-04-07T12:35:42.73Z</time></trkpt><trkpt lat="43.9894017" lon="11.9069033"><ele>255.0</ele><time>2026-04-07T12:35:43.732Z</time></trkpt><trkpt lat="43.9891967" lon="11.90688"><ele>255.0</ele><time>2026-04-07T12:35:44.731Z</time></trkpt><trkpt lat="43.9889917" lon="11.9068517"><ele>255.0</ele><time>2026-04-07T12:35:45.731Z</time></trkpt><trkpt lat="43.9887867" lon="11.906825"><ele>254.33333333333331</ele><time>2026-04-07T12:35:46.73Z</time></trkpt><trkpt lat="43.98859" lon="11.9067983"><ele>253.66666666666666</ele><time>2026-04-07T12:35:47.731Z</time></trkpt><trkpt lat="43.988405" lon="11.9067717"><ele>253.0</ele><time>2026-04-07T12:35:48.731Z</time></trkpt><trkpt lat="43.98823" lon="11.9067383"><ele>253.66666666666666</ele><time>2026-04-07T12:35:49.732Z</time></trkpt><trkpt lat="43.98806" lon="11.906715"><ele>254.33333333333331</ele><time>2026-04-07T12:35:50.731Z</time></trkpt><trkpt lat="43.987895" lon="11.9067183"><ele>255.0</ele><time>2026-04-07T12:35:51.731Z</time></trkpt><trkpt lat="43.98774" lon="11.9067467"><ele>255.0</ele><time>2026-04-07T12:35:52.732Z</time></trkpt><trkpt lat="43.987595" lon="11.9067617"><ele>255.0</ele><time>2026-04-07T12:35:53.731Z</time></trkpt><trkpt lat="43.9874583" lon="11.9067467"><ele>255.0</ele><time>2026-04-07T12:35:54.73Z</time></trkpt><trkpt lat="43.9873333" lon="11.906745"><ele>255.0</ele><time>2026-04-07T12:35:55.732Z</time></trkpt><trkpt lat="43.9872167" lon="11.906775"><ele>255.0</ele><time>2026-04-07T12:35:56.731Z</time></trkpt><trkpt lat="43.987095" lon="11.9068"><ele>255.0</ele><time>2026-04-07T12:35:57.728Z</time></trkpt><trkpt lat="43.98697" lon="11.906765"><ele>255.0</ele><time>2026-04-07T12:35:58.732Z</time></trkpt><trkpt lat="43.98684" lon="11.906685"><ele>255.0</ele><time>2026-04-07T12:35:59.728Z</time></trkpt><trkpt lat="43.986695" lon="11.90661"><ele>256.6666666666667</ele><time>2026-04-07T12:36:00.727Z</time></trkpt><trkpt lat="43.9865267" lon="11.90656"><ele>258.33333333333337</ele><time>2026-04-07T12:36:01.728Z</time></trkpt><trkpt lat="43.986345" lon="11.9065267"><ele>260.0</ele><time>2026-04-07T12:36:02.73Z</time></trkpt><trkpt lat="43.9861583" lon="11.9065033"><ele>260.0</ele><time>2026-04-07T12:36:03.73Z</time></trkpt><trkpt lat="43.9859633" lon="11.906475"><ele>260.0</ele><time>2026-04-07T12:36:04.728Z</time></trkpt><trkpt lat="43.98576" lon="11.9064417"><ele>260.0</ele><time>2026-04-07T12:36:05.729Z</time></trkpt><trkpt lat="43.985555" lon="11.9064067"><ele>260.33333333333337</ele><time>2026-04-07T12:36:06.73Z</time></trkpt><trkpt lat="43.9853533" lon="11.9063683"><ele>260.6666666666667</ele><time>2026-04-07T12:36:07.731Z</time></trkpt><trkpt lat="43.9851533" lon="11.9063333"><ele>261.0</ele><time>2026-04-07T12:36:08.73Z</time></trkpt><trkpt lat="43.984955" lon="11.9062967"><ele>261.0</ele><time>2026-04-07T12:36:09.73Z</time></trkpt><trkpt lat="43.98476" lon="11.9062567"><ele>261.0</ele><time>2026-04-07T12:36:10.73Z</time></trkpt><trkpt lat="43.9845633" lon="11.906215"><ele>261.0</ele><time>2026-04-07T12:36:11.729Z</time></trkpt><trkpt lat="43.984365" lon="11.90618"><ele>260.6666666666667</ele><time>2026-04-07T12:36:12.729Z</time></trkpt><trkpt lat="43.9841733" lon="11.906145"><ele>260.33333333333337</ele><time>2026-04-07T12:36:13.731Z</time></trkpt><trkpt lat="43.9839933" lon="11.9061033"><ele>260.0</ele><time>2026-04-07T12:36:14.73Z</time></trkpt><trkpt lat="43.9838283" lon="11.906025"><ele>264.33333333333337</ele><time>2026-04-07T12:36:15.729Z</time></trkpt><trkpt lat="43.9836717" lon="11.9059033"><ele>268.6666666666667</ele><time>2026-04-07T12:36:16.729Z</time></trkpt><trkpt lat="43.9835233" lon="11.90575"><ele>273.0</ele><time>2026-04-07T12:36:17.73Z</time></trkpt><trkpt lat="43.9833783" lon="11.9055717"><ele>268.6666666666667</ele><time>2026-04-07T12:36:18.729Z</time></trkpt><trkpt lat="43.9832333" lon="11.9053833"><ele>264.33333333333337</ele><time>2026-04-07T12:36:19.73Z</time></trkpt><trkpt lat="43.9830833" lon="11.9052033"><ele>260.0</ele><time>2026-04-07T12:36:20.729Z</time></trkpt><trkpt lat="43.982925" lon="11.9050417"><ele>263.0</ele><time>2026-04-07T12:36:21.73Z</time></trkpt><trkpt lat="43.98276" lon="11.9048967"><ele>266.0</ele><time>2026-04-07T12:36:22.73Z</time></trkpt><trkpt lat="43.9825883" lon="11.9047667"><ele>269.0</ele><time>2026-04-07T12:36:23.729Z</time></trkpt><trkpt lat="43.9824167" lon="11.90464"><ele>269.0</ele><time>2026-04-07T12:36:24.729Z</time></trkpt><trkpt lat="43.98225" lon="11.9045117"><ele>269.0</ele><time>2026-04-07T12:36:25.73Z</time></trkpt><trkpt lat="43.9820767" lon="11.9043833"><ele>269.0</ele><time>2026-04-07T12:36:26.73Z</time></trkpt><trkpt lat="43.981905" lon="11.9042517"><ele>272.33333333333337</ele><time>2026-04-07T12:36:27.73Z</time></trkpt><trkpt lat="43.9817317" lon="11.90413"><ele>275.6666666666667</ele><time>2026-04-07T12:36:28.73Z</time></trkpt><trkpt lat="43.9815567" lon="11.9040333"><ele>279.0</ele><time>2026-04-07T12:36:29.728Z</time></trkpt><trkpt lat="43.981385" lon="11.9039633"><ele>279.0</ele><time>2026-04-07T12:36:30.73Z</time></trkpt><trkpt lat="43.9812233" lon="11.9039033"><ele>279.0</ele><time>2026-04-07T12:36:31.731Z</time></trkpt><trkpt lat="43.981075" lon="11.90386"><ele>279.0</ele><time>2026-04-07T12:36:32.729Z</time></trkpt><trkpt lat="43.9809417" lon="11.903845"><ele>278.25</ele><time>2026-04-07T12:36:33.729Z</time></trkpt><trkpt lat="43.98082" lon="11.903865"><ele>277.5</ele><time>2026-04-07T12:36:34.73Z</time></trkpt><trkpt lat="43.9807017" lon="11.90392"><ele>276.75</ele><time>2026-04-07T12:36:35.73Z</time></trkpt><trkpt lat="43.9805883" lon="11.904005"><ele>276.0</ele><time>2026-04-07T12:36:36.729Z</time></trkpt><trkpt lat="43.9804833" lon="11.9040933"><ele>276.0</ele><time>2026-04-07T12:36:37.73Z</time></trkpt><trkpt lat="43.98038" lon="11.9041733"><ele>276.0</ele><time>2026-04-07T12:36:38.731Z</time></trkpt><trkpt lat="43.9802617" lon="11.9042433"><ele>276.0</ele><time>2026-04-07T12:36:39.729Z</time></trkpt><trkpt lat="43.98013" lon="11.904295"><ele>276.0</ele><time>2026-04-07T12:36:40.729Z</time></trkpt><trkpt lat="43.97999" lon="11.9043167"><ele>277.75</ele><time>2026-04-07T12:36:41.732Z</time></trkpt><trkpt lat="43.9798533" lon="11.90432"><ele>279.5</ele><time>2026-04-07T12:36:42.73Z</time></trkpt><trkpt lat="43.9797133" lon="11.904305"><ele>281.25</ele><time>2026-04-07T12:36:43.73Z</time></trkpt><trkpt lat="43.9795733" lon="11.9042817"><ele>283.0</ele><time>2026-04-07T12:36:44.731Z</time></trkpt><trkpt lat="43.979435" lon="11.9042433"><ele>283.0</ele><time>2026-04-07T12:36:45.729Z</time></trkpt><trkpt lat="43.979295" lon="11.90419"><ele>283.0</ele><time>2026-04-07T12:36:46.728Z</time></trkpt><trkpt lat="43.9791533" lon="11.9041233"><ele>283.0</ele><time>2026-04-07T12:36:47.729Z</time></trkpt><trkpt lat="43.9790067" lon="11.904045"><ele>280.5</ele><time>2026-04-07T12:36:48.731Z</time></trkpt><trkpt lat="43.9788633" lon="11.9039567"><ele>278.0</ele><time>2026-04-07T12:36:49.73Z</time></trkpt><trkpt lat="43.9787267" lon="11.9038667"><ele>275.5</ele><time>2026-04-07T12:36:50.73Z</time></trkpt><trkpt lat="43.9785983" lon="11.903785"><ele>273.0</ele><time>2026-04-07T12:36:51.73Z</time></trkpt><trkpt lat="43.978465" lon="11.9037283"><ele>271.3333333333333</ele><time>2026-04-07T12:36:52.73Z</time></trkpt><trkpt lat="43.9783233" lon="11.9037033"><ele>269.66666666666663</ele><time>2026-04-07T12:36:53.731Z</time></trkpt><trkpt lat="43.978165" lon="11.90372"><ele>268.0</ele><time>2026-04-07T12:36:54.73Z</time></trkpt><trkpt lat="43.9779833" lon="11.903765"><ele>268.0</ele><time>2026-04-07T12:36:55.731Z</time></trkpt><trkpt lat="43.9777817" lon="11.9038217"><ele>268.0</ele><time>2026-04-07T12:36:56.73Z</time></trkpt><trkpt lat="43.9775717" lon="11.9038733"><ele>268.0</ele><time>2026-04-07T12:36:57.729Z</time></trkpt><trkpt lat="43.97736" lon="11.9039233"><ele>267.66666666666663</ele><time>2026-04-07T12:36:58.727Z</time></trkpt><trkpt lat="43.9771533" lon="11.9039667"><ele>267.3333333333333</ele><time>2026-04-07T12:36:59.73Z</time></trkpt><trkpt lat="43.976955" lon="11.9040267"><ele>267.0</ele><time>2026-04-07T12:37:00.729Z</time></trkpt><trkpt lat="43.9767667" lon="11.9040817"><ele>267.3333333333333</ele><time>2026-04-07T12:37:01.728Z</time></trkpt><trkpt lat="43.9765833" lon="11.9041333"><ele>267.66666666666663</ele><time>2026-04-07T12:37:02.729Z</time></trkpt><trkpt lat="43.9764017" lon="11.90419"><ele>268.0</ele><time>2026-04-07T12:37:03.729Z</time></trkpt><trkpt lat="43.976225" lon="11.904245"><ele>265.66666666666663</ele><time>2026-04-07T12:37:04.729Z</time></trkpt><trkpt lat="43.9760517" lon="11.904295"><ele>263.3333333333333</ele><time>2026-04-07T12:37:05.729Z</time></trkpt><trkpt lat="43.9758867" lon="11.904345"><ele>261.0</ele><time>2026-04-07T12:37:06.728Z</time></trkpt><trkpt lat="43.975725" lon="11.9043933"><ele>261.0</ele><time>2026-04-07T12:37:07.729Z</time></trkpt><trkpt lat="43.9755667" lon="11.90444"><ele>261.0</ele><time>2026-04-07T12:37:08.728Z</time></trkpt><trkpt lat="43.97541" lon="11.9044833"><ele>261.0</ele><time>2026-04-07T12:37:09.727Z</time></trkpt><trkpt lat="43.97525" lon="11.9045267"><ele>261.0</ele><time>2026-04-07T12:37:10.729Z</time></trkpt><trkpt lat="43.9750883" lon="11.904575"><ele>261.0</ele><time>2026-04-07T12:37:11.729Z</time></trkpt><trkpt lat="43.9749233" lon="11.9046367"><ele>261.0</ele><time>2026-04-07T12:37:12.729Z</time></trkpt><trkpt lat="43.9747517" lon="11.9047167"><ele>261.6666666666667</ele><time>2026-04-07T12:37:13.729Z</time></trkpt><trkpt lat="43.9745667" lon="11.9048133"><ele>262.33333333333337</ele><time>2026-04-07T12:37:14.731Z</time></trkpt><trkpt lat="43.9743733" lon="11.90492"><ele>263.0</ele><time>2026-04-07T12:37:15.73Z</time></trkpt><trkpt lat="43.9741717" lon="11.9050333"><ele>258.0</ele><time>2026-04-07T12:37:16.726Z</time></trkpt><trkpt lat="43.9739633" lon="11.905155"><ele>253.0</ele><time>2026-04-07T12:37:17.726Z</time></trkpt><trkpt lat="43.973745" lon="11.905285"><ele>253.0</ele><time>2026-04-07T12:37:18.727Z</time></trkpt><trkpt lat="43.973525" lon="11.90542"><ele>253.0</ele><time>2026-04-07T12:37:19.726Z</time></trkpt><trkpt lat="43.9733133" lon="11.90556"><ele>254.5</ele><time>2026-04-07T12:37:20.726Z</time></trkpt><trkpt lat="43.9731067" lon="11.9057117"><ele>256.0</ele><time>2026-04-07T12:37:21.726Z</time></trkpt><trkpt lat="43.97291" lon="11.9058883"><ele>250.5</ele><time>2026-04-07T12:37:22.727Z</time></trkpt><trkpt lat="43.9727233" lon="11.9060767"><ele>245.0</ele><time>2026-04-07T12:37:23.726Z</time></trkpt><trkpt lat="43.9725483" lon="11.90626"><ele>244.66666666666669</ele><time>2026-04-07T12:37:24.727Z</time></trkpt><trkpt lat="43.97238" lon="11.906435"><ele>244.33333333333331</ele><time>2026-04-07T12:37:25.727Z</time></trkpt><trkpt lat="43.9722133" lon="11.906605"><ele>244.0</ele><time>2026-04-07T12:37:26.727Z</time></trkpt><trkpt lat="43.972055" lon="11.9067667"><ele>244.0</ele><time>2026-04-07T12:37:27.727Z</time></trkpt><trkpt lat="43.971895" lon="11.9069017"><ele>244.0</ele><time>2026-04-07T12:37:28.726Z</time></trkpt><trkpt lat="43.97172" lon="11.9070017"><ele>244.0</ele><time>2026-04-07T12:37:29.727Z</time></trkpt><trkpt lat="43.9715267" lon="11.9070617"><ele>245.66666666666666</ele><time>2026-04-07T12:37:30.731Z</time></trkpt><trkpt lat="43.9713167" lon="11.90708"><ele>247.33333333333331</ele><time>2026-04-07T12:37:31.73Z</time></trkpt><trkpt lat="43.971095" lon="11.9070733"><ele>249.0</ele><time>2026-04-07T12:37:32.73Z</time></trkpt><trkpt lat="43.9708717" lon="11.90707"><ele>250.66666666666669</ele><time>2026-04-07T12:37:33.73Z</time></trkpt><trkpt lat="43.9706517" lon="11.9070933"><ele>252.33333333333334</ele><time>2026-04-07T12:37:34.73Z</time></trkpt><trkpt lat="43.9704367" lon="11.90715"><ele>254.0</ele><time>2026-04-07T12:37:35.73Z</time></trkpt><trkpt lat="43.9702267" lon="11.9072317"><ele>256.0</ele><time>2026-04-07T12:37:36.731Z</time></trkpt><trkpt lat="43.9700183" lon="11.9073333"><ele>258.0</ele><time>2026-04-07T12:37:37.731Z</time></trkpt><trkpt lat="43.9698083" lon="11.907455"><ele>260.0</ele><time>2026-04-07T12:37:38.73Z</time></trkpt><trkpt lat="43.9696017" lon="11.907585"><ele>259.5</ele><time>2026-04-07T12:37:39.73Z</time></trkpt><trkpt lat="43.9693867" lon="11.9076967"><ele>259.0</ele><time>2026-04-07T12:37:40.73Z</time></trkpt><trkpt lat="43.9691617" lon="11.9077967"><ele>259.0</ele><time>2026-04-07T12:37:41.73Z</time></trkpt><trkpt lat="43.9689367" lon="11.9078867"><ele>259.0</ele><time>2026-04-07T12:37:42.73Z</time></trkpt><trkpt lat="43.9687283" lon="11.9079733"><ele>259.0</ele><time>2026-04-07T12:37:43.73Z</time></trkpt><trkpt lat="43.9685433" lon="11.90805"><ele>259.0</ele><time>2026-04-07T12:37:44.726Z</time></trkpt><trkpt lat="43.9683617" lon="11.908105"><ele>259.0</ele><time>2026-04-07T12:37:45.73Z</time></trkpt><trkpt lat="43.9681733" lon="11.9081233"><ele>261.3333333333333</ele><time>2026-04-07T12:37:46.729Z</time></trkpt><trkpt lat="43.9679917" lon="11.908125"><ele>263.6666666666667</ele><time>2026-04-07T12:37:47.729Z</time></trkpt><trkpt lat="43.967815" lon="11.9081617"><ele>266.0</ele><time>2026-04-07T12:37:48.73Z</time></trkpt><trkpt lat="43.9676367" lon="11.908255"><ele>267.0</ele><time>2026-04-07T12:37:49.731Z</time></trkpt><trkpt lat="43.96746" lon="11.9083933"><ele>268.0</ele><time>2026-04-07T12:37:50.729Z</time></trkpt><trkpt lat="43.9672767" lon="11.908545"><ele>269.0</ele><time>2026-04-07T12:37:51.73Z</time></trkpt><trkpt lat="43.9670867" lon="11.9087033"><ele>269.0</ele><time>2026-04-07T12:37:52.729Z</time></trkpt><trkpt lat="43.9668983" lon="11.9088683"><ele>269.0</ele><time>2026-04-07T12:37:53.729Z</time></trkpt><trkpt lat="43.96672" lon="11.909025"><ele>269.0</ele><time>2026-04-07T12:37:54.729Z</time></trkpt><trkpt lat="43.966555" lon="11.9091667"><ele>265.6666666666667</ele><time>2026-04-07T12:37:55.73Z</time></trkpt><trkpt lat="43.9664" lon="11.90929"><ele>262.3333333333333</ele><time>2026-04-07T12:37:56.73Z</time></trkpt><trkpt lat="43.9662517" lon="11.90938"><ele>259.0</ele><time>2026-04-07T12:37:57.729Z</time></trkpt><trkpt lat="43.966095" lon="11.909425"><ele>259.0</ele><time>2026-04-07T12:37:58.73Z</time></trkpt><trkpt lat="43.96592" lon="11.9094217"><ele>259.0</ele><time>2026-04-07T12:37:59.731Z</time></trkpt><trkpt lat="43.9657517" lon="11.9093867"><ele>259.0</ele><time>2026-04-07T12:38:00.729Z</time></trkpt><trkpt lat="43.965595" lon="11.9093517"><ele>256.66666666666663</ele><time>2026-04-07T12:38:01.73Z</time></trkpt><trkpt lat="43.965435" lon="11.90932"><ele>254.33333333333331</ele><time>2026-04-07T12:38:02.73Z</time></trkpt><trkpt lat="43.96526" lon="11.909265"><ele>252.0</ele><time>2026-04-07T12:38:03.731Z</time></trkpt><trkpt lat="43.9650667" lon="11.9091883"><ele>254.66666666666669</ele><time>2026-04-07T12:38:04.73Z</time></trkpt><trkpt lat="43.96486" lon="11.909115"><ele>257.33333333333337</ele><time>2026-04-07T12:38:05.73Z</time></trkpt><trkpt lat="43.964645" lon="11.909065"><ele>260.0</ele><time>2026-04-07T12:38:06.729Z</time></trkpt><trkpt lat="43.9644183" lon="11.9090417"><ele>259.33333333333337</ele><time>2026-04-07T12:38:07.731Z</time></trkpt><trkpt lat="43.9641883" lon="11.9090417"><ele>258.6666666666667</ele><time>2026-04-07T12:38:08.731Z</time></trkpt><trkpt lat="43.96397" lon="11.9090517"><ele>258.0</ele><time>2026-04-07T12:38:09.73Z</time></trkpt><trkpt lat="43.9637633" lon="11.90904"><ele>258.0</ele><time>2026-04-07T12:38:10.73Z</time></trkpt><trkpt lat="43.9635567" lon="11.908985"><ele>258.0</ele><time>2026-04-07T12:38:11.731Z</time></trkpt><trkpt lat="43.9633433" lon="11.9089067"><ele>258.0</ele><time>2026-04-07T12:38:12.727Z</time></trkpt><trkpt lat="43.963135" lon="11.908825"><ele>258.6666666666667</ele><time>2026-04-07T12:38:13.728Z</time></trkpt><trkpt lat="43.9629383" lon="11.9087683"><ele>259.33333333333337</ele><time>2026-04-07T12:38:14.731Z</time></trkpt><trkpt lat="43.9627433" lon="11.908765"><ele>260.0</ele><time>2026-04-07T12:38:15.729Z</time></trkpt><trkpt lat="43.9625367" lon="11.9088183"><ele>262.5</ele><time>2026-04-07T12:38:16.73Z</time></trkpt><trkpt lat="43.962325" lon="11.90892"><ele>265.0</ele><time>2026-04-07T12:38:17.729Z</time></trkpt><trkpt lat="43.9621167" lon="11.90906"><ele>265.0</ele><time>2026-04-07T12:38:18.731Z</time></trkpt><trkpt lat="43.9619133" lon="11.9092367"><ele>265.0</ele><time>2026-04-07T12:38:19.731Z</time></trkpt><trkpt lat="43.9617167" lon="11.9094417"><ele>262.5</ele><time>2026-04-07T12:38:20.731Z</time></trkpt><trkpt lat="43.9615267" lon="11.909665"><ele>260.0</ele><time>2026-04-07T12:38:21.727Z</time></trkpt><trkpt lat="43.9613383" lon="11.909905"><ele>256.0</ele><time>2026-04-07T12:38:22.73Z</time></trkpt><trkpt lat="43.96115" lon="11.91015"><ele>252.0</ele><time>2026-04-07T12:38:23.727Z</time></trkpt><trkpt lat="43.9609633" lon="11.9103833"><ele>256.0</ele><time>2026-04-07T12:38:24.728Z</time></trkpt><trkpt lat="43.9607867" lon="11.910605"><ele>260.0</ele><time>2026-04-07T12:38:25.729Z</time></trkpt><trkpt lat="43.9606167" lon="11.9108083"><ele>257.6666666666667</ele><time>2026-04-07T12:38:26.73Z</time></trkpt><trkpt lat="43.9604617" lon="11.9109967"><ele>255.33333333333331</ele><time>2026-04-07T12:38:27.73Z</time></trkpt><trkpt lat="43.9603117" lon="11.91117"><ele>253.0</ele><time>2026-04-07T12:38:28.727Z</time></trkpt><trkpt lat="43.9601667" lon="11.9113133"><ele>254.66666666666666</ele><time>2026-04-07T12:38:29.729Z</time></trkpt><trkpt lat="43.9600083" lon="11.9114133"><ele>256.3333333333333</ele><time>2026-04-07T12:38:30.728Z</time></trkpt><trkpt lat="43.95982" lon="11.9114633"><ele>258.0</ele><time>2026-04-07T12:38:31.73Z</time></trkpt><trkpt lat="43.959605" lon="11.9114633"><ele>258.0</ele><time>2026-04-07T12:38:32.729Z</time></trkpt><trkpt lat="43.9593883" lon="11.9114317"><ele>258.0</ele><time>2026-04-07T12:38:33.73Z</time></trkpt><trkpt lat="43.9591617" lon="11.9113983"><ele>258.0</ele><time>2026-04-07T12:38:34.73Z</time></trkpt><trkpt lat="43.9589317" lon="11.9113783"><ele>259.0</ele><time>2026-04-07T12:38:35.731Z</time></trkpt><trkpt lat="43.9587083" lon="11.9113867"><ele>260.0</ele><time>2026-04-07T12:38:36.731Z</time></trkpt><trkpt lat="43.9584917" lon="11.91143"><ele>261.0</ele><time>2026-04-07T12:38:37.73Z</time></trkpt><trkpt lat="43.9582783" lon="11.91151"><ele>262.6666666666667</ele><time>2026-04-07T12:38:38.729Z</time></trkpt><trkpt lat="43.9580767" lon="11.9115883"><ele>264.33333333333337</ele><time>2026-04-07T12:38:39.731Z</time></trkpt><trkpt lat="43.9578767" lon="11.911645"><ele>266.0</ele><time>2026-04-07T12:38:40.73Z</time></trkpt><trkpt lat="43.9576783" lon="11.9116667"><ele>266.33333333333337</ele><time>2026-04-07T12:38:41.729Z</time></trkpt><trkpt lat="43.95748" lon="11.9116733"><ele>266.6666666666667</ele><time>2026-04-07T12:38:42.73Z</time></trkpt><trkpt lat="43.9572883" lon="11.9116533"><ele>267.0</ele><time>2026-04-07T12:38:43.727Z</time></trkpt><trkpt lat="43.9570983" lon="11.9116167"><ele>267.0</ele><time>2026-04-07T12:38:44.731Z</time></trkpt><trkpt lat="43.9569033" lon="11.9115583"><ele>267.0</ele><time>2026-04-07T12:38:45.731Z</time></trkpt><trkpt lat="43.9567" lon="11.9114983"><ele>267.0</ele><time>2026-04-07T12:38:46.729Z</time></trkpt><trkpt lat="43.95649" lon="11.9114417"><ele>266.6666666666667</ele><time>2026-04-07T12:38:47.73Z</time></trkpt><trkpt lat="43.9562817" lon="11.911385"><ele>266.33333333333337</ele><time>2026-04-07T12:38:48.731Z</time></trkpt><trkpt lat="43.9560733" lon="11.911325"><ele>266.0</ele><time>2026-04-07T12:38:49.731Z</time></trkpt><trkpt lat="43.9558617" lon="11.9112633"><ele>265.6666666666667</ele><time>2026-04-07T12:38:50.73Z</time></trkpt><trkpt lat="43.95565" lon="11.9112067"><ele>265.3333333333333</ele><time>2026-04-07T12:38:51.731Z</time></trkpt><trkpt lat="43.9554333" lon="11.9111483"><ele>265.0</ele><time>2026-04-07T12:38:52.73Z</time></trkpt><trkpt lat="43.9552133" lon="11.91109"><ele>264.66666666666663</ele><time>2026-04-07T12:38:53.731Z</time></trkpt><trkpt lat="43.9549967" lon="11.9110333"><ele>264.3333333333333</ele><time>2026-04-07T12:38:54.731Z</time></trkpt><trkpt lat="43.95478" lon="11.910975"><ele>264.0</ele><time>2026-04-07T12:38:55.731Z</time></trkpt><trkpt lat="43.9545633" lon="11.9109167"><ele>266.0</ele><time>2026-04-07T12:38:56.729Z</time></trkpt><trkpt lat="43.9543467" lon="11.9108567"><ele>268.0</ele><time>2026-04-07T12:38:57.731Z</time></trkpt><trkpt lat="43.95413" lon="11.9108"><ele>270.0</ele><time>2026-04-07T12:38:58.73Z</time></trkpt><trkpt lat="43.953915" lon="11.9107433"><ele>271.0</ele><time>2026-04-07T12:38:59.731Z</time></trkpt><trkpt lat="43.9537017" lon="11.9106883"><ele>272.0</ele><time>2026-04-07T12:39:00.729Z</time></trkpt><trkpt lat="43.9534883" lon="11.9106317"><ele>273.0</ele><time>2026-04-07T12:39:01.73Z</time></trkpt><trkpt lat="43.9532783" lon="11.910575"><ele>273.3333333333333</ele><time>2026-04-07T12:39:02.73Z</time></trkpt><trkpt lat="43.95308" lon="11.9105217"><ele>273.66666666666663</ele><time>2026-04-07T12:39:03.73Z</time></trkpt><trkpt lat="43.9529017" lon="11.9104767"><ele>274.0</ele><time>2026-04-07T12:39:04.73Z</time></trkpt><trkpt lat="43.9527483" lon="11.9104283"><ele>274.0</ele><time>2026-04-07T12:39:05.73Z</time></trkpt><trkpt lat="43.9526167" lon="11.9103633"><ele>274.0</ele><time>2026-04-07T12:39:06.73Z</time></trkpt><trkpt lat="43.9525117" lon="11.9102783"><ele>274.0</ele><time>2026-04-07T12:39:07.732Z</time></trkpt><trkpt lat="43.9524217" lon="11.9102017"><ele>274.0</ele><time>2026-04-07T12:39:08.728Z</time></trkpt><trkpt lat="43.9523367" lon="11.9101667"><ele>274.0</ele><time>2026-04-07T12:39:09.73Z</time></trkpt><trkpt lat="43.9522433" lon="11.910175"><ele>274.0</ele><time>2026-04-07T12:39:10.73Z</time></trkpt><trkpt lat="43.95214" lon="11.910205"><ele>274.0</ele><time>2026-04-07T12:39:11.73Z</time></trkpt><trkpt lat="43.9520233" lon="11.91022"><ele>274.0</ele><time>2026-04-07T12:39:12.731Z</time></trkpt><trkpt lat="43.9518883" lon="11.910205"><ele>274.0</ele><time>2026-04-07T12:39:13.73Z</time></trkpt><trkpt lat="43.9517383" lon="11.91017"><ele>274.0</ele><time>2026-04-07T12:39:14.73Z</time></trkpt><trkpt lat="43.95158" lon="11.9101217"><ele>274.0</ele><time>2026-04-07T12:39:15.73Z</time></trkpt><trkpt lat="43.95142" lon="11.9100783"><ele>275.0</ele><time>2026-04-07T12:39:16.73Z</time></trkpt><trkpt lat="43.9512533" lon="11.9100367"><ele>276.0</ele><time>2026-04-07T12:39:17.728Z</time></trkpt><trkpt lat="43.951075" lon="11.9099917"><ele>277.0</ele><time>2026-04-07T12:39:18.729Z</time></trkpt><trkpt lat="43.95089" lon="11.9099433"><ele>277.3333333333333</ele><time>2026-04-07T12:39:19.727Z</time></trkpt><trkpt lat="43.9507" lon="11.9098933"><ele>277.6666666666667</ele><time>2026-04-07T12:39:20.727Z</time></trkpt><trkpt lat="43.9505133" lon="11.9098483"><ele>278.0</ele><time>2026-04-07T12:39:21.728Z</time></trkpt><trkpt lat="43.95033" lon="11.9098033"><ele>278.0</ele><time>2026-04-07T12:39:22.729Z</time></trkpt><trkpt lat="43.9501567" lon="11.9097567"><ele>278.0</ele><time>2026-04-07T12:39:23.729Z</time></trkpt><trkpt lat="43.949995" lon="11.9097083"><ele>278.0</ele><time>2026-04-07T12:39:24.729Z</time></trkpt><trkpt lat="43.9498417" lon="11.9096567"><ele>278.33333333333337</ele><time>2026-04-07T12:39:25.728Z</time></trkpt><trkpt lat="43.9496933" lon="11.9095817"><ele>278.6666666666667</ele><time>2026-04-07T12:39:26.73Z</time></trkpt><trkpt lat="43.94956" lon="11.9094683"><ele>279.0</ele><time>2026-04-07T12:39:27.728Z</time></trkpt><trkpt lat="43.9494383" lon="11.909325"><ele>280.25</ele><time>2026-04-07T12:39:28.732Z</time></trkpt><trkpt lat="43.94934" lon="11.9091683"><ele>281.5</ele><time>2026-04-07T12:39:29.731Z</time></trkpt><trkpt lat="43.9492667" lon="11.9089933"><ele>282.75</ele><time>2026-04-07T12:39:30.73Z</time></trkpt><trkpt lat="43.9492167" lon="11.908795"><ele>284.0</ele><time>2026-04-07T12:39:31.732Z</time></trkpt><trkpt lat="43.9491817" lon="11.90858"><ele>281.6666666666667</ele><time>2026-04-07T12:39:32.73Z</time></trkpt><trkpt lat="43.9491367" lon="11.9083567"><ele>279.3333333333333</ele><time>2026-04-07T12:39:33.73Z</time></trkpt><trkpt lat="43.9490733" lon="11.9081383"><ele>277.0</ele><time>2026-04-07T12:39:34.731Z</time></trkpt><trkpt lat="43.9489867" lon="11.9079417"><ele>277.0</ele><time>2026-04-07T12:39:35.731Z</time></trkpt><trkpt lat="43.94889" lon="11.9077733"><ele>277.0</ele><time>2026-04-07T12:39:36.731Z</time></trkpt><trkpt lat="43.9487883" lon="11.907625"><ele>277.0</ele><time>2026-04-07T12:39:37.727Z</time></trkpt><trkpt lat="43.9486767" lon="11.9074967"><ele>277.0</ele><time>2026-04-07T12:39:38.731Z</time></trkpt><trkpt lat="43.948555" lon="11.90738"><ele>275.0</ele><time>2026-04-07T12:39:39.731Z</time></trkpt><trkpt lat="43.948425" lon="11.9072733"><ele>273.0</ele><time>2026-04-07T12:39:40.731Z</time></trkpt><trkpt lat="43.9482967" lon="11.9071833"><ele>271.0</ele><time>2026-04-07T12:39:41.73Z</time></trkpt><trkpt lat="43.9481767" lon="11.907125"><ele>269.0</ele><time>2026-04-07T12:39:42.731Z</time></trkpt><trkpt lat="43.9480633" lon="11.9071033"><ele>269.0</ele><time>2026-04-07T12:39:43.731Z</time></trkpt><trkpt lat="43.9479533" lon="11.9071217"><ele>269.0</ele><time>2026-04-07T12:39:44.727Z</time></trkpt><trkpt lat="43.94785" lon="11.90717"><ele>269.0</ele><time>2026-04-07T12:39:45.73Z</time></trkpt><trkpt lat="43.9477583" lon="11.9072533"><ele>269.0</ele><time>2026-04-07T12:39:46.731Z</time></trkpt><trkpt lat="43.9476817" lon="11.9073733"><ele>269.0</ele><time>2026-04-07T12:39:47.727Z</time></trkpt><trkpt lat="43.9476233" lon="11.9075117"><ele>267.59999999999997</ele><time>2026-04-07T12:39:48.727Z</time></trkpt><trkpt lat="43.9475717" lon="11.90764"><ele>266.2</ele><time>2026-04-07T12:39:49.73Z</time></trkpt><trkpt lat="43.9475267" lon="11.90777"><ele>264.79999999999995</ele><time>2026-04-07T12:39:50.728Z</time></trkpt><trkpt lat="43.9474817" lon="11.9078933"><ele>263.4</ele><time>2026-04-07T12:39:51.729Z</time></trkpt><trkpt lat="43.947435" lon="11.9080083"><ele>262.0</ele><time>2026-04-07T12:39:52.73Z</time></trkpt><trkpt lat="43.9473817" lon="11.90812"><ele>261.0</ele><time>2026-04-07T12:39:53.729Z</time></trkpt><trkpt lat="43.9473283" lon="11.90823"><ele>260.0</ele><time>2026-04-07T12:39:54.729Z</time></trkpt><trkpt lat="43.9472817" lon="11.9083433"><ele>259.0</ele><time>2026-04-07T12:39:55.729Z</time></trkpt><trkpt lat="43.9472433" lon="11.9084617"><ele>258.0</ele><time>2026-04-07T12:39:56.729Z</time></trkpt><trkpt lat="43.9472033" lon="11.9085867"><ele>257.0</ele><time>2026-04-07T12:39:57.73Z</time></trkpt><trkpt lat="43.9471567" lon="11.9086967"><ele>256.6666666666667</ele><time>2026-04-07T12:39:58.732Z</time></trkpt><trkpt lat="43.94711" lon="11.9087967"><ele>256.33333333333337</ele><time>2026-04-07T12:39:59.731Z</time></trkpt><trkpt lat="43.9470683" lon="11.9088917"><ele>256.0</ele><time>2026-04-07T12:40:00.73Z</time></trkpt><trkpt lat="43.9470283" lon="11.9089783"><ele>255.66666666666669</ele><time>2026-04-07T12:40:01.728Z</time></trkpt><trkpt lat="43.946985" lon="11.9090667"><ele>255.33333333333334</ele><time>2026-04-07T12:40:02.729Z</time></trkpt><trkpt lat="43.9469383" lon="11.9091533"><ele>255.0</ele><time>2026-04-07T12:40:03.731Z</time></trkpt><trkpt lat="43.9468933" lon="11.909245"><ele>255.0</ele><time>2026-04-07T12:40:04.727Z</time></trkpt><trkpt lat="43.9468483" lon="11.909345"><ele>255.0</ele><time>2026-04-07T12:40:05.729Z</time></trkpt><trkpt lat="43.9468" lon="11.9094433"><ele>255.0</ele><time>2026-04-07T12:40:06.73Z</time></trkpt><trkpt lat="43.946755" lon="11.9095367"><ele>255.0</ele><time>2026-04-07T12:40:07.731Z</time></trkpt><trkpt lat="43.946705" lon="11.9096333"><ele>255.0</ele><time>2026-04-07T12:40:08.731Z</time></trkpt><trkpt lat="43.9466483" lon="11.9097217"><ele>255.0</ele><time>2026-04-07T12:40:09.726Z</time></trkpt><trkpt lat="43.9465267" lon="11.9098583"><ele>256.0</ele><time>2026-04-07T12:40:11.728Z</time></trkpt><trkpt lat="43.9464583" lon="11.9099083"><ele>257.0</ele><time>2026-04-07T12:40:12.73Z</time></trkpt><trkpt lat="43.9463883" lon="11.9099467"><ele>258.0</ele><time>2026-04-07T12:40:13.729Z</time></trkpt><trkpt lat="43.94632" lon="11.909965"><ele>259.0</ele><time>2026-04-07T12:40:14.73Z</time></trkpt><trkpt lat="43.94625" lon="11.9099483"><ele>260.0</ele><time>2026-04-07T12:40:15.731Z</time></trkpt><trkpt lat="43.946185" lon="11.9098967"><ele>261.0</ele><time>2026-04-07T12:40:16.727Z</time></trkpt><trkpt lat="43.9461183" lon="11.9098217"><ele>261.0</ele><time>2026-04-07T12:40:17.731Z</time></trkpt><trkpt lat="43.946035" lon="11.9097133"><ele>261.0</ele><time>2026-04-07T12:40:18.729Z</time></trkpt><trkpt lat="43.9459383" lon="11.9096083"><ele>261.0</ele><time>2026-04-07T12:40:19.728Z</time></trkpt><trkpt lat="43.9458483" lon="11.9094983"><ele>261.0</ele><time>2026-04-07T12:40:20.729Z</time></trkpt><trkpt lat="43.945745" lon="11.9093767"><ele>260.0</ele><time>2026-04-07T12:40:21.729Z</time></trkpt><trkpt lat="43.945645" lon="11.9092417"><ele>259.0</ele><time>2026-04-07T12:40:22.728Z</time></trkpt><trkpt lat="43.94553" lon="11.9091083"><ele>258.0</ele><time>2026-04-07T12:40:23.73Z</time></trkpt><trkpt lat="43.9454183" lon="11.9089733"><ele>257.0</ele><time>2026-04-07T12:40:24.728Z</time></trkpt><trkpt lat="43.9453033" lon="11.9088367"><ele>257.0</ele><time>2026-04-07T12:40:25.729Z</time></trkpt><trkpt lat="43.9451833" lon="11.9087"><ele>257.0</ele><time>2026-04-07T12:40:26.728Z</time></trkpt><trkpt lat="43.94506" lon="11.90856"><ele>257.0</ele><time>2026-04-07T12:40:27.729Z</time></trkpt><trkpt lat="43.9449267" lon="11.9084067"><ele>257.0</ele><time>2026-04-07T12:40:28.729Z</time></trkpt><trkpt lat="43.94479" lon="11.90825"><ele>257.0</ele><time>2026-04-07T12:40:29.731Z</time></trkpt><trkpt lat="43.9446517" lon="11.9080933"><ele>257.0</ele><time>2026-04-07T12:40:30.728Z</time></trkpt><trkpt lat="43.9445133" lon="11.9079317"><ele>257.0</ele><time>2026-04-07T12:40:31.731Z</time></trkpt><trkpt lat="43.9443733" lon="11.90777"><ele>257.0</ele><time>2026-04-07T12:40:32.73Z</time></trkpt><trkpt lat="43.9442367" lon="11.9076117"><ele>257.0</ele><time>2026-04-07T12:40:33.729Z</time></trkpt><trkpt lat="43.9441117" lon="11.9074617"><ele>257.5</ele><time>2026-04-07T12:40:34.732Z</time></trkpt><trkpt lat="43.9439967" lon="11.90732"><ele>258.0</ele><time>2026-04-07T12:40:35.731Z</time></trkpt><trkpt lat="43.9438917" lon="11.907185"><ele>258.5</ele><time>2026-04-07T12:40:36.731Z</time></trkpt><trkpt lat="43.943805" lon="11.9070633"><ele>259.0</ele><time>2026-04-07T12:40:37.73Z</time></trkpt><trkpt lat="43.9437483" lon="11.906955"><ele>259.0</ele><time>2026-04-07T12:40:38.731Z</time></trkpt><trkpt lat="43.943725" lon="11.9068483"><ele>259.0</ele><time>2026-04-07T12:40:39.731Z</time></trkpt><trkpt lat="43.94373" lon="11.9067333"><ele>259.0</ele><time>2026-04-07T12:40:40.731Z</time></trkpt><trkpt lat="43.9437517" lon="11.906605"><ele>259.0</ele><time>2026-04-07T12:40:41.731Z</time></trkpt><trkpt lat="43.943775" lon="11.906465"><ele>259.0</ele><time>2026-04-07T12:40:42.73Z</time></trkpt><trkpt lat="43.94379" lon="11.90633"><ele>259.2</ele><time>2026-04-07T12:40:43.73Z</time></trkpt><trkpt lat="43.943805" lon="11.9062"><ele>259.4</ele><time>2026-04-07T12:40:44.731Z</time></trkpt><trkpt lat="43.94382" lon="11.9060733"><ele>259.6</ele><time>2026-04-07T12:40:45.732Z</time></trkpt><trkpt lat="43.9438183" lon="11.9059467"><ele>259.8</ele><time>2026-04-07T12:40:46.728Z</time></trkpt><trkpt lat="43.943795" lon="11.905825"><ele>260.0</ele><time>2026-04-07T12:40:47.728Z</time></trkpt><trkpt lat="43.9437567" lon="11.9057217"><ele>260.0</ele><time>2026-04-07T12:40:48.729Z</time></trkpt><trkpt lat="43.9436867" lon="11.9056383"><ele>260.0</ele><time>2026-04-07T12:40:49.73Z</time></trkpt><trkpt lat="43.94358" lon="11.9055667"><ele>260.0</ele><time>2026-04-07T12:40:50.729Z</time></trkpt><trkpt lat="43.9434467" lon="11.9055"><ele>260.0</ele><time>2026-04-07T12:40:51.729Z</time></trkpt><trkpt lat="43.943305" lon="11.9054233"><ele>259.6666666666667</ele><time>2026-04-07T12:40:52.729Z</time></trkpt><trkpt lat="43.9431617" lon="11.90534"><ele>259.3333333333333</ele><time>2026-04-07T12:40:53.728Z</time></trkpt><trkpt lat="43.943015" lon="11.90525"><ele>259.0</ele><time>2026-04-07T12:40:54.729Z</time></trkpt><trkpt lat="43.94286" lon="11.9051667"><ele>261.0</ele><time>2026-04-07T12:40:55.729Z</time></trkpt><trkpt lat="43.9427067" lon="11.90507"><ele>263.0</ele><time>2026-04-07T12:40:56.729Z</time></trkpt><trkpt lat="43.9425583" lon="11.9049567"><ele>265.0</ele><time>2026-04-07T12:40:57.729Z</time></trkpt><trkpt lat="43.9424117" lon="11.9048333"><ele>265.0</ele><time>2026-04-07T12:40:58.73Z</time></trkpt><trkpt lat="43.942265" lon="11.904695"><ele>265.0</ele><time>2026-04-07T12:40:59.731Z</time></trkpt><trkpt lat="43.9421183" lon="11.9045417"><ele>265.0</ele><time>2026-04-07T12:41:00.73Z</time></trkpt><trkpt lat="43.9419717" lon="11.904375"><ele>267.0</ele><time>2026-04-07T12:41:01.73Z</time></trkpt><trkpt lat="43.9418183" lon="11.9042017"><ele>269.0</ele><time>2026-04-07T12:41:02.73Z</time></trkpt><trkpt lat="43.9416617" lon="11.9040267"><ele>271.0</ele><time>2026-04-07T12:41:03.73Z</time></trkpt><trkpt lat="43.9414983" lon="11.90385"><ele>271.0</ele><time>2026-04-07T12:41:04.731Z</time></trkpt><trkpt lat="43.9413333" lon="11.9036683"><ele>271.0</ele><time>2026-04-07T12:41:05.731Z</time></trkpt><trkpt lat="43.9411733" lon="11.9034817"><ele>271.0</ele><time>2026-04-07T12:41:06.73Z</time></trkpt><trkpt lat="43.9410033" lon="11.9032967"><ele>272.3333333333333</ele><time>2026-04-07T12:41:07.731Z</time></trkpt><trkpt lat="43.9408417" lon="11.9031083"><ele>273.6666666666667</ele><time>2026-04-07T12:41:08.731Z</time></trkpt><trkpt lat="43.940675" lon="11.9029233"><ele>275.0</ele><time>2026-04-07T12:41:09.73Z</time></trkpt><trkpt lat="43.9405083" lon="11.90274"><ele>276.0</ele><time>2026-04-07T12:41:10.73Z</time></trkpt><trkpt lat="43.9403417" lon="11.9025567"><ele>277.0</ele><time>2026-04-07T12:41:11.73Z</time></trkpt><trkpt lat="43.9401783" lon="11.9023683"><ele>278.0</ele><time>2026-04-07T12:41:12.73Z</time></trkpt><trkpt lat="43.940015" lon="11.9021817"><ele>278.0</ele><time>2026-04-07T12:41:13.73Z</time></trkpt><trkpt lat="43.939855" lon="11.9020033"><ele>278.0</ele><time>2026-04-07T12:41:14.73Z</time></trkpt><trkpt lat="43.9396983" lon="11.901825"><ele>278.0</ele><time>2026-04-07T12:41:15.731Z</time></trkpt><trkpt lat="43.93954" lon="11.9016467"><ele>278.33333333333337</ele><time>2026-04-07T12:41:16.727Z</time></trkpt><trkpt lat="43.9393833" lon="11.9014667"><ele>278.6666666666667</ele><time>2026-04-07T12:41:17.73Z</time></trkpt><trkpt lat="43.93923" lon="11.901285"><ele>279.0</ele><time>2026-04-07T12:41:18.729Z</time></trkpt><trkpt lat="43.9390717" lon="11.901105"><ele>279.0</ele><time>2026-04-07T12:41:19.729Z</time></trkpt><trkpt lat="43.938915" lon="11.9009167"><ele>279.0</ele><time>2026-04-07T12:41:20.731Z</time></trkpt><trkpt lat="43.938765" lon="11.900715"><ele>279.0</ele><time>2026-04-07T12:41:21.73Z</time></trkpt><trkpt lat="43.938625" lon="11.900495"><ele>280.3333333333333</ele><time>2026-04-07T12:41:22.729Z</time></trkpt><trkpt lat="43.9384933" lon="11.9002617"><ele>281.66666666666663</ele><time>2026-04-07T12:41:23.73Z</time></trkpt><trkpt lat="43.938365" lon="11.90002"><ele>283.0</ele><time>2026-04-07T12:41:24.73Z</time></trkpt><trkpt lat="43.9382417" lon="11.8997717"><ele>283.66666666666663</ele><time>2026-04-07T12:41:25.731Z</time></trkpt><trkpt lat="43.9381217" lon="11.8995183"><ele>284.3333333333333</ele><time>2026-04-07T12:41:26.731Z</time></trkpt><trkpt lat="43.9380083" lon="11.89926"><ele>285.0</ele><time>2026-04-07T12:41:27.731Z</time></trkpt><trkpt lat="43.9379" lon="11.8990083"><ele>287.3333333333333</ele><time>2026-04-07T12:41:28.73Z</time></trkpt><trkpt lat="43.93779" lon="11.898775"><ele>289.66666666666663</ele><time>2026-04-07T12:41:29.73Z</time></trkpt><trkpt lat="43.937665" lon="11.89857"><ele>292.0</ele><time>2026-04-07T12:41:30.73Z</time></trkpt><trkpt lat="43.93752" lon="11.8983817"><ele>293.3333333333333</ele><time>2026-04-07T12:41:31.728Z</time></trkpt><trkpt lat="43.9373683" lon="11.8982167"><ele>294.6666666666667</ele><time>2026-04-07T12:41:32.731Z</time></trkpt><trkpt lat="43.9372267" lon="11.8980683"><ele>296.0</ele><time>2026-04-07T12:41:33.732Z</time></trkpt><trkpt lat="43.9370917" lon="11.8979383"><ele>296.0</ele><time>2026-04-07T12:41:34.731Z</time></trkpt><trkpt lat="43.9369667" lon="11.8978333"><ele>296.0</ele><time>2026-04-07T12:41:35.731Z</time></trkpt><trkpt lat="43.9368433" lon="11.8977533"><ele>296.0</ele><time>2026-04-07T12:41:36.731Z</time></trkpt><trkpt lat="43.9367217" lon="11.8976983"><ele>296.0</ele><time>2026-04-07T12:41:37.732Z</time></trkpt><trkpt lat="43.9366017" lon="11.8976667"><ele>295.25</ele><time>2026-04-07T12:41:38.73Z</time></trkpt><trkpt lat="43.9364817" lon="11.8976617"><ele>294.5</ele><time>2026-04-07T12:41:39.731Z</time></trkpt><trkpt lat="43.93636" lon="11.8976733"><ele>293.75</ele><time>2026-04-07T12:41:40.73Z</time></trkpt><trkpt lat="43.9362383" lon="11.8976833"><ele>293.0</ele><time>2026-04-07T12:41:41.731Z</time></trkpt><trkpt lat="43.9361183" lon="11.8976683"><ele>293.0</ele><time>2026-04-07T12:41:42.732Z</time></trkpt><trkpt lat="43.9359933" lon="11.8976167"><ele>293.0</ele><time>2026-04-07T12:41:43.73Z</time></trkpt><trkpt lat="43.9358683" lon="11.8975283"><ele>293.0</ele><time>2026-04-07T12:41:44.73Z</time></trkpt><trkpt lat="43.9357417" lon="11.89741"><ele>293.0</ele><time>2026-04-07T12:41:45.73Z</time></trkpt><trkpt lat="43.935625" lon="11.8972833"><ele>294.0</ele><time>2026-04-07T12:41:46.727Z</time></trkpt><trkpt lat="43.9355167" lon="11.897165"><ele>295.0</ele><time>2026-04-07T12:41:47.729Z</time></trkpt><trkpt lat="43.9354083" lon="11.8970533"><ele>296.0</ele><time>2026-04-07T12:41:48.73Z</time></trkpt><trkpt lat="43.9353" lon="11.8969433"><ele>297.0</ele><time>2026-04-07T12:41:49.729Z</time></trkpt><trkpt lat="43.9352" lon="11.8968317"><ele>298.0</ele><time>2026-04-07T12:41:50.729Z</time></trkpt><trkpt lat="43.9351067" lon="11.8967133"><ele>299.0</ele><time>2026-04-07T12:41:51.729Z</time></trkpt><trkpt lat="43.9350217" lon="11.8965833"><ele>300.0</ele><time>2026-04-07T12:41:52.73Z</time></trkpt><trkpt lat="43.934945" lon="11.8964367"><ele>301.0</ele><time>2026-04-07T12:41:53.73Z</time></trkpt><trkpt lat="43.934885" lon="11.896275"><ele>301.0</ele><time>2026-04-07T12:41:54.732Z</time></trkpt><trkpt lat="43.934835" lon="11.8961033"><ele>301.0</ele><time>2026-04-07T12:41:55.73Z</time></trkpt><trkpt lat="43.9347983" lon="11.8959267"><ele>301.0</ele><time>2026-04-07T12:41:56.731Z</time></trkpt><trkpt lat="43.9347717" lon="11.89575"><ele>301.0</ele><time>2026-04-07T12:41:57.73Z</time></trkpt><trkpt lat="43.9347583" lon="11.8955717"><ele>302.75</ele><time>2026-04-07T12:41:58.731Z</time></trkpt><trkpt lat="43.9347467" lon="11.8953917"><ele>304.5</ele><time>2026-04-07T12:41:59.73Z</time></trkpt><trkpt lat="43.9347383" lon="11.8952183"><ele>306.25</ele><time>2026-04-07T12:42:00.731Z</time></trkpt><trkpt lat="43.9347367" lon="11.8950517"><ele>308.0</ele><time>2026-04-07T12:42:01.73Z</time></trkpt><trkpt lat="43.9347467" lon="11.89488"><ele>308.25</ele><time>2026-04-07T12:42:02.731Z</time></trkpt><trkpt lat="43.93477" lon="11.89469"><ele>308.5</ele><time>2026-04-07T12:42:03.73Z</time></trkpt><trkpt lat="43.9348083" lon="11.89449"><ele>308.75</ele><time>2026-04-07T12:42:04.731Z</time></trkpt><trkpt lat="43.9348317" lon="11.8942983"><ele>309.0</ele><time>2026-04-07T12:42:05.73Z</time></trkpt><trkpt lat="43.9348183" lon="11.8941217"><ele>309.0</ele><time>2026-04-07T12:42:06.729Z</time></trkpt><trkpt lat="43.93475" lon="11.8939583"><ele>309.0</ele><time>2026-04-07T12:42:07.731Z</time></trkpt><trkpt lat="43.934635" lon="11.8938067"><ele>309.0</ele><time>2026-04-07T12:42:08.731Z</time></trkpt><trkpt lat="43.9344933" lon="11.89366"><ele>309.0</ele><time>2026-04-07T12:42:09.731Z</time></trkpt><trkpt lat="43.9343417" lon="11.8935"><ele>309.0</ele><time>2026-04-07T12:42:10.731Z</time></trkpt><trkpt lat="43.93419" lon="11.8933367"><ele>309.0</ele><time>2026-04-07T12:42:11.73Z</time></trkpt><trkpt lat="43.93407" lon="11.893175"><ele>309.5</ele><time>2026-04-07T12:42:12.73Z</time></trkpt><trkpt lat="43.9339867" lon="11.8930117"><ele>310.0</ele><time>2026-04-07T12:42:13.73Z</time></trkpt><trkpt lat="43.93394" lon="11.892825"><ele>310.5</ele><time>2026-04-07T12:42:14.731Z</time></trkpt><trkpt lat="43.93392" lon="11.892615"><ele>311.0</ele><time>2026-04-07T12:42:15.73Z</time></trkpt><trkpt lat="43.9338883" lon="11.892405"><ele>313.0</ele><time>2026-04-07T12:42:16.732Z</time></trkpt><trkpt lat="43.9338267" lon="11.8922067"><ele>315.0</ele><time>2026-04-07T12:42:17.731Z</time></trkpt><trkpt lat="43.9337117" lon="11.8920233"><ele>317.0</ele><time>2026-04-07T12:42:18.73Z</time></trkpt><trkpt lat="43.93357" lon="11.8918417"><ele>316.33333333333337</ele><time>2026-04-07T12:42:19.73Z</time></trkpt><trkpt lat="43.9334233" lon="11.8916617"><ele>315.6666666666667</ele><time>2026-04-07T12:42:20.731Z</time></trkpt><trkpt lat="43.9332783" lon="11.89148"><ele>315.0</ele><time>2026-04-07T12:42:21.731Z</time></trkpt><trkpt lat="43.93313" lon="11.8913033"><ele>315.0</ele><time>2026-04-07T12:42:22.73Z</time></trkpt><trkpt lat="43.9329817" lon="11.8911517"><ele>315.0</ele><time>2026-04-07T12:42:23.732Z</time></trkpt><trkpt lat="43.9328117" lon="11.89104"><ele>315.0</ele><time>2026-04-07T12:42:24.73Z</time></trkpt><trkpt lat="43.9326183" lon="11.8909483"><ele>316.3333333333333</ele><time>2026-04-07T12:42:25.731Z</time></trkpt><trkpt lat="43.9324217" lon="11.890845"><ele>317.66666666666663</ele><time>2026-04-07T12:42:26.731Z</time></trkpt><trkpt lat="43.932235" lon="11.8907133"><ele>319.0</ele><time>2026-04-07T12:42:27.731Z</time></trkpt><trkpt lat="43.9320583" lon="11.8905417"><ele>319.0</ele><time>2026-04-07T12:42:28.73Z</time></trkpt><trkpt lat="43.9318917" lon="11.8903433"><ele>319.0</ele><time>2026-04-07T12:42:29.731Z</time></trkpt><trkpt lat="43.9317167" lon="11.8901333"><ele>318.5</ele><time>2026-04-07T12:42:30.732Z</time></trkpt><trkpt lat="43.9315433" lon="11.8899267"><ele>318.0</ele><time>2026-04-07T12:42:31.73Z</time></trkpt><trkpt lat="43.9313733" lon="11.8897267"><ele>318.0</ele><time>2026-04-07T12:42:32.728Z</time></trkpt><trkpt lat="43.9312" lon="11.8895583"><ele>318.0</ele><time>2026-04-07T12:42:33.729Z</time></trkpt><trkpt lat="43.9310183" lon="11.8894183"><ele>318.0</ele><time>2026-04-07T12:42:34.73Z</time></trkpt><trkpt lat="43.9308467" lon="11.8893133"><ele>318.5</ele><time>2026-04-07T12:42:35.731Z</time></trkpt><trkpt lat="43.9307017" lon="11.889235"><ele>319.0</ele><time>2026-04-07T12:42:36.732Z</time></trkpt><trkpt lat="43.9305733" lon="11.8891633"><ele>319.5</ele><time>2026-04-07T12:42:37.731Z</time></trkpt><trkpt lat="43.9304567" lon="11.889085"><ele>320.0</ele><time>2026-04-07T12:42:38.731Z</time></trkpt><trkpt lat="43.9303483" lon="11.8890017"><ele>320.0</ele><time>2026-04-07T12:42:39.731Z</time></trkpt><trkpt lat="43.930255" lon="11.8889083"><ele>320.0</ele><time>2026-04-07T12:42:40.731Z</time></trkpt><trkpt lat="43.93016" lon="11.888805"><ele>320.0</ele><time>2026-04-07T12:42:41.73Z</time></trkpt><trkpt lat="43.93005" lon="11.8886833"><ele>320.0</ele><time>2026-04-07T12:42:42.731Z</time></trkpt><trkpt lat="43.9299267" lon="11.8885467"><ele>320.6666666666667</ele><time>2026-04-07T12:42:43.732Z</time></trkpt><trkpt lat="43.9297933" lon="11.88838"><ele>321.3333333333333</ele><time>2026-04-07T12:42:44.731Z</time></trkpt><trkpt lat="43.929655" lon="11.8882017"><ele>322.0</ele><time>2026-04-07T12:42:45.732Z</time></trkpt><trkpt lat="43.9295117" lon="11.888025"><ele>322.0</ele><time>2026-04-07T12:42:46.731Z</time></trkpt><trkpt lat="43.929355" lon="11.8878467"><ele>322.0</ele><time>2026-04-07T12:42:47.731Z</time></trkpt><trkpt lat="43.9291917" lon="11.8876633"><ele>322.0</ele><time>2026-04-07T12:42:48.732Z</time></trkpt><trkpt lat="43.92903" lon="11.8874733"><ele>324.3333333333333</ele><time>2026-04-07T12:42:49.731Z</time></trkpt><trkpt lat="43.9288767" lon="11.8872933"><ele>326.6666666666667</ele><time>2026-04-07T12:42:50.73Z</time></trkpt><trkpt lat="43.928745" lon="11.8871133"><ele>329.0</ele><time>2026-04-07T12:42:51.731Z</time></trkpt><trkpt lat="43.928635" lon="11.8869083"><ele>332.6666666666667</ele><time>2026-04-07T12:42:52.73Z</time></trkpt><trkpt lat="43.9285433" lon="11.8866683"><ele>336.3333333333333</ele><time>2026-04-07T12:42:53.731Z</time></trkpt><trkpt lat="43.9284667" lon="11.8864033"><ele>340.0</ele><time>2026-04-07T12:42:54.73Z</time></trkpt><trkpt lat="43.9284017" lon="11.8861183"><ele>334.0</ele><time>2026-04-07T12:42:55.732Z</time></trkpt><trkpt lat="43.928355" lon="11.8858267"><ele>328.0</ele><time>2026-04-07T12:42:56.73Z</time></trkpt><trkpt lat="43.9283133" lon="11.8855383"><ele>322.0</ele><time>2026-04-07T12:42:57.73Z</time></trkpt><trkpt lat="43.928255" lon="11.885255"><ele>328.0</ele><time>2026-04-07T12:42:58.731Z</time></trkpt><trkpt lat="43.92817" lon="11.884975"><ele>334.0</ele><time>2026-04-07T12:42:59.731Z</time></trkpt><trkpt lat="43.9280667" lon="11.8846967"><ele>340.0</ele><time>2026-04-07T12:43:00.73Z</time></trkpt><trkpt lat="43.9279483" lon="11.8844333"><ele>334.0</ele><time>2026-04-07T12:43:01.731Z</time></trkpt><trkpt lat="43.9278167" lon="11.8842"><ele>328.0</ele><time>2026-04-07T12:43:02.731Z</time></trkpt><trkpt lat="43.9276583" lon="11.883995"><ele>322.0</ele><time>2026-04-07T12:43:03.73Z</time></trkpt><trkpt lat="43.9274833" lon="11.8838017"><ele>322.0</ele><time>2026-04-07T12:43:04.732Z</time></trkpt><trkpt lat="43.9273067" lon="11.883595"><ele>322.0</ele><time>2026-04-07T12:43:05.731Z</time></trkpt><trkpt lat="43.92713" lon="11.883375"><ele>322.3333333333333</ele><time>2026-04-07T12:43:06.731Z</time></trkpt><trkpt lat="43.92696" lon="11.8831583"><ele>322.6666666666667</ele><time>2026-04-07T12:43:07.728Z</time></trkpt><trkpt lat="43.9268067" lon="11.88295"><ele>323.0</ele><time>2026-04-07T12:43:08.731Z</time></trkpt><trkpt lat="43.9266583" lon="11.8827583"><ele>327.6666666666667</ele><time>2026-04-07T12:43:09.73Z</time></trkpt><trkpt lat="43.9265133" lon="11.88258"><ele>332.3333333333333</ele><time>2026-04-07T12:43:10.732Z</time></trkpt><trkpt lat="43.9263717" lon="11.8823917"><ele>337.0</ele><time>2026-04-07T12:43:11.731Z</time></trkpt><trkpt lat="43.9262367" lon="11.8821983"><ele>337.0</ele><time>2026-04-07T12:43:12.731Z</time></trkpt><trkpt lat="43.9261067" lon="11.8819983"><ele>337.0</ele><time>2026-04-07T12:43:13.731Z</time></trkpt><trkpt lat="43.9259833" lon="11.8818017"><ele>337.0</ele><time>2026-04-07T12:43:14.732Z</time></trkpt><trkpt lat="43.9258733" lon="11.8816083"><ele>334.3333333333333</ele><time>2026-04-07T12:43:15.73Z</time></trkpt><trkpt lat="43.92578" lon="11.88141"><ele>331.6666666666667</ele><time>2026-04-07T12:43:16.73Z</time></trkpt><trkpt lat="43.9256983" lon="11.8811983"><ele>329.0</ele><time>2026-04-07T12:43:17.73Z</time></trkpt><trkpt lat="43.925615" lon="11.8809883"><ele>334.0</ele><time>2026-04-07T12:43:18.731Z</time></trkpt><trkpt lat="43.9255283" lon="11.880775"><ele>339.0</ele><time>2026-04-07T12:43:19.732Z</time></trkpt><trkpt lat="43.9254433" lon="11.88056"><ele>344.0</ele><time>2026-04-07T12:43:20.731Z</time></trkpt><trkpt lat="43.9253633" lon="11.8803417"><ele>344.0</ele><time>2026-04-07T12:43:21.73Z</time></trkpt><trkpt lat="43.925285" lon="11.8801233"><ele>344.0</ele><time>2026-04-07T12:43:22.731Z</time></trkpt><trkpt lat="43.9252067" lon="11.8799017"><ele>344.0</ele><time>2026-04-07T12:43:23.73Z</time></trkpt><trkpt lat="43.9251333" lon="11.8796733"><ele>340.6666666666667</ele><time>2026-04-07T12:43:24.73Z</time></trkpt><trkpt lat="43.9250683" lon="11.879435"><ele>337.3333333333333</ele><time>2026-04-07T12:43:25.732Z</time></trkpt><trkpt lat="43.925015" lon="11.87919"><ele>334.0</ele><time>2026-04-07T12:43:26.73Z</time></trkpt><trkpt lat="43.92499" lon="11.878965"><ele>334.0</ele><time>2026-04-07T12:43:27.73Z</time></trkpt><trkpt lat="43.92499" lon="11.8787617"><ele>334.0</ele><time>2026-04-07T12:43:28.73Z</time></trkpt><trkpt lat="43.9250183" lon="11.8785717"><ele>334.0</ele><time>2026-04-07T12:43:29.729Z</time></trkpt><trkpt lat="43.92506" lon="11.8783883"><ele>334.0</ele><time>2026-04-07T12:43:30.73Z</time></trkpt><trkpt lat="43.92511" lon="11.87822"><ele>342.0</ele><time>2026-04-07T12:43:31.731Z</time></trkpt><trkpt lat="43.925155" lon="11.8780617"><ele>350.0</ele><time>2026-04-07T12:43:32.73Z</time></trkpt><trkpt lat="43.92519" lon="11.8778967"><ele>358.0</ele><time>2026-04-07T12:43:33.73Z</time></trkpt><trkpt lat="43.9252083" lon="11.8777167"><ele>366.0</ele><time>2026-04-07T12:43:34.73Z</time></trkpt><trkpt lat="43.92521" lon="11.8775133"><ele>368.6666666666667</ele><time>2026-04-07T12:43:35.73Z</time></trkpt><trkpt lat="43.9252033" lon="11.8772833"><ele>371.33333333333337</ele><time>2026-04-07T12:43:36.73Z</time></trkpt><trkpt lat="43.9251917" lon="11.87703"><ele>374.0</ele><time>2026-04-07T12:43:37.73Z</time></trkpt><trkpt lat="43.9251633" lon="11.8767683"><ele>374.0</ele><time>2026-04-07T12:43:38.73Z</time></trkpt><trkpt lat="43.925115" lon="11.87653"><ele>374.0</ele><time>2026-04-07T12:43:39.729Z</time></trkpt><trkpt lat="43.9250733" lon="11.8763233"><ele>374.0</ele><time>2026-04-07T12:43:40.73Z</time></trkpt><trkpt lat="43.9250617" lon="11.8761333"><ele>374.0</ele><time>2026-04-07T12:43:41.732Z</time></trkpt><trkpt lat="43.9251" lon="11.8759733"><ele>374.0</ele><time>2026-04-07T12:43:42.731Z</time></trkpt><trkpt lat="43.92518" lon="11.8758583"><ele>374.0</ele><time>2026-04-07T12:43:43.729Z</time></trkpt><trkpt lat="43.9252833" lon="11.8757767"><ele>374.0</ele><time>2026-04-07T12:43:44.731Z</time></trkpt><trkpt lat="43.9253933" lon="11.8756967"><ele>369.0</ele><time>2026-04-07T12:43:45.729Z</time></trkpt><trkpt lat="43.92548" lon="11.8755633"><ele>364.0</ele><time>2026-04-07T12:43:46.73Z</time></trkpt><trkpt lat="43.9255433" lon="11.8753733"><ele>359.0</ele><time>2026-04-07T12:43:47.729Z</time></trkpt><trkpt lat="43.9255817" lon="11.87515"><ele>354.0</ele><time>2026-04-07T12:43:48.725Z</time></trkpt><trkpt lat="43.9256217" lon="11.8749083"><ele>353.6666666666667</ele><time>2026-04-07T12:43:49.731Z</time></trkpt><trkpt lat="43.92567" lon="11.874645"><ele>353.33333333333337</ele><time>2026-04-07T12:43:50.728Z</time></trkpt><trkpt lat="43.92573" lon="11.8743733"><ele>353.0</ele><time>2026-04-07T12:43:51.731Z</time></trkpt><trkpt lat="43.925815" lon="11.8741067"><ele>361.33333333333337</ele><time>2026-04-07T12:43:52.731Z</time></trkpt><trkpt lat="43.9259267" lon="11.8738417"><ele>369.6666666666667</ele><time>2026-04-07T12:43:53.73Z</time></trkpt><trkpt lat="43.9260533" lon="11.8735783"><ele>378.0</ele><time>2026-04-07T12:43:54.728Z</time></trkpt><trkpt lat="43.9261833" lon="11.8733117"><ele>378.0</ele><time>2026-04-07T12:43:55.731Z</time></trkpt><trkpt lat="43.92631" lon="11.8730483"><ele>378.0</ele><time>2026-04-07T12:43:56.729Z</time></trkpt><trkpt lat="43.9264333" lon="11.8727967"><ele>378.0</ele><time>2026-04-07T12:43:57.731Z</time></trkpt><trkpt lat="43.9265567" lon="11.87257"><ele>381.66666666666663</ele><time>2026-04-07T12:43:58.73Z</time></trkpt><trkpt lat="43.9266967" lon="11.8723667"><ele>385.3333333333333</ele><time>2026-04-07T12:43:59.73Z</time></trkpt><trkpt lat="43.9268583" lon="11.8721867"><ele>389.0</ele><time>2026-04-07T12:44:00.729Z</time></trkpt><trkpt lat="43.927035" lon="11.8720167"><ele>389.0</ele><time>2026-04-07T12:44:01.73Z</time></trkpt><trkpt lat="43.927215" lon="11.871845"><ele>389.0</ele><time>2026-04-07T12:44:02.73Z</time></trkpt><trkpt lat="43.927395" lon="11.8716683"><ele>389.0</ele><time>2026-04-07T12:44:03.729Z</time></trkpt><trkpt lat="43.927575" lon="11.8714867"><ele>392.3333333333333</ele><time>2026-04-07T12:44:04.729Z</time></trkpt><trkpt lat="43.92775" lon="11.8713"><ele>395.66666666666663</ele><time>2026-04-07T12:44:05.729Z</time></trkpt><trkpt lat="43.9279233" lon="11.8711067"><ele>399.0</ele><time>2026-04-07T12:44:06.73Z</time></trkpt><trkpt lat="43.92809" lon="11.870905"><ele>403.66666666666663</ele><time>2026-04-07T12:44:07.731Z</time></trkpt><trkpt lat="43.928255" lon="11.870695"><ele>408.3333333333333</ele><time>2026-04-07T12:44:08.73Z</time></trkpt><trkpt lat="43.92842" lon="11.87049"><ele>413.0</ele><time>2026-04-07T12:44:09.73Z</time></trkpt><trkpt lat="43.928585" lon="11.87029"><ele>402.0</ele><time>2026-04-07T12:44:10.729Z</time></trkpt><trkpt lat="43.9287567" lon="11.8701"><ele>391.0</ele><time>2026-04-07T12:44:11.731Z</time></trkpt><trkpt lat="43.9289317" lon="11.8699117"><ele>380.0</ele><time>2026-04-07T12:44:12.729Z</time></trkpt><trkpt lat="43.9291133" lon="11.86973"><ele>398.5</ele><time>2026-04-07T12:44:13.73Z</time></trkpt><trkpt lat="43.9293017" lon="11.8695617"><ele>417.0</ele><time>2026-04-07T12:44:14.73Z</time></trkpt><trkpt lat="43.9294967" lon="11.8693983"><ele>404.0</ele><time>2026-04-07T12:44:15.729Z</time></trkpt><trkpt lat="43.9296867" lon="11.8692467"><ele>391.0</ele><time>2026-04-07T12:44:16.73Z</time></trkpt><trkpt lat="43.9298667" lon="11.8690967"><ele>378.0</ele><time>2026-04-07T12:44:17.73Z</time></trkpt><trkpt lat="43.9300267" lon="11.8689517"><ele>384.33333333333337</ele><time>2026-04-07T12:44:18.73Z</time></trkpt><trkpt lat="43.9301633" lon="11.8687967"><ele>390.6666666666667</ele><time>2026-04-07T12:44:19.73Z</time></trkpt><trkpt lat="43.9302617" lon="11.8686117"><ele>397.0</ele><time>2026-04-07T12:44:20.729Z</time></trkpt><trkpt lat="43.9303483" lon="11.8684367"><ele>397.0</ele><time>2026-04-07T12:44:21.73Z</time></trkpt><trkpt lat="43.9304467" lon="11.8682767"><ele>397.0</ele><time>2026-04-07T12:44:22.73Z</time></trkpt><trkpt lat="43.9305767" lon="11.8681583"><ele>397.0</ele><time>2026-04-07T12:44:23.729Z</time></trkpt><trkpt lat="43.9306967" lon="11.8680467"><ele>397.0</ele><time>2026-04-07T12:44:24.729Z</time></trkpt><trkpt lat="43.9307867" lon="11.8679267"><ele>397.0</ele><time>2026-04-07T12:44:25.731Z</time></trkpt><trkpt lat="43.9308367" lon="11.8677883"><ele>397.0</ele><time>2026-04-07T12:44:26.73Z</time></trkpt><trkpt lat="43.9308533" lon="11.8676267"><ele>397.0</ele><time>2026-04-07T12:44:27.731Z</time></trkpt><trkpt lat="43.9308383" lon="11.8674217"><ele>390.33333333333337</ele><time>2026-04-07T12:44:28.729Z</time></trkpt><trkpt lat="43.9307883" lon="11.8672017"><ele>383.6666666666667</ele><time>2026-04-07T12:44:29.729Z</time></trkpt><trkpt lat="43.9307083" lon="11.8670067"><ele>377.0</ele><time>2026-04-07T12:44:30.73Z</time></trkpt><trkpt lat="43.9306167" lon="11.8668467"><ele>378.25</ele><time>2026-04-07T12:44:31.731Z</time></trkpt><trkpt lat="43.930555" lon="11.8667017"><ele>379.5</ele><time>2026-04-07T12:44:32.726Z</time></trkpt><trkpt lat="43.930535" lon="11.86652"><ele>380.75</ele><time>2026-04-07T12:44:33.731Z</time></trkpt><trkpt lat="43.9305283" lon="11.86629"><ele>382.0</ele><time>2026-04-07T12:44:34.73Z</time></trkpt><trkpt lat="43.9305167" lon="11.866045"><ele>384.3333333333333</ele><time>2026-04-07T12:44:35.73Z</time></trkpt><trkpt lat="43.9304733" lon="11.86579"><ele>386.66666666666663</ele><time>2026-04-07T12:44:36.73Z</time></trkpt><trkpt lat="43.9303817" lon="11.86551"><ele>389.0</ele><time>2026-04-07T12:44:37.729Z</time></trkpt><trkpt lat="43.93028" lon="11.8652567"><ele>390.25</ele><time>2026-04-07T12:44:38.73Z</time></trkpt><trkpt lat="43.9302" lon="11.8650517"><ele>391.5</ele><time>2026-04-07T12:44:39.73Z</time></trkpt><trkpt lat="43.9301583" lon="11.86488"><ele>392.75</ele><time>2026-04-07T12:44:40.726Z</time></trkpt><trkpt lat="43.9301583" lon="11.8646933"><ele>394.0</ele><time>2026-04-07T12:44:41.73Z</time></trkpt><trkpt lat="43.9301917" lon="11.86448"><ele>393.33333333333337</ele><time>2026-04-07T12:44:42.729Z</time></trkpt><trkpt lat="43.930245" lon="11.8642417"><ele>392.66666666666663</ele><time>2026-04-07T12:44:43.73Z</time></trkpt><trkpt lat="43.9302817" lon="11.8640083"><ele>392.0</ele><time>2026-04-07T12:44:44.73Z</time></trkpt><trkpt lat="43.9302817" lon="11.8637967"><ele>392.0</ele><time>2026-04-07T12:44:45.73Z</time></trkpt><trkpt lat="43.930235" lon="11.8636"><ele>392.0</ele><time>2026-04-07T12:44:46.73Z</time></trkpt><trkpt lat="43.93017" lon="11.8634183"><ele>392.0</ele><time>2026-04-07T12:44:47.729Z</time></trkpt><trkpt lat="43.930125" lon="11.8632467"><ele>392.0</ele><time>2026-04-07T12:44:48.728Z</time></trkpt><trkpt lat="43.93013" lon="11.863075"><ele>392.0</ele><time>2026-04-07T12:44:49.728Z</time></trkpt><trkpt lat="43.9301767" lon="11.862895"><ele>392.0</ele><time>2026-04-07T12:44:50.73Z</time></trkpt><trkpt lat="43.930235" lon="11.8627067"><ele>392.0</ele><time>2026-04-07T12:44:51.73Z</time></trkpt><trkpt lat="43.9303083" lon="11.862545"><ele>392.0</ele><time>2026-04-07T12:44:52.729Z</time></trkpt><trkpt lat="43.9304" lon="11.862415"><ele>390.0</ele><time>2026-04-07T12:44:53.73Z</time></trkpt><trkpt lat="43.930505" lon="11.86229"><ele>388.0</ele><time>2026-04-07T12:44:54.73Z</time></trkpt><trkpt lat="43.930615" lon="11.862145"><ele>386.0</ele><time>2026-04-07T12:44:55.731Z</time></trkpt><trkpt lat="43.9307067" lon="11.8619717"><ele>384.0</ele><time>2026-04-07T12:44:56.731Z</time></trkpt><trkpt lat="43.9308233" lon="11.8618117"><ele>390.33333333333337</ele><time>2026-04-07T12:44:57.729Z</time></trkpt><trkpt lat="43.93097" lon="11.8616583"><ele>396.6666666666667</ele><time>2026-04-07T12:44:58.731Z</time></trkpt><trkpt lat="43.9311233" lon="11.861515"><ele>403.0</ele><time>2026-04-07T12:44:59.729Z</time></trkpt><trkpt lat="43.9312667" lon="11.8613833"><ele>403.0</ele><time>2026-04-07T12:45:00.729Z</time></trkpt><trkpt lat="43.93138" lon="11.861265"><ele>403.0</ele><time>2026-04-07T12:45:01.731Z</time></trkpt><trkpt lat="43.931465" lon="11.8611317"><ele>403.0</ele><time>2026-04-07T12:45:02.73Z</time></trkpt><trkpt lat="43.93151" lon="11.860955"><ele>403.0</ele><time>2026-04-07T12:45:03.73Z</time></trkpt><trkpt lat="43.9315233" lon="11.86072"><ele>394.6666666666667</ele><time>2026-04-07T12:45:04.73Z</time></trkpt><trkpt lat="43.9315383" lon="11.860445"><ele>386.33333333333337</ele><time>2026-04-07T12:45:05.73Z</time></trkpt><trkpt lat="43.9315717" lon="11.860145"><ele>378.0</ele><time>2026-04-07T12:45:06.729Z</time></trkpt><trkpt lat="43.9316217" lon="11.8598333"><ele>376.0</ele><time>2026-04-07T12:45:07.73Z</time></trkpt><trkpt lat="43.9316617" lon="11.8595117"><ele>374.0</ele><time>2026-04-07T12:45:08.73Z</time></trkpt><trkpt lat="43.9316817" lon="11.8592"><ele>374.0</ele><time>2026-04-07T12:45:09.73Z</time></trkpt><trkpt lat="43.9316667" lon="11.8588983"><ele>374.0</ele><time>2026-04-07T12:45:10.729Z</time></trkpt><trkpt lat="43.9316283" lon="11.8585883"><ele>374.0</ele><time>2026-04-07T12:45:11.73Z</time></trkpt><trkpt lat="43.9315633" lon="11.8582617"><ele>378.0</ele><time>2026-04-07T12:45:12.728Z</time></trkpt><trkpt lat="43.9314933" lon="11.8579233"><ele>382.0</ele><time>2026-04-07T12:45:13.731Z</time></trkpt><trkpt lat="43.93143" lon="11.8575783"><ele>382.3333333333333</ele><time>2026-04-07T12:45:14.73Z</time></trkpt><trkpt lat="43.9313717" lon="11.85726"><ele>382.6666666666667</ele><time>2026-04-07T12:45:15.73Z</time></trkpt><trkpt lat="43.9313217" lon="11.85699"><ele>383.0</ele><time>2026-04-07T12:45:16.731Z</time></trkpt><trkpt lat="43.93127" lon="11.8567483"><ele>381.6666666666667</ele><time>2026-04-07T12:45:17.73Z</time></trkpt><trkpt lat="43.93118" lon="11.85651"><ele>380.3333333333333</ele><time>2026-04-07T12:45:18.729Z</time></trkpt><trkpt lat="43.931065" lon="11.8562733"><ele>379.0</ele><time>2026-04-07T12:45:19.731Z</time></trkpt><trkpt lat="43.9309267" lon="11.856035"><ele>374.5</ele><time>2026-04-07T12:45:20.731Z</time></trkpt><trkpt lat="43.930775" lon="11.8557983"><ele>370.0</ele><time>2026-04-07T12:45:21.73Z</time></trkpt><trkpt lat="43.9306267" lon="11.85556"><ele>370.0</ele><time>2026-04-07T12:45:22.73Z</time></trkpt><trkpt lat="43.9304933" lon="11.8553333"><ele>370.0</ele><time>2026-04-07T12:45:23.73Z</time></trkpt><trkpt lat="43.9303833" lon="11.8551317"><ele>370.0</ele><time>2026-04-07T12:45:24.73Z</time></trkpt><trkpt lat="43.930295" lon="11.8549367"><ele>377.3333333333333</ele><time>2026-04-07T12:45:25.73Z</time></trkpt><trkpt lat="43.9302267" lon="11.85471"><ele>384.66666666666663</ele><time>2026-04-07T12:45:26.73Z</time></trkpt><trkpt lat="43.9301817" lon="11.8544533"><ele>392.0</ele><time>2026-04-07T12:45:27.731Z</time></trkpt><trkpt lat="43.9301367" lon="11.854175"><ele>395.0</ele><time>2026-04-07T12:45:28.731Z</time></trkpt><trkpt lat="43.9300617" lon="11.8538967"><ele>398.0</ele><time>2026-04-07T12:45:29.729Z</time></trkpt><trkpt lat="43.92996" lon="11.85362"><ele>401.0</ele><time>2026-04-07T12:45:30.731Z</time></trkpt><trkpt lat="43.929865" lon="11.8533467"><ele>392.0</ele><time>2026-04-07T12:45:31.734Z</time></trkpt><trkpt lat="43.9297783" lon="11.85308"><ele>383.0</ele><time>2026-04-07T12:45:32.73Z</time></trkpt><trkpt lat="43.9297183" lon="11.8528233"><ele>374.0</ele><time>2026-04-07T12:45:33.73Z</time></trkpt><trkpt lat="43.9296917" lon="11.8525683"><ele>374.0</ele><time>2026-04-07T12:45:34.732Z</time></trkpt><trkpt lat="43.9296967" lon="11.8522983"><ele>374.0</ele><time>2026-04-07T12:45:35.729Z</time></trkpt><trkpt lat="43.9297267" lon="11.8520117"><ele>374.0</ele><time>2026-04-07T12:45:36.73Z</time></trkpt><trkpt lat="43.929765" lon="11.85173"><ele>374.33333333333337</ele><time>2026-04-07T12:45:37.731Z</time></trkpt><trkpt lat="43.9298067" lon="11.8514833"><ele>374.6666666666667</ele><time>2026-04-07T12:45:38.73Z</time></trkpt><trkpt lat="43.929855" lon="11.8513"><ele>375.0</ele><time>2026-04-07T12:45:39.73Z</time></trkpt><trkpt lat="43.9299117" lon="11.8511367"><ele>375.0</ele><time>2026-04-07T12:45:40.73Z</time></trkpt><trkpt lat="43.9299883" lon="11.851005"><ele>375.0</ele><time>2026-04-07T12:45:41.727Z</time></trkpt><trkpt lat="43.930055" lon="11.8508817"><ele>375.0</ele><time>2026-04-07T12:45:42.731Z</time></trkpt><trkpt lat="43.930095" lon="11.850745"><ele>375.0</ele><time>2026-04-07T12:45:43.727Z</time></trkpt><trkpt lat="43.9301083" lon="11.8505817"><ele>374.75</ele><time>2026-04-07T12:45:44.727Z</time></trkpt><trkpt lat="43.93009" lon="11.8503933"><ele>374.5</ele><time>2026-04-07T12:45:45.727Z</time></trkpt><trkpt lat="43.93003" lon="11.850215"><ele>374.25</ele><time>2026-04-07T12:45:46.727Z</time></trkpt><trkpt lat="43.92993" lon="11.85007"><ele>374.0</ele><time>2026-04-07T12:45:47.731Z</time></trkpt><trkpt lat="43.92979" lon="11.8499567"><ele>374.0</ele><time>2026-04-07T12:45:48.727Z</time></trkpt><trkpt lat="43.9296317" lon="11.8498517"><ele>374.0</ele><time>2026-04-07T12:45:49.727Z</time></trkpt><trkpt lat="43.9294467" lon="11.8497467"><ele>374.0</ele><time>2026-04-07T12:45:50.726Z</time></trkpt><trkpt lat="43.9292433" lon="11.8496483"><ele>370.5</ele><time>2026-04-07T12:45:51.726Z</time></trkpt><trkpt lat="43.929025" lon="11.8495583"><ele>367.0</ele><time>2026-04-07T12:45:52.727Z</time></trkpt><trkpt lat="43.9287983" lon="11.84947"><ele>367.0</ele><time>2026-04-07T12:45:53.729Z</time></trkpt><trkpt lat="43.9285617" lon="11.8493917"><ele>367.0</ele><time>2026-04-07T12:45:54.727Z</time></trkpt><trkpt lat="43.928315" lon="11.849325"><ele>373.0</ele><time>2026-04-07T12:45:55.731Z</time></trkpt><trkpt lat="43.9280667" lon="11.849265"><ele>379.0</ele><time>2026-04-07T12:45:56.731Z</time></trkpt><trkpt lat="43.9278317" lon="11.84921"><ele>379.0</ele><time>2026-04-07T12:45:57.729Z</time></trkpt><trkpt lat="43.9276033" lon="11.8491433"><ele>379.0</ele><time>2026-04-07T12:45:58.731Z</time></trkpt><trkpt lat="43.927375" lon="11.8490517"><ele>377.3333333333333</ele><time>2026-04-07T12:45:59.731Z</time></trkpt><trkpt lat="43.9271567" lon="11.848945"><ele>375.6666666666667</ele><time>2026-04-07T12:46:00.73Z</time></trkpt><trkpt lat="43.9269583" lon="11.8488233"><ele>374.0</ele><time>2026-04-07T12:46:01.73Z</time></trkpt><trkpt lat="43.9267817" lon="11.848675"><ele>374.6666666666667</ele><time>2026-04-07T12:46:02.73Z</time></trkpt><trkpt lat="43.9266167" lon="11.848495"><ele>375.3333333333333</ele><time>2026-04-07T12:46:03.731Z</time></trkpt><trkpt lat="43.9264583" lon="11.8483083"><ele>376.0</ele><time>2026-04-07T12:46:04.73Z</time></trkpt><trkpt lat="43.9263033" lon="11.8481333"><ele>376.0</ele><time>2026-04-07T12:46:05.73Z</time></trkpt><trkpt lat="43.9261283" lon="11.84798"><ele>376.0</ele><time>2026-04-07T12:46:06.727Z</time></trkpt><trkpt lat="43.9259233" lon="11.8478667"><ele>376.0</ele><time>2026-04-07T12:46:07.731Z</time></trkpt><trkpt lat="43.9257017" lon="11.8478167"><ele>370.5</ele><time>2026-04-07T12:46:08.731Z</time></trkpt><trkpt lat="43.9254717" lon="11.8478067"><ele>365.0</ele><time>2026-04-07T12:46:09.731Z</time></trkpt><trkpt lat="43.9252383" lon="11.8478317"><ele>365.5</ele><time>2026-04-07T12:46:10.731Z</time></trkpt><trkpt lat="43.9249967" lon="11.8478883"><ele>366.0</ele><time>2026-04-07T12:46:11.73Z</time></trkpt><trkpt lat="43.9247433" lon="11.8479633"><ele>366.0</ele><time>2026-04-07T12:46:12.729Z</time></trkpt><trkpt lat="43.9244883" lon="11.8480367"><ele>366.0</ele><time>2026-04-07T12:46:13.73Z</time></trkpt><trkpt lat="43.9242233" lon="11.8480967"><ele>372.5</ele><time>2026-04-07T12:46:14.73Z</time></trkpt><trkpt lat="43.92395" lon="11.8481533"><ele>379.0</ele><time>2026-04-07T12:46:15.731Z</time></trkpt><trkpt lat="43.923675" lon="11.8482117"><ele>379.0</ele><time>2026-04-07T12:46:16.726Z</time></trkpt><trkpt lat="43.9234167" lon="11.8482633"><ele>379.0</ele><time>2026-04-07T12:46:17.729Z</time></trkpt><trkpt lat="43.92319" lon="11.8483083"><ele>380.3333333333333</ele><time>2026-04-07T12:46:18.73Z</time></trkpt><trkpt lat="43.9229983" lon="11.8483417"><ele>381.6666666666667</ele><time>2026-04-07T12:46:19.73Z</time></trkpt><trkpt lat="43.92284" lon="11.8483783"><ele>383.0</ele><time>2026-04-07T12:46:20.73Z</time></trkpt><trkpt lat="43.9227017" lon="11.84839"><ele>383.0</ele><time>2026-04-07T12:46:21.73Z</time></trkpt><trkpt lat="43.9225967" lon="11.848345"><ele>383.0</ele><time>2026-04-07T12:46:22.729Z</time></trkpt><trkpt lat="43.9225317" lon="11.848245"><ele>383.0</ele><time>2026-04-07T12:46:23.731Z</time></trkpt><trkpt lat="43.9225033" lon="11.8481133"><ele>383.0</ele><time>2026-04-07T12:46:24.731Z</time></trkpt><trkpt lat="43.9225283" lon="11.8479617"><ele>383.0</ele><time>2026-04-07T12:46:25.73Z</time></trkpt><trkpt lat="43.9225867" lon="11.8478167"><ele>383.0</ele><time>2026-04-07T12:46:26.73Z</time></trkpt><trkpt lat="43.9226933" lon="11.8476567"><ele>383.0</ele><time>2026-04-07T12:46:27.731Z</time></trkpt><trkpt lat="43.9228217" lon="11.847475"><ele>383.0</ele><time>2026-04-07T12:46:28.73Z</time></trkpt><trkpt lat="43.9229517" lon="11.8472567"><ele>385.0</ele><time>2026-04-07T12:46:29.73Z</time></trkpt><trkpt lat="43.923065" lon="11.84702"><ele>387.0</ele><time>2026-04-07T12:46:30.731Z</time></trkpt><trkpt lat="43.92319" lon="11.8467983"><ele>389.0</ele><time>2026-04-07T12:46:31.731Z</time></trkpt><trkpt lat="43.9233367" lon="11.846615"><ele>402.66666666666663</ele><time>2026-04-07T12:46:32.73Z</time></trkpt><trkpt lat="43.92349" lon="11.84643"><ele>416.33333333333337</ele><time>2026-04-07T12:46:33.731Z</time></trkpt><trkpt lat="43.9236317" lon="11.8462167"><ele>430.0</ele><time>2026-04-07T12:46:34.729Z</time></trkpt><trkpt lat="43.9237517" lon="11.8459933"><ele>426.0</ele><time>2026-04-07T12:46:35.73Z</time></trkpt><trkpt lat="43.9238433" lon="11.8457667"><ele>422.0</ele><time>2026-04-07T12:46:36.73Z</time></trkpt><trkpt lat="43.9239033" lon="11.8455217"><ele>418.0</ele><time>2026-04-07T12:46:37.73Z</time></trkpt><trkpt lat="43.9239183" lon="11.845245"><ele>417.33333333333337</ele><time>2026-04-07T12:46:38.727Z</time></trkpt><trkpt lat="43.9239067" lon="11.8449667"><ele>416.66666666666663</ele><time>2026-04-07T12:46:39.731Z</time></trkpt><trkpt lat="43.923865" lon="11.8446983"><ele>416.0</ele><time>2026-04-07T12:46:40.73Z</time></trkpt><trkpt lat="43.923805" lon="11.8444583"><ele>418.66666666666663</ele><time>2026-04-07T12:46:41.728Z</time></trkpt><trkpt lat="43.9237283" lon="11.8442417"><ele>421.33333333333337</ele><time>2026-04-07T12:46:42.728Z</time></trkpt><trkpt lat="43.9236133" lon="11.8440583"><ele>424.0</ele><time>2026-04-07T12:46:43.73Z</time></trkpt><trkpt lat="43.9234617" lon="11.8439067"><ele>411.0</ele><time>2026-04-07T12:46:44.731Z</time></trkpt><trkpt lat="43.9233" lon="11.8438033"><ele>398.0</ele><time>2026-04-07T12:46:45.73Z</time></trkpt><trkpt lat="43.923125" lon="11.8437417"><ele>385.0</ele><time>2026-04-07T12:46:46.73Z</time></trkpt><trkpt lat="43.9229317" lon="11.8437233"><ele>385.0</ele><time>2026-04-07T12:46:47.729Z</time></trkpt><trkpt lat="43.9227267" lon="11.843745"><ele>385.0</ele><time>2026-04-07T12:46:48.729Z</time></trkpt><trkpt lat="43.9225167" lon="11.84382"><ele>385.0</ele><time>2026-04-07T12:46:49.729Z</time></trkpt><trkpt lat="43.9223167" lon="11.843925"><ele>384.6666666666667</ele><time>2026-04-07T12:46:50.729Z</time></trkpt><trkpt lat="43.92215" lon="11.8440183"><ele>384.33333333333337</ele><time>2026-04-07T12:46:51.729Z</time></trkpt><trkpt lat="43.9220033" lon="11.844085"><ele>384.0</ele><time>2026-04-07T12:46:52.728Z</time></trkpt><trkpt lat="43.92186" lon="11.84411"><ele>387.33333333333337</ele><time>2026-04-07T12:46:53.731Z</time></trkpt><trkpt lat="43.9216967" lon="11.844075"><ele>390.6666666666667</ele><time>2026-04-07T12:46:54.73Z</time></trkpt><trkpt lat="43.9215317" lon="11.844025"><ele>394.0</ele><time>2026-04-07T12:46:55.73Z</time></trkpt><trkpt lat="43.9213783" lon="11.844025"><ele>394.0</ele><time>2026-04-07T12:46:56.729Z</time></trkpt><trkpt lat="43.9212233" lon="11.8441"><ele>394.0</ele><time>2026-04-07T12:46:57.73Z</time></trkpt><trkpt lat="43.9210683" lon="11.8442"><ele>394.0</ele><time>2026-04-07T12:46:58.73Z</time></trkpt><trkpt lat="43.9209267" lon="11.8442767"><ele>395.75</ele><time>2026-04-07T12:46:59.73Z</time></trkpt><trkpt lat="43.9208033" lon="11.8442967"><ele>397.5</ele><time>2026-04-07T12:47:00.731Z</time></trkpt><trkpt lat="43.920705" lon="11.8442483"><ele>399.25</ele><time>2026-04-07T12:47:01.728Z</time></trkpt><trkpt lat="43.9206283" lon="11.8441317"><ele>401.0</ele><time>2026-04-07T12:47:02.73Z</time></trkpt><trkpt lat="43.920565" lon="11.8439583"><ele>401.0</ele><time>2026-04-07T12:47:03.73Z</time></trkpt><trkpt lat="43.920475" lon="11.8437767"><ele>401.0</ele><time>2026-04-07T12:47:04.729Z</time></trkpt><trkpt lat="43.9203483" lon="11.84363"><ele>401.0</ele><time>2026-04-07T12:47:05.73Z</time></trkpt><trkpt lat="43.9201867" lon="11.8435217"><ele>402.66666666666663</ele><time>2026-04-07T12:47:06.73Z</time></trkpt><trkpt lat="43.9200067" lon="11.8434417"><ele>404.33333333333337</ele><time>2026-04-07T12:47:07.73Z</time></trkpt><trkpt lat="43.9198283" lon="11.8433433"><ele>406.0</ele><time>2026-04-07T12:47:08.73Z</time></trkpt><trkpt lat="43.9196717" lon="11.8432083"><ele>406.0</ele><time>2026-04-07T12:47:09.73Z</time></trkpt><trkpt lat="43.9195217" lon="11.84309"><ele>406.0</ele><time>2026-04-07T12:47:10.73Z</time></trkpt><trkpt lat="43.91938" lon="11.8430033"><ele>406.0</ele><time>2026-04-07T12:47:11.731Z</time></trkpt><trkpt lat="43.91926" lon="11.8429233"><ele>406.25</ele><time>2026-04-07T12:47:12.731Z</time></trkpt><trkpt lat="43.9191833" lon="11.8428217"><ele>406.5</ele><time>2026-04-07T12:47:13.73Z</time></trkpt><trkpt lat="43.9191533" lon="11.8426767"><ele>406.75</ele><time>2026-04-07T12:47:14.731Z</time></trkpt><trkpt lat="43.9191517" lon="11.8424933"><ele>407.0</ele><time>2026-04-07T12:47:15.73Z</time></trkpt><trkpt lat="43.9191617" lon="11.8422733"><ele>407.0</ele><time>2026-04-07T12:47:16.727Z</time></trkpt><trkpt lat="43.919165" lon="11.8420367"><ele>407.0</ele><time>2026-04-07T12:47:17.73Z</time></trkpt><trkpt lat="43.919145" lon="11.84178"><ele>407.0</ele><time>2026-04-07T12:47:18.728Z</time></trkpt><trkpt lat="43.9191167" lon="11.8415033"><ele>408.3333333333333</ele><time>2026-04-07T12:47:19.728Z</time></trkpt><trkpt lat="43.9190817" lon="11.841215"><ele>409.66666666666663</ele><time>2026-04-07T12:47:20.728Z</time></trkpt><trkpt lat="43.9190433" lon="11.84092"><ele>411.0</ele><time>2026-04-07T12:47:21.729Z</time></trkpt><trkpt lat="43.9189933" lon="11.84062"><ele>412.5</ele><time>2026-04-07T12:47:22.729Z</time></trkpt><trkpt lat="43.91893" lon="11.8403117"><ele>414.0</ele><time>2026-04-07T12:47:23.73Z</time></trkpt><trkpt lat="43.918845" lon="11.8399983"><ele>408.5</ele><time>2026-04-07T12:47:24.731Z</time></trkpt><trkpt lat="43.9187483" lon="11.83969"><ele>403.0</ele><time>2026-04-07T12:47:25.73Z</time></trkpt><trkpt lat="43.9186633" lon="11.83939"><ele>407.6666666666667</ele><time>2026-04-07T12:47:26.731Z</time></trkpt><trkpt lat="43.9186017" lon="11.83911"><ele>412.33333333333337</ele><time>2026-04-07T12:47:27.731Z</time></trkpt><trkpt lat="43.918545" lon="11.8388633"><ele>417.0</ele><time>2026-04-07T12:47:28.73Z</time></trkpt><trkpt lat="43.918475" lon="11.8386433"><ele>414.66666666666663</ele><time>2026-04-07T12:47:29.73Z</time></trkpt><trkpt lat="43.91837" lon="11.8384517"><ele>412.3333333333333</ele><time>2026-04-07T12:47:30.726Z</time></trkpt><trkpt lat="43.91823" lon="11.8382933"><ele>410.0</ele><time>2026-04-07T12:47:31.73Z</time></trkpt><trkpt lat="43.9180533" lon="11.8381717"><ele>410.0</ele><time>2026-04-07T12:47:32.731Z</time></trkpt><trkpt lat="43.9178383" lon="11.838085"><ele>410.0</ele><time>2026-04-07T12:47:33.731Z</time></trkpt><trkpt lat="43.9176017" lon="11.8380067"><ele>404.0</ele><time>2026-04-07T12:47:34.73Z</time></trkpt><trkpt lat="43.91736" lon="11.837925"><ele>398.0</ele><time>2026-04-07T12:47:35.727Z</time></trkpt><trkpt lat="43.9171167" lon="11.8378367"><ele>398.0</ele><time>2026-04-07T12:47:36.729Z</time></trkpt><trkpt lat="43.91689" lon="11.8377483"><ele>398.0</ele><time>2026-04-07T12:47:37.731Z</time></trkpt><trkpt lat="43.916695" lon="11.8376633"><ele>398.0</ele><time>2026-04-07T12:47:38.73Z</time></trkpt><trkpt lat="43.9165267" lon="11.8375483"><ele>400.66666666666663</ele><time>2026-04-07T12:47:39.73Z</time></trkpt><trkpt lat="43.916365" lon="11.8373917"><ele>403.33333333333337</ele><time>2026-04-07T12:47:40.731Z</time></trkpt><trkpt lat="43.9161883" lon="11.8372317"><ele>406.0</ele><time>2026-04-07T12:47:41.731Z</time></trkpt><trkpt lat="43.9159883" lon="11.8370917"><ele>402.0</ele><time>2026-04-07T12:47:42.73Z</time></trkpt><trkpt lat="43.9157717" lon="11.8369633"><ele>398.0</ele><time>2026-04-07T12:47:43.731Z</time></trkpt><trkpt lat="43.9155467" lon="11.836845"><ele>405.5</ele><time>2026-04-07T12:47:44.73Z</time></trkpt><trkpt lat="43.9153167" lon="11.8367283"><ele>413.0</ele><time>2026-04-07T12:47:45.73Z</time></trkpt><trkpt lat="43.9151017" lon="11.8366183"><ele>411.0</ele><time>2026-04-07T12:47:46.729Z</time></trkpt><trkpt lat="43.914925" lon="11.8365233"><ele>409.0</ele><time>2026-04-07T12:47:47.73Z</time></trkpt><trkpt lat="43.9147683" lon="11.83647"><ele>407.0</ele><time>2026-04-07T12:47:48.731Z</time></trkpt><trkpt lat="43.91461" lon="11.8364717"><ele>407.0</ele><time>2026-04-07T12:47:49.73Z</time></trkpt><trkpt lat="43.9144333" lon="11.836525"><ele>407.0</ele><time>2026-04-07T12:47:50.73Z</time></trkpt><trkpt lat="43.9142483" lon="11.8365983"><ele>407.0</ele><time>2026-04-07T12:47:51.731Z</time></trkpt><trkpt lat="43.9140833" lon="11.83665"><ele>407.3333333333333</ele><time>2026-04-07T12:47:52.729Z</time></trkpt><trkpt lat="43.9139183" lon="11.836665"><ele>407.66666666666663</ele><time>2026-04-07T12:47:53.73Z</time></trkpt><trkpt lat="43.9137467" lon="11.8366383"><ele>408.0</ele><time>2026-04-07T12:47:54.728Z</time></trkpt><trkpt lat="43.9135667" lon="11.83657"><ele>406.66666666666663</ele><time>2026-04-07T12:47:55.731Z</time></trkpt><trkpt lat="43.9133833" lon="11.8364733"><ele>405.3333333333333</ele><time>2026-04-07T12:47:56.729Z</time></trkpt><trkpt lat="43.91318" lon="11.8364133"><ele>404.0</ele><time>2026-04-07T12:47:57.73Z</time></trkpt><trkpt lat="43.912965" lon="11.8363817"><ele>404.0</ele><time>2026-04-07T12:47:58.73Z</time></trkpt><trkpt lat="43.9127317" lon="11.836375"><ele>404.0</ele><time>2026-04-07T12:47:59.73Z</time></trkpt><trkpt lat="43.9124967" lon="11.836365"><ele>403.66666666666663</ele><time>2026-04-07T12:48:00.728Z</time></trkpt><trkpt lat="43.91227" lon="11.8363367"><ele>403.33333333333337</ele><time>2026-04-07T12:48:01.733Z</time></trkpt><trkpt lat="43.9120617" lon="11.8363017"><ele>403.0</ele><time>2026-04-07T12:48:02.731Z</time></trkpt><trkpt lat="43.9118683" lon="11.8362433"><ele>402.6666666666667</ele><time>2026-04-07T12:48:03.731Z</time></trkpt><trkpt lat="43.9116767" lon="11.8361433"><ele>402.33333333333337</ele><time>2026-04-07T12:48:04.727Z</time></trkpt><trkpt lat="43.911485" lon="11.836005"><ele>402.0</ele><time>2026-04-07T12:48:05.728Z</time></trkpt><trkpt lat="43.91129" lon="11.835855"><ele>404.5</ele><time>2026-04-07T12:48:06.73Z</time></trkpt><trkpt lat="43.911085" lon="11.8357033"><ele>407.0</ele><time>2026-04-07T12:48:07.731Z</time></trkpt><trkpt lat="43.9108717" lon="11.83555"><ele>407.0</ele><time>2026-04-07T12:48:08.73Z</time></trkpt><trkpt lat="43.9106567" lon="11.8353983"><ele>407.0</ele><time>2026-04-07T12:48:09.731Z</time></trkpt><trkpt lat="43.9104583" lon="11.8352567"><ele>408.0</ele><time>2026-04-07T12:48:10.727Z</time></trkpt><trkpt lat="43.91029" lon="11.8351333"><ele>409.0</ele><time>2026-04-07T12:48:11.728Z</time></trkpt><trkpt lat="43.9101583" lon="11.8350233"><ele>410.0</ele><time>2026-04-07T12:48:12.729Z</time></trkpt><trkpt lat="43.9100683" lon="11.8349017"><ele>410.0</ele><time>2026-04-07T12:48:13.732Z</time></trkpt><trkpt lat="43.9100083" lon="11.8347517"><ele>410.0</ele><time>2026-04-07T12:48:14.73Z</time></trkpt><trkpt lat="43.909975" lon="11.8345683"><ele>410.0</ele><time>2026-04-07T12:48:15.731Z</time></trkpt><trkpt lat="43.9099467" lon="11.8343517"><ele>410.0</ele><time>2026-04-07T12:48:16.729Z</time></trkpt><trkpt lat="43.9099167" lon="11.834115"><ele>411.66666666666663</ele><time>2026-04-07T12:48:17.73Z</time></trkpt><trkpt lat="43.9098767" lon="11.83387"><ele>413.33333333333337</ele><time>2026-04-07T12:48:18.731Z</time></trkpt><trkpt lat="43.90982" lon="11.83362"><ele>415.0</ele><time>2026-04-07T12:48:19.732Z</time></trkpt><trkpt lat="43.909745" lon="11.8333667"><ele>416.6666666666667</ele><time>2026-04-07T12:48:20.73Z</time></trkpt><trkpt lat="43.9096617" lon="11.8331083"><ele>418.33333333333337</ele><time>2026-04-07T12:48:21.73Z</time></trkpt><trkpt lat="43.9096033" lon="11.83283"><ele>420.0</ele><time>2026-04-07T12:48:22.73Z</time></trkpt><trkpt lat="43.909575" lon="11.83254"><ele>423.33333333333337</ele><time>2026-04-07T12:48:23.729Z</time></trkpt><trkpt lat="43.909555" lon="11.8322383"><ele>426.6666666666667</ele><time>2026-04-07T12:48:24.73Z</time></trkpt><trkpt lat="43.9095183" lon="11.83195"><ele>430.0</ele><time>2026-04-07T12:48:25.731Z</time></trkpt><trkpt lat="43.90945" lon="11.8316633"><ele>433.5</ele><time>2026-04-07T12:48:26.728Z</time></trkpt><trkpt lat="43.9093567" lon="11.8313767"><ele>437.0</ele><time>2026-04-07T12:48:27.729Z</time></trkpt><trkpt lat="43.90925" lon="11.83108"><ele>428.0</ele><time>2026-04-07T12:48:28.731Z</time></trkpt><trkpt lat="43.9091467" lon="11.8307883"><ele>419.0</ele><time>2026-04-07T12:48:29.73Z</time></trkpt><trkpt lat="43.9090533" lon="11.8305183"><ele>419.0</ele><time>2026-04-07T12:48:30.728Z</time></trkpt><trkpt lat="43.9089867" lon="11.8302783"><ele>419.0</ele><time>2026-04-07T12:48:31.731Z</time></trkpt><trkpt lat="43.9089483" lon="11.8300317"><ele>419.0</ele><time>2026-04-07T12:48:32.729Z</time></trkpt><trkpt lat="43.9089433" lon="11.82976"><ele>420.66666666666663</ele><time>2026-04-07T12:48:33.73Z</time></trkpt><trkpt lat="43.9089583" lon="11.829465"><ele>422.33333333333337</ele><time>2026-04-07T12:48:34.73Z</time></trkpt><trkpt lat="43.90899" lon="11.8291617"><ele>424.0</ele><time>2026-04-07T12:48:35.727Z</time></trkpt><trkpt lat="43.9090233" lon="11.8288483"><ele>424.0</ele><time>2026-04-07T12:48:36.728Z</time></trkpt><trkpt lat="43.909055" lon="11.828525"><ele>424.0</ele><time>2026-04-07T12:48:37.728Z</time></trkpt><trkpt lat="43.909085" lon="11.8281917"><ele>425.0</ele><time>2026-04-07T12:48:38.728Z</time></trkpt><trkpt lat="43.9091117" lon="11.8278467"><ele>426.0</ele><time>2026-04-07T12:48:39.731Z</time></trkpt><trkpt lat="43.909125" lon="11.8274917"><ele>426.0</ele><time>2026-04-07T12:48:40.731Z</time></trkpt><trkpt lat="43.9091267" lon="11.8271383"><ele>426.0</ele><time>2026-04-07T12:48:41.73Z</time></trkpt><trkpt lat="43.90912" lon="11.8267967"><ele>429.0</ele><time>2026-04-07T12:48:42.735Z</time></trkpt><trkpt lat="43.909105" lon="11.8264667"><ele>432.0</ele><time>2026-04-07T12:48:43.727Z</time></trkpt><trkpt lat="43.9090967" lon="11.82617"><ele>434.0</ele><time>2026-04-07T12:48:44.731Z</time></trkpt><trkpt lat="43.9090833" lon="11.82591"><ele>436.0</ele><time>2026-04-07T12:48:45.731Z</time></trkpt><trkpt lat="43.9090317" lon="11.8256733"><ele>438.0</ele><time>2026-04-07T12:48:46.73Z</time></trkpt><trkpt lat="43.908945" lon="11.8254433"><ele>438.0</ele><time>2026-04-07T12:48:47.726Z</time></trkpt><trkpt lat="43.908835" lon="11.82524"><ele>438.0</ele><time>2026-04-07T12:48:48.726Z</time></trkpt><trkpt lat="43.9086867" lon="11.8250883"><ele>438.0</ele><time>2026-04-07T12:48:49.73Z</time></trkpt><trkpt lat="43.9085117" lon="11.82498"><ele>435.0</ele><time>2026-04-07T12:48:50.732Z</time></trkpt><trkpt lat="43.9083183" lon="11.8248817"><ele>432.0</ele><time>2026-04-07T12:48:51.732Z</time></trkpt><trkpt lat="43.9081183" lon="11.8247717"><ele>429.0</ele><time>2026-04-07T12:48:52.73Z</time></trkpt><trkpt lat="43.9079183" lon="11.8246367"><ele>429.0</ele><time>2026-04-07T12:48:53.729Z</time></trkpt><trkpt lat="43.9077217" lon="11.8244967"><ele>429.0</ele><time>2026-04-07T12:48:54.731Z</time></trkpt><trkpt lat="43.9075517" lon="11.8243617"><ele>429.0</ele><time>2026-04-07T12:48:55.73Z</time></trkpt><trkpt lat="43.90742" lon="11.824245"><ele>430.75</ele><time>2026-04-07T12:48:56.731Z</time></trkpt><trkpt lat="43.907325" lon="11.8241333"><ele>432.5</ele><time>2026-04-07T12:48:57.726Z</time></trkpt><trkpt lat="43.90727" lon="11.8240017"><ele>434.25</ele><time>2026-04-07T12:48:58.727Z</time></trkpt><trkpt lat="43.9072517" lon="11.82383"><ele>436.0</ele><time>2026-04-07T12:48:59.73Z</time></trkpt><trkpt lat="43.90725" lon="11.8236183"><ele>440.0</ele><time>2026-04-07T12:49:00.732Z</time></trkpt><trkpt lat="43.9072583" lon="11.82338"><ele>444.0</ele><time>2026-04-07T12:49:01.731Z</time></trkpt><trkpt lat="43.907285" lon="11.823135"><ele>448.0</ele><time>2026-04-07T12:49:02.73Z</time></trkpt><trkpt lat="43.9073417" lon="11.8228833"><ele>447.33333333333337</ele><time>2026-04-07T12:49:03.732Z</time></trkpt><trkpt lat="43.9074167" lon="11.8226183"><ele>446.66666666666663</ele><time>2026-04-07T12:49:04.731Z</time></trkpt><trkpt lat="43.9074983" lon="11.822345"><ele>446.0</ele><time>2026-04-07T12:49:05.731Z</time></trkpt><trkpt lat="43.9075967" lon="11.8220717"><ele>462.5</ele><time>2026-04-07T12:49:06.731Z</time></trkpt><trkpt lat="43.907695" lon="11.8217917"><ele>479.0</ele><time>2026-04-07T12:49:07.732Z</time></trkpt><trkpt lat="43.907775" lon="11.8214933"><ele>479.0</ele><time>2026-04-07T12:49:08.73Z</time></trkpt><trkpt lat="43.9078367" lon="11.8211767"><ele>479.0</ele><time>2026-04-07T12:49:09.73Z</time></trkpt><trkpt lat="43.9078933" lon="11.82086"><ele>475.66666666666663</ele><time>2026-04-07T12:49:10.727Z</time></trkpt><trkpt lat="43.907955" lon="11.820565"><ele>472.33333333333337</ele><time>2026-04-07T12:49:11.731Z</time></trkpt><trkpt lat="43.9080233" lon="11.8203117"><ele>469.0</ele><time>2026-04-07T12:49:12.731Z</time></trkpt><trkpt lat="43.9080733" lon="11.820085"><ele>468.0</ele><time>2026-04-07T12:49:13.731Z</time></trkpt><trkpt lat="43.9081083" lon="11.8198667"><ele>467.0</ele><time>2026-04-07T12:49:14.731Z</time></trkpt><trkpt lat="43.9081183" lon="11.8196533"><ele>466.0</ele><time>2026-04-07T12:49:15.73Z</time></trkpt><trkpt lat="43.9080883" lon="11.8194633"><ele>470.0</ele><time>2026-04-07T12:49:16.727Z</time></trkpt><trkpt lat="43.90801" lon="11.819305"><ele>474.0</ele><time>2026-04-07T12:49:17.73Z</time></trkpt><trkpt lat="43.9078883" lon="11.8191833"><ele>478.0</ele><time>2026-04-07T12:49:18.729Z</time></trkpt><trkpt lat="43.9077333" lon="11.819065"><ele>468.0</ele><time>2026-04-07T12:49:19.73Z</time></trkpt><trkpt lat="43.9075617" lon="11.8189367"><ele>458.0</ele><time>2026-04-07T12:49:20.729Z</time></trkpt><trkpt lat="43.9073783" lon="11.8188083"><ele>448.0</ele><time>2026-04-07T12:49:21.729Z</time></trkpt><trkpt lat="43.9071833" lon="11.8186783"><ele>448.0</ele><time>2026-04-07T12:49:22.73Z</time></trkpt><trkpt lat="43.9069967" lon="11.8185317"><ele>448.0</ele><time>2026-04-07T12:49:23.73Z</time></trkpt><trkpt lat="43.9068317" lon="11.81838"><ele>448.0</ele><time>2026-04-07T12:49:24.731Z</time></trkpt><trkpt lat="43.906685" lon="11.8182317"><ele>450.6666666666667</ele><time>2026-04-07T12:49:25.732Z</time></trkpt><trkpt lat="43.906565" lon="11.818065"><ele>453.33333333333337</ele><time>2026-04-07T12:49:26.732Z</time></trkpt><trkpt lat="43.906455" lon="11.8178933"><ele>456.0</ele><time>2026-04-07T12:49:27.728Z</time></trkpt><trkpt lat="43.90634" lon="11.81775"><ele>460.66666666666663</ele><time>2026-04-07T12:49:28.728Z</time></trkpt><trkpt lat="43.9061983" lon="11.8176417"><ele>465.3333333333333</ele><time>2026-04-07T12:49:29.727Z</time></trkpt><trkpt lat="43.9060217" lon="11.81756"><ele>470.0</ele><time>2026-04-07T12:49:30.728Z</time></trkpt><trkpt lat="43.9058333" lon="11.8174883"><ele>470.0</ele><time>2026-04-07T12:49:31.728Z</time></trkpt><trkpt lat="43.905665" lon="11.8174233"><ele>470.0</ele><time>2026-04-07T12:49:32.728Z</time></trkpt><trkpt lat="43.90553" lon="11.81736"><ele>470.0</ele><time>2026-04-07T12:49:33.727Z</time></trkpt><trkpt lat="43.9054367" lon="11.817285"><ele>470.0</ele><time>2026-04-07T12:49:34.727Z</time></trkpt><trkpt lat="43.905385" lon="11.8171833"><ele>470.0</ele><time>2026-04-07T12:49:35.727Z</time></trkpt><trkpt lat="43.9053667" lon="11.8170467"><ele>470.0</ele><time>2026-04-07T12:49:36.726Z</time></trkpt><trkpt lat="43.9053883" lon="11.8168683"><ele>470.0</ele><time>2026-04-07T12:49:37.728Z</time></trkpt><trkpt lat="43.9054267" lon="11.8166583"><ele>470.0</ele><time>2026-04-07T12:49:38.727Z</time></trkpt><trkpt lat="43.905455" lon="11.816435"><ele>476.66666666666663</ele><time>2026-04-07T12:49:39.727Z</time></trkpt><trkpt lat="43.9054533" lon="11.816215"><ele>483.33333333333337</ele><time>2026-04-07T12:49:40.726Z</time></trkpt><trkpt lat="43.9054067" lon="11.816005"><ele>490.0</ele><time>2026-04-07T12:49:41.728Z</time></trkpt><trkpt lat="43.90532" lon="11.8158067"><ele>492.33333333333337</ele><time>2026-04-07T12:49:42.728Z</time></trkpt><trkpt lat="43.9052333" lon="11.8155967"><ele>494.66666666666663</ele><time>2026-04-07T12:49:43.727Z</time></trkpt><trkpt lat="43.9051433" lon="11.8154133"><ele>497.0</ele><time>2026-04-07T12:49:44.731Z</time></trkpt><trkpt lat="43.90505" lon="11.8152633"><ele>494.75</ele><time>2026-04-07T12:49:45.726Z</time></trkpt><trkpt lat="43.9049417" lon="11.8151567"><ele>492.5</ele><time>2026-04-07T12:49:46.728Z</time></trkpt><trkpt lat="43.904815" lon="11.8151267"><ele>490.25</ele><time>2026-04-07T12:49:47.731Z</time></trkpt><trkpt lat="43.9046917" lon="11.8151067"><ele>488.0</ele><time>2026-04-07T12:49:48.729Z</time></trkpt><trkpt lat="43.9045783" lon="11.8150567"><ele>488.0</ele><time>2026-04-07T12:49:49.729Z</time></trkpt><trkpt lat="43.9044883" lon="11.8149783"><ele>487.99999999999994</ele><time>2026-04-07T12:49:50.728Z</time></trkpt><trkpt lat="43.9044333" lon="11.81486"><ele>487.99999999999994</ele><time>2026-04-07T12:49:51.729Z</time></trkpt><trkpt lat="43.9044283" lon="11.8147217"><ele>488.0</ele><time>2026-04-07T12:49:52.73Z</time></trkpt><trkpt lat="43.9044667" lon="11.8145733"><ele>488.0</ele><time>2026-04-07T12:49:53.731Z</time></trkpt><trkpt lat="43.9045433" lon="11.8144083"><ele>490.3333333333333</ele><time>2026-04-07T12:49:54.729Z</time></trkpt><trkpt lat="43.9046867" lon="11.814295"><ele>492.66666666666663</ele><time>2026-04-07T12:49:55.73Z</time></trkpt><trkpt lat="43.9048483" lon="11.8141967"><ele>495.0</ele><time>2026-04-07T12:49:56.729Z</time></trkpt><trkpt lat="43.9050067" lon="11.81411"><ele>501.75</ele><time>2026-04-07T12:49:57.73Z</time></trkpt><trkpt lat="43.90513" lon="11.8140117"><ele>508.5</ele><time>2026-04-07T12:49:58.731Z</time></trkpt><trkpt lat="43.90522" lon="11.8139017"><ele>515.25</ele><time>2026-04-07T12:49:59.729Z</time></trkpt><trkpt lat="43.9052917" lon="11.813795"><ele>522.0</ele><time>2026-04-07T12:50:00.73Z</time></trkpt><trkpt lat="43.9053267" lon="11.8136717"><ele>522.0</ele><time>2026-04-07T12:50:01.731Z</time></trkpt><trkpt lat="43.9053067" lon="11.8135483"><ele>522.0</ele><time>2026-04-07T12:50:02.73Z</time></trkpt><trkpt lat="43.9052483" lon="11.8134233"><ele>522.0</ele><time>2026-04-07T12:50:03.731Z</time></trkpt><trkpt lat="43.9051533" lon="11.8132983"><ele>522.0</ele><time>2026-04-07T12:50:04.732Z</time></trkpt><trkpt lat="43.9050267" lon="11.8131867"><ele>514.3333333333334</ele><time>2026-04-07T12:50:05.73Z</time></trkpt><trkpt lat="43.9048583" lon="11.8130167"><ele>506.6666666666667</ele><time>2026-04-07T12:50:06.727Z</time></trkpt><trkpt lat="43.9047317" lon="11.8128683"><ele>499.0</ele><time>2026-04-07T12:50:07.727Z</time></trkpt><trkpt lat="43.9046667" lon="11.8127267"><ele>501.75</ele><time>2026-04-07T12:50:08.732Z</time></trkpt><trkpt lat="43.904645" lon="11.812575"><ele>504.5</ele><time>2026-04-07T12:50:09.731Z</time></trkpt><trkpt lat="43.9046583" lon="11.8124017"><ele>507.25</ele><time>2026-04-07T12:50:10.73Z</time></trkpt><trkpt lat="43.9047017" lon="11.812195"><ele>510.0</ele><time>2026-04-07T12:50:11.73Z</time></trkpt><trkpt lat="43.90476" lon="11.8119567"><ele>511.33333333333337</ele><time>2026-04-07T12:50:12.731Z</time></trkpt><trkpt lat="43.9048183" lon="11.8117033"><ele>512.6666666666667</ele><time>2026-04-07T12:50:13.732Z</time></trkpt><trkpt lat="43.9048833" lon="11.81144"><ele>514.0</ele><time>2026-04-07T12:50:14.731Z</time></trkpt><trkpt lat="43.90493" lon="11.8111567"><ele>513.3333333333334</ele><time>2026-04-07T12:50:15.732Z</time></trkpt><trkpt lat="43.9049683" lon="11.8108567"><ele>512.6666666666666</ele><time>2026-04-07T12:50:16.731Z</time></trkpt><trkpt lat="43.9049833" lon="11.8105517"><ele>512.0</ele><time>2026-04-07T12:50:17.73Z</time></trkpt><trkpt lat="43.904995" lon="11.8102367"><ele>513.3333333333333</ele><time>2026-04-07T12:50:18.73Z</time></trkpt><trkpt lat="43.905" lon="11.8099283"><ele>514.6666666666666</ele><time>2026-04-07T12:50:19.731Z</time></trkpt><trkpt lat="43.9050033" lon="11.8096483"><ele>516.0</ele><time>2026-04-07T12:50:20.732Z</time></trkpt><trkpt lat="43.905005" lon="11.8094"><ele>518.0</ele><time>2026-04-07T12:50:21.73Z</time></trkpt><trkpt lat="43.9049883" lon="11.8091783"><ele>520.0</ele><time>2026-04-07T12:50:22.731Z</time></trkpt><trkpt lat="43.9049583" lon="11.8090067"><ele>522.0</ele><time>2026-04-07T12:50:23.733Z</time></trkpt><trkpt lat="43.90489" lon="11.8088733"><ele>524.0</ele><time>2026-04-07T12:50:24.731Z</time></trkpt><trkpt lat="43.9047783" lon="11.80879"><ele>524.0</ele><time>2026-04-07T12:50:25.731Z</time></trkpt><trkpt lat="43.9046333" lon="11.8087217"><ele>524.0</ele><time>2026-04-07T12:50:26.73Z</time></trkpt><trkpt lat="43.9044867" lon="11.8086417"><ele>524.0</ele><time>2026-04-07T12:50:27.73Z</time></trkpt><trkpt lat="43.9043667" lon="11.8085367"><ele>522.0</ele><time>2026-04-07T12:50:28.73Z</time></trkpt><trkpt lat="43.9042817" lon="11.80841"><ele>520.0</ele><time>2026-04-07T12:50:29.729Z</time></trkpt><trkpt lat="43.9042317" lon="11.808255"><ele>518.0</ele><time>2026-04-07T12:50:30.732Z</time></trkpt><trkpt lat="43.90423" lon="11.8080717"><ele>516.0</ele><time>2026-04-07T12:50:31.731Z</time></trkpt><trkpt lat="43.904255" lon="11.807865"><ele>530.3333333333334</ele><time>2026-04-07T12:50:32.73Z</time></trkpt><trkpt lat="43.9043" lon="11.8076233"><ele>544.6666666666667</ele><time>2026-04-07T12:50:33.731Z</time></trkpt><trkpt lat="43.9043517" lon="11.8073633"><ele>559.0</ele><time>2026-04-07T12:50:34.73Z</time></trkpt><trkpt lat="43.90442" lon="11.8071017"><ele>559.0</ele><time>2026-04-07T12:50:35.731Z</time></trkpt><trkpt lat="43.9045" lon="11.8068283"><ele>559.0</ele><time>2026-04-07T12:50:36.73Z</time></trkpt><trkpt lat="43.90456" lon="11.8065433"><ele>559.0</ele><time>2026-04-07T12:50:37.728Z</time></trkpt><trkpt lat="43.9045967" lon="11.8062483"><ele>560.6666666666667</ele><time>2026-04-07T12:50:38.73Z</time></trkpt><trkpt lat="43.904615" lon="11.80597"><ele>562.3333333333334</ele><time>2026-04-07T12:50:39.731Z</time></trkpt><trkpt lat="43.90464" lon="11.80573"><ele>564.0</ele><time>2026-04-07T12:50:40.73Z</time></trkpt><trkpt lat="43.9046367" lon="11.80552"><ele>564.0</ele><time>2026-04-07T12:50:41.73Z</time></trkpt><trkpt lat="43.904625" lon="11.8053483"><ele>564.0</ele><time>2026-04-07T12:50:42.73Z</time></trkpt><trkpt lat="43.904545" lon="11.805175"><ele>564.0</ele><time>2026-04-07T12:50:43.732Z</time></trkpt><trkpt lat="43.9044283" lon="11.805"><ele>564.0</ele><time>2026-04-07T12:50:44.729Z</time></trkpt><trkpt lat="43.904295" lon="11.8048183"><ele>560.3333333333334</ele><time>2026-04-07T12:50:45.73Z</time></trkpt><trkpt lat="43.9041533" lon="11.804615"><ele>556.6666666666667</ele><time>2026-04-07T12:50:46.73Z</time></trkpt><trkpt lat="43.9040167" lon="11.804415"><ele>553.0</ele><time>2026-04-07T12:50:47.73Z</time></trkpt><trkpt lat="43.9038933" lon="11.8042317"><ele>553.0</ele><time>2026-04-07T12:50:48.726Z</time></trkpt><trkpt lat="43.9037967" lon="11.8040667"><ele>553.0</ele><time>2026-04-07T12:50:49.726Z</time></trkpt><trkpt lat="43.90374" lon="11.803925"><ele>553.0</ele><time>2026-04-07T12:50:50.73Z</time></trkpt><trkpt lat="43.90372" lon="11.80377"><ele>553.0</ele><time>2026-04-07T12:50:51.731Z</time></trkpt><trkpt lat="43.90376" lon="11.8036033"><ele>555.3333333333334</ele><time>2026-04-07T12:50:52.729Z</time></trkpt><trkpt lat="43.9038433" lon="11.8034167"><ele>557.6666666666666</ele><time>2026-04-07T12:50:53.73Z</time></trkpt><trkpt lat="43.9039133" lon="11.8031967"><ele>560.0</ele><time>2026-04-07T12:50:54.729Z</time></trkpt><trkpt lat="43.9039633" lon="11.8029517"><ele>560.0</ele><time>2026-04-07T12:50:55.73Z</time></trkpt><trkpt lat="43.90399" lon="11.80267"><ele>560.0</ele><time>2026-04-07T12:50:56.73Z</time></trkpt><trkpt lat="43.9039983" lon="11.8023717"><ele>560.0</ele><time>2026-04-07T12:50:57.73Z</time></trkpt><trkpt lat="43.9039917" lon="11.8020733"><ele>559.6666666666666</ele><time>2026-04-07T12:50:58.729Z</time></trkpt><trkpt lat="43.9039867" lon="11.8017867"><ele>559.3333333333334</ele><time>2026-04-07T12:50:59.729Z</time></trkpt><trkpt lat="43.9039917" lon="11.801525"><ele>559.0</ele><time>2026-04-07T12:51:00.731Z</time></trkpt><trkpt lat="43.9040067" lon="11.8012983"><ele>559.0</ele><time>2026-04-07T12:51:01.73Z</time></trkpt><trkpt lat="43.90403" lon="11.80111"><ele>559.0</ele><time>2026-04-07T12:51:02.731Z</time></trkpt><trkpt lat="43.90408" lon="11.8009517"><ele>559.0</ele><time>2026-04-07T12:51:03.73Z</time></trkpt><trkpt lat="43.9041733" lon="11.8008083"><ele>559.0</ele><time>2026-04-07T12:51:04.73Z</time></trkpt><trkpt lat="43.9042767" lon="11.8006767"><ele>563.6666666666667</ele><time>2026-04-07T12:51:05.731Z</time></trkpt><trkpt lat="43.9043917" lon="11.8005417"><ele>568.3333333333334</ele><time>2026-04-07T12:51:06.726Z</time></trkpt><trkpt lat="43.9045067" lon="11.8003867"><ele>573.0</ele><time>2026-04-07T12:51:07.727Z</time></trkpt><trkpt lat="43.9046267" lon="11.8002233"><ele>568.6666666666666</ele><time>2026-04-07T12:51:08.725Z</time></trkpt><trkpt lat="43.9047517" lon="11.80006"><ele>564.3333333333333</ele><time>2026-04-07T12:51:09.725Z</time></trkpt><trkpt lat="43.9048667" lon="11.799875"><ele>560.0</ele><time>2026-04-07T12:51:10.726Z</time></trkpt><trkpt lat="43.90497" lon="11.7996683"><ele>560.0</ele><time>2026-04-07T12:51:11.726Z</time></trkpt><trkpt lat="43.9050667" lon="11.79946"><ele>560.0</ele><time>2026-04-07T12:51:12.727Z</time></trkpt><trkpt lat="43.9051517" lon="11.7992667"><ele>560.0</ele><time>2026-04-07T12:51:13.727Z</time></trkpt><trkpt lat="43.9052283" lon="11.7991067"><ele>559.8</ele><time>2026-04-07T12:51:14.725Z</time></trkpt><trkpt lat="43.9052983" lon="11.7989933"><ele>559.6</ele><time>2026-04-07T12:51:15.727Z</time></trkpt><trkpt lat="43.9053667" lon="11.7989333"><ele>559.4</ele><time>2026-04-07T12:51:16.728Z</time></trkpt><trkpt lat="43.90544" lon="11.7989117"><ele>559.2</ele><time>2026-04-07T12:51:17.727Z</time></trkpt><trkpt lat="43.9055317" lon="11.7989283"><ele>559.0</ele><time>2026-04-07T12:51:18.726Z</time></trkpt><trkpt lat="43.9056317" lon="11.79898"><ele>559.0</ele><time>2026-04-07T12:51:19.727Z</time></trkpt><trkpt lat="43.9057317" lon="11.7990233"><ele>559.0</ele><time>2026-04-07T12:51:20.726Z</time></trkpt><trkpt lat="43.9058383" lon="11.7990683"><ele>559.0</ele><time>2026-04-07T12:51:21.726Z</time></trkpt><trkpt lat="43.9059433" lon="11.799125"><ele>559.0</ele><time>2026-04-07T12:51:22.726Z</time></trkpt><trkpt lat="43.90604" lon="11.7991683"><ele>559.0</ele><time>2026-04-07T12:51:23.726Z</time></trkpt><trkpt lat="43.9061333" lon="11.7991767"><ele>561.3333333333334</ele><time>2026-04-07T12:51:24.726Z</time></trkpt><trkpt lat="43.9062083" lon="11.7991383"><ele>563.6666666666667</ele><time>2026-04-07T12:51:25.726Z</time></trkpt><trkpt lat="43.906265" lon="11.7990733"><ele>566.0</ele><time>2026-04-07T12:51:26.725Z</time></trkpt><trkpt lat="43.90632" lon="11.7990117"><ele>568.3333333333334</ele><time>2026-04-07T12:51:27.726Z</time></trkpt><trkpt lat="43.9063617" lon="11.798935"><ele>570.6666666666666</ele><time>2026-04-07T12:51:28.734Z</time></trkpt><trkpt lat="43.9063533" lon="11.798815"><ele>573.0</ele><time>2026-04-07T12:51:29.73Z</time></trkpt><trkpt lat="43.906295" lon="11.7986783"><ele>573.0</ele><time>2026-04-07T12:51:30.727Z</time></trkpt><trkpt lat="43.9062083" lon="11.7985433"><ele>573.0</ele><time>2026-04-07T12:51:31.729Z</time></trkpt><trkpt lat="43.906085" lon="11.7983683"><ele>573.0</ele><time>2026-04-07T12:51:32.727Z</time></trkpt><trkpt lat="43.9059667" lon="11.7981817"><ele>570.0</ele><time>2026-04-07T12:51:33.727Z</time></trkpt><trkpt lat="43.9058833" lon="11.7980283"><ele>567.0</ele><time>2026-04-07T12:51:34.73Z</time></trkpt><trkpt lat="43.9058067" lon="11.797875"><ele>564.0</ele><time>2026-04-07T12:51:35.725Z</time></trkpt><trkpt lat="43.905745" lon="11.7977233"><ele>561.0</ele><time>2026-04-07T12:51:36.73Z</time></trkpt><trkpt lat="43.905695" lon="11.7975733"><ele>561.0</ele><time>2026-04-07T12:51:37.73Z</time></trkpt><trkpt lat="43.9056467" lon="11.7974333"><ele>561.0</ele><time>2026-04-07T12:51:38.727Z</time></trkpt><trkpt lat="43.9056017" lon="11.7973067"><ele>561.0</ele><time>2026-04-07T12:51:39.726Z</time></trkpt><trkpt lat="43.90557" lon="11.79719"><ele>561.0</ele><time>2026-04-07T12:51:40.729Z</time></trkpt><trkpt lat="43.90556" lon="11.79707"><ele>561.0</ele><time>2026-04-07T12:51:41.731Z</time></trkpt><trkpt lat="43.90559" lon="11.796955"><ele>561.2</ele><time>2026-04-07T12:51:42.73Z</time></trkpt><trkpt lat="43.905645" lon="11.796835"><ele>561.4000000000001</ele><time>2026-04-07T12:51:43.73Z</time></trkpt><trkpt lat="43.9057117" lon="11.7967233"><ele>561.6</ele><time>2026-04-07T12:51:44.731Z</time></trkpt><trkpt lat="43.90578" lon="11.7965983"><ele>561.8000000000001</ele><time>2026-04-07T12:51:45.731Z</time></trkpt><trkpt lat="43.905835" lon="11.7964567"><ele>562.0</ele><time>2026-04-07T12:51:46.731Z</time></trkpt><trkpt lat="43.905885" lon="11.796295"><ele>567.0</ele><time>2026-04-07T12:51:47.731Z</time></trkpt><trkpt lat="43.905925" lon="11.7961133"><ele>572.0</ele><time>2026-04-07T12:51:48.729Z</time></trkpt><trkpt lat="43.9059617" lon="11.795925"><ele>577.0</ele><time>2026-04-07T12:51:49.728Z</time></trkpt><trkpt lat="43.9060017" lon="11.7957433"><ele>582.0</ele><time>2026-04-07T12:51:50.728Z</time></trkpt><trkpt lat="43.9060367" lon="11.795565"><ele>582.0</ele><time>2026-04-07T12:51:51.726Z</time></trkpt><trkpt lat="43.9060683" lon="11.7953933"><ele>582.0</ele><time>2026-04-07T12:51:52.726Z</time></trkpt><trkpt lat="43.9061017" lon="11.7952367"><ele>582.0</ele><time>2026-04-07T12:51:53.728Z</time></trkpt><trkpt lat="43.90613" lon="11.79509"><ele>582.0</ele><time>2026-04-07T12:51:54.727Z</time></trkpt><trkpt lat="43.9061617" lon="11.7949517"><ele>580.0</ele><time>2026-04-07T12:51:55.726Z</time></trkpt><trkpt lat="43.9061967" lon="11.794805"><ele>578.0</ele><time>2026-04-07T12:51:56.727Z</time></trkpt><trkpt lat="43.906245" lon="11.7946467"><ele>576.0</ele><time>2026-04-07T12:51:57.725Z</time></trkpt><trkpt lat="43.9063" lon="11.7944833"><ele>574.0</ele><time>2026-04-07T12:51:58.731Z</time></trkpt><trkpt lat="43.9063583" lon="11.7943283"><ele>572.0</ele><time>2026-04-07T12:51:59.73Z</time></trkpt><trkpt lat="43.906415" lon="11.7941783"><ele>570.0</ele><time>2026-04-07T12:52:00.73Z</time></trkpt><trkpt lat="43.9064667" lon="11.7940317"><ele>568.0</ele><time>2026-04-07T12:52:01.731Z</time></trkpt><trkpt lat="43.906515" lon="11.7938983"><ele>566.0</ele><time>2026-04-07T12:52:02.73Z</time></trkpt><trkpt lat="43.9065583" lon="11.7937817"><ele>564.0</ele><time>2026-04-07T12:52:03.733Z</time></trkpt><trkpt lat="43.9066067" lon="11.7936767"><ele>564.0</ele><time>2026-04-07T12:52:04.729Z</time></trkpt><trkpt lat="43.9066617" lon="11.7935767"><ele>564.0</ele><time>2026-04-07T12:52:05.729Z</time></trkpt><trkpt lat="43.90673" lon="11.7934717"><ele>564.0</ele><time>2026-04-07T12:52:06.73Z</time></trkpt><trkpt lat="43.906805" lon="11.7933517"><ele>564.0</ele><time>2026-04-07T12:52:07.73Z</time></trkpt><trkpt lat="43.90688" lon="11.79321"><ele>564.0</ele><time>2026-04-07T12:52:08.73Z</time></trkpt><trkpt lat="43.906965" lon="11.79306"><ele>565.3333333333334</ele><time>2026-04-07T12:52:09.73Z</time></trkpt><trkpt lat="43.9070633" lon="11.7928783"><ele>566.6666666666667</ele><time>2026-04-07T12:52:10.729Z</time></trkpt><trkpt lat="43.9071817" lon="11.79268"><ele>568.0</ele><time>2026-04-07T12:52:11.731Z</time></trkpt><trkpt lat="43.9073083" lon="11.7924817"><ele>568.6666666666667</ele><time>2026-04-07T12:52:12.73Z</time></trkpt><trkpt lat="43.9074267" lon="11.792295"><ele>569.3333333333334</ele><time>2026-04-07T12:52:13.727Z</time></trkpt><trkpt lat="43.9075233" lon="11.79212"><ele>570.0</ele><time>2026-04-07T12:52:14.734Z</time></trkpt><trkpt lat="43.9076083" lon="11.79198"><ele>570.0</ele><time>2026-04-07T12:52:15.73Z</time></trkpt><trkpt lat="43.9077" lon="11.7918817"><ele>570.0</ele><time>2026-04-07T12:52:16.729Z</time></trkpt><trkpt lat="43.9077983" lon="11.7918267"><ele>570.0</ele><time>2026-04-07T12:52:17.727Z</time></trkpt><trkpt lat="43.90789" lon="11.791805"><ele>570.0</ele><time>2026-04-07T12:52:18.726Z</time></trkpt><trkpt lat="43.9079867" lon="11.7918217"><ele>570.0</ele><time>2026-04-07T12:52:19.727Z</time></trkpt><trkpt lat="43.9080967" lon="11.7918683"><ele>570.0</ele><time>2026-04-07T12:52:20.726Z</time></trkpt><trkpt lat="43.9082" lon="11.79191"><ele>570.0</ele><time>2026-04-07T12:52:21.725Z</time></trkpt><trkpt lat="43.9083033" lon="11.7919333"><ele>570.0</ele><time>2026-04-07T12:52:22.726Z</time></trkpt><trkpt lat="43.908405" lon="11.7919217"><ele>570.0</ele><time>2026-04-07T12:52:23.726Z</time></trkpt><trkpt lat="43.9084917" lon="11.79187"><ele>570.0</ele><time>2026-04-07T12:52:24.727Z</time></trkpt><trkpt lat="43.908565" lon="11.7917867"><ele>566.8</ele><time>2026-04-07T12:52:25.727Z</time></trkpt><trkpt lat="43.9086167" lon="11.7916683"><ele>563.6</ele><time>2026-04-07T12:52:26.727Z</time></trkpt><trkpt lat="43.9086383" lon="11.7915267"><ele>560.4</ele><time>2026-04-07T12:52:27.727Z</time></trkpt><trkpt lat="43.908625" lon="11.79139"><ele>557.2</ele><time>2026-04-07T12:52:28.731Z</time></trkpt><trkpt lat="43.9086133" lon="11.79125"><ele>554.0</ele><time>2026-04-07T12:52:29.728Z</time></trkpt><trkpt lat="43.9085217" lon="11.7910867"><ele>553.3333333333333</ele><time>2026-04-07T12:52:30.729Z</time></trkpt><trkpt lat="43.908455" lon="11.7909817"><ele>552.6666666666666</ele><time>2026-04-07T12:52:31.729Z</time></trkpt><trkpt lat="43.9083267" lon="11.7909133"><ele>552.0</ele><time>2026-04-07T12:52:32.729Z</time></trkpt><trkpt lat="43.9081067" lon="11.7907967"><ele>552.0</ele><time>2026-04-07T12:52:33.729Z</time></trkpt><trkpt lat="43.90779" lon="11.790725"><ele>552.0</ele><time>2026-04-07T12:52:34.729Z</time></trkpt><trkpt lat="43.9074783" lon="11.7907067"><ele>548.0</ele><time>2026-04-07T12:52:35.73Z</time></trkpt><trkpt lat="43.9072383" lon="11.7906883"><ele>544.0</ele><time>2026-04-07T12:52:36.728Z</time></trkpt><trkpt lat="43.9070767" lon="11.79068"><ele>540.0</ele><time>2026-04-07T12:52:37.73Z</time></trkpt><trkpt lat="43.906925" lon="11.7906183"><ele>540.0</ele><time>2026-04-07T12:52:38.729Z</time></trkpt><trkpt lat="43.9067933" lon="11.7905017"><ele>540.0</ele><time>2026-04-07T12:52:39.728Z</time></trkpt><trkpt lat="43.9066633" lon="11.7903817"><ele>540.0</ele><time>2026-04-07T12:52:40.726Z</time></trkpt><trkpt lat="43.9065083" lon="11.7902883"><ele>535.3333333333334</ele><time>2026-04-07T12:52:41.728Z</time></trkpt><trkpt lat="43.9063267" lon="11.79023"><ele>530.6666666666667</ele><time>2026-04-07T12:52:42.728Z</time></trkpt><trkpt lat="43.9061567" lon="11.7901817"><ele>526.0</ele><time>2026-04-07T12:52:43.73Z</time></trkpt><trkpt lat="43.9060133" lon="11.790115"><ele>528.25</ele><time>2026-04-07T12:52:44.73Z</time></trkpt><trkpt lat="43.9058967" lon="11.7900033"><ele>530.5</ele><time>2026-04-07T12:52:45.727Z</time></trkpt><trkpt lat="43.9058117" lon="11.7898417"><ele>532.75</ele><time>2026-04-07T12:52:46.727Z</time></trkpt><trkpt lat="43.9057583" lon="11.7896283"><ele>535.0</ele><time>2026-04-07T12:52:47.727Z</time></trkpt><trkpt lat="43.9057167" lon="11.7893817"><ele>543.0</ele><time>2026-04-07T12:52:48.728Z</time></trkpt><trkpt lat="43.9056717" lon="11.7891117"><ele>551.0</ele><time>2026-04-07T12:52:49.728Z</time></trkpt><trkpt lat="43.9056183" lon="11.7888367"><ele>559.0</ele><time>2026-04-07T12:52:50.728Z</time></trkpt><trkpt lat="43.905545" lon="11.788575"><ele>566.0</ele><time>2026-04-07T12:52:51.728Z</time></trkpt><trkpt lat="43.9054417" lon="11.788345"><ele>573.0</ele><time>2026-04-07T12:52:52.728Z</time></trkpt><trkpt lat="43.9053067" lon="11.7881483"><ele>580.0</ele><time>2026-04-07T12:52:53.729Z</time></trkpt><trkpt lat="43.905145" lon="11.7879867"><ele>563.6666666666667</ele><time>2026-04-07T12:52:54.728Z</time></trkpt><trkpt lat="43.9049567" lon="11.78787"><ele>547.3333333333334</ele><time>2026-04-07T12:52:55.727Z</time></trkpt><trkpt lat="43.9047467" lon="11.7877867"><ele>531.0</ele><time>2026-04-07T12:52:56.729Z</time></trkpt><trkpt lat="43.9045483" lon="11.7877167"><ele>532.3333333333334</ele><time>2026-04-07T12:52:57.729Z</time></trkpt><trkpt lat="43.9043717" lon="11.7876317"><ele>533.6666666666667</ele><time>2026-04-07T12:52:58.729Z</time></trkpt><trkpt lat="43.9042233" lon="11.7875233"><ele>535.0</ele><time>2026-04-07T12:52:59.73Z</time></trkpt><trkpt lat="43.9041083" lon="11.7873983"><ele>535.0</ele><time>2026-04-07T12:53:00.729Z</time></trkpt><trkpt lat="43.9040367" lon="11.7872583"><ele>535.0</ele><time>2026-04-07T12:53:01.731Z</time></trkpt><trkpt lat="43.9040017" lon="11.78711"><ele>535.0</ele><time>2026-04-07T12:53:02.731Z</time></trkpt><trkpt lat="43.9040083" lon="11.78695"><ele>535.0</ele><time>2026-04-07T12:53:03.729Z</time></trkpt><trkpt lat="43.9040767" lon="11.7867633"><ele>535.3333333333334</ele><time>2026-04-07T12:53:04.731Z</time></trkpt><trkpt lat="43.9041733" lon="11.7865433"><ele>535.6666666666666</ele><time>2026-04-07T12:53:05.73Z</time></trkpt><trkpt lat="43.9042517" lon="11.7863"><ele>536.0</ele><time>2026-04-07T12:53:06.727Z</time></trkpt><trkpt lat="43.9043267" lon="11.7860333"><ele>546.3333333333333</ele><time>2026-04-07T12:53:07.732Z</time></trkpt><trkpt lat="43.9043783" lon="11.7857583"><ele>556.6666666666666</ele><time>2026-04-07T12:53:08.73Z</time></trkpt><trkpt lat="43.904415" lon="11.7855083"><ele>567.0</ele><time>2026-04-07T12:53:09.73Z</time></trkpt><trkpt lat="43.9044467" lon="11.7853"><ele>566.5</ele><time>2026-04-07T12:53:10.73Z</time></trkpt><trkpt lat="43.9044633" lon="11.785125"><ele>566.0</ele><time>2026-04-07T12:53:11.73Z</time></trkpt><trkpt lat="43.9044517" lon="11.784985"><ele>565.5</ele><time>2026-04-07T12:53:12.73Z</time></trkpt><trkpt lat="43.9043883" lon="11.78487"><ele>565.0</ele><time>2026-04-07T12:53:13.73Z</time></trkpt><trkpt lat="43.90429" lon="11.784775"><ele>554.6666666666667</ele><time>2026-04-07T12:53:14.727Z</time></trkpt><trkpt lat="43.904165" lon="11.7846883"><ele>544.3333333333334</ele><time>2026-04-07T12:53:15.73Z</time></trkpt><trkpt lat="43.90401" lon="11.7845967"><ele>534.0</ele><time>2026-04-07T12:53:16.728Z</time></trkpt><trkpt lat="43.9038467" lon="11.7845267"><ele>534.0</ele><time>2026-04-07T12:53:17.729Z</time></trkpt><trkpt lat="43.903685" lon="11.7845083"><ele>534.0</ele><time>2026-04-07T12:53:18.728Z</time></trkpt><trkpt lat="43.9035233" lon="11.7845567"><ele>534.0</ele><time>2026-04-07T12:53:19.728Z</time></trkpt><trkpt lat="43.9033633" lon="11.78464"><ele>534.25</ele><time>2026-04-07T12:53:20.727Z</time></trkpt><trkpt lat="43.903215" lon="11.7847133"><ele>534.5</ele><time>2026-04-07T12:53:21.729Z</time></trkpt><trkpt lat="43.9030867" lon="11.7847333"><ele>534.75</ele><time>2026-04-07T12:53:22.727Z</time></trkpt><trkpt lat="43.9029683" lon="11.7846917"><ele>535.0</ele><time>2026-04-07T12:53:23.728Z</time></trkpt><trkpt lat="43.9028567" lon="11.7845967"><ele>535.0</ele><time>2026-04-07T12:53:24.731Z</time></trkpt><trkpt lat="43.90273" lon="11.78448"><ele>535.0</ele><time>2026-04-07T12:53:25.73Z</time></trkpt><trkpt lat="43.902605" lon="11.7843917"><ele>535.0</ele><time>2026-04-07T12:53:26.731Z</time></trkpt><trkpt lat="43.902475" lon="11.784345"><ele>535.0</ele><time>2026-04-07T12:53:27.731Z</time></trkpt><trkpt lat="43.9023383" lon="11.78434"><ele>542.5</ele><time>2026-04-07T12:53:28.729Z</time></trkpt><trkpt lat="43.902205" lon="11.7843383"><ele>550.0</ele><time>2026-04-07T12:53:29.726Z</time></trkpt><trkpt lat="43.9020883" lon="11.784305"><ele>557.5</ele><time>2026-04-07T12:53:30.731Z</time></trkpt><trkpt lat="43.901995" lon="11.78422"><ele>565.0</ele><time>2026-04-07T12:53:31.73Z</time></trkpt><trkpt lat="43.9019217" lon="11.7840767"><ele>565.0</ele><time>2026-04-07T12:53:32.729Z</time></trkpt><trkpt lat="43.9018467" lon="11.7838967"><ele>565.0</ele><time>2026-04-07T12:53:33.73Z</time></trkpt><trkpt lat="43.901775" lon="11.7836867"><ele>565.0</ele><time>2026-04-07T12:53:34.728Z</time></trkpt><trkpt lat="43.901695" lon="11.7834633"><ele>565.0</ele><time>2026-04-07T12:53:35.729Z</time></trkpt><trkpt lat="43.9016083" lon="11.78323"><ele>565.0</ele><time>2026-04-07T12:53:36.728Z</time></trkpt><trkpt lat="43.9015183" lon="11.7829983"><ele>565.0</ele><time>2026-04-07T12:53:37.728Z</time></trkpt><trkpt lat="43.9014383" lon="11.7827783"><ele>570.25</ele><time>2026-04-07T12:53:38.73Z</time></trkpt><trkpt lat="43.9013617" lon="11.7825967"><ele>575.5</ele><time>2026-04-07T12:53:39.729Z</time></trkpt><trkpt lat="43.90127" lon="11.782465"><ele>580.75</ele><time>2026-04-07T12:53:40.73Z</time></trkpt><trkpt lat="43.9011533" lon="11.782385"><ele>586.0</ele><time>2026-04-07T12:53:41.727Z</time></trkpt><trkpt lat="43.901015" lon="11.782335"><ele>580.0</ele><time>2026-04-07T12:53:42.729Z</time></trkpt><trkpt lat="43.90089" lon="11.7822617"><ele>574.0</ele><time>2026-04-07T12:53:43.732Z</time></trkpt><trkpt lat="43.900795" lon="11.7821667"><ele>568.0</ele><time>2026-04-07T12:53:44.73Z</time></trkpt><trkpt lat="43.900745" lon="11.782035"><ele>562.0</ele><time>2026-04-07T12:53:45.73Z</time></trkpt><trkpt lat="43.900735" lon="11.781855"><ele>566.25</ele><time>2026-04-07T12:53:46.729Z</time></trkpt><trkpt lat="43.90072" lon="11.7816683"><ele>570.5</ele><time>2026-04-07T12:53:47.727Z</time></trkpt><trkpt lat="43.9006783" lon="11.7815217"><ele>574.75</ele><time>2026-04-07T12:53:48.729Z</time></trkpt><trkpt lat="43.9005867" lon="11.7814233"><ele>579.0</ele><time>2026-04-07T12:53:49.728Z</time></trkpt><trkpt lat="43.9004617" lon="11.7813783"><ele>579.0</ele><time>2026-04-07T12:53:50.728Z</time></trkpt><trkpt lat="43.9003117" lon="11.7813617"><ele>579.0</ele><time>2026-04-07T12:53:51.727Z</time></trkpt><trkpt lat="43.9001583" lon="11.7813683"><ele>579.0</ele><time>2026-04-07T12:53:52.728Z</time></trkpt><trkpt lat="43.9000067" lon="11.78135"><ele>574.0</ele><time>2026-04-07T12:53:53.73Z</time></trkpt><trkpt lat="43.899855" lon="11.781285"><ele>569.0</ele><time>2026-04-07T12:53:54.726Z</time></trkpt><trkpt lat="43.8997" lon="11.7811767"><ele>564.0</ele><time>2026-04-07T12:53:55.73Z</time></trkpt><trkpt lat="43.899555" lon="11.78106"><ele>572.75</ele><time>2026-04-07T12:53:56.73Z</time></trkpt><trkpt lat="43.8994517" lon="11.7809483"><ele>581.5</ele><time>2026-04-07T12:53:57.73Z</time></trkpt><trkpt lat="43.8993933" lon="11.7808133"><ele>590.25</ele><time>2026-04-07T12:53:58.73Z</time></trkpt><trkpt lat="43.8993667" lon="11.78063"><ele>599.0</ele><time>2026-04-07T12:53:59.73Z</time></trkpt><trkpt lat="43.8993533" lon="11.7804117"><ele>609.0</ele><time>2026-04-07T12:54:00.73Z</time></trkpt><trkpt lat="43.8993367" lon="11.78017"><ele>619.0</ele><time>2026-04-07T12:54:01.727Z</time></trkpt><trkpt lat="43.89931" lon="11.77994"><ele>629.0</ele><time>2026-04-07T12:54:02.73Z</time></trkpt><trkpt lat="43.899265" lon="11.7797417"><ele>615.6666666666666</ele><time>2026-04-07T12:54:03.73Z</time></trkpt><trkpt lat="43.89918" lon="11.779585"><ele>602.3333333333334</ele><time>2026-04-07T12:54:04.731Z</time></trkpt><trkpt lat="43.899055" lon="11.779475"><ele>589.0</ele><time>2026-04-07T12:54:05.731Z</time></trkpt><trkpt lat="43.8988883" lon="11.779385"><ele>590.3333333333334</ele><time>2026-04-07T12:54:06.73Z</time></trkpt><trkpt lat="43.8987067" lon="11.7793067"><ele>591.6666666666666</ele><time>2026-04-07T12:54:07.731Z</time></trkpt><trkpt lat="43.8985133" lon="11.7792267"><ele>593.0</ele><time>2026-04-07T12:54:08.731Z</time></trkpt><trkpt lat="43.8983317" lon="11.779135"><ele>593.0</ele><time>2026-04-07T12:54:09.731Z</time></trkpt><trkpt lat="43.8981817" lon="11.7790467"><ele>593.0</ele><time>2026-04-07T12:54:10.73Z</time></trkpt><trkpt lat="43.8980733" lon="11.77894"><ele>593.0</ele><time>2026-04-07T12:54:11.73Z</time></trkpt><trkpt lat="43.8979983" lon="11.7787917"><ele>593.0</ele><time>2026-04-07T12:54:12.73Z</time></trkpt><trkpt lat="43.897955" lon="11.778595"><ele>607.0</ele><time>2026-04-07T12:54:13.73Z</time></trkpt><trkpt lat="43.897905" lon="11.7783867"><ele>621.0</ele><time>2026-04-07T12:54:14.73Z</time></trkpt><trkpt lat="43.8978267" lon="11.7781833"><ele>635.0</ele><time>2026-04-07T12:54:15.729Z</time></trkpt><trkpt lat="43.8977183" lon="11.777995"><ele>635.0</ele><time>2026-04-07T12:54:16.73Z</time></trkpt><trkpt lat="43.8975933" lon="11.7778533"><ele>635.0</ele><time>2026-04-07T12:54:17.729Z</time></trkpt><trkpt lat="43.8974583" lon="11.7777583"><ele>635.0</ele><time>2026-04-07T12:54:18.729Z</time></trkpt><trkpt lat="43.8972933" lon="11.77772"><ele>636.75</ele><time>2026-04-07T12:54:19.731Z</time></trkpt><trkpt lat="43.89712" lon="11.7777267"><ele>638.5</ele><time>2026-04-07T12:54:20.73Z</time></trkpt><trkpt lat="43.89698" lon="11.7777383"><ele>640.25</ele><time>2026-04-07T12:54:21.731Z</time></trkpt><trkpt lat="43.8968767" lon="11.7777283"><ele>642.0</ele><time>2026-04-07T12:54:22.725Z</time></trkpt><trkpt lat="43.8968133" lon="11.7776783"><ele>642.0</ele><time>2026-04-07T12:54:23.731Z</time></trkpt><trkpt lat="43.8967733" lon="11.7776067"><ele>642.0</ele><time>2026-04-07T12:54:24.73Z</time></trkpt><trkpt lat="43.8967883" lon="11.7774467"><ele>642.0</ele><time>2026-04-07T12:54:26.728Z</time></trkpt><trkpt lat="43.8968833" lon="11.77741"><ele>642.0</ele><time>2026-04-07T12:54:27.729Z</time></trkpt><trkpt lat="43.896955" lon="11.7774067"><ele>642.0</ele><time>2026-04-07T12:54:28.728Z</time></trkpt><trkpt lat="43.8970883" lon="11.7774883"><ele>642.0</ele><time>2026-04-07T12:54:29.731Z</time></trkpt><trkpt lat="43.8972167" lon="11.7775417"><ele>642.0</ele><time>2026-04-07T12:54:30.729Z</time></trkpt><trkpt lat="43.8974117" lon="11.7776083"><ele>642.0</ele><time>2026-04-07T12:54:31.73Z</time></trkpt><trkpt lat="43.8975867" lon="11.77772"><ele>639.6666666666666</ele><time>2026-04-07T12:54:32.727Z</time></trkpt><trkpt lat="43.897725" lon="11.7778433"><ele>637.3333333333333</ele><time>2026-04-07T12:54:33.728Z</time></trkpt><trkpt lat="43.8978583" lon="11.77803"><ele>635.0</ele><time>2026-04-07T12:54:34.73Z</time></trkpt><trkpt lat="43.8979883" lon="11.7782517"><ele>635.0</ele><time>2026-04-07T12:54:35.73Z</time></trkpt><trkpt lat="43.898095" lon="11.77845"><ele>635.0</ele><time>2026-04-07T12:54:36.729Z</time></trkpt><trkpt lat="43.8981933" lon="11.778605"><ele>635.0</ele><time>2026-04-07T12:54:37.731Z</time></trkpt><trkpt lat="43.8982833" lon="11.7787133"><ele>635.0</ele><time>2026-04-07T12:54:38.73Z</time></trkpt><trkpt lat="43.8983817" lon="11.77875"><ele>634.0</ele><time>2026-04-07T12:54:39.73Z</time></trkpt><trkpt lat="43.8984917" lon="11.77871"><ele>633.0</ele><time>2026-04-07T12:54:40.731Z</time></trkpt><trkpt lat="43.8986067" lon="11.7786533"><ele>632.0</ele><time>2026-04-07T12:54:41.728Z</time></trkpt><trkpt lat="43.89872" lon="11.7786317"><ele>631.0</ele><time>2026-04-07T12:54:42.726Z</time></trkpt><trkpt lat="43.8988117" lon="11.7786383"><ele>630.0</ele><time>2026-04-07T12:54:43.73Z</time></trkpt><trkpt lat="43.8989133" lon="11.7787117"><ele>630.0</ele><time>2026-04-07T12:54:44.731Z</time></trkpt><trkpt lat="43.8990183" lon="11.778835"><ele>630.0</ele><time>2026-04-07T12:54:45.73Z</time></trkpt><trkpt lat="43.8991333" lon="11.778915"><ele>630.0</ele><time>2026-04-07T12:54:46.731Z</time></trkpt><trkpt lat="43.8992717" lon="11.7789583"><ele>630.0</ele><time>2026-04-07T12:54:47.727Z</time></trkpt><trkpt lat="43.8994183" lon="11.7789883"><ele>640.6666666666666</ele><time>2026-04-07T12:54:48.73Z</time></trkpt><trkpt lat="43.8995633" lon="11.7790483"><ele>651.3333333333333</ele><time>2026-04-07T12:54:49.73Z</time></trkpt><trkpt lat="43.8997017" lon="11.7791683"><ele>662.0</ele><time>2026-04-07T12:54:50.731Z</time></trkpt><trkpt lat="43.8998217" lon="11.7793483"><ele>653.6666666666666</ele><time>2026-04-07T12:54:51.731Z</time></trkpt><trkpt lat="43.899925" lon="11.7795467"><ele>645.3333333333334</ele><time>2026-04-07T12:54:52.73Z</time></trkpt><trkpt lat="43.900015" lon="11.7797317"><ele>637.0</ele><time>2026-04-07T12:54:53.732Z</time></trkpt><trkpt lat="43.900105" lon="11.77988"><ele>637.0</ele><time>2026-04-07T12:54:54.731Z</time></trkpt><trkpt lat="43.9002017" lon="11.7799717"><ele>637.0</ele><time>2026-04-07T12:54:55.731Z</time></trkpt><trkpt lat="43.9003033" lon="11.78002"><ele>637.0</ele><time>2026-04-07T12:54:56.728Z</time></trkpt><trkpt lat="43.900415" lon="11.7800117"><ele>637.0</ele><time>2026-04-07T12:54:57.73Z</time></trkpt><trkpt lat="43.9005283" lon="11.7799483"><ele>637.0</ele><time>2026-04-07T12:54:58.731Z</time></trkpt><trkpt lat="43.900625" lon="11.7798667"><ele>637.0</ele><time>2026-04-07T12:54:59.731Z</time></trkpt><trkpt lat="43.90072" lon="11.7797833"><ele>637.0</ele><time>2026-04-07T12:55:00.727Z</time></trkpt><trkpt lat="43.9008183" lon="11.77971"><ele>637.0</ele><time>2026-04-07T12:55:01.731Z</time></trkpt><trkpt lat="43.90091" lon="11.779635"><ele>637.0</ele><time>2026-04-07T12:55:02.73Z</time></trkpt><trkpt lat="43.900995" lon="11.7795683"><ele>640.2</ele><time>2026-04-07T12:55:03.731Z</time></trkpt><trkpt lat="43.9010733" lon="11.7795017"><ele>643.4000000000001</ele><time>2026-04-07T12:55:04.731Z</time></trkpt><trkpt lat="43.9011567" lon="11.7794383"><ele>646.5999999999999</ele><time>2026-04-07T12:55:05.728Z</time></trkpt><trkpt lat="43.9012533" lon="11.77937"><ele>649.8</ele><time>2026-04-07T12:55:06.728Z</time></trkpt><trkpt lat="43.9013483" lon="11.7793233"><ele>653.0</ele><time>2026-04-07T12:55:07.73Z</time></trkpt><trkpt lat="43.9014483" lon="11.779315"><ele>653.0</ele><time>2026-04-07T12:55:08.729Z</time></trkpt><trkpt lat="43.9015483" lon="11.77935"><ele>653.0</ele><time>2026-04-07T12:55:09.728Z</time></trkpt><trkpt lat="43.9016417" lon="11.77941"><ele>653.0</ele><time>2026-04-07T12:55:10.73Z</time></trkpt><trkpt lat="43.9017283" lon="11.7795367"><ele>653.0</ele><time>2026-04-07T12:55:11.73Z</time></trkpt><trkpt lat="43.9017967" lon="11.7797467"><ele>659.0</ele><time>2026-04-07T12:55:12.731Z</time></trkpt><trkpt lat="43.901855" lon="11.7800083"><ele>665.0</ele><time>2026-04-07T12:55:13.729Z</time></trkpt><trkpt lat="43.9019233" lon="11.7802683"><ele>671.0</ele><time>2026-04-07T12:55:14.73Z</time></trkpt><trkpt lat="43.9019817" lon="11.78049"><ele>671.0</ele><time>2026-04-07T12:55:15.731Z</time></trkpt><trkpt lat="43.9020367" lon="11.78069"><ele>671.0</ele><time>2026-04-07T12:55:16.73Z</time></trkpt><trkpt lat="43.9020867" lon="11.7808317"><ele>671.0</ele><time>2026-04-07T12:55:17.731Z</time></trkpt><trkpt lat="43.9021467" lon="11.7809167"><ele>671.0</ele><time>2026-04-07T12:55:18.73Z</time></trkpt><trkpt lat="43.9022167" lon="11.7809583"><ele>671.0</ele><time>2026-04-07T12:55:19.729Z</time></trkpt><trkpt lat="43.9022833" lon="11.78095"><ele>671.0</ele><time>2026-04-07T12:55:20.73Z</time></trkpt><trkpt lat="43.9023383" lon="11.7808767"><ele>671.0</ele><time>2026-04-07T12:55:21.731Z</time></trkpt><trkpt lat="43.9023633" lon="11.7807667"><ele>671.0</ele><time>2026-04-07T12:55:22.731Z</time></trkpt><trkpt lat="43.90237" lon="11.7806567"><ele>671.0</ele><time>2026-04-07T12:55:23.73Z</time></trkpt><trkpt lat="43.90229" lon="11.7804717"><ele>671.0</ele><time>2026-04-07T12:55:24.726Z</time></trkpt><trkpt lat="43.902135" lon="11.7802267"><ele>677.6666666666666</ele><time>2026-04-07T12:55:25.729Z</time></trkpt><trkpt lat="43.9020383" lon="11.78"><ele>684.3333333333334</ele><time>2026-04-07T12:55:26.73Z</time></trkpt><trkpt lat="43.9019583" lon="11.77976"><ele>691.0</ele><time>2026-04-07T12:55:27.729Z</time></trkpt><trkpt lat="43.901905" lon="11.7795133"><ele>686.75</ele><time>2026-04-07T12:55:28.73Z</time></trkpt><trkpt lat="43.9018633" lon="11.779285"><ele>682.5</ele><time>2026-04-07T12:55:29.73Z</time></trkpt><trkpt lat="43.901805" lon="11.7791017"><ele>678.25</ele><time>2026-04-07T12:55:30.728Z</time></trkpt><trkpt lat="43.9017217" lon="11.77897"><ele>674.0</ele><time>2026-04-07T12:55:31.73Z</time></trkpt><trkpt lat="43.901615" lon="11.7788983"><ele>674.0</ele><time>2026-04-07T12:55:32.73Z</time></trkpt><trkpt lat="43.90149" lon="11.7788883"><ele>674.0</ele><time>2026-04-07T12:55:33.73Z</time></trkpt><trkpt lat="43.9013333" lon="11.7789417"><ele>674.0</ele><time>2026-04-07T12:55:34.731Z</time></trkpt><trkpt lat="43.9011667" lon="11.779015"><ele>674.0</ele><time>2026-04-07T12:55:35.731Z</time></trkpt><trkpt lat="43.9009883" lon="11.7790917"><ele>674.0</ele><time>2026-04-07T12:55:36.731Z</time></trkpt><trkpt lat="43.9008083" lon="11.7791667"><ele>674.0</ele><time>2026-04-07T12:55:37.73Z</time></trkpt><trkpt lat="43.9006567" lon="11.7792233"><ele>673.5</ele><time>2026-04-07T12:55:38.73Z</time></trkpt><trkpt lat="43.9005217" lon="11.7792483"><ele>673.0</ele><time>2026-04-07T12:55:39.731Z</time></trkpt><trkpt lat="43.9004033" lon="11.77922"><ele>672.5</ele><time>2026-04-07T12:55:40.73Z</time></trkpt><trkpt lat="43.9003033" lon="11.77913"><ele>672.0</ele><time>2026-04-07T12:55:41.731Z</time></trkpt><trkpt lat="43.9002133" lon="11.7789833"><ele>672.0</ele><time>2026-04-07T12:55:42.731Z</time></trkpt><trkpt lat="43.9001233" lon="11.7788017"><ele>672.0</ele><time>2026-04-07T12:55:43.731Z</time></trkpt><trkpt lat="43.9000117" lon="11.7786217"><ele>672.0</ele><time>2026-04-07T12:55:44.729Z</time></trkpt><trkpt lat="43.8998767" lon="11.778455"><ele>682.0</ele><time>2026-04-07T12:55:45.73Z</time></trkpt><trkpt lat="43.8997533" lon="11.778295"><ele>692.0</ele><time>2026-04-07T12:55:46.731Z</time></trkpt><trkpt lat="43.8996583" lon="11.77812"><ele>702.0</ele><time>2026-04-07T12:55:47.731Z</time></trkpt><trkpt lat="43.8995833" lon="11.7779367"><ele>702.0</ele><time>2026-04-07T12:55:48.731Z</time></trkpt><trkpt lat="43.899505" lon="11.77779"><ele>702.0</ele><time>2026-04-07T12:55:49.73Z</time></trkpt><trkpt lat="43.8993933" lon="11.7776933"><ele>702.0</ele><time>2026-04-07T12:55:50.73Z</time></trkpt><trkpt lat="43.89925" lon="11.7776267"><ele>702.0</ele><time>2026-04-07T12:55:51.731Z</time></trkpt><trkpt lat="43.8991033" lon="11.777565"><ele>704.5</ele><time>2026-04-07T12:55:52.731Z</time></trkpt><trkpt lat="43.8989783" lon="11.777475"><ele>707.0</ele><time>2026-04-07T12:55:53.731Z</time></trkpt><trkpt lat="43.8988783" lon="11.777335"><ele>709.5</ele><time>2026-04-07T12:55:54.73Z</time></trkpt><trkpt lat="43.8987733" lon="11.777165"><ele>712.0</ele><time>2026-04-07T12:55:55.727Z</time></trkpt><trkpt lat="43.8986533" lon="11.7769917"><ele>713.3333333333334</ele><time>2026-04-07T12:55:56.73Z</time></trkpt><trkpt lat="43.898505" lon="11.7768083"><ele>714.6666666666666</ele><time>2026-04-07T12:55:57.731Z</time></trkpt><trkpt lat="43.89834" lon="11.7766217"><ele>716.0</ele><time>2026-04-07T12:55:58.73Z</time></trkpt><trkpt lat="43.8981633" lon="11.7764217"><ele>716.0</ele><time>2026-04-07T12:55:59.73Z</time></trkpt><trkpt lat="43.8979917" lon="11.7762333"><ele>716.0</ele><time>2026-04-07T12:56:00.73Z</time></trkpt><trkpt lat="43.8978383" lon="11.7760733"><ele>716.0</ele><time>2026-04-07T12:56:01.731Z</time></trkpt><trkpt lat="43.8976967" lon="11.7759533"><ele>718.0</ele><time>2026-04-07T12:56:02.73Z</time></trkpt><trkpt lat="43.89755" lon="11.77588"><ele>720.0</ele><time>2026-04-07T12:56:03.73Z</time></trkpt><trkpt lat="43.89738" lon="11.7758483"><ele>722.0</ele><time>2026-04-07T12:56:04.731Z</time></trkpt><trkpt lat="43.89721" lon="11.775825"><ele>722.0</ele><time>2026-04-07T12:56:05.731Z</time></trkpt><trkpt lat="43.897075" lon="11.7757683"><ele>722.0</ele><time>2026-04-07T12:56:06.731Z</time></trkpt><trkpt lat="43.8969767" lon="11.7756633"><ele>722.0</ele><time>2026-04-07T12:56:07.731Z</time></trkpt><trkpt lat="43.896915" lon="11.7755083"><ele>722.0</ele><time>2026-04-07T12:56:08.731Z</time></trkpt><trkpt lat="43.8968783" lon="11.7753483"><ele>722.0</ele><time>2026-04-07T12:56:09.73Z</time></trkpt><trkpt lat="43.89683" lon="11.7751983"><ele>722.0</ele><time>2026-04-07T12:56:10.73Z</time></trkpt><trkpt lat="43.896745" lon="11.7750667"><ele>722.0</ele><time>2026-04-07T12:56:11.73Z</time></trkpt><trkpt lat="43.89662" lon="11.7749517"><ele>722.0</ele><time>2026-04-07T12:56:12.73Z</time></trkpt><trkpt lat="43.8964767" lon="11.7748483"><ele>725.25</ele><time>2026-04-07T12:56:13.73Z</time></trkpt><trkpt lat="43.89634" lon="11.7747867"><ele>728.5</ele><time>2026-04-07T12:56:14.731Z</time></trkpt><trkpt lat="43.896205" lon="11.774785"><ele>731.75</ele><time>2026-04-07T12:56:15.73Z</time></trkpt><trkpt lat="43.89608" lon="11.7748467"><ele>735.0</ele><time>2026-04-07T12:56:16.726Z</time></trkpt><trkpt lat="43.895955" lon="11.77495"><ele>736.6666666666666</ele><time>2026-04-07T12:56:17.729Z</time></trkpt><trkpt lat="43.8958267" lon="11.7751117"><ele>738.3333333333333</ele><time>2026-04-07T12:56:18.732Z</time></trkpt><trkpt lat="43.8956917" lon="11.77529"><ele>740.0</ele><time>2026-04-07T12:56:19.731Z</time></trkpt><trkpt lat="43.8955783" lon="11.7754517"><ele>733.6</ele><time>2026-04-07T12:56:20.73Z</time></trkpt><trkpt lat="43.8954867" lon="11.7755733"><ele>727.2</ele><time>2026-04-07T12:56:21.73Z</time></trkpt><trkpt lat="43.895405" lon="11.7756583"><ele>720.8</ele><time>2026-04-07T12:56:22.731Z</time></trkpt><trkpt lat="43.8953133" lon="11.7756817"><ele>714.4</ele><time>2026-04-07T12:56:23.731Z</time></trkpt><trkpt lat="43.8952283" lon="11.7756433"><ele>708.0</ele><time>2026-04-07T12:56:24.73Z</time></trkpt><trkpt lat="43.8951517" lon="11.77555"><ele>708.0</ele><time>2026-04-07T12:56:25.73Z</time></trkpt><trkpt lat="43.8951" lon="11.7754017"><ele>708.0</ele><time>2026-04-07T12:56:26.731Z</time></trkpt><trkpt lat="43.8950567" lon="11.775185"><ele>708.0</ele><time>2026-04-07T12:56:27.73Z</time></trkpt><trkpt lat="43.89502" lon="11.77496"><ele>708.0</ele><time>2026-04-07T12:56:28.73Z</time></trkpt><trkpt lat="43.8950033" lon="11.7747033"><ele>714.0</ele><time>2026-04-07T12:56:29.727Z</time></trkpt><trkpt lat="43.8950067" lon="11.7744683"><ele>720.0</ele><time>2026-04-07T12:56:30.731Z</time></trkpt><trkpt lat="43.8950033" lon="11.77427"><ele>726.0</ele><time>2026-04-07T12:56:31.732Z</time></trkpt><trkpt lat="43.8949667" lon="11.774105"><ele>732.0</ele><time>2026-04-07T12:56:32.73Z</time></trkpt><trkpt lat="43.8948883" lon="11.7739817"><ele>737.75</ele><time>2026-04-07T12:56:33.726Z</time></trkpt><trkpt lat="43.89479" lon="11.7738967"><ele>743.5</ele><time>2026-04-07T12:56:34.727Z</time></trkpt><trkpt lat="43.8946733" lon="11.7738383"><ele>749.25</ele><time>2026-04-07T12:56:35.728Z</time></trkpt><trkpt lat="43.89456" lon="11.77375"><ele>755.0</ele><time>2026-04-07T12:56:36.727Z</time></trkpt><trkpt lat="43.89447" lon="11.773625"><ele>764.6666666666666</ele><time>2026-04-07T12:56:37.729Z</time></trkpt><trkpt lat="43.8944167" lon="11.7734433"><ele>774.3333333333333</ele><time>2026-04-07T12:56:38.728Z</time></trkpt><trkpt lat="43.8943933" lon="11.77322"><ele>784.0</ele><time>2026-04-07T12:56:39.729Z</time></trkpt><trkpt lat="43.8943683" lon="11.77301"><ele>784.0</ele><time>2026-04-07T12:56:40.73Z</time></trkpt><trkpt lat="43.8943367" lon="11.77284"><ele>784.0</ele><time>2026-04-07T12:56:41.73Z</time></trkpt><trkpt lat="43.8942833" lon="11.772725"><ele>784.0</ele><time>2026-04-07T12:56:42.729Z</time></trkpt><trkpt lat="43.8942033" lon="11.7726467"><ele>784.0</ele><time>2026-04-07T12:56:43.731Z</time></trkpt><trkpt lat="43.8941183" lon="11.772605"><ele>784.0</ele><time>2026-04-07T12:56:44.732Z</time></trkpt><trkpt lat="43.8940267" lon="11.7726133"><ele>773.6666666666666</ele><time>2026-04-07T12:56:45.73Z</time></trkpt><trkpt lat="43.8939117" lon="11.7727233"><ele>763.3333333333333</ele><time>2026-04-07T12:56:46.729Z</time></trkpt><trkpt lat="43.8938083" lon="11.772905"><ele>753.0</ele><time>2026-04-07T12:56:47.731Z</time></trkpt><trkpt lat="43.89369" lon="11.7730633"><ele>753.0</ele><time>2026-04-07T12:56:48.728Z</time></trkpt><trkpt lat="43.893605" lon="11.7732317"><ele>753.0</ele><time>2026-04-07T12:56:49.731Z</time></trkpt><trkpt lat="43.8935367" lon="11.7733983"><ele>753.0</ele><time>2026-04-07T12:56:50.73Z</time></trkpt><trkpt lat="43.8934783" lon="11.7735517"><ele>753.0</ele><time>2026-04-07T12:56:51.729Z</time></trkpt><trkpt lat="43.8934833" lon="11.7737217"><ele>748.25</ele><time>2026-04-07T12:56:52.728Z</time></trkpt><trkpt lat="43.8935083" lon="11.7738917"><ele>743.5</ele><time>2026-04-07T12:56:53.729Z</time></trkpt><trkpt lat="43.8935333" lon="11.774075"><ele>738.75</ele><time>2026-04-07T12:56:54.731Z</time></trkpt><trkpt lat="43.8935467" lon="11.7742833"><ele>734.0</ele><time>2026-04-07T12:56:55.73Z</time></trkpt><trkpt lat="43.8935267" lon="11.774505"><ele>728.0</ele><time>2026-04-07T12:56:56.73Z</time></trkpt><trkpt lat="43.8934917" lon="11.7747433"><ele>722.0</ele><time>2026-04-07T12:56:57.731Z</time></trkpt><trkpt lat="43.893445" lon="11.7749817"><ele>716.0</ele><time>2026-04-07T12:56:58.731Z</time></trkpt><trkpt lat="43.8933967" lon="11.7752033"><ele>723.1999999999999</ele><time>2026-04-07T12:56:59.731Z</time></trkpt><trkpt lat="43.893345" lon="11.7753867"><ele>730.4</ele><time>2026-04-07T12:57:00.73Z</time></trkpt><trkpt lat="43.893295" lon="11.7755133"><ele>737.6</ele><time>2026-04-07T12:57:01.731Z</time></trkpt><trkpt lat="43.8932333" lon="11.7755933"><ele>744.8</ele><time>2026-04-07T12:57:02.731Z</time></trkpt><trkpt lat="43.893165" lon="11.7756333"><ele>752.0</ele><time>2026-04-07T12:57:03.726Z</time></trkpt><trkpt lat="43.8930717" lon="11.7756033"><ele>752.0</ele><time>2026-04-07T12:57:04.731Z</time></trkpt><trkpt lat="43.89295" lon="11.77548"><ele>752.0</ele><time>2026-04-07T12:57:05.729Z</time></trkpt><trkpt lat="43.8928767" lon="11.775305"><ele>752.0</ele><time>2026-04-07T12:57:06.73Z</time></trkpt><trkpt lat="43.8928217" lon="11.7750833"><ele>758.0</ele><time>2026-04-07T12:57:07.732Z</time></trkpt><trkpt lat="43.8927633" lon="11.774885"><ele>764.0</ele><time>2026-04-07T12:57:08.73Z</time></trkpt><trkpt lat="43.8926633" lon="11.77471"><ele>770.0</ele><time>2026-04-07T12:57:09.731Z</time></trkpt><trkpt lat="43.8925217" lon="11.7745733"><ele>770.0</ele><time>2026-04-07T12:57:10.731Z</time></trkpt><trkpt lat="43.8923517" lon="11.7744533"><ele>770.0</ele><time>2026-04-07T12:57:11.73Z</time></trkpt><trkpt lat="43.8921767" lon="11.7743283"><ele>770.0</ele><time>2026-04-07T12:57:12.73Z</time></trkpt><trkpt lat="43.8920267" lon="11.7741833"><ele>770.6666666666667</ele><time>2026-04-07T12:57:13.731Z</time></trkpt><trkpt lat="43.89191" lon="11.7740317"><ele>771.3333333333333</ele><time>2026-04-07T12:57:14.731Z</time></trkpt><trkpt lat="43.891825" lon="11.77383"><ele>772.0</ele><time>2026-04-07T12:57:15.732Z</time></trkpt><trkpt lat="43.8917533" lon="11.7735867"><ele>778.6666666666666</ele><time>2026-04-07T12:57:16.731Z</time></trkpt><trkpt lat="43.8916783" lon="11.7733317"><ele>785.3333333333333</ele><time>2026-04-07T12:57:17.732Z</time></trkpt><trkpt lat="43.8916083" lon="11.77307"><ele>792.0</ele><time>2026-04-07T12:57:18.73Z</time></trkpt><trkpt lat="43.8915483" lon="11.7728417"><ele>798.0</ele><time>2026-04-07T12:57:19.73Z</time></trkpt><trkpt lat="43.891495" lon="11.77265"><ele>804.0</ele><time>2026-04-07T12:57:20.731Z</time></trkpt><trkpt lat="43.8914233" lon="11.77251"><ele>810.0</ele><time>2026-04-07T12:57:21.73Z</time></trkpt><trkpt lat="43.8913317" lon="11.7724317"><ele>816.0</ele><time>2026-04-07T12:57:22.73Z</time></trkpt><trkpt lat="43.89122" lon="11.7724133"><ele>816.0</ele><time>2026-04-07T12:57:23.73Z</time></trkpt><trkpt lat="43.8910933" lon="11.7724667"><ele>816.0</ele><time>2026-04-07T12:57:24.731Z</time></trkpt><trkpt lat="43.8909583" lon="11.772555"><ele>816.0</ele><time>2026-04-07T12:57:25.73Z</time></trkpt><trkpt lat="43.8908017" lon="11.7726567"><ele>801.3333333333333</ele><time>2026-04-07T12:57:26.73Z</time></trkpt><trkpt lat="43.89064" lon="11.77276"><ele>786.6666666666666</ele><time>2026-04-07T12:57:27.731Z</time></trkpt><trkpt lat="43.8904883" lon="11.77285"><ele>772.0</ele><time>2026-04-07T12:57:28.73Z</time></trkpt><trkpt lat="43.89035" lon="11.7729017"><ele>772.0</ele><time>2026-04-07T12:57:29.731Z</time></trkpt><trkpt lat="43.89024" lon="11.7729067"><ele>772.0</ele><time>2026-04-07T12:57:30.731Z</time></trkpt><trkpt lat="43.89014" lon="11.7728633"><ele>772.0</ele><time>2026-04-07T12:57:31.731Z</time></trkpt><trkpt lat="43.8900683" lon="11.7727633"><ele>772.0</ele><time>2026-04-07T12:57:32.731Z</time></trkpt><trkpt lat="43.8900283" lon="11.7726167"><ele>772.0</ele><time>2026-04-07T12:57:33.73Z</time></trkpt><trkpt lat="43.89" lon="11.77247"><ele>778.4999999999999</ele><time>2026-04-07T12:57:34.73Z</time></trkpt><trkpt lat="43.8899533" lon="11.7723583"><ele>785.0</ele><time>2026-04-07T12:57:35.732Z</time></trkpt><trkpt lat="43.8899017" lon="11.7722783"><ele>791.5</ele><time>2026-04-07T12:57:36.731Z</time></trkpt><trkpt lat="43.8898283" lon="11.7722083"><ele>798.0</ele><time>2026-04-07T12:57:37.732Z</time></trkpt><trkpt lat="43.889755" lon="11.7722067"><ele>804.4999999999999</ele><time>2026-04-07T12:57:38.731Z</time></trkpt><trkpt lat="43.8896783" lon="11.7722567"><ele>811.0</ele><time>2026-04-07T12:57:39.731Z</time></trkpt><trkpt lat="43.8895" lon="11.7724733"><ele>811.0</ele><time>2026-04-07T12:57:40.731Z</time></trkpt><trkpt lat="43.8893667" lon="11.77264"><ele>811.0</ele><time>2026-04-07T12:57:41.729Z</time></trkpt><trkpt lat="43.88923" lon="11.772765"><ele>811.0</ele><time>2026-04-07T12:57:42.73Z</time></trkpt><trkpt lat="43.8891083" lon="11.7728233"><ele>812.5999999999999</ele><time>2026-04-07T12:57:43.731Z</time></trkpt><trkpt lat="43.8889917" lon="11.7728133"><ele>814.2</ele><time>2026-04-07T12:57:44.732Z</time></trkpt><trkpt lat="43.88889" lon="11.7727533"><ele>815.8</ele><time>2026-04-07T12:57:45.731Z</time></trkpt><trkpt lat="43.8888233" lon="11.7726467"><ele>817.4000000000001</ele><time>2026-04-07T12:57:46.729Z</time></trkpt><trkpt lat="43.8887933" lon="11.772515"><ele>819.0</ele><time>2026-04-07T12:57:47.73Z</time></trkpt><trkpt lat="43.88881" lon="11.7723367"><ele>819.0</ele><time>2026-04-07T12:57:48.729Z</time></trkpt><trkpt lat="43.888855" lon="11.7721367"><ele>819.0</ele><time>2026-04-07T12:57:49.73Z</time></trkpt><trkpt lat="43.8889183" lon="11.7719217"><ele>819.0</ele><time>2026-04-07T12:57:50.729Z</time></trkpt><trkpt lat="43.888965" lon="11.771705"><ele>825.6666666666667</ele><time>2026-04-07T12:57:51.729Z</time></trkpt><trkpt lat="43.88897" lon="11.771495"><ele>832.3333333333334</ele><time>2026-04-07T12:57:52.728Z</time></trkpt><trkpt lat="43.888915" lon="11.77129"><ele>839.0</ele><time>2026-04-07T12:57:53.732Z</time></trkpt><trkpt lat="43.88882" lon="11.7711067"><ele>840.75</ele><time>2026-04-07T12:57:54.728Z</time></trkpt><trkpt lat="43.88874" lon="11.7709317"><ele>842.5</ele><time>2026-04-07T12:57:55.73Z</time></trkpt><trkpt lat="43.8887083" lon="11.77077"><ele>844.25</ele><time>2026-04-07T12:57:56.731Z</time></trkpt><trkpt lat="43.8887317" lon="11.7706117"><ele>846.0</ele><time>2026-04-07T12:57:57.731Z</time></trkpt><trkpt lat="43.8888067" lon="11.770465"><ele>846.0</ele><time>2026-04-07T12:57:58.73Z</time></trkpt><trkpt lat="43.8889183" lon="11.770315"><ele>846.0</ele><time>2026-04-07T12:57:59.731Z</time></trkpt><trkpt lat="43.8890367" lon="11.7701533"><ele>846.0</ele><time>2026-04-07T12:58:00.729Z</time></trkpt><trkpt lat="43.88916" lon="11.77002"><ele>851.5</ele><time>2026-04-07T12:58:01.73Z</time></trkpt><trkpt lat="43.88929" lon="11.7699433"><ele>857.0</ele><time>2026-04-07T12:58:02.731Z</time></trkpt><trkpt lat="43.8894233" lon="11.7699083"><ele>862.5</ele><time>2026-04-07T12:58:03.731Z</time></trkpt><trkpt lat="43.8895383" lon="11.7698717"><ele>868.0</ele><time>2026-04-07T12:58:04.73Z</time></trkpt><trkpt lat="43.8896283" lon="11.76979"><ele>868.0</ele><time>2026-04-07T12:58:05.73Z</time></trkpt><trkpt lat="43.889695" lon="11.769655"><ele>868.0</ele><time>2026-04-07T12:58:06.731Z</time></trkpt><trkpt lat="43.88972" lon="11.769485"><ele>868.0</ele><time>2026-04-07T12:58:07.731Z</time></trkpt><trkpt lat="43.8897067" lon="11.7693033"><ele>868.0</ele><time>2026-04-07T12:58:08.73Z</time></trkpt><trkpt lat="43.8897083" lon="11.769125"><ele>866.25</ele><time>2026-04-07T12:58:09.73Z</time></trkpt><trkpt lat="43.8897467" lon="11.76896"><ele>864.5</ele><time>2026-04-07T12:58:10.73Z</time></trkpt><trkpt lat="43.8898267" lon="11.7688367"><ele>862.75</ele><time>2026-04-07T12:58:11.73Z</time></trkpt><trkpt lat="43.8899317" lon="11.768755"><ele>861.0</ele><time>2026-04-07T12:58:12.731Z</time></trkpt><trkpt lat="43.8900517" lon="11.7686883"><ele>870.5</ele><time>2026-04-07T12:58:13.731Z</time></trkpt><trkpt lat="43.8901583" lon="11.768605"><ele>880.0</ele><time>2026-04-07T12:58:14.73Z</time></trkpt><trkpt lat="43.89023" lon="11.768495"><ele>889.5</ele><time>2026-04-07T12:58:15.731Z</time></trkpt><trkpt lat="43.8902533" lon="11.76835"><ele>899.0</ele><time>2026-04-07T12:58:16.73Z</time></trkpt><trkpt lat="43.8902167" lon="11.7681883"><ele>899.0</ele><time>2026-04-07T12:58:17.73Z</time></trkpt><trkpt lat="43.8901217" lon="11.76802"><ele>899.0</ele><time>2026-04-07T12:58:18.73Z</time></trkpt><trkpt lat="43.8899983" lon="11.76784"><ele>899.0</ele><time>2026-04-07T12:58:19.729Z</time></trkpt><trkpt lat="43.889905" lon="11.7676617"><ele>890.5</ele><time>2026-04-07T12:58:20.729Z</time></trkpt><trkpt lat="43.88984" lon="11.767475"><ele>882.0</ele><time>2026-04-07T12:58:21.728Z</time></trkpt><trkpt lat="43.8898233" lon="11.7672667"><ele>873.5</ele><time>2026-04-07T12:58:22.729Z</time></trkpt><trkpt lat="43.889855" lon="11.7670733"><ele>865.0</ele><time>2026-04-07T12:58:23.731Z</time></trkpt><trkpt lat="43.8899167" lon="11.7669067"><ele>866.5</ele><time>2026-04-07T12:58:24.73Z</time></trkpt><trkpt lat="43.889995" lon="11.7667833"><ele>868.0</ele><time>2026-04-07T12:58:25.734Z</time></trkpt><trkpt lat="43.890045" lon="11.7666483"><ele>869.5</ele><time>2026-04-07T12:58:26.73Z</time></trkpt><trkpt lat="43.89006" lon="11.7664967"><ele>871.0</ele><time>2026-04-07T12:58:27.73Z</time></trkpt><trkpt lat="43.89003" lon="11.7663267"><ele>871.0</ele><time>2026-04-07T12:58:28.731Z</time></trkpt><trkpt lat="43.889965" lon="11.7661583"><ele>871.0</ele><time>2026-04-07T12:58:29.731Z</time></trkpt><trkpt lat="43.889895" lon="11.7660133"><ele>871.0</ele><time>2026-04-07T12:58:30.731Z</time></trkpt><trkpt lat="43.8897917" lon="11.76592"><ele>871.0</ele><time>2026-04-07T12:58:31.732Z</time></trkpt><trkpt lat="43.8896933" lon="11.7658733"><ele>871.0</ele><time>2026-04-07T12:58:32.731Z</time></trkpt><trkpt lat="43.889585" lon="11.7658917"><ele>871.0</ele><time>2026-04-07T12:58:33.731Z</time></trkpt><trkpt lat="43.8894533" lon="11.765945"><ele>871.0</ele><time>2026-04-07T12:58:34.73Z</time></trkpt><trkpt lat="43.8893317" lon="11.7660967"><ele>871.0</ele><time>2026-04-07T12:58:35.729Z</time></trkpt><trkpt lat="43.88923" lon="11.7662367"><ele>869.75</ele><time>2026-04-07T12:58:36.729Z</time></trkpt><trkpt lat="43.8891383" lon="11.7663333"><ele>868.5</ele><time>2026-04-07T12:58:37.732Z</time></trkpt><trkpt lat="43.8890267" lon="11.7663633"><ele>867.25</ele><time>2026-04-07T12:58:38.732Z</time></trkpt><trkpt lat="43.88891" lon="11.7663317"><ele>866.0</ele><time>2026-04-07T12:58:39.731Z</time></trkpt><trkpt lat="43.8888167" lon="11.7661783"><ele>872.6666666666667</ele><time>2026-04-07T12:58:40.731Z</time></trkpt><trkpt lat="43.88876" lon="11.765995"><ele>879.3333333333333</ele><time>2026-04-07T12:58:41.73Z</time></trkpt><trkpt lat="43.888735" lon="11.7657667"><ele>886.0</ele><time>2026-04-07T12:58:42.731Z</time></trkpt><trkpt lat="43.8887183" lon="11.76553"><ele>886.0</ele><time>2026-04-07T12:58:43.731Z</time></trkpt><trkpt lat="43.88872" lon="11.76527"><ele>886.0</ele><time>2026-04-07T12:58:44.73Z</time></trkpt><trkpt lat="43.8887483" lon="11.7650117"><ele>886.0</ele><time>2026-04-07T12:58:45.73Z</time></trkpt><trkpt lat="43.888805" lon="11.7647567"><ele>890.3333333333333</ele><time>2026-04-07T12:58:46.728Z</time></trkpt><trkpt lat="43.8888683" lon="11.76452"><ele>894.6666666666667</ele><time>2026-04-07T12:58:47.73Z</time></trkpt><trkpt lat="43.88891" lon="11.7642983"><ele>899.0</ele><time>2026-04-07T12:58:48.728Z</time></trkpt><trkpt lat="43.8889283" lon="11.7640967"><ele>901.0</ele><time>2026-04-07T12:58:49.73Z</time></trkpt><trkpt lat="43.8889217" lon="11.7639367"><ele>903.0000000000001</ele><time>2026-04-07T12:58:50.729Z</time></trkpt><trkpt lat="43.8888717" lon="11.763815"><ele>905.0000000000001</ele><time>2026-04-07T12:58:51.729Z</time></trkpt><trkpt lat="43.8887833" lon="11.76374"><ele>907.0</ele><time>2026-04-07T12:58:52.727Z</time></trkpt><trkpt lat="43.8886767" lon="11.763715"><ele>909.0</ele><time>2026-04-07T12:58:53.73Z</time></trkpt><trkpt lat="43.8885483" lon="11.7637367"><ele>904.0</ele><time>2026-04-07T12:58:54.731Z</time></trkpt><trkpt lat="43.8884133" lon="11.7637883"><ele>899.0</ele><time>2026-04-07T12:58:55.731Z</time></trkpt><trkpt lat="43.8882383" lon="11.7638817"><ele>894.0</ele><time>2026-04-07T12:58:56.731Z</time></trkpt><trkpt lat="43.8880883" lon="11.763955"><ele>894.0</ele><time>2026-04-07T12:58:57.73Z</time></trkpt><trkpt lat="43.887955" lon="11.7639767"><ele>894.0</ele><time>2026-04-07T12:58:58.731Z</time></trkpt><trkpt lat="43.8878417" lon="11.7639217"><ele>894.0</ele><time>2026-04-07T12:58:59.729Z</time></trkpt><trkpt lat="43.8877383" lon="11.7638017"><ele>894.0</ele><time>2026-04-07T12:59:00.732Z</time></trkpt><trkpt lat="43.8876417" lon="11.7636367"><ele>898.6666666666667</ele><time>2026-04-07T12:59:01.731Z</time></trkpt><trkpt lat="43.8875333" lon="11.763465"><ele>903.3333333333334</ele><time>2026-04-07T12:59:02.732Z</time></trkpt><trkpt lat="43.887435" lon="11.7632767"><ele>908.0</ele><time>2026-04-07T12:59:03.732Z</time></trkpt><trkpt lat="43.887365" lon="11.7630517"><ele>908.0</ele><time>2026-04-07T12:59:04.731Z</time></trkpt><trkpt lat="43.887315" lon="11.762805"><ele>908.0</ele><time>2026-04-07T12:59:05.731Z</time></trkpt><trkpt lat="43.8872783" lon="11.7625417"><ele>908.0</ele><time>2026-04-07T12:59:06.731Z</time></trkpt><trkpt lat="43.8872433" lon="11.7622917"><ele>913.25</ele><time>2026-04-07T12:59:07.733Z</time></trkpt><trkpt lat="43.8872083" lon="11.7620983"><ele>918.5</ele><time>2026-04-07T12:59:08.732Z</time></trkpt><trkpt lat="43.887155" lon="11.76195"><ele>923.75</ele><time>2026-04-07T12:59:09.731Z</time></trkpt><trkpt lat="43.8870617" lon="11.7618667"><ele>929.0</ele><time>2026-04-07T12:59:10.731Z</time></trkpt><trkpt lat="43.8869333" lon="11.7618267"><ele>930.6666666666667</ele><time>2026-04-07T12:59:11.732Z</time></trkpt><trkpt lat="43.8867817" lon="11.7618233"><ele>932.3333333333333</ele><time>2026-04-07T12:59:12.731Z</time></trkpt><trkpt lat="43.886605" lon="11.761855"><ele>934.0</ele><time>2026-04-07T12:59:13.732Z</time></trkpt><trkpt lat="43.886415" lon="11.7618817"><ele>934.0</ele><time>2026-04-07T12:59:14.73Z</time></trkpt><trkpt lat="43.886215" lon="11.7618817"><ele>934.0</ele><time>2026-04-07T12:59:15.73Z</time></trkpt><trkpt lat="43.88601" lon="11.7618483"><ele>934.0</ele><time>2026-04-07T12:59:16.727Z</time></trkpt><trkpt lat="43.88581" lon="11.7618067"><ele>935.0</ele><time>2026-04-07T12:59:17.731Z</time></trkpt><trkpt lat="43.8856283" lon="11.7617717"><ele>936.0</ele><time>2026-04-07T12:59:18.73Z</time></trkpt><trkpt lat="43.88547" lon="11.76175"><ele>937.0</ele><time>2026-04-07T12:59:19.731Z</time></trkpt><trkpt lat="43.8853433" lon="11.76171"><ele>937.0</ele><time>2026-04-07T12:59:20.73Z</time></trkpt><trkpt lat="43.8852333" lon="11.76164"><ele>937.0</ele><time>2026-04-07T12:59:21.73Z</time></trkpt><trkpt lat="43.88517" lon="11.7615267"><ele>937.0</ele><time>2026-04-07T12:59:22.73Z</time></trkpt><trkpt lat="43.885165" lon="11.7613433"><ele>937.0</ele><time>2026-04-07T12:59:23.731Z</time></trkpt><trkpt lat="43.8851933" lon="11.76115"><ele>941.75</ele><time>2026-04-07T12:59:24.731Z</time></trkpt><trkpt lat="43.8852433" lon="11.76097"><ele>946.5</ele><time>2026-04-07T12:59:25.731Z</time></trkpt><trkpt lat="43.8853067" lon="11.7608067"><ele>951.25</ele><time>2026-04-07T12:59:26.731Z</time></trkpt><trkpt lat="43.8853917" lon="11.7606467"><ele>956.0</ele><time>2026-04-07T12:59:27.732Z</time></trkpt><trkpt lat="43.8854833" lon="11.7604633"><ele>956.0</ele><time>2026-04-07T12:59:28.731Z</time></trkpt><trkpt lat="43.8855567" lon="11.7602517"><ele>956.0</ele><time>2026-04-07T12:59:29.731Z</time></trkpt><trkpt lat="43.8855967" lon="11.7600367"><ele>956.0</ele><time>2026-04-07T12:59:30.731Z</time></trkpt><trkpt lat="43.8856017" lon="11.7598167"><ele>954.0</ele><time>2026-04-07T12:59:31.731Z</time></trkpt><trkpt lat="43.885585" lon="11.7595817"><ele>952.0</ele><time>2026-04-07T12:59:32.731Z</time></trkpt><trkpt lat="43.88557" lon="11.759335"><ele>950.0</ele><time>2026-04-07T12:59:33.731Z</time></trkpt><trkpt lat="43.8855767" lon="11.759105"><ele>949.5</ele><time>2026-04-07T12:59:34.732Z</time></trkpt><trkpt lat="43.8855867" lon="11.7589083"><ele>949.0</ele><time>2026-04-07T12:59:35.731Z</time></trkpt><trkpt lat="43.88557" lon="11.7587233"><ele>948.5</ele><time>2026-04-07T12:59:36.731Z</time></trkpt><trkpt lat="43.88552" lon="11.758525"><ele>948.0</ele><time>2026-04-07T12:59:37.731Z</time></trkpt><trkpt lat="43.8854433" lon="11.7583033"><ele>947.6666666666667</ele><time>2026-04-07T12:59:38.731Z</time></trkpt><trkpt lat="43.8853517" lon="11.758065"><ele>947.3333333333334</ele><time>2026-04-07T12:59:39.731Z</time></trkpt><trkpt lat="43.88524" lon="11.7578217"><ele>947.0</ele><time>2026-04-07T12:59:40.732Z</time></trkpt><trkpt lat="43.8851233" lon="11.7575633"><ele>949.3333333333334</ele><time>2026-04-07T12:59:41.732Z</time></trkpt><trkpt lat="43.8850017" lon="11.7573067"><ele>951.6666666666667</ele><time>2026-04-07T12:59:42.731Z</time></trkpt><trkpt lat="43.8848633" lon="11.757065"><ele>954.0</ele><time>2026-04-07T12:59:43.729Z</time></trkpt><trkpt lat="43.8847117" lon="11.75686"><ele>957.25</ele><time>2026-04-07T12:59:44.731Z</time></trkpt><trkpt lat="43.8845717" lon="11.7566967"><ele>960.5</ele><time>2026-04-07T12:59:45.731Z</time></trkpt><trkpt lat="43.88446" lon="11.7565767"><ele>963.75</ele><time>2026-04-07T12:59:46.732Z</time></trkpt><trkpt lat="43.88439" lon="11.7564717"><ele>967.0</ele><time>2026-04-07T12:59:47.732Z</time></trkpt><trkpt lat="43.8843667" lon="11.756375"><ele>967.0</ele><time>2026-04-07T12:59:48.732Z</time></trkpt><trkpt lat="43.8844167" lon="11.7562367"><ele>967.0</ele><time>2026-04-07T12:59:50.732Z</time></trkpt><trkpt lat="43.8845917" lon="11.7563517"><ele>967.0</ele><time>2026-04-07T12:59:52.727Z</time></trkpt><trkpt lat="43.88469" lon="11.756495"><ele>967.0</ele><time>2026-04-07T12:59:53.728Z</time></trkpt><trkpt lat="43.8848017" lon="11.7566717"><ele>967.0</ele><time>2026-04-07T12:59:54.731Z</time></trkpt><trkpt lat="43.8849133" lon="11.7568567"><ele>967.0</ele><time>2026-04-07T12:59:55.731Z</time></trkpt><trkpt lat="43.8850417" lon="11.7570633"><ele>967.0</ele><time>2026-04-07T12:59:56.731Z</time></trkpt><trkpt lat="43.885165" lon="11.75727"><ele>964.5</ele><time>2026-04-07T12:59:57.726Z</time></trkpt><trkpt lat="43.8852783" lon="11.75746"><ele>962.0</ele><time>2026-04-07T12:59:58.728Z</time></trkpt><trkpt lat="43.8853667" lon="11.757605"><ele>959.5</ele><time>2026-04-07T12:59:59.727Z</time></trkpt><trkpt lat="43.88545" lon="11.7576933"><ele>957.0</ele><time>2026-04-07T13:00:00.726Z</time></trkpt><trkpt lat="43.8855233" lon="11.7577183"><ele>957.0</ele><time>2026-04-07T13:00:01.731Z</time></trkpt><trkpt lat="43.8855883" lon="11.757695"><ele>957.0</ele><time>2026-04-07T13:00:02.727Z</time></trkpt><trkpt lat="43.8856517" lon="11.7576467"><ele>957.0</ele><time>2026-04-07T13:00:03.727Z</time></trkpt><trkpt lat="43.8856583" lon="11.757525"><ele>957.0</ele><time>2026-04-07T13:00:04.726Z</time></trkpt><trkpt lat="43.8856117" lon="11.7573633"><ele>957.0</ele><time>2026-04-07T13:00:05.726Z</time></trkpt><trkpt lat="43.8855383" lon="11.757195"><ele>957.0</ele><time>2026-04-07T13:00:06.726Z</time></trkpt><trkpt lat="43.8853833" lon="11.7570017"><ele>957.0</ele><time>2026-04-07T13:00:07.726Z</time></trkpt><trkpt lat="43.8852617" lon="11.7568133"><ele>957.0</ele><time>2026-04-07T13:00:08.727Z</time></trkpt><trkpt lat="43.885135" lon="11.7566083"><ele>960.3333333333333</ele><time>2026-04-07T13:00:09.725Z</time></trkpt><trkpt lat="43.885045" lon="11.7564033"><ele>963.6666666666666</ele><time>2026-04-07T13:00:10.73Z</time></trkpt><trkpt lat="43.8849967" lon="11.7561917"><ele>967.0</ele><time>2026-04-07T13:00:11.731Z</time></trkpt><trkpt lat="43.8849817" lon="11.755995"><ele>967.5</ele><time>2026-04-07T13:00:12.731Z</time></trkpt><trkpt lat="43.8849633" lon="11.755825"><ele>968.0</ele><time>2026-04-07T13:00:13.731Z</time></trkpt><trkpt lat="43.88492" lon="11.7556983"><ele>968.5</ele><time>2026-04-07T13:00:14.731Z</time></trkpt><trkpt lat="43.8848283" lon="11.7556133"><ele>969.0</ele><time>2026-04-07T13:00:15.73Z</time></trkpt><trkpt lat="43.884705" lon="11.75555"><ele>969.0</ele><time>2026-04-07T13:00:16.73Z</time></trkpt><trkpt lat="43.8845667" lon="11.7554833"><ele>969.0</ele><time>2026-04-07T13:00:17.73Z</time></trkpt><trkpt lat="43.8844367" lon="11.755385"><ele>969.0</ele><time>2026-04-07T13:00:18.73Z</time></trkpt><trkpt lat="43.8843383" lon="11.7552583"><ele>969.0</ele><time>2026-04-07T13:00:19.727Z</time></trkpt><trkpt lat="43.8842633" lon="11.7551017"><ele>971.75</ele><time>2026-04-07T13:00:20.728Z</time></trkpt><trkpt lat="43.8841967" lon="11.7549333"><ele>974.5</ele><time>2026-04-07T13:00:21.73Z</time></trkpt><trkpt lat="43.8841167" lon="11.75478"><ele>977.25</ele><time>2026-04-07T13:00:22.731Z</time></trkpt><trkpt lat="43.8840083" lon="11.7546333"><ele>980.0</ele><time>2026-04-07T13:00:23.729Z</time></trkpt><trkpt lat="43.8838833" lon="11.7544817"><ele>979.3333333333334</ele><time>2026-04-07T13:00:24.731Z</time></trkpt><trkpt lat="43.8837517" lon="11.7543083"><ele>978.6666666666667</ele><time>2026-04-07T13:00:25.73Z</time></trkpt><trkpt lat="43.8836317" lon="11.7541233"><ele>978.0</ele><time>2026-04-07T13:00:26.73Z</time></trkpt><trkpt lat="43.8835483" lon="11.753935"><ele>978.0</ele><time>2026-04-07T13:00:27.727Z</time></trkpt><trkpt lat="43.8834983" lon="11.7537367"><ele>978.0</ele><time>2026-04-07T13:00:28.728Z</time></trkpt><trkpt lat="43.8834967" lon="11.75355"><ele>978.0</ele><time>2026-04-07T13:00:29.73Z</time></trkpt><trkpt lat="43.88353" lon="11.7533967"><ele>978.0</ele><time>2026-04-07T13:00:30.728Z</time></trkpt><trkpt lat="43.8835733" lon="11.7532667"><ele>977.5999999999999</ele><time>2026-04-07T13:00:31.729Z</time></trkpt><trkpt lat="43.883565" lon="11.7531433"><ele>977.1999999999999</ele><time>2026-04-07T13:00:32.728Z</time></trkpt><trkpt lat="43.883525" lon="11.75303"><ele>976.8</ele><time>2026-04-07T13:00:33.729Z</time></trkpt><trkpt lat="43.88344" lon="11.7529367"><ele>976.4</ele><time>2026-04-07T13:00:34.727Z</time></trkpt><trkpt lat="43.883305" lon="11.7528933"><ele>976.0</ele><time>2026-04-07T13:00:35.729Z</time></trkpt><trkpt lat="43.8831617" lon="11.7528717"><ele>980.0</ele><time>2026-04-07T13:00:36.728Z</time></trkpt><trkpt lat="43.8830133" lon="11.7528367"><ele>984.0</ele><time>2026-04-07T13:00:37.73Z</time></trkpt><trkpt lat="43.8828633" lon="11.7527633"><ele>988.0</ele><time>2026-04-07T13:00:38.729Z</time></trkpt><trkpt lat="43.8827267" lon="11.7526467"><ele>988.0</ele><time>2026-04-07T13:00:39.728Z</time></trkpt><trkpt lat="43.88262" lon="11.752505"><ele>988.0</ele><time>2026-04-07T13:00:40.729Z</time></trkpt><trkpt lat="43.882515" lon="11.7524033"><ele>988.0</ele><time>2026-04-07T13:00:41.726Z</time></trkpt><trkpt lat="43.8824133" lon="11.75234"><ele>988.0</ele><time>2026-04-07T13:00:42.727Z</time></trkpt><trkpt lat="43.882305" lon="11.75233"><ele>993.25</ele><time>2026-04-07T13:00:43.731Z</time></trkpt><trkpt lat="43.8821917" lon="11.7523683"><ele>998.5</ele><time>2026-04-07T13:00:44.729Z</time></trkpt><trkpt lat="43.8820733" lon="11.7524217"><ele>1003.75</ele><time>2026-04-07T13:00:45.729Z</time></trkpt><trkpt lat="43.88195" lon="11.7524467"><ele>1009.0</ele><time>2026-04-07T13:00:46.73Z</time></trkpt><trkpt lat="43.8818117" lon="11.752415"><ele>1011.0</ele><time>2026-04-07T13:00:47.731Z</time></trkpt><trkpt lat="43.8816633" lon="11.7523333"><ele>1013.0</ele><time>2026-04-07T13:00:48.729Z</time></trkpt><trkpt lat="43.8815" lon="11.75224"><ele>1015.0</ele><time>2026-04-07T13:00:49.73Z</time></trkpt><trkpt lat="43.881325" lon="11.75216"><ele>1015.0</ele><time>2026-04-07T13:00:50.73Z</time></trkpt><trkpt lat="43.881145" lon="11.752095"><ele>1015.0</ele><time>2026-04-07T13:00:51.731Z</time></trkpt><trkpt lat="43.880985" lon="11.752045"><ele>1015.0</ele><time>2026-04-07T13:00:52.729Z</time></trkpt><trkpt lat="43.880845" lon="11.7520233"><ele>1014.75</ele><time>2026-04-07T13:00:53.73Z</time></trkpt><trkpt lat="43.88071" lon="11.752055"><ele>1014.5</ele><time>2026-04-07T13:00:54.731Z</time></trkpt><trkpt lat="43.8805817" lon="11.7521317"><ele>1014.25</ele><time>2026-04-07T13:00:55.73Z</time></trkpt><trkpt lat="43.8804733" lon="11.75222"><ele>1014.0</ele><time>2026-04-07T13:00:56.732Z</time></trkpt><trkpt lat="43.880375" lon="11.7522833"><ele>1014.0</ele><time>2026-04-07T13:00:57.73Z</time></trkpt><trkpt lat="43.8802717" lon="11.75229"><ele>1014.0</ele><time>2026-04-07T13:00:58.729Z</time></trkpt><trkpt lat="43.8801617" lon="11.75225"><ele>1014.0</ele><time>2026-04-07T13:00:59.728Z</time></trkpt><trkpt lat="43.88006" lon="11.7521583"><ele>1014.0</ele><time>2026-04-07T13:01:00.728Z</time></trkpt><trkpt lat="43.8799783" lon="11.751995"><ele>1025.3333333333333</ele><time>2026-04-07T13:01:01.728Z</time></trkpt><trkpt lat="43.879915" lon="11.75177"><ele>1036.6666666666665</ele><time>2026-04-07T13:01:02.729Z</time></trkpt><trkpt lat="43.8798417" lon="11.7515367"><ele>1048.0</ele><time>2026-04-07T13:01:03.73Z</time></trkpt><trkpt lat="43.8797683" lon="11.7512917"><ele>1048.0</ele><time>2026-04-07T13:01:04.728Z</time></trkpt><trkpt lat="43.879675" lon="11.7510517"><ele>1048.0</ele><time>2026-04-07T13:01:05.728Z</time></trkpt><trkpt lat="43.87956" lon="11.7508217"><ele>1048.0</ele><time>2026-04-07T13:01:06.729Z</time></trkpt><trkpt lat="43.879455" lon="11.750615"><ele>1056.3333333333333</ele><time>2026-04-07T13:01:07.73Z</time></trkpt><trkpt lat="43.8793883" lon="11.7504133"><ele>1064.6666666666667</ele><time>2026-04-07T13:01:08.73Z</time></trkpt><trkpt lat="43.87936" lon="11.7501967"><ele>1073.0</ele><time>2026-04-07T13:01:09.728Z</time></trkpt><trkpt lat="43.8793383" lon="11.749985"><ele>1077.25</ele><time>2026-04-07T13:01:10.731Z</time></trkpt><trkpt lat="43.879315" lon="11.74979"><ele>1081.5</ele><time>2026-04-07T13:01:11.731Z</time></trkpt><trkpt lat="43.87928" lon="11.7496267"><ele>1085.75</ele><time>2026-04-07T13:01:12.73Z</time></trkpt><trkpt lat="43.8792117" lon="11.7494917"><ele>1090.0</ele><time>2026-04-07T13:01:13.729Z</time></trkpt><trkpt lat="43.8791" lon="11.7494033"><ele>1088.75</ele><time>2026-04-07T13:01:14.729Z</time></trkpt><trkpt lat="43.878975" lon="11.7493583"><ele>1087.5</ele><time>2026-04-07T13:01:15.733Z</time></trkpt><trkpt lat="43.878825" lon="11.749325"><ele>1086.25</ele><time>2026-04-07T13:01:16.729Z</time></trkpt><trkpt lat="43.8786767" lon="11.7492783"><ele>1085.0</ele><time>2026-04-07T13:01:17.728Z</time></trkpt><trkpt lat="43.8785283" lon="11.7492133"><ele>1077.6666666666667</ele><time>2026-04-07T13:01:18.727Z</time></trkpt><trkpt lat="43.878385" lon="11.7491233"><ele>1070.3333333333333</ele><time>2026-04-07T13:01:19.728Z</time></trkpt><trkpt lat="43.8782583" lon="11.749005"><ele>1063.0</ele><time>2026-04-07T13:01:20.728Z</time></trkpt><trkpt lat="43.8781533" lon="11.7488767"><ele>1063.0</ele><time>2026-04-07T13:01:21.73Z</time></trkpt><trkpt lat="43.8780567" lon="11.7487683"><ele>1063.0</ele><time>2026-04-07T13:01:22.729Z</time></trkpt><trkpt lat="43.8779583" lon="11.7486917"><ele>1063.0</ele><time>2026-04-07T13:01:23.73Z</time></trkpt><trkpt lat="43.87786" lon="11.7486583"><ele>1063.0</ele><time>2026-04-07T13:01:24.73Z</time></trkpt><trkpt lat="43.87776" lon="11.74868"><ele>1063.0</ele><time>2026-04-07T13:01:25.731Z</time></trkpt><trkpt lat="43.87767" lon="11.7487517"><ele>1063.0</ele><time>2026-04-07T13:01:26.728Z</time></trkpt><trkpt lat="43.8776067" lon="11.7488717"><ele>1063.0</ele><time>2026-04-07T13:01:27.729Z</time></trkpt><trkpt lat="43.877565" lon="11.7490317"><ele>1063.0</ele><time>2026-04-07T13:01:28.73Z</time></trkpt><trkpt lat="43.87752" lon="11.7491883"><ele>1063.0</ele><time>2026-04-07T13:01:29.727Z</time></trkpt><trkpt lat="43.8774517" lon="11.7492983"><ele>1065.0</ele><time>2026-04-07T13:01:30.727Z</time></trkpt><trkpt lat="43.8773733" lon="11.74936"><ele>1067.0</ele><time>2026-04-07T13:01:31.728Z</time></trkpt><trkpt lat="43.8772767" lon="11.7493733"><ele>1069.0</ele><time>2026-04-07T13:01:32.728Z</time></trkpt><trkpt lat="43.8771733" lon="11.7493333"><ele>1071.0</ele><time>2026-04-07T13:01:33.729Z</time></trkpt><trkpt lat="43.8770733" lon="11.749255"><ele>1073.0</ele><time>2026-04-07T13:01:34.73Z</time></trkpt><trkpt lat="43.876975" lon="11.749155"><ele>1073.0</ele><time>2026-04-07T13:01:35.731Z</time></trkpt><trkpt lat="43.87688" lon="11.74905"><ele>1073.0</ele><time>2026-04-07T13:01:36.728Z</time></trkpt><trkpt lat="43.8767867" lon="11.748965"><ele>1073.0</ele><time>2026-04-07T13:01:37.729Z</time></trkpt><trkpt lat="43.8766983" lon="11.748915"><ele>1073.0</ele><time>2026-04-07T13:01:38.73Z</time></trkpt><trkpt lat="43.8766" lon="11.7488883"><ele>1073.0</ele><time>2026-04-07T13:01:39.728Z</time></trkpt><trkpt lat="43.876495" lon="11.7489017"><ele>1074.75</ele><time>2026-04-07T13:01:40.729Z</time></trkpt><trkpt lat="43.8763783" lon="11.7489567"><ele>1076.5</ele><time>2026-04-07T13:01:41.73Z</time></trkpt><trkpt lat="43.8762467" lon="11.7490633"><ele>1078.25</ele><time>2026-04-07T13:01:42.731Z</time></trkpt><trkpt lat="43.8761" lon="11.7491667"><ele>1080.0</ele><time>2026-04-07T13:01:43.73Z</time></trkpt><trkpt lat="43.8759567" lon="11.7492533"><ele>1085.0</ele><time>2026-04-07T13:01:44.73Z</time></trkpt><trkpt lat="43.87582" lon="11.7493083"><ele>1090.0</ele><time>2026-04-07T13:01:45.731Z</time></trkpt><trkpt lat="43.8756817" lon="11.7493183"><ele>1095.0</ele><time>2026-04-07T13:01:46.73Z</time></trkpt><trkpt lat="43.8755567" lon="11.7493217"><ele>1100.0</ele><time>2026-04-07T13:01:47.73Z</time></trkpt><trkpt lat="43.8754433" lon="11.7493633"><ele>1089.5</ele><time>2026-04-07T13:01:48.73Z</time></trkpt><trkpt lat="43.8753383" lon="11.74944"><ele>1079.0</ele><time>2026-04-07T13:01:49.73Z</time></trkpt><trkpt lat="43.8752467" lon="11.7495517"><ele>1068.5</ele><time>2026-04-07T13:01:50.729Z</time></trkpt><trkpt lat="43.87518" lon="11.7496867"><ele>1058.0</ele><time>2026-04-07T13:01:51.727Z</time></trkpt><trkpt lat="43.875135" lon="11.7498633"><ele>1057.5</ele><time>2026-04-07T13:01:52.731Z</time></trkpt><trkpt lat="43.8750833" lon="11.7500383"><ele>1057.0</ele><time>2026-04-07T13:01:53.727Z</time></trkpt><trkpt lat="43.8750317" lon="11.750185"><ele>1056.5</ele><time>2026-04-07T13:01:54.728Z</time></trkpt><trkpt lat="43.8749567" lon="11.750295"><ele>1056.0</ele><time>2026-04-07T13:01:55.73Z</time></trkpt><trkpt lat="43.8748567" lon="11.7503617"><ele>1056.0</ele><time>2026-04-07T13:01:56.731Z</time></trkpt><trkpt lat="43.8747383" lon="11.7504"><ele>1056.0</ele><time>2026-04-07T13:01:57.729Z</time></trkpt><trkpt lat="43.8746083" lon="11.75043"><ele>1056.0</ele><time>2026-04-07T13:01:58.728Z</time></trkpt><trkpt lat="43.8744783" lon="11.75046"><ele>1056.0</ele><time>2026-04-07T13:01:59.73Z</time></trkpt><trkpt lat="43.8743533" lon="11.7504783"><ele>1059.5</ele><time>2026-04-07T13:02:00.729Z</time></trkpt><trkpt lat="43.874235" lon="11.7504733"><ele>1063.0</ele><time>2026-04-07T13:02:01.729Z</time></trkpt><trkpt lat="43.8741283" lon="11.750425"><ele>1066.5</ele><time>2026-04-07T13:02:02.729Z</time></trkpt><trkpt lat="43.874025" lon="11.7503483"><ele>1070.0</ele><time>2026-04-07T13:02:03.729Z</time></trkpt><trkpt lat="43.8739333" lon="11.750235"><ele>1076.5</ele><time>2026-04-07T13:02:04.728Z</time></trkpt><trkpt lat="43.8738433" lon="11.750095"><ele>1083.0</ele><time>2026-04-07T13:02:05.73Z</time></trkpt><trkpt lat="43.8737467" lon="11.749955"><ele>1089.5</ele><time>2026-04-07T13:02:06.729Z</time></trkpt><trkpt lat="43.873645" lon="11.7498317"><ele>1096.0</ele><time>2026-04-07T13:02:07.73Z</time></trkpt><trkpt lat="43.873535" lon="11.7497083"><ele>1094.0</ele><time>2026-04-07T13:02:08.729Z</time></trkpt><trkpt lat="43.8734333" lon="11.7495717"><ele>1092.0</ele><time>2026-04-07T13:02:09.728Z</time></trkpt><trkpt lat="43.8733533" lon="11.7494183"><ele>1090.0</ele><time>2026-04-07T13:02:10.729Z</time></trkpt><trkpt lat="43.8732833" lon="11.74924"><ele>1088.0</ele><time>2026-04-07T13:02:11.729Z</time></trkpt><trkpt lat="43.87322" lon="11.7490467"><ele>1088.0</ele><time>2026-04-07T13:02:12.729Z</time></trkpt><trkpt lat="43.8731517" lon="11.7488417"><ele>1088.0</ele><time>2026-04-07T13:02:13.729Z</time></trkpt><trkpt lat="43.87308" lon="11.7486667"><ele>1088.0</ele><time>2026-04-07T13:02:14.729Z</time></trkpt><trkpt lat="43.87301" lon="11.74849"><ele>1091.6666666666667</ele><time>2026-04-07T13:02:15.731Z</time></trkpt><trkpt lat="43.8729383" lon="11.7483067"><ele>1095.3333333333333</ele><time>2026-04-07T13:02:16.73Z</time></trkpt><trkpt lat="43.87287" lon="11.7481217"><ele>1099.0</ele><time>2026-04-07T13:02:17.729Z</time></trkpt><trkpt lat="43.872795" lon="11.7479333"><ele>1099.0</ele><time>2026-04-07T13:02:18.73Z</time></trkpt><trkpt lat="43.8727283" lon="11.747745"><ele>1099.0</ele><time>2026-04-07T13:02:19.731Z</time></trkpt><trkpt lat="43.872665" lon="11.747555"><ele>1099.0</ele><time>2026-04-07T13:02:20.73Z</time></trkpt><trkpt lat="43.8726067" lon="11.7473717"><ele>1099.0</ele><time>2026-04-07T13:02:21.731Z</time></trkpt><trkpt lat="43.8725683" lon="11.7471833"><ele>1096.0</ele><time>2026-04-07T13:02:22.73Z</time></trkpt><trkpt lat="43.8725483" lon="11.7469867"><ele>1093.0</ele><time>2026-04-07T13:02:23.727Z</time></trkpt><trkpt lat="43.8725433" lon="11.74679"><ele>1090.0</ele><time>2026-04-07T13:02:24.728Z</time></trkpt><trkpt lat="43.8725567" lon="11.7466"><ele>1087.0</ele><time>2026-04-07T13:02:25.729Z</time></trkpt><trkpt lat="43.872595" lon="11.7464417"><ele>1095.0</ele><time>2026-04-07T13:02:26.73Z</time></trkpt><trkpt lat="43.8726167" lon="11.74628"><ele>1103.0</ele><time>2026-04-07T13:02:27.728Z</time></trkpt><trkpt lat="43.872645" lon="11.7461267"><ele>1111.0</ele><time>2026-04-07T13:02:28.73Z</time></trkpt><trkpt lat="43.8726433" lon="11.7459667"><ele>1119.0</ele><time>2026-04-07T13:02:29.728Z</time></trkpt><trkpt lat="43.8726117" lon="11.7458133"><ele>1113.25</ele><time>2026-04-07T13:02:30.728Z</time></trkpt><trkpt lat="43.8725717" lon="11.7456683"><ele>1107.5</ele><time>2026-04-07T13:02:31.73Z</time></trkpt><trkpt lat="43.872515" lon="11.745525"><ele>1101.75</ele><time>2026-04-07T13:02:32.728Z</time></trkpt><trkpt lat="43.8724617" lon="11.7453817"><ele>1096.0</ele><time>2026-04-07T13:02:33.731Z</time></trkpt><trkpt lat="43.872425" lon="11.7452233"><ele>1096.5</ele><time>2026-04-07T13:02:34.726Z</time></trkpt><trkpt lat="43.8724183" lon="11.7450567"><ele>1097.0</ele><time>2026-04-07T13:02:35.727Z</time></trkpt><trkpt lat="43.87243" lon="11.7448917"><ele>1097.5</ele><time>2026-04-07T13:02:36.727Z</time></trkpt><trkpt lat="43.87247" lon="11.7447167"><ele>1098.0</ele><time>2026-04-07T13:02:37.727Z</time></trkpt><trkpt lat="43.8725117" lon="11.74455"><ele>1098.0</ele><time>2026-04-07T13:02:38.727Z</time></trkpt><trkpt lat="43.872525" lon="11.7443833"><ele>1098.0</ele><time>2026-04-07T13:02:39.727Z</time></trkpt><trkpt lat="43.8725183" lon="11.7442083"><ele>1098.0</ele><time>2026-04-07T13:02:40.726Z</time></trkpt><trkpt lat="43.8724917" lon="11.7440167"><ele>1098.0</ele><time>2026-04-07T13:02:41.732Z</time></trkpt><trkpt lat="43.87245" lon="11.743825"><ele>1100.25</ele><time>2026-04-07T13:02:42.729Z</time></trkpt><trkpt lat="43.8724017" lon="11.7436383"><ele>1102.5</ele><time>2026-04-07T13:02:43.73Z</time></trkpt><trkpt lat="43.8723533" lon="11.7434633"><ele>1104.75</ele><time>2026-04-07T13:02:44.728Z</time></trkpt><trkpt lat="43.8722917" lon="11.7432983"><ele>1107.0</ele><time>2026-04-07T13:02:45.73Z</time></trkpt><trkpt lat="43.872195" lon="11.74313"><ele>1110.6666666666667</ele><time>2026-04-07T13:02:46.729Z</time></trkpt><trkpt lat="43.8720817" lon="11.7429833"><ele>1114.3333333333335</ele><time>2026-04-07T13:02:47.731Z</time></trkpt><trkpt lat="43.8719633" lon="11.7428433"><ele>1118.0</ele><time>2026-04-07T13:02:48.73Z</time></trkpt><trkpt lat="43.871855" lon="11.7426983"><ele>1115.5</ele><time>2026-04-07T13:02:49.73Z</time></trkpt><trkpt lat="43.8717433" lon="11.7425467"><ele>1113.0</ele><time>2026-04-07T13:02:50.729Z</time></trkpt><trkpt lat="43.8716633" lon="11.7424017"><ele>1110.5</ele><time>2026-04-07T13:02:51.731Z</time></trkpt><trkpt lat="43.8715617" lon="11.7422283"><ele>1108.0</ele><time>2026-04-07T13:02:52.73Z</time></trkpt><trkpt lat="43.87147" lon="11.74207"><ele>1108.0</ele><time>2026-04-07T13:02:53.728Z</time></trkpt><trkpt lat="43.8714" lon="11.7418883"><ele>1108.0</ele><time>2026-04-07T13:02:54.728Z</time></trkpt><trkpt lat="43.87141" lon="11.7416667"><ele>1108.0</ele><time>2026-04-07T13:02:55.728Z</time></trkpt><trkpt lat="43.8714267" lon="11.7414233"><ele>1112.75</ele><time>2026-04-07T13:02:56.729Z</time></trkpt><trkpt lat="43.8714633" lon="11.741195"><ele>1117.5</ele><time>2026-04-07T13:02:57.728Z</time></trkpt><trkpt lat="43.8714683" lon="11.7409917"><ele>1122.25</ele><time>2026-04-07T13:02:58.727Z</time></trkpt><trkpt lat="43.871435" lon="11.7408183"><ele>1127.0</ele><time>2026-04-07T13:02:59.729Z</time></trkpt><trkpt lat="43.8713883" lon="11.7406667"><ele>1129.0</ele><time>2026-04-07T13:03:00.728Z</time></trkpt><trkpt lat="43.8713283" lon="11.7405033"><ele>1131.0</ele><time>2026-04-07T13:03:01.73Z</time></trkpt><trkpt lat="43.8712967" lon="11.7403417"><ele>1133.0</ele><time>2026-04-07T13:03:02.729Z</time></trkpt><trkpt lat="43.8713033" lon="11.7401817"><ele>1135.0</ele><time>2026-04-07T13:03:03.729Z</time></trkpt><trkpt lat="43.8713317" lon="11.7400183"><ele>1135.5</ele><time>2026-04-07T13:03:04.728Z</time></trkpt><trkpt lat="43.8714" lon="11.7398867"><ele>1136.0</ele><time>2026-04-07T13:03:05.728Z</time></trkpt><trkpt lat="43.871485" lon="11.7397717"><ele>1136.5</ele><time>2026-04-07T13:03:06.728Z</time></trkpt><trkpt lat="43.8716" lon="11.7396783"><ele>1137.0</ele><time>2026-04-07T13:03:07.729Z</time></trkpt><trkpt lat="43.8717217" lon="11.7395967"><ele>1141.0</ele><time>2026-04-07T13:03:08.731Z</time></trkpt><trkpt lat="43.871845" lon="11.73953"><ele>1145.0</ele><time>2026-04-07T13:03:09.729Z</time></trkpt><trkpt lat="43.87197" lon="11.7394633"><ele>1149.0</ele><time>2026-04-07T13:03:10.729Z</time></trkpt><trkpt lat="43.8720767" lon="11.7393533"><ele>1153.0</ele><time>2026-04-07T13:03:11.73Z</time></trkpt><trkpt lat="43.872155" lon="11.7392283"><ele>1153.0</ele><time>2026-04-07T13:03:12.73Z</time></trkpt><trkpt lat="43.8722" lon="11.7390583"><ele>1153.0</ele><time>2026-04-07T13:03:13.729Z</time></trkpt><trkpt lat="43.872255" lon="11.7388817"><ele>1153.0</ele><time>2026-04-07T13:03:14.728Z</time></trkpt><trkpt lat="43.8723217" lon="11.7387267"><ele>1153.0</ele><time>2026-04-07T13:03:15.729Z</time></trkpt><trkpt lat="43.8723867" lon="11.7385933"><ele>1153.2</ele><time>2026-04-07T13:03:16.73Z</time></trkpt><trkpt lat="43.8724333" lon="11.7384767"><ele>1153.4</ele><time>2026-04-07T13:03:17.73Z</time></trkpt><trkpt lat="43.8724617" lon="11.738375"><ele>1153.6000000000001</ele><time>2026-04-07T13:03:18.728Z</time></trkpt><trkpt lat="43.87249" lon="11.73824"><ele>1153.8</ele><time>2026-04-07T13:03:20.728Z</time></trkpt><trkpt lat="43.872405" lon="11.7381883"><ele>1154.0</ele><time>2026-04-07T13:03:21.727Z</time></trkpt><trkpt lat="43.8723117" lon="11.7381617"><ele>1154.0</ele><time>2026-04-07T13:03:22.73Z</time></trkpt><trkpt lat="43.8721917" lon="11.7381467"><ele>1154.0</ele><time>2026-04-07T13:03:23.728Z</time></trkpt><trkpt lat="43.87208" lon="11.7381567"><ele>1154.0</ele><time>2026-04-07T13:03:24.729Z</time></trkpt><trkpt lat="43.8719967" lon="11.7382383"><ele>1154.0</ele><time>2026-04-07T13:03:25.729Z</time></trkpt><trkpt lat="43.8719017" lon="11.73835"><ele>1154.0</ele><time>2026-04-07T13:03:26.729Z</time></trkpt><trkpt lat="43.8718017" lon="11.7384967"><ele>1154.0</ele><time>2026-04-07T13:03:27.73Z</time></trkpt><trkpt lat="43.8716933" lon="11.7386217"><ele>1154.0</ele><time>2026-04-07T13:03:28.728Z</time></trkpt><trkpt lat="43.8715833" lon="11.7387533"><ele>1154.0</ele><time>2026-04-07T13:03:29.727Z</time></trkpt><trkpt lat="43.871465" lon="11.738875"><ele>1150.5</ele><time>2026-04-07T13:03:30.727Z</time></trkpt><trkpt lat="43.871345" lon="11.7389817"><ele>1147.0</ele><time>2026-04-07T13:03:31.73Z</time></trkpt><trkpt lat="43.8712167" lon="11.7390567"><ele>1143.5</ele><time>2026-04-07T13:03:32.729Z</time></trkpt><trkpt lat="43.87109" lon="11.7391167"><ele>1140.0</ele><time>2026-04-07T13:03:33.729Z</time></trkpt><trkpt lat="43.870965" lon="11.7391417"><ele>1143.75</ele><time>2026-04-07T13:03:34.728Z</time></trkpt><trkpt lat="43.87084" lon="11.7391283"><ele>1147.5</ele><time>2026-04-07T13:03:35.728Z</time></trkpt><trkpt lat="43.87072" lon="11.7391067"><ele>1151.25</ele><time>2026-04-07T13:03:36.731Z</time></trkpt><trkpt lat="43.8706133" lon="11.7390683"><ele>1155.0</ele><time>2026-04-07T13:03:37.73Z</time></trkpt><trkpt lat="43.8705183" lon="11.7390283"><ele>1155.0</ele><time>2026-04-07T13:03:38.727Z</time></trkpt><trkpt lat="43.870435" lon="11.739"><ele>1155.0</ele><time>2026-04-07T13:03:39.727Z</time></trkpt><trkpt lat="43.8703567" lon="11.7389833"><ele>1155.0</ele><time>2026-04-07T13:03:40.73Z</time></trkpt><trkpt lat="43.870285" lon="11.7389867"><ele>1155.0</ele><time>2026-04-07T13:03:41.73Z</time></trkpt><trkpt lat="43.8702567" lon="11.7391017"><ele>1155.0</ele><time>2026-04-07T13:03:44.728Z</time></trkpt><trkpt lat="43.87029" lon="11.7392233"><ele>1155.0</ele><time>2026-04-07T13:03:46.727Z</time></trkpt><trkpt lat="43.8703233" lon="11.7393933"><ele>1150.6666666666667</ele><time>2026-04-07T13:03:48.728Z</time></trkpt><trkpt lat="43.8703667" lon="11.7394767"><ele>1146.3333333333333</ele><time>2026-04-07T13:03:49.727Z</time></trkpt><trkpt lat="43.8704117" lon="11.7395883"><ele>1142.0</ele><time>2026-04-07T13:03:50.727Z</time></trkpt><trkpt lat="43.87045" lon="11.7396917"><ele>1137.6666666666665</ele><time>2026-04-07T13:03:51.728Z</time></trkpt><trkpt lat="43.8704767" lon="11.7398167"><ele>1133.3333333333333</ele><time>2026-04-07T13:03:52.727Z</time></trkpt><trkpt lat="43.8704867" lon="11.739945"><ele>1129.0</ele><time>2026-04-07T13:03:53.728Z</time></trkpt><trkpt lat="43.8704583" lon="11.74008"><ele>1128.0</ele><time>2026-04-07T13:03:54.728Z</time></trkpt><trkpt lat="43.8704283" lon="11.7402167"><ele>1127.0</ele><time>2026-04-07T13:03:55.728Z</time></trkpt><trkpt lat="43.870415" lon="11.7403667"><ele>1126.0</ele><time>2026-04-07T13:03:56.728Z</time></trkpt><trkpt lat="43.870415" lon="11.7405217"><ele>1125.0</ele><time>2026-04-07T13:03:57.728Z</time></trkpt><trkpt lat="43.8704233" lon="11.7406717"><ele>1124.0</ele><time>2026-04-07T13:03:58.728Z</time></trkpt><trkpt lat="43.8704333" lon="11.7408217"><ele>1124.0</ele><time>2026-04-07T13:03:59.727Z</time></trkpt><trkpt lat="43.8704383" lon="11.7409733"><ele>1124.0</ele><time>2026-04-07T13:04:00.727Z</time></trkpt><trkpt lat="43.87044" lon="11.7411383"><ele>1124.0</ele><time>2026-04-07T13:04:01.727Z</time></trkpt><trkpt lat="43.8704283" lon="11.7412983"><ele>1124.0</ele><time>2026-04-07T13:04:02.728Z</time></trkpt><trkpt lat="43.8704" lon="11.74146"><ele>1123.8</ele><time>2026-04-07T13:04:03.727Z</time></trkpt><trkpt lat="43.8703617" lon="11.7415983"><ele>1123.6000000000001</ele><time>2026-04-07T13:04:04.728Z</time></trkpt><trkpt lat="43.8703183" lon="11.7417033"><ele>1123.4</ele><time>2026-04-07T13:04:05.728Z</time></trkpt><trkpt lat="43.8702633" lon="11.7417867"><ele>1123.2</ele><time>2026-04-07T13:04:06.727Z</time></trkpt><trkpt lat="43.87018" lon="11.7418767"><ele>1123.0</ele><time>2026-04-07T13:04:08.729Z</time></trkpt><trkpt lat="43.8702517" lon="11.7417817"><ele>1123.0</ele><time>2026-04-07T13:04:16.729Z</time></trkpt><trkpt lat="43.870305" lon="11.741705"><ele>1123.0</ele><time>2026-04-07T13:04:17.728Z</time></trkpt><trkpt lat="43.87035" lon="11.7416217"><ele>1123.0</ele><time>2026-04-07T13:04:18.728Z</time></trkpt><trkpt lat="43.8704017" lon="11.741505"><ele>1123.0</ele><time>2026-04-07T13:04:19.728Z</time></trkpt><trkpt lat="43.8704383" lon="11.741355"><ele>1123.0</ele><time>2026-04-07T13:04:20.729Z</time></trkpt><trkpt lat="43.870465" lon="11.7412"><ele>1123.2</ele><time>2026-04-07T13:04:21.728Z</time></trkpt><trkpt lat="43.8704733" lon="11.74104"><ele>1123.4</ele><time>2026-04-07T13:04:22.727Z</time></trkpt><trkpt lat="43.87047" lon="11.74089"><ele>1123.6000000000001</ele><time>2026-04-07T13:04:23.728Z</time></trkpt><trkpt lat="43.8704517" lon="11.740735"><ele>1123.8</ele><time>2026-04-07T13:04:24.727Z</time></trkpt><trkpt lat="43.87044" lon="11.7405817"><ele>1124.0</ele><time>2026-04-07T13:04:25.728Z</time></trkpt><trkpt lat="43.870445" lon="11.7404333"><ele>1124.0</ele><time>2026-04-07T13:04:26.727Z</time></trkpt><trkpt lat="43.8704717" lon="11.7402883"><ele>1124.0</ele><time>2026-04-07T13:04:27.727Z</time></trkpt><trkpt lat="43.8704933" lon="11.7401417"><ele>1124.0</ele><time>2026-04-07T13:04:28.727Z</time></trkpt><trkpt lat="43.870515" lon="11.7400117"><ele>1124.0</ele><time>2026-04-07T13:04:29.727Z</time></trkpt><trkpt lat="43.87051" lon="11.73989"><ele>1124.0</ele><time>2026-04-07T13:04:30.728Z</time></trkpt><trkpt lat="43.8704883" lon="11.7397667"><ele>1124.8333333333335</ele><time>2026-04-07T13:04:31.727Z</time></trkpt><trkpt lat="43.87045" lon="11.73965"><ele>1125.6666666666667</ele><time>2026-04-07T13:04:32.728Z</time></trkpt><trkpt lat="43.8704133" lon="11.7395417"><ele>1126.5</ele><time>2026-04-07T13:04:33.727Z</time></trkpt><trkpt lat="43.8703867" lon="11.7394383"><ele>1127.3333333333333</ele><time>2026-04-07T13:04:34.728Z</time></trkpt><trkpt lat="43.8703767" lon="11.7393433"><ele>1128.1666666666665</ele><time>2026-04-07T13:04:35.727Z</time></trkpt><trkpt lat="43.8703867" lon="11.7392083"><ele>1129.0</ele><time>2026-04-07T13:04:37.727Z</time></trkpt><trkpt lat="43.8704317" lon="11.7391283"><ele>1129.0</ele><time>2026-04-07T13:04:39.728Z</time></trkpt><trkpt lat="43.87037" lon="11.7391483"><ele>1129.0</ele><time>2026-04-07T13:08:49.73Z</time></trkpt><trkpt lat="43.8703633" lon="11.7392383"><ele>1129.0</ele><time>2026-04-07T13:08:52.73Z</time></trkpt><trkpt lat="43.870365" lon="11.739395"><ele>1129.0</ele><time>2026-04-07T13:08:54.729Z</time></trkpt><trkpt lat="43.87038" lon="11.7394917"><ele>1129.0</ele><time>2026-04-07T13:08:55.73Z</time></trkpt><trkpt lat="43.8704017" lon="11.739595"><ele>1129.0</ele><time>2026-04-07T13:08:56.731Z</time></trkpt><trkpt lat="43.870435" lon="11.7397333"><ele>1129.0</ele><time>2026-04-07T13:08:57.73Z</time></trkpt><trkpt lat="43.870455" lon="11.7398483"><ele>1129.0</ele><time>2026-04-07T13:08:58.73Z</time></trkpt><trkpt lat="43.8704617" lon="11.7399617"><ele>1129.0</ele><time>2026-04-07T13:08:59.727Z</time></trkpt><trkpt lat="43.8704633" lon="11.74007"><ele>1129.0</ele><time>2026-04-07T13:09:00.727Z</time></trkpt><trkpt lat="43.870445" lon="11.7401917"><ele>1129.0</ele><time>2026-04-07T13:09:01.728Z</time></trkpt><trkpt lat="43.8704233" lon="11.740325"><ele>1129.0</ele><time>2026-04-07T13:09:02.727Z</time></trkpt><trkpt lat="43.870415" lon="11.7404683"><ele>1127.75</ele><time>2026-04-07T13:09:03.728Z</time></trkpt><trkpt lat="43.8704267" lon="11.7406283"><ele>1126.5</ele><time>2026-04-07T13:09:04.727Z</time></trkpt><trkpt lat="43.8704417" lon="11.7407983"><ele>1125.25</ele><time>2026-04-07T13:09:05.727Z</time></trkpt><trkpt lat="43.87046" lon="11.7409817"><ele>1124.0</ele><time>2026-04-07T13:09:06.728Z</time></trkpt><trkpt lat="43.87047" lon="11.74116"><ele>1123.8</ele><time>2026-04-07T13:09:07.727Z</time></trkpt><trkpt lat="43.8704633" lon="11.7413233"><ele>1123.6000000000001</ele><time>2026-04-07T13:09:08.727Z</time></trkpt><trkpt lat="43.87044" lon="11.7414783"><ele>1123.4</ele><time>2026-04-07T13:09:09.728Z</time></trkpt><trkpt lat="43.8704" lon="11.7416183"><ele>1123.2</ele><time>2026-04-07T13:09:10.731Z</time></trkpt><trkpt lat="43.8703467" lon="11.7417317"><ele>1123.0</ele><time>2026-04-07T13:09:11.731Z</time></trkpt><trkpt lat="43.87029" lon="11.7418167"><ele>1120.2</ele><time>2026-04-07T13:09:12.728Z</time></trkpt><trkpt lat="43.8702383" lon="11.7418967"><ele>1117.4</ele><time>2026-04-07T13:09:13.731Z</time></trkpt><trkpt lat="43.8701783" lon="11.74194"><ele>1114.6000000000001</ele><time>2026-04-07T13:09:14.73Z</time></trkpt><trkpt lat="43.870085" lon="11.7419233"><ele>1111.8</ele><time>2026-04-07T13:09:15.732Z</time></trkpt><trkpt lat="43.86992" lon="11.741805"><ele>1109.0</ele><time>2026-04-07T13:09:16.729Z</time></trkpt><trkpt lat="43.8698083" lon="11.74163"><ele>1122.5</ele><time>2026-04-07T13:09:17.729Z</time></trkpt><trkpt lat="43.86971" lon="11.74148"><ele>1136.0</ele><time>2026-04-07T13:09:18.727Z</time></trkpt><trkpt lat="43.8696167" lon="11.7413433"><ele>1149.5</ele><time>2026-04-07T13:09:19.732Z</time></trkpt><trkpt lat="43.869515" lon="11.741195"><ele>1163.0</ele><time>2026-04-07T13:09:20.73Z</time></trkpt><trkpt lat="43.8694083" lon="11.741055"><ele>1168.25</ele><time>2026-04-07T13:09:21.73Z</time></trkpt><trkpt lat="43.8692933" lon="11.7409267"><ele>1173.5</ele><time>2026-04-07T13:09:22.731Z</time></trkpt><trkpt lat="43.8691733" lon="11.74081"><ele>1178.75</ele><time>2026-04-07T13:09:23.731Z</time></trkpt><trkpt lat="43.8690533" lon="11.7406933"><ele>1184.0</ele><time>2026-04-07T13:09:24.732Z</time></trkpt><trkpt lat="43.8689467" lon="11.74059"><ele>1184.0</ele><time>2026-04-07T13:09:25.728Z</time></trkpt><trkpt lat="43.86885" lon="11.7405017"><ele>1184.0</ele><time>2026-04-07T13:09:26.731Z</time></trkpt><trkpt lat="43.868755" lon="11.7404367"><ele>1184.0</ele><time>2026-04-07T13:09:27.731Z</time></trkpt><trkpt lat="43.868665" lon="11.7403867"><ele>1184.0</ele><time>2026-04-07T13:09:28.728Z</time></trkpt><trkpt lat="43.8685917" lon="11.7403667"><ele>1184.0</ele><time>2026-04-07T13:09:29.728Z</time></trkpt><trkpt lat="43.8684783" lon="11.7404083"><ele>1185.3333333333335</ele><time>2026-04-07T13:09:31.728Z</time></trkpt><trkpt lat="43.8684217" lon="11.7404833"><ele>1186.6666666666667</ele><time>2026-04-07T13:09:32.73Z</time></trkpt><trkpt lat="43.8683833" lon="11.7405683"><ele>1188.0</ele><time>2026-04-07T13:09:33.732Z</time></trkpt><trkpt lat="43.8683733" lon="11.7406817"><ele>1189.3333333333333</ele><time>2026-04-07T13:09:34.727Z</time></trkpt><trkpt lat="43.8683933" lon="11.740805"><ele>1190.6666666666665</ele><time>2026-04-07T13:09:35.729Z</time></trkpt><trkpt lat="43.8684033" lon="11.7409217"><ele>1192.0</ele><time>2026-04-07T13:09:36.729Z</time></trkpt><trkpt lat="43.8683983" lon="11.74103"><ele>1187.0</ele><time>2026-04-07T13:09:37.729Z</time></trkpt><trkpt lat="43.8683533" lon="11.7411183"><ele>1182.0</ele><time>2026-04-07T13:09:38.729Z</time></trkpt><trkpt lat="43.8682817" lon="11.74118"><ele>1177.0</ele><time>2026-04-07T13:09:39.729Z</time></trkpt><trkpt lat="43.86821" lon="11.7412317"><ele>1172.0</ele><time>2026-04-07T13:09:40.731Z</time></trkpt><trkpt lat="43.8681167" lon="11.74128"><ele>1167.0</ele><time>2026-04-07T13:09:41.73Z</time></trkpt><trkpt lat="43.868" lon="11.7413167"><ele>1167.0</ele><time>2026-04-07T13:09:42.727Z</time></trkpt><trkpt lat="43.867865" lon="11.7413683"><ele>1167.0</ele><time>2026-04-07T13:09:43.729Z</time></trkpt><trkpt lat="43.8677033" lon="11.741455"><ele>1167.0</ele><time>2026-04-07T13:09:44.731Z</time></trkpt><trkpt lat="43.8675317" lon="11.7415633"><ele>1176.0</ele><time>2026-04-07T13:09:45.728Z</time></trkpt><trkpt lat="43.8673783" lon="11.741685"><ele>1185.0</ele><time>2026-04-07T13:09:46.729Z</time></trkpt><trkpt lat="43.867235" lon="11.7417917"><ele>1194.0</ele><time>2026-04-07T13:09:47.73Z</time></trkpt><trkpt lat="43.8670817" lon="11.74188"><ele>1192.8</ele><time>2026-04-07T13:09:48.728Z</time></trkpt><trkpt lat="43.8669617" lon="11.74196"><ele>1191.6000000000001</ele><time>2026-04-07T13:09:49.729Z</time></trkpt><trkpt lat="43.8668333" lon="11.74199"><ele>1190.4</ele><time>2026-04-07T13:09:50.728Z</time></trkpt><trkpt lat="43.8667417" lon="11.7419867"><ele>1189.2</ele><time>2026-04-07T13:09:51.729Z</time></trkpt><trkpt lat="43.8666683" lon="11.7419567"><ele>1188.0</ele><time>2026-04-07T13:09:52.729Z</time></trkpt><trkpt lat="43.8666317" lon="11.7418833"><ele>1191.3333333333333</ele><time>2026-04-07T13:09:53.729Z</time></trkpt><trkpt lat="43.8665783" lon="11.7418283"><ele>1194.6666666666667</ele><time>2026-04-07T13:09:54.729Z</time></trkpt><trkpt lat="43.8665717" lon="11.74174"><ele>1198.0</ele><time>2026-04-07T13:09:55.73Z</time></trkpt><trkpt lat="43.86657" lon="11.7416483"><ele>1201.3333333333335</ele><time>2026-04-07T13:09:56.729Z</time></trkpt><trkpt lat="43.8665767" lon="11.7414917"><ele>1204.6666666666667</ele><time>2026-04-07T13:09:57.728Z</time></trkpt><trkpt lat="43.86657" lon="11.74138"><ele>1208.0</ele><time>2026-04-07T13:09:58.729Z</time></trkpt><trkpt lat="43.866565" lon="11.7412733"><ele>1208.0</ele><time>2026-04-07T13:09:59.729Z</time></trkpt><trkpt lat="43.8665217" lon="11.7411917"><ele>1208.0</ele><time>2026-04-07T13:10:00.73Z</time></trkpt><trkpt lat="43.8664567" lon="11.7411383"><ele>1208.0</ele><time>2026-04-07T13:10:01.731Z</time></trkpt><trkpt lat="43.86639" lon="11.741135"><ele>1208.0</ele><time>2026-04-07T13:10:02.727Z</time></trkpt><trkpt lat="43.86631" lon="11.7412267"><ele>1208.0</ele><time>2026-04-07T13:10:03.73Z</time></trkpt><trkpt lat="43.86621" lon="11.7413533"><ele>1208.0</ele><time>2026-04-07T13:10:04.73Z</time></trkpt><trkpt lat="43.8661233" lon="11.7414567"><ele>1208.0</ele><time>2026-04-07T13:10:05.73Z</time></trkpt><trkpt lat="43.8660483" lon="11.7415167"><ele>1208.0</ele><time>2026-04-07T13:10:06.73Z</time></trkpt><trkpt lat="43.86598" lon="11.7415333"><ele>1208.0</ele><time>2026-04-07T13:10:07.731Z</time></trkpt><trkpt lat="43.8658817" lon="11.741475"><ele>1208.0</ele><time>2026-04-07T13:10:09.73Z</time></trkpt><trkpt lat="43.8658483" lon="11.7413783"><ele>1208.0</ele><time>2026-04-07T13:10:11.732Z</time></trkpt><trkpt lat="43.8659017" lon="11.7412633"><ele>1208.0</ele><time>2026-04-07T13:10:13.727Z</time></trkpt><trkpt lat="43.8659933" lon="11.7412017"><ele>1208.0</ele><time>2026-04-07T13:10:14.726Z</time></trkpt><trkpt lat="43.8660933" lon="11.7411217"><ele>1208.0</ele><time>2026-04-07T13:10:15.727Z</time></trkpt><trkpt lat="43.8662367" lon="11.741005"><ele>1212.5</ele><time>2026-04-07T13:10:16.727Z</time></trkpt><trkpt lat="43.866345" lon="11.7408717"><ele>1217.0</ele><time>2026-04-07T13:10:17.727Z</time></trkpt><trkpt lat="43.8664667" lon="11.7407267"><ele>1221.5</ele><time>2026-04-07T13:10:18.728Z</time></trkpt><trkpt lat="43.8665617" lon="11.740635"><ele>1226.0</ele><time>2026-04-07T13:10:19.729Z</time></trkpt><trkpt lat="43.86667" lon="11.7405667"><ele>1226.0</ele><time>2026-04-07T13:10:20.728Z</time></trkpt><trkpt lat="43.8667767" lon="11.7405467"><ele>1226.0</ele><time>2026-04-07T13:10:21.726Z</time></trkpt><trkpt lat="43.86687" lon="11.7405683"><ele>1226.0</ele><time>2026-04-07T13:10:22.727Z</time></trkpt><trkpt lat="43.86697" lon="11.7406117"><ele>1226.0</ele><time>2026-04-07T13:10:23.728Z</time></trkpt><trkpt lat="43.867075" lon="11.7407017"><ele>1226.0</ele><time>2026-04-07T13:10:24.727Z</time></trkpt><trkpt lat="43.867165" lon="11.7408083"><ele>1225.6</ele><time>2026-04-07T13:10:25.728Z</time></trkpt><trkpt lat="43.8672433" lon="11.74084"><ele>1225.1999999999998</ele><time>2026-04-07T13:10:26.728Z</time></trkpt><trkpt lat="43.8673317" lon="11.7409317"><ele>1224.8000000000002</ele><time>2026-04-07T13:10:27.727Z</time></trkpt><trkpt lat="43.8674117" lon="11.7409483"><ele>1224.4</ele><time>2026-04-07T13:10:28.727Z</time></trkpt><trkpt lat="43.867465" lon="11.74085"><ele>1224.0</ele><time>2026-04-07T13:10:30.728Z</time></trkpt><trkpt lat="43.8674367" lon="11.7406967"><ele>1224.0</ele><time>2026-04-07T13:10:32.732Z</time></trkpt><trkpt lat="43.867355" lon="11.740545"><ele>1224.0</ele><time>2026-04-07T13:10:33.727Z</time></trkpt><trkpt lat="43.8672133" lon="11.740355"><ele>1224.0</ele><time>2026-04-07T13:10:34.727Z</time></trkpt><trkpt lat="43.867105" lon="11.740205"><ele>1228.4</ele><time>2026-04-07T13:10:35.727Z</time></trkpt><trkpt lat="43.8670067" lon="11.7400867"><ele>1232.8000000000002</ele><time>2026-04-07T13:10:36.73Z</time></trkpt><trkpt lat="43.8669267" lon="11.7399933"><ele>1237.1999999999998</ele><time>2026-04-07T13:10:37.731Z</time></trkpt><trkpt lat="43.86685" lon="11.7399133"><ele>1241.6</ele><time>2026-04-07T13:10:38.727Z</time></trkpt><trkpt lat="43.866765" lon="11.739875"><ele>1246.0</ele><time>2026-04-07T13:10:39.729Z</time></trkpt><trkpt lat="43.8666817" lon="11.7398483"><ele>1246.25</ele><time>2026-04-07T13:10:40.73Z</time></trkpt><trkpt lat="43.8665667" lon="11.7398583"><ele>1246.5</ele><time>2026-04-07T13:10:41.73Z</time></trkpt><trkpt lat="43.8664567" lon="11.7399017"><ele>1246.75</ele><time>2026-04-07T13:10:42.731Z</time></trkpt><trkpt lat="43.8663417" lon="11.7399583"><ele>1247.0</ele><time>2026-04-07T13:10:43.73Z</time></trkpt><trkpt lat="43.866225" lon="11.74003"><ele>1247.0</ele><time>2026-04-07T13:10:44.73Z</time></trkpt><trkpt lat="43.866115" lon="11.7401383"><ele>1247.0</ele><time>2026-04-07T13:10:45.732Z</time></trkpt><trkpt lat="43.8660317" lon="11.74027"><ele>1247.0</ele><time>2026-04-07T13:10:46.727Z</time></trkpt><trkpt lat="43.8659583" lon="11.7404"><ele>1247.0</ele><time>2026-04-07T13:10:47.727Z</time></trkpt><trkpt lat="43.865865" lon="11.7405033"><ele>1245.5</ele><time>2026-04-07T13:10:48.728Z</time></trkpt><trkpt lat="43.8657767" lon="11.7405983"><ele>1244.0</ele><time>2026-04-07T13:10:49.728Z</time></trkpt><trkpt lat="43.8656783" lon="11.7406733"><ele>1242.5</ele><time>2026-04-07T13:10:50.728Z</time></trkpt><trkpt lat="43.8655467" lon="11.7407317"><ele>1241.0</ele><time>2026-04-07T13:10:51.727Z</time></trkpt><trkpt lat="43.8653917" lon="11.7407783"><ele>1241.0</ele><time>2026-04-07T13:10:52.728Z</time></trkpt><trkpt lat="43.8652367" lon="11.740825"><ele>1241.0</ele><time>2026-04-07T13:10:53.729Z</time></trkpt><trkpt lat="43.8650883" lon="11.74089"><ele>1241.0</ele><time>2026-04-07T13:10:54.728Z</time></trkpt><trkpt lat="43.8649517" lon="11.7409733"><ele>1243.0</ele><time>2026-04-07T13:10:55.732Z</time></trkpt><trkpt lat="43.864835" lon="11.7410517"><ele>1245.0</ele><time>2026-04-07T13:10:56.728Z</time></trkpt><trkpt lat="43.8647433" lon="11.7411"><ele>1247.0</ele><time>2026-04-07T13:10:57.729Z</time></trkpt><trkpt lat="43.8646717" lon="11.741145"><ele>1249.0</ele><time>2026-04-07T13:10:58.728Z</time></trkpt><trkpt lat="43.86463" lon="11.741225"><ele>1251.0</ele><time>2026-04-07T13:10:59.729Z</time></trkpt><trkpt lat="43.8646317" lon="11.7413517"><ele>1251.0</ele><time>2026-04-07T13:11:01.728Z</time></trkpt><trkpt lat="43.8646433" lon="11.741495"><ele>1251.0</ele><time>2026-04-07T13:11:02.731Z</time></trkpt><trkpt lat="43.86466" lon="11.7416733"><ele>1251.0</ele><time>2026-04-07T13:11:03.73Z</time></trkpt><trkpt lat="43.8646383" lon="11.7418733"><ele>1251.0</ele><time>2026-04-07T13:11:04.73Z</time></trkpt><trkpt lat="43.8645917" lon="11.74208"><ele>1250.0</ele><time>2026-04-07T13:11:05.727Z</time></trkpt><trkpt lat="43.864535" lon="11.74227"><ele>1249.0</ele><time>2026-04-07T13:11:06.726Z</time></trkpt><trkpt lat="43.8644317" lon="11.7424417"><ele>1248.0</ele><time>2026-04-07T13:11:07.727Z</time></trkpt><trkpt lat="43.8643267" lon="11.7426"><ele>1254.0</ele><time>2026-04-07T13:11:08.728Z</time></trkpt><trkpt lat="43.8642133" lon="11.7427467"><ele>1260.0</ele><time>2026-04-07T13:11:09.727Z</time></trkpt><trkpt lat="43.8641033" lon="11.7428817"><ele>1266.0</ele><time>2026-04-07T13:11:10.728Z</time></trkpt><trkpt lat="43.86398" lon="11.7430133"><ele>1266.0</ele><time>2026-04-07T13:11:11.727Z</time></trkpt><trkpt lat="43.86385" lon="11.7431333"><ele>1266.0</ele><time>2026-04-07T13:11:12.727Z</time></trkpt><trkpt lat="43.863705" lon="11.7432367"><ele>1266.0</ele><time>2026-04-07T13:11:13.727Z</time></trkpt><trkpt lat="43.863545" lon="11.743345"><ele>1263.0</ele><time>2026-04-07T13:11:14.728Z</time></trkpt><trkpt lat="43.863375" lon="11.7434483"><ele>1260.0</ele><time>2026-04-07T13:11:15.731Z</time></trkpt><trkpt lat="43.8632067" lon="11.743545"><ele>1257.0</ele><time>2026-04-07T13:11:16.728Z</time></trkpt><trkpt lat="43.8630333" lon="11.7436333"><ele>1257.0</ele><time>2026-04-07T13:11:17.729Z</time></trkpt><trkpt lat="43.8628683" lon="11.7437367"><ele>1257.0</ele><time>2026-04-07T13:11:18.729Z</time></trkpt><trkpt lat="43.8627133" lon="11.7438633"><ele>1257.0</ele><time>2026-04-07T13:11:19.729Z</time></trkpt><trkpt lat="43.8625717" lon="11.7440033"><ele>1263.75</ele><time>2026-04-07T13:11:20.729Z</time></trkpt><trkpt lat="43.862445" lon="11.7441317"><ele>1270.5</ele><time>2026-04-07T13:11:21.728Z</time></trkpt><trkpt lat="43.8623217" lon="11.7442283"><ele>1277.25</ele><time>2026-04-07T13:11:22.73Z</time></trkpt><trkpt lat="43.862195" lon="11.7442867"><ele>1284.0</ele><time>2026-04-07T13:11:23.731Z</time></trkpt><trkpt lat="43.8620567" lon="11.7443033"><ele>1284.0</ele><time>2026-04-07T13:11:24.731Z</time></trkpt><trkpt lat="43.861925" lon="11.744295"><ele>1284.0</ele><time>2026-04-07T13:11:25.731Z</time></trkpt><trkpt lat="43.8618" lon="11.7442817"><ele>1284.0</ele><time>2026-04-07T13:11:26.731Z</time></trkpt><trkpt lat="43.8616633" lon="11.7442467"><ele>1284.0</ele><time>2026-04-07T13:11:27.73Z</time></trkpt><trkpt lat="43.8615283" lon="11.74422"><ele>1290.0</ele><time>2026-04-07T13:11:28.732Z</time></trkpt><trkpt lat="43.8613883" lon="11.7441967"><ele>1296.0</ele><time>2026-04-07T13:11:29.73Z</time></trkpt><trkpt lat="43.8612367" lon="11.7442"><ele>1302.0</ele><time>2026-04-07T13:11:30.731Z</time></trkpt><trkpt lat="43.8610783" lon="11.7442183"><ele>1302.3333333333333</ele><time>2026-04-07T13:11:31.728Z</time></trkpt><trkpt lat="43.86092" lon="11.74424"><ele>1302.6666666666665</ele><time>2026-04-07T13:11:32.728Z</time></trkpt><trkpt lat="43.8607733" lon="11.7442717"><ele>1303.0</ele><time>2026-04-07T13:11:33.726Z</time></trkpt><trkpt lat="43.86063" lon="11.7442867"><ele>1303.0</ele><time>2026-04-07T13:11:34.732Z</time></trkpt><trkpt lat="43.8604917" lon="11.744285"><ele>1303.0</ele><time>2026-04-07T13:11:35.728Z</time></trkpt><trkpt lat="43.860365" lon="11.7442917"><ele>1303.0</ele><time>2026-04-07T13:11:36.728Z</time></trkpt><trkpt lat="43.860255" lon="11.7442967"><ele>1303.0</ele><time>2026-04-07T13:11:37.732Z</time></trkpt><trkpt lat="43.8601683" lon="11.7443117"><ele>1302.1666666666665</ele><time>2026-04-07T13:11:38.73Z</time></trkpt><trkpt lat="43.8600967" lon="11.744315"><ele>1301.3333333333333</ele><time>2026-04-07T13:11:39.728Z</time></trkpt><trkpt lat="43.8599883" lon="11.7443283"><ele>1300.5</ele><time>2026-04-07T13:11:41.731Z</time></trkpt><trkpt lat="43.8599217" lon="11.7443133"><ele>1299.6666666666667</ele><time>2026-04-07T13:11:43.73Z</time></trkpt><trkpt lat="43.8598583" lon="11.74434"><ele>1298.8333333333335</ele><time>2026-04-07T13:11:46.732Z</time></trkpt><trkpt lat="43.8597833" lon="11.74438"><ele>1298.0</ele><time>2026-04-07T13:11:48.732Z</time></trkpt><trkpt lat="43.8596917" lon="11.744415"><ele>1295.8333333333335</ele><time>2026-04-07T13:11:50.731Z</time></trkpt><trkpt lat="43.8596233" lon="11.74445"><ele>1293.6666666666667</ele><time>2026-04-07T13:11:52.73Z</time></trkpt><trkpt lat="43.8595967" lon="11.744535"><ele>1291.5</ele><time>2026-04-07T13:11:55.732Z</time></trkpt><trkpt lat="43.8596717" lon="11.7445917"><ele>1289.3333333333333</ele><time>2026-04-07T13:11:59.728Z</time></trkpt><trkpt lat="43.8597467" lon="11.7445567"><ele>1287.1666666666665</ele><time>2026-04-07T13:12:02.728Z</time></trkpt><trkpt lat="43.8598117" lon="11.7444767"><ele>1285.0</ele><time>2026-04-07T13:12:05.731Z</time></trkpt><trkpt lat="43.85986" lon="11.744405"><ele>1285.0000000000002</ele><time>2026-04-07T13:12:07.728Z</time></trkpt><trkpt lat="43.85992" lon="11.74433"><ele>1285.0</ele><time>2026-04-07T13:12:09.73Z</time></trkpt><trkpt lat="43.859975" lon="11.7442767"><ele>1285.0</ele><time>2026-04-07T13:12:11.731Z</time></trkpt><trkpt lat="43.85999" lon="11.7441817"><ele>1285.0</ele><time>2026-04-07T13:12:25.73Z</time></trkpt><trkpt lat="43.8599367" lon="11.7442367"><ele>1285.0</ele><time>2026-04-07T13:12:28.726Z</time></trkpt><trkpt lat="43.85989" lon="11.7443283"><ele>1285.0000000000002</ele><time>2026-04-07T13:21:19.731Z</time></trkpt><trkpt lat="43.8598217" lon="11.7443883"><ele>1285.0</ele><time>2026-04-07T13:21:21.731Z</time></trkpt><trkpt lat="43.8597017" lon="11.74443"><ele>1285.0</ele><time>2026-04-07T13:21:23.731Z</time></trkpt><trkpt lat="43.8596333" lon="11.7444483"><ele>1285.0</ele><time>2026-04-07T13:21:24.729Z</time></trkpt><trkpt lat="43.8595633" lon="11.744475"><ele>1285.0</ele><time>2026-04-07T13:21:25.73Z</time></trkpt><trkpt lat="43.85949" lon="11.74451"><ele>1285.0</ele><time>2026-04-07T13:21:26.73Z</time></trkpt><trkpt lat="43.8594083" lon="11.7445517"><ele>1285.0</ele><time>2026-04-07T13:21:27.73Z</time></trkpt><trkpt lat="43.859325" lon="11.7445967"><ele>1285.0</ele><time>2026-04-07T13:21:28.73Z</time></trkpt><trkpt lat="43.8592383" lon="11.744645"><ele>1286.6</ele><time>2026-04-07T13:21:29.73Z</time></trkpt><trkpt lat="43.85915" lon="11.7446967"><ele>1288.2</ele><time>2026-04-07T13:21:30.731Z</time></trkpt><trkpt lat="43.859065" lon="11.7447567"><ele>1289.8000000000002</ele><time>2026-04-07T13:21:31.73Z</time></trkpt><trkpt lat="43.8589733" lon="11.7448333"><ele>1291.4</ele><time>2026-04-07T13:21:32.73Z</time></trkpt><trkpt lat="43.8588783" lon="11.744915"><ele>1293.0</ele><time>2026-04-07T13:21:33.73Z</time></trkpt><trkpt lat="43.8587817" lon="11.744995"><ele>1293.0</ele><time>2026-04-07T13:21:34.73Z</time></trkpt><trkpt lat="43.85868" lon="11.7450783"><ele>1293.0</ele><time>2026-04-07T13:21:35.73Z</time></trkpt><trkpt lat="43.8585733" lon="11.7451633"><ele>1293.0</ele><time>2026-04-07T13:21:36.731Z</time></trkpt><trkpt lat="43.8584633" lon="11.74525"><ele>1293.0</ele><time>2026-04-07T13:21:37.73Z</time></trkpt><trkpt lat="43.85835" lon="11.745335"><ele>1295.5</ele><time>2026-04-07T13:21:38.73Z</time></trkpt><trkpt lat="43.8582367" lon="11.745425"><ele>1298.0</ele><time>2026-04-07T13:21:39.73Z</time></trkpt><trkpt lat="43.8581133" lon="11.7455183"><ele>1300.5</ele><time>2026-04-07T13:21:40.731Z</time></trkpt><trkpt lat="43.857985" lon="11.74562"><ele>1303.0</ele><time>2026-04-07T13:21:41.73Z</time></trkpt><trkpt lat="43.8578567" lon="11.7457233"><ele>1303.0</ele><time>2026-04-07T13:21:42.731Z</time></trkpt><trkpt lat="43.85773" lon="11.7458267"><ele>1303.0</ele><time>2026-04-07T13:21:43.732Z</time></trkpt><trkpt lat="43.8576083" lon="11.7459367"><ele>1303.0</ele><time>2026-04-07T13:21:44.73Z</time></trkpt><trkpt lat="43.8574833" lon="11.74605"><ele>1303.0</ele><time>2026-04-07T13:21:45.728Z</time></trkpt><trkpt lat="43.8573717" lon="11.74616"><ele>1301.2</ele><time>2026-04-07T13:21:46.727Z</time></trkpt><trkpt lat="43.857275" lon="11.7462667"><ele>1299.4</ele><time>2026-04-07T13:21:47.728Z</time></trkpt><trkpt lat="43.8571983" lon="11.7463633"><ele>1297.6000000000001</ele><time>2026-04-07T13:21:48.727Z</time></trkpt><trkpt lat="43.8571583" lon="11.7464567"><ele>1295.8000000000002</ele><time>2026-04-07T13:21:49.728Z</time></trkpt><trkpt lat="43.8571333" lon="11.74655"><ele>1294.0</ele><time>2026-04-07T13:21:50.729Z</time></trkpt><trkpt lat="43.8571533" lon="11.7466617"><ele>1294.0</ele><time>2026-04-07T13:21:51.728Z</time></trkpt><trkpt lat="43.8571933" lon="11.746785"><ele>1294.0</ele><time>2026-04-07T13:21:52.728Z</time></trkpt><trkpt lat="43.8572333" lon="11.7469017"><ele>1294.0</ele><time>2026-04-07T13:21:53.731Z</time></trkpt><trkpt lat="43.8572583" lon="11.7470317"><ele>1294.0</ele><time>2026-04-07T13:21:54.727Z</time></trkpt><trkpt lat="43.857265" lon="11.74719"><ele>1294.0</ele><time>2026-04-07T13:21:55.731Z</time></trkpt><trkpt lat="43.85725" lon="11.7473583"><ele>1293.4</ele><time>2026-04-07T13:21:56.73Z</time></trkpt><trkpt lat="43.8572117" lon="11.7475117"><ele>1292.8000000000002</ele><time>2026-04-07T13:21:57.73Z</time></trkpt><trkpt lat="43.8571567" lon="11.7476383"><ele>1292.1999999999998</ele><time>2026-04-07T13:21:58.73Z</time></trkpt><trkpt lat="43.857095" lon="11.7477233"><ele>1291.6</ele><time>2026-04-07T13:21:59.729Z</time></trkpt><trkpt lat="43.8570117" lon="11.74779"><ele>1291.0</ele><time>2026-04-07T13:22:00.727Z</time></trkpt><trkpt lat="43.85692" lon="11.7478767"><ele>1294.5</ele><time>2026-04-07T13:22:01.731Z</time></trkpt><trkpt lat="43.8568367" lon="11.74798"><ele>1298.0</ele><time>2026-04-07T13:22:02.727Z</time></trkpt><trkpt lat="43.85675" lon="11.7481133"><ele>1301.5</ele><time>2026-04-07T13:22:03.73Z</time></trkpt><trkpt lat="43.8566817" lon="11.7482883"><ele>1305.0</ele><time>2026-04-07T13:22:04.731Z</time></trkpt><trkpt lat="43.856645" lon="11.7484983"><ele>1293.6666666666667</ele><time>2026-04-07T13:22:05.733Z</time></trkpt><trkpt lat="43.8566083" lon="11.7487"><ele>1282.3333333333335</ele><time>2026-04-07T13:22:06.726Z</time></trkpt><trkpt lat="43.8565917" lon="11.7489117"><ele>1271.0</ele><time>2026-04-07T13:22:07.731Z</time></trkpt><trkpt lat="43.8565817" lon="11.74913"><ele>1271.0</ele><time>2026-04-07T13:22:08.729Z</time></trkpt><trkpt lat="43.8565517" lon="11.749345"><ele>1271.0</ele><time>2026-04-07T13:22:09.729Z</time></trkpt><trkpt lat="43.85652" lon="11.7495633"><ele>1271.0</ele><time>2026-04-07T13:22:10.73Z</time></trkpt><trkpt lat="43.8564883" lon="11.7497767"><ele>1271.0</ele><time>2026-04-07T13:22:11.731Z</time></trkpt><trkpt lat="43.8564633" lon="11.7499717"><ele>1271.0</ele><time>2026-04-07T13:22:12.729Z</time></trkpt><trkpt lat="43.856425" lon="11.750145"><ele>1271.0</ele><time>2026-04-07T13:22:13.73Z</time></trkpt><trkpt lat="43.8563667" lon="11.750285"><ele>1271.0</ele><time>2026-04-07T13:22:14.729Z</time></trkpt><trkpt lat="43.85631" lon="11.75038"><ele>1271.8</ele><time>2026-04-07T13:22:15.73Z</time></trkpt><trkpt lat="43.85625" lon="11.75046"><ele>1272.6</ele><time>2026-04-07T13:22:16.726Z</time></trkpt><trkpt lat="43.8561733" lon="11.7505017"><ele>1273.4</ele><time>2026-04-07T13:22:17.727Z</time></trkpt><trkpt lat="43.85608" lon="11.750495"><ele>1274.2</ele><time>2026-04-07T13:22:18.729Z</time></trkpt><trkpt lat="43.8559767" lon="11.7504467"><ele>1275.0</ele><time>2026-04-07T13:22:19.728Z</time></trkpt><trkpt lat="43.8558367" lon="11.75039"><ele>1275.0</ele><time>2026-04-07T13:22:20.727Z</time></trkpt><trkpt lat="43.8556967" lon="11.7503533"><ele>1275.0</ele><time>2026-04-07T13:22:21.727Z</time></trkpt><trkpt lat="43.85557" lon="11.7503783"><ele>1275.0</ele><time>2026-04-07T13:22:22.726Z</time></trkpt><trkpt lat="43.855455" lon="11.7504467"><ele>1275.0</ele><time>2026-04-07T13:22:23.73Z</time></trkpt><trkpt lat="43.8553317" lon="11.7505433"><ele>1275.0</ele><time>2026-04-07T13:22:24.73Z</time></trkpt><trkpt lat="43.8552" lon="11.750675"><ele>1275.0</ele><time>2026-04-07T13:22:25.731Z</time></trkpt><trkpt lat="43.855065" lon="11.7508217"><ele>1275.0</ele><time>2026-04-07T13:22:26.731Z</time></trkpt><trkpt lat="43.8549367" lon="11.75098"><ele>1274.3333333333333</ele><time>2026-04-07T13:22:27.729Z</time></trkpt><trkpt lat="43.8548167" lon="11.7511517"><ele>1273.6666666666665</ele><time>2026-04-07T13:22:28.731Z</time></trkpt><trkpt lat="43.8547067" lon="11.7513083"><ele>1273.0</ele><time>2026-04-07T13:22:29.731Z</time></trkpt><trkpt lat="43.8546067" lon="11.7514417"><ele>1273.0</ele><time>2026-04-07T13:22:30.729Z</time></trkpt><trkpt lat="43.8545033" lon="11.7515433"><ele>1273.0</ele><time>2026-04-07T13:22:31.73Z</time></trkpt><trkpt lat="43.8544067" lon="11.7515967"><ele>1273.0</ele><time>2026-04-07T13:22:32.73Z</time></trkpt><trkpt lat="43.854295" lon="11.7515967"><ele>1273.0</ele><time>2026-04-07T13:22:33.73Z</time></trkpt><trkpt lat="43.8541867" lon="11.7515783"><ele>1267.5</ele><time>2026-04-07T13:22:34.729Z</time></trkpt><trkpt lat="43.8540817" lon="11.7516067"><ele>1262.0</ele><time>2026-04-07T13:22:35.729Z</time></trkpt><trkpt lat="43.8539883" lon="11.75169"><ele>1256.5</ele><time>2026-04-07T13:22:36.73Z</time></trkpt><trkpt lat="43.8539033" lon="11.7518167"><ele>1251.0</ele><time>2026-04-07T13:22:37.73Z</time></trkpt><trkpt lat="43.85384" lon="11.7519633"><ele>1251.0</ele><time>2026-04-07T13:22:38.729Z</time></trkpt><trkpt lat="43.8538017" lon="11.7521417"><ele>1251.0</ele><time>2026-04-07T13:22:39.73Z</time></trkpt><trkpt lat="43.85378" lon="11.7523317"><ele>1251.0</ele><time>2026-04-07T13:22:40.73Z</time></trkpt><trkpt lat="43.853765" lon="11.7525333"><ele>1251.0</ele><time>2026-04-07T13:22:41.729Z</time></trkpt><trkpt lat="43.8537517" lon="11.7527217"><ele>1254.2</ele><time>2026-04-07T13:22:42.731Z</time></trkpt><trkpt lat="43.85374" lon="11.7528867"><ele>1257.3999999999999</ele><time>2026-04-07T13:22:43.731Z</time></trkpt><trkpt lat="43.8537267" lon="11.75301"><ele>1260.6</ele><time>2026-04-07T13:22:44.731Z</time></trkpt><trkpt lat="43.8537067" lon="11.753115"><ele>1263.8</ele><time>2026-04-07T13:22:45.73Z</time></trkpt><trkpt lat="43.8536317" lon="11.75311"><ele>1267.0</ele><time>2026-04-07T13:22:47.726Z</time></trkpt><trkpt lat="43.85359" lon="11.753"><ele>1267.0</ele><time>2026-04-07T13:22:49.728Z</time></trkpt><trkpt lat="43.8535983" lon="11.752905"><ele>1267.0</ele><time>2026-04-07T13:22:50.729Z</time></trkpt><trkpt lat="43.853625" lon="11.7527683"><ele>1267.0</ele><time>2026-04-07T13:22:51.727Z</time></trkpt><trkpt lat="43.8536517" lon="11.75263"><ele>1267.0</ele><time>2026-04-07T13:22:52.728Z</time></trkpt><trkpt lat="43.8536633" lon="11.7524633"><ele>1267.0</ele><time>2026-04-07T13:22:53.731Z</time></trkpt><trkpt lat="43.8536533" lon="11.75228"><ele>1263.0</ele><time>2026-04-07T13:22:54.73Z</time></trkpt><trkpt lat="43.8536533" lon="11.75209"><ele>1259.0</ele><time>2026-04-07T13:22:55.732Z</time></trkpt><trkpt lat="43.85367" lon="11.7518917"><ele>1255.0</ele><time>2026-04-07T13:22:56.731Z</time></trkpt><trkpt lat="43.853715" lon="11.7516933"><ele>1251.0</ele><time>2026-04-07T13:22:57.731Z</time></trkpt><trkpt lat="43.8537783" lon="11.7515167"><ele>1248.0</ele><time>2026-04-07T13:22:58.731Z</time></trkpt><trkpt lat="43.853855" lon="11.7513833"><ele>1245.0</ele><time>2026-04-07T13:22:59.73Z</time></trkpt><trkpt lat="43.8539367" lon="11.7512983"><ele>1242.0</ele><time>2026-04-07T13:23:00.731Z</time></trkpt><trkpt lat="43.85401" lon="11.751225"><ele>1239.0</ele><time>2026-04-07T13:23:01.731Z</time></trkpt><trkpt lat="43.8541067" lon="11.7511817"><ele>1236.0</ele><time>2026-04-07T13:23:02.731Z</time></trkpt><trkpt lat="43.8542" lon="11.75113"><ele>1237.5</ele><time>2026-04-07T13:23:03.729Z</time></trkpt><trkpt lat="43.854295" lon="11.7510633"><ele>1239.0</ele><time>2026-04-07T13:23:04.731Z</time></trkpt><trkpt lat="43.8544067" lon="11.7509433"><ele>1240.5</ele><time>2026-04-07T13:23:05.731Z</time></trkpt><trkpt lat="43.8544867" lon="11.75081"><ele>1242.0</ele><time>2026-04-07T13:23:06.731Z</time></trkpt><trkpt lat="43.8545583" lon="11.7506683"><ele>1242.0</ele><time>2026-04-07T13:23:07.731Z</time></trkpt><trkpt lat="43.8546083" lon="11.7505233"><ele>1242.0</ele><time>2026-04-07T13:23:08.731Z</time></trkpt><trkpt lat="43.85468" lon="11.7504083"><ele>1242.0</ele><time>2026-04-07T13:23:09.73Z</time></trkpt><trkpt lat="43.8547567" lon="11.7502967"><ele>1242.0</ele><time>2026-04-07T13:23:10.731Z</time></trkpt><trkpt lat="43.8548283" lon="11.7501717"><ele>1237.0</ele><time>2026-04-07T13:23:11.729Z</time></trkpt><trkpt lat="43.8549067" lon="11.75001"><ele>1232.0</ele><time>2026-04-07T13:23:12.731Z</time></trkpt><trkpt lat="43.8549617" lon="11.74982"><ele>1227.0</ele><time>2026-04-07T13:23:13.731Z</time></trkpt><trkpt lat="43.8550217" lon="11.749665"><ele>1222.0</ele><time>2026-04-07T13:23:14.729Z</time></trkpt><trkpt lat="43.855095" lon="11.7495517"><ele>1225.1666666666665</ele><time>2026-04-07T13:23:15.731Z</time></trkpt><trkpt lat="43.855165" lon="11.749475"><ele>1228.3333333333333</ele><time>2026-04-07T13:23:16.727Z</time></trkpt><trkpt lat="43.8552333" lon="11.7494383"><ele>1231.5</ele><time>2026-04-07T13:23:17.728Z</time></trkpt><trkpt lat="43.8553167" lon="11.7494333"><ele>1234.6666666666667</ele><time>2026-04-07T13:23:18.726Z</time></trkpt><trkpt lat="43.8554183" lon="11.74944"><ele>1237.8333333333335</ele><time>2026-04-07T13:23:19.728Z</time></trkpt><trkpt lat="43.8555183" lon="11.7494167"><ele>1241.0</ele><time>2026-04-07T13:23:20.726Z</time></trkpt><trkpt lat="43.8556117" lon="11.749395"><ele>1238.5</ele><time>2026-04-07T13:23:21.727Z</time></trkpt><trkpt lat="43.8556683" lon="11.7493467"><ele>1236.0</ele><time>2026-04-07T13:23:22.727Z</time></trkpt><trkpt lat="43.855705" lon="11.74926"><ele>1233.5</ele><time>2026-04-07T13:23:23.727Z</time></trkpt><trkpt lat="43.85566" lon="11.7491883"><ele>1231.0</ele><time>2026-04-07T13:23:24.726Z</time></trkpt><trkpt lat="43.855615" lon="11.749105"><ele>1228.5</ele><time>2026-04-07T13:23:25.727Z</time></trkpt><trkpt lat="43.8555733" lon="11.7489983"><ele>1226.0</ele><time>2026-04-07T13:23:26.728Z</time></trkpt><trkpt lat="43.8555233" lon="11.748835"><ele>1226.0</ele><time>2026-04-07T13:23:27.729Z</time></trkpt><trkpt lat="43.85553" lon="11.7486817"><ele>1226.0</ele><time>2026-04-07T13:23:28.727Z</time></trkpt><trkpt lat="43.855545" lon="11.7485317"><ele>1226.0</ele><time>2026-04-07T13:23:29.728Z</time></trkpt><trkpt lat="43.8555517" lon="11.7483733"><ele>1226.0</ele><time>2026-04-07T13:23:30.728Z</time></trkpt><trkpt lat="43.8555417" lon="11.748225"><ele>1226.0</ele><time>2026-04-07T13:23:31.727Z</time></trkpt><trkpt lat="43.8555117" lon="11.7480583"><ele>1225.6</ele><time>2026-04-07T13:23:32.731Z</time></trkpt><trkpt lat="43.8554633" lon="11.7479333"><ele>1225.1999999999998</ele><time>2026-04-07T13:23:33.728Z</time></trkpt><trkpt lat="43.8553967" lon="11.747855"><ele>1224.8000000000002</ele><time>2026-04-07T13:23:34.728Z</time></trkpt><trkpt lat="43.8553133" lon="11.7478083"><ele>1224.4</ele><time>2026-04-07T13:23:35.728Z</time></trkpt><trkpt lat="43.8552217" lon="11.7477767"><ele>1224.0</ele><time>2026-04-07T13:23:36.729Z</time></trkpt><trkpt lat="43.8551317" lon="11.7477733"><ele>1219.0</ele><time>2026-04-07T13:23:37.727Z</time></trkpt><trkpt lat="43.8550233" lon="11.7477933"><ele>1214.0</ele><time>2026-04-07T13:23:38.728Z</time></trkpt><trkpt lat="43.854915" lon="11.7478233"><ele>1209.0</ele><time>2026-04-07T13:23:39.727Z</time></trkpt><trkpt lat="43.8548267" lon="11.7478017"><ele>1204.0</ele><time>2026-04-07T13:23:40.728Z</time></trkpt><trkpt lat="43.8547583" lon="11.7477467"><ele>1199.0</ele><time>2026-04-07T13:23:41.73Z</time></trkpt><trkpt lat="43.854725" lon="11.7476483"><ele>1199.0</ele><time>2026-04-07T13:23:42.73Z</time></trkpt><trkpt lat="43.8546817" lon="11.74756"><ele>1199.0</ele><time>2026-04-07T13:23:43.732Z</time></trkpt><trkpt lat="43.854695" lon="11.7474183"><ele>1199.0</ele><time>2026-04-07T13:23:44.732Z</time></trkpt><trkpt lat="43.854765" lon="11.74721"><ele>1199.0</ele><time>2026-04-07T13:23:45.729Z</time></trkpt><trkpt lat="43.854835" lon="11.7469683"><ele>1194.3333333333335</ele><time>2026-04-07T13:23:46.729Z</time></trkpt><trkpt lat="43.8549717" lon="11.746655"><ele>1189.6666666666667</ele><time>2026-04-07T13:23:47.728Z</time></trkpt><trkpt lat="43.8550467" lon="11.74642"><ele>1185.0</ele><time>2026-04-07T13:23:48.727Z</time></trkpt><trkpt lat="43.8551283" lon="11.7461883"><ele>1192.6666666666667</ele><time>2026-04-07T13:23:49.731Z</time></trkpt><trkpt lat="43.85526" lon="11.7459733"><ele>1200.3333333333335</ele><time>2026-04-07T13:23:50.728Z</time></trkpt><trkpt lat="43.85535" lon="11.7457417"><ele>1208.0</ele><time>2026-04-07T13:23:51.73Z</time></trkpt><trkpt lat="43.8554467" lon="11.7455267"><ele>1208.0</ele><time>2026-04-07T13:23:52.729Z</time></trkpt><trkpt lat="43.8555417" lon="11.7453183"><ele>1208.0</ele><time>2026-04-07T13:23:53.727Z</time></trkpt><trkpt lat="43.8556467" lon="11.7451317"><ele>1208.0</ele><time>2026-04-07T13:23:54.731Z</time></trkpt><trkpt lat="43.8557417" lon="11.7449633"><ele>1202.0</ele><time>2026-04-07T13:23:55.731Z</time></trkpt><trkpt lat="43.8558083" lon="11.7448083"><ele>1196.0</ele><time>2026-04-07T13:23:56.732Z</time></trkpt><trkpt lat="43.8558533" lon="11.7446533"><ele>1190.0</ele><time>2026-04-07T13:23:57.73Z</time></trkpt><trkpt lat="43.8558667" lon="11.7445017"><ele>1184.0</ele><time>2026-04-07T13:23:58.73Z</time></trkpt><trkpt lat="43.855835" lon="11.74434"><ele>1182.25</ele><time>2026-04-07T13:23:59.727Z</time></trkpt><trkpt lat="43.855765" lon="11.7441883"><ele>1180.5</ele><time>2026-04-07T13:24:00.727Z</time></trkpt><trkpt lat="43.8556767" lon="11.744055"><ele>1178.75</ele><time>2026-04-07T13:24:01.731Z</time></trkpt><trkpt lat="43.8555533" lon="11.7439467"><ele>1177.0</ele><time>2026-04-07T13:24:02.727Z</time></trkpt><trkpt lat="43.8554433" lon="11.7438767"><ele>1177.0</ele><time>2026-04-07T13:24:03.73Z</time></trkpt><trkpt lat="43.855335" lon="11.7437967"><ele>1177.0</ele><time>2026-04-07T13:24:04.731Z</time></trkpt><trkpt lat="43.8552617" lon="11.743685"><ele>1177.0</ele><time>2026-04-07T13:24:05.731Z</time></trkpt><trkpt lat="43.8552083" lon="11.74354"><ele>1177.0</ele><time>2026-04-07T13:24:06.731Z</time></trkpt><trkpt lat="43.8551633" lon="11.74337"><ele>1180.25</ele><time>2026-04-07T13:24:07.731Z</time></trkpt><trkpt lat="43.85513" lon="11.7431967"><ele>1183.5</ele><time>2026-04-07T13:24:08.732Z</time></trkpt><trkpt lat="43.8550933" lon="11.7430317"><ele>1186.75</ele><time>2026-04-07T13:24:09.729Z</time></trkpt><trkpt lat="43.8550533" lon="11.7428917"><ele>1190.0</ele><time>2026-04-07T13:24:10.731Z</time></trkpt><trkpt lat="43.85499" lon="11.7427983"><ele>1184.6</ele><time>2026-04-07T13:24:11.73Z</time></trkpt><trkpt lat="43.8549167" lon="11.74274"><ele>1179.2</ele><time>2026-04-07T13:24:12.731Z</time></trkpt><trkpt lat="43.8548467" lon="11.7427267"><ele>1173.8</ele><time>2026-04-07T13:24:13.731Z</time></trkpt><trkpt lat="43.854765" lon="11.7427683"><ele>1168.4</ele><time>2026-04-07T13:24:14.731Z</time></trkpt><trkpt lat="43.8546867" lon="11.7428633"><ele>1163.0</ele><time>2026-04-07T13:24:15.731Z</time></trkpt><trkpt lat="43.8546283" lon="11.7430017"><ele>1163.0</ele><time>2026-04-07T13:24:16.73Z</time></trkpt><trkpt lat="43.8545983" lon="11.74317"><ele>1163.0</ele><time>2026-04-07T13:24:17.728Z</time></trkpt><trkpt lat="43.8545983" lon="11.743365"><ele>1163.0</ele><time>2026-04-07T13:24:18.727Z</time></trkpt><trkpt lat="43.8546317" lon="11.7435817"><ele>1163.0</ele><time>2026-04-07T13:24:19.728Z</time></trkpt><trkpt lat="43.854675" lon="11.7437517"><ele>1159.3333333333335</ele><time>2026-04-07T13:24:20.731Z</time></trkpt><trkpt lat="43.85476" lon="11.7439233"><ele>1155.6666666666667</ele><time>2026-04-07T13:24:21.73Z</time></trkpt><trkpt lat="43.8548867" lon="11.7440767"><ele>1152.0</ele><time>2026-04-07T13:24:22.731Z</time></trkpt><trkpt lat="43.8550083" lon="11.7441967"><ele>1158.25</ele><time>2026-04-07T13:24:23.73Z</time></trkpt><trkpt lat="43.8551233" lon="11.7443"><ele>1164.5</ele><time>2026-04-07T13:24:24.727Z</time></trkpt><trkpt lat="43.8552183" lon="11.7444"><ele>1170.75</ele><time>2026-04-07T13:24:25.731Z</time></trkpt><trkpt lat="43.855295" lon="11.744495"><ele>1177.0</ele><time>2026-04-07T13:24:26.729Z</time></trkpt><trkpt lat="43.8553417" lon="11.74461"><ele>1178.4</ele><time>2026-04-07T13:24:27.727Z</time></trkpt><trkpt lat="43.8553633" lon="11.7447233"><ele>1179.8000000000002</ele><time>2026-04-07T13:24:28.727Z</time></trkpt><trkpt lat="43.8553767" lon="11.744825"><ele>1181.2</ele><time>2026-04-07T13:24:29.728Z</time></trkpt><trkpt lat="43.8553633" lon="11.744945"><ele>1182.6000000000001</ele><time>2026-04-07T13:24:30.728Z</time></trkpt><trkpt lat="43.8553217" lon="11.7450717"><ele>1184.0</ele><time>2026-04-07T13:24:31.729Z</time></trkpt><trkpt lat="43.85521" lon="11.745225"><ele>1176.5</ele><time>2026-04-07T13:24:32.728Z</time></trkpt><trkpt lat="43.855015" lon="11.7454317"><ele>1169.0</ele><time>2026-04-07T13:24:33.727Z</time></trkpt><trkpt lat="43.8546817" lon="11.7456983"><ele>1169.0</ele><time>2026-04-07T13:24:34.728Z</time></trkpt><trkpt lat="43.8545017" lon="11.7459283"><ele>1169.0</ele><time>2026-04-07T13:24:35.727Z</time></trkpt><trkpt lat="43.8543667" lon="11.746165"><ele>1167.0</ele><time>2026-04-07T13:24:36.727Z</time></trkpt><trkpt lat="43.8542467" lon="11.7464183"><ele>1165.0</ele><time>2026-04-07T13:24:37.731Z</time></trkpt><trkpt lat="43.8541183" lon="11.7466783"><ele>1163.0</ele><time>2026-04-07T13:24:38.73Z</time></trkpt><trkpt lat="43.8540067" lon="11.746915"><ele>1163.0</ele><time>2026-04-07T13:24:39.728Z</time></trkpt><trkpt lat="43.8538883" lon="11.7471283"><ele>1163.0</ele><time>2026-04-07T13:24:40.73Z</time></trkpt><trkpt lat="43.8537933" lon="11.7473067"><ele>1163.0</ele><time>2026-04-07T13:24:41.731Z</time></trkpt><trkpt lat="43.8537167" lon="11.7474633"><ele>1163.0</ele><time>2026-04-07T13:24:42.729Z</time></trkpt><trkpt lat="43.8536367" lon="11.7475833"><ele>1163.0</ele><time>2026-04-07T13:24:43.731Z</time></trkpt><trkpt lat="43.853565" lon="11.747665"><ele>1163.0</ele><time>2026-04-07T13:24:44.73Z</time></trkpt><trkpt lat="43.853495" lon="11.747685"><ele>1163.0</ele><time>2026-04-07T13:24:45.73Z</time></trkpt><trkpt lat="43.85343" lon="11.7476783"><ele>1163.0</ele><time>2026-04-07T13:24:46.731Z</time></trkpt><trkpt lat="43.8533767" lon="11.7476167"><ele>1163.0</ele><time>2026-04-07T13:24:47.73Z</time></trkpt><trkpt lat="43.8533083" lon="11.7475067"><ele>1163.0</ele><time>2026-04-07T13:24:49.728Z</time></trkpt><trkpt lat="43.8533367" lon="11.74742"><ele>1163.0</ele><time>2026-04-07T13:24:50.729Z</time></trkpt><trkpt lat="43.8534017" lon="11.7472467"><ele>1163.0</ele><time>2026-04-07T13:24:52.728Z</time></trkpt><trkpt lat="43.85348" lon="11.7471283"><ele>1163.0</ele><time>2026-04-07T13:24:53.729Z</time></trkpt><trkpt lat="43.85363" lon="11.74693"><ele>1152.5</ele><time>2026-04-07T13:24:54.728Z</time></trkpt><trkpt lat="43.8537917" lon="11.7466717"><ele>1142.0</ele><time>2026-04-07T13:24:55.728Z</time></trkpt><trkpt lat="43.853915" lon="11.7463567"><ele>1142.0</ele><time>2026-04-07T13:24:56.728Z</time></trkpt><trkpt lat="43.8539967" lon="11.7461017"><ele>1142.0</ele><time>2026-04-07T13:24:57.727Z</time></trkpt><trkpt lat="43.8540783" lon="11.745865"><ele>1142.0</ele><time>2026-04-07T13:24:58.729Z</time></trkpt><trkpt lat="43.854155" lon="11.7456333"><ele>1144.2</ele><time>2026-04-07T13:24:59.732Z</time></trkpt><trkpt lat="43.8542267" lon="11.745465"><ele>1146.4</ele><time>2026-04-07T13:25:00.728Z</time></trkpt><trkpt lat="43.8542783" lon="11.7453217"><ele>1148.6</ele><time>2026-04-07T13:25:01.728Z</time></trkpt><trkpt lat="43.8543117" lon="11.745195"><ele>1150.8</ele><time>2026-04-07T13:25:02.727Z</time></trkpt><trkpt lat="43.8543417" lon="11.7450783"><ele>1153.0</ele><time>2026-04-07T13:25:03.728Z</time></trkpt><trkpt lat="43.85434" lon="11.7449667"><ele>1153.0</ele><time>2026-04-07T13:25:04.731Z</time></trkpt><trkpt lat="43.8542967" lon="11.74487"><ele>1153.0</ele><time>2026-04-07T13:25:05.729Z</time></trkpt><trkpt lat="43.8542183" lon="11.7447967"><ele>1153.0</ele><time>2026-04-07T13:25:06.73Z</time></trkpt><trkpt lat="43.85411" lon="11.7447633"><ele>1153.0</ele><time>2026-04-07T13:25:07.73Z</time></trkpt><trkpt lat="43.853985" lon="11.7447683"><ele>1153.0</ele><time>2026-04-07T13:25:08.729Z</time></trkpt><trkpt lat="43.8537783" lon="11.7448817"><ele>1146.5</ele><time>2026-04-07T13:25:09.728Z</time></trkpt><trkpt lat="43.85367" lon="11.7449717"><ele>1140.0</ele><time>2026-04-07T13:25:10.728Z</time></trkpt><trkpt lat="43.85357" lon="11.7450967"><ele>1133.5</ele><time>2026-04-07T13:25:11.729Z</time></trkpt><trkpt lat="43.8534883" lon="11.74526"><ele>1127.0</ele><time>2026-04-07T13:25:12.727Z</time></trkpt><trkpt lat="43.8533633" lon="11.74535"><ele>1123.2</ele><time>2026-04-07T13:25:13.731Z</time></trkpt><trkpt lat="43.8532533" lon="11.74542"><ele>1119.4</ele><time>2026-04-07T13:25:14.731Z</time></trkpt><trkpt lat="43.8531617" lon="11.7454033"><ele>1115.6</ele><time>2026-04-07T13:25:15.73Z</time></trkpt><trkpt lat="43.853095" lon="11.7453233"><ele>1111.8</ele><time>2026-04-07T13:25:16.727Z</time></trkpt><trkpt lat="43.8530317" lon="11.74519"><ele>1108.0</ele><time>2026-04-07T13:25:17.729Z</time></trkpt><trkpt lat="43.8529733" lon="11.7450267"><ele>1108.0</ele><time>2026-04-07T13:25:18.729Z</time></trkpt><trkpt lat="43.8528983" lon="11.7448717"><ele>1108.0</ele><time>2026-04-07T13:25:19.728Z</time></trkpt><trkpt lat="43.852805" lon="11.744755"><ele>1108.0</ele><time>2026-04-07T13:25:20.728Z</time></trkpt><trkpt lat="43.8526967" lon="11.7446833"><ele>1108.0</ele><time>2026-04-07T13:25:21.727Z</time></trkpt><trkpt lat="43.8525833" lon="11.74467"><ele>1105.75</ele><time>2026-04-07T13:25:22.729Z</time></trkpt><trkpt lat="43.8524733" lon="11.7446917"><ele>1103.5</ele><time>2026-04-07T13:25:23.728Z</time></trkpt><trkpt lat="43.85237" lon="11.7447667"><ele>1101.25</ele><time>2026-04-07T13:25:24.727Z</time></trkpt><trkpt lat="43.8522783" lon="11.744885"><ele>1099.0</ele><time>2026-04-07T13:25:25.73Z</time></trkpt><trkpt lat="43.852185" lon="11.7450433"><ele>1096.0</ele><time>2026-04-07T13:25:26.727Z</time></trkpt><trkpt lat="43.8521433" lon="11.7452333"><ele>1093.0</ele><time>2026-04-07T13:25:27.731Z</time></trkpt><trkpt lat="43.8521167" lon="11.7454133"><ele>1090.0</ele><time>2026-04-07T13:25:28.728Z</time></trkpt><trkpt lat="43.8521467" lon="11.7456033"><ele>1087.0</ele><time>2026-04-07T13:25:29.73Z</time></trkpt><trkpt lat="43.8521717" lon="11.7457583"><ele>1087.0</ele><time>2026-04-07T13:25:30.728Z</time></trkpt><trkpt lat="43.8522333" lon="11.7458667"><ele>1087.0</ele><time>2026-04-07T13:25:31.731Z</time></trkpt><trkpt lat="43.8522817" lon="11.7459567"><ele>1087.0</ele><time>2026-04-07T13:25:32.731Z</time></trkpt><trkpt lat="43.8523567" lon="11.74602"><ele>1087.0</ele><time>2026-04-07T13:25:33.727Z</time></trkpt><trkpt lat="43.8524467" lon="11.746045"><ele>1087.0</ele><time>2026-04-07T13:25:34.727Z</time></trkpt><trkpt lat="43.8525867" lon="11.7460233"><ele>1089.25</ele><time>2026-04-07T13:25:35.729Z</time></trkpt><trkpt lat="43.8527467" lon="11.7460017"><ele>1091.5</ele><time>2026-04-07T13:25:36.728Z</time></trkpt><trkpt lat="43.8529067" lon="11.7459717"><ele>1093.75</ele><time>2026-04-07T13:25:37.729Z</time></trkpt><trkpt lat="43.85302" lon="11.7459917"><ele>1096.0</ele><time>2026-04-07T13:25:38.729Z</time></trkpt><trkpt lat="43.8531283" lon="11.7460283"><ele>1097.5</ele><time>2026-04-07T13:25:39.729Z</time></trkpt><trkpt lat="43.8532167" lon="11.7460683"><ele>1099.0</ele><time>2026-04-07T13:25:40.73Z</time></trkpt><trkpt lat="43.8532583" lon="11.7461367"><ele>1100.5</ele><time>2026-04-07T13:25:41.73Z</time></trkpt><trkpt lat="43.8532967" lon="11.7462133"><ele>1102.0</ele><time>2026-04-07T13:25:42.727Z</time></trkpt><trkpt lat="43.8532783" lon="11.746395"><ele>1103.5</ele><time>2026-04-07T13:25:44.727Z</time></trkpt><trkpt lat="43.8532333" lon="11.7465033"><ele>1105.0</ele><time>2026-04-07T13:25:45.728Z</time></trkpt><trkpt lat="43.8531317" lon="11.74665"><ele>1105.0</ele><time>2026-04-07T13:25:46.727Z</time></trkpt><trkpt lat="43.85297" lon="11.7467767"><ele>1105.0</ele><time>2026-04-07T13:25:47.728Z</time></trkpt><trkpt lat="43.8527333" lon="11.7469383"><ele>1098.5</ele><time>2026-04-07T13:25:48.729Z</time></trkpt><trkpt lat="43.8524567" lon="11.7471217"><ele>1092.0</ele><time>2026-04-07T13:25:49.727Z</time></trkpt><trkpt lat="43.8522117" lon="11.7472317"><ele>1092.0</ele><time>2026-04-07T13:25:50.727Z</time></trkpt><trkpt lat="43.85205" lon="11.7473517"><ele>1092.0</ele><time>2026-04-07T13:25:51.727Z</time></trkpt><trkpt lat="43.8519133" lon="11.747525"><ele>1092.0</ele><time>2026-04-07T13:25:52.73Z</time></trkpt><trkpt lat="43.8517833" lon="11.747715"><ele>1085.6666666666667</ele><time>2026-04-07T13:25:53.727Z</time></trkpt><trkpt lat="43.8516617" lon="11.747885"><ele>1079.3333333333335</ele><time>2026-04-07T13:25:54.727Z</time></trkpt><trkpt lat="43.8515517" lon="11.748025"><ele>1073.0</ele><time>2026-04-07T13:25:55.732Z</time></trkpt><trkpt lat="43.8514417" lon="11.7481417"><ele>1073.0</ele><time>2026-04-07T13:25:56.728Z</time></trkpt><trkpt lat="43.8513433" lon="11.7482283"><ele>1073.0</ele><time>2026-04-07T13:25:57.728Z</time></trkpt><trkpt lat="43.8512517" lon="11.748295"><ele>1073.0</ele><time>2026-04-07T13:25:58.727Z</time></trkpt><trkpt lat="43.8511867" lon="11.7483767"><ele>1073.0</ele><time>2026-04-07T13:25:59.728Z</time></trkpt><trkpt lat="43.851135" lon="11.7484717"><ele>1073.0</ele><time>2026-04-07T13:26:00.73Z</time></trkpt><trkpt lat="43.8511383" lon="11.7486"><ele>1073.75</ele><time>2026-04-07T13:26:01.731Z</time></trkpt><trkpt lat="43.8511817" lon="11.74872"><ele>1074.5</ele><time>2026-04-07T13:26:02.729Z</time></trkpt><trkpt lat="43.8512583" lon="11.748835"><ele>1075.25</ele><time>2026-04-07T13:26:03.73Z</time></trkpt><trkpt lat="43.851365" lon="11.7489583"><ele>1076.0</ele><time>2026-04-07T13:26:04.731Z</time></trkpt><trkpt lat="43.85146" lon="11.7490833"><ele>1076.0</ele><time>2026-04-07T13:26:05.728Z</time></trkpt><trkpt lat="43.8515217" lon="11.7492133"><ele>1076.0</ele><time>2026-04-07T13:26:06.731Z</time></trkpt><trkpt lat="43.8515533" lon="11.74933"><ele>1076.0</ele><time>2026-04-07T13:26:07.73Z</time></trkpt><trkpt lat="43.8515483" lon="11.7494283"><ele>1076.0</ele><time>2026-04-07T13:26:08.729Z</time></trkpt><trkpt lat="43.851505" lon="11.749535"><ele>1076.0</ele><time>2026-04-07T13:26:09.73Z</time></trkpt><trkpt lat="43.8514683" lon="11.7496533"><ele>1079.75</ele><time>2026-04-07T13:26:10.729Z</time></trkpt><trkpt lat="43.85142" lon="11.7497783"><ele>1083.5</ele><time>2026-04-07T13:26:11.729Z</time></trkpt><trkpt lat="43.851335" lon="11.749905"><ele>1087.25</ele><time>2026-04-07T13:26:12.729Z</time></trkpt><trkpt lat="43.8512233" lon="11.749995"><ele>1091.0</ele><time>2026-04-07T13:26:13.729Z</time></trkpt><trkpt lat="43.8510667" lon="11.7500833"><ele>1052.0</ele><time>2026-04-07T13:26:14.727Z</time></trkpt><trkpt lat="43.85062" lon="11.7501583"><ele>1052.0</ele><time>2026-04-07T13:26:15.727Z</time></trkpt><trkpt lat="43.850435" lon="11.750235"><ele>1052.0</ele><time>2026-04-07T13:26:16.728Z</time></trkpt><trkpt lat="43.8502567" lon="11.7503167"><ele>1052.0</ele><time>2026-04-07T13:26:17.732Z</time></trkpt><trkpt lat="43.85008" lon="11.750435"><ele>1052.0</ele><time>2026-04-07T13:26:18.727Z</time></trkpt><trkpt lat="43.849925" lon="11.7505583"><ele>1052.0</ele><time>2026-04-07T13:26:19.732Z</time></trkpt><trkpt lat="43.84979" lon="11.7506967"><ele>1052.0</ele><time>2026-04-07T13:26:20.727Z</time></trkpt><trkpt lat="43.8496833" lon="11.7508567"><ele>1052.0</ele><time>2026-04-07T13:26:21.731Z</time></trkpt><trkpt lat="43.8496067" lon="11.7510333"><ele>1052.0</ele><time>2026-04-07T13:26:22.731Z</time></trkpt><trkpt lat="43.84957" lon="11.75124"><ele>1052.0</ele><time>2026-04-07T13:26:23.727Z</time></trkpt><trkpt lat="43.849555" lon="11.75145"><ele>1057.0</ele><time>2026-04-07T13:26:24.728Z</time></trkpt><trkpt lat="43.8495483" lon="11.7516583"><ele>1062.0</ele><time>2026-04-07T13:26:25.73Z</time></trkpt><trkpt lat="43.849525" lon="11.7518267"><ele>1067.0</ele><time>2026-04-07T13:26:26.731Z</time></trkpt><trkpt lat="43.8494617" lon="11.7519583"><ele>1072.0</ele><time>2026-04-07T13:26:27.731Z</time></trkpt><trkpt lat="43.8493733" lon="11.75204"><ele>1066.25</ele><time>2026-04-07T13:26:28.727Z</time></trkpt><trkpt lat="43.8492633" lon="11.7520783"><ele>1060.5</ele><time>2026-04-07T13:26:29.728Z</time></trkpt><trkpt lat="43.8491333" lon="11.75209"><ele>1054.75</ele><time>2026-04-07T13:26:30.73Z</time></trkpt><trkpt lat="43.8490167" lon="11.7521217"><ele>1049.0</ele><time>2026-04-07T13:26:31.731Z</time></trkpt><trkpt lat="43.8489117" lon="11.75219"><ele>1049.0</ele><time>2026-04-07T13:26:32.726Z</time></trkpt><trkpt lat="43.8488167" lon="11.7522983"><ele>1049.0</ele><time>2026-04-07T13:26:33.73Z</time></trkpt><trkpt lat="43.8487383" lon="11.7524517"><ele>1049.0</ele><time>2026-04-07T13:26:34.731Z</time></trkpt><trkpt lat="43.8486867" lon="11.752635"><ele>1049.0</ele><time>2026-04-07T13:26:35.726Z</time></trkpt><trkpt lat="43.8486383" lon="11.7528083"><ele>1048.6000000000001</ele><time>2026-04-07T13:26:36.728Z</time></trkpt><trkpt lat="43.8485817" lon="11.7529533"><ele>1048.2</ele><time>2026-04-07T13:26:37.727Z</time></trkpt><trkpt lat="43.848515" lon="11.753085"><ele>1047.8000000000002</ele><time>2026-04-07T13:26:38.728Z</time></trkpt><trkpt lat="43.8484433" lon="11.7531583"><ele>1047.4</ele><time>2026-04-07T13:26:39.728Z</time></trkpt><trkpt lat="43.8483733" lon="11.7532133"><ele>1047.0</ele><time>2026-04-07T13:26:40.729Z</time></trkpt><trkpt lat="43.8482883" lon="11.7532633"><ele>1047.0</ele><time>2026-04-07T13:26:41.728Z</time></trkpt><trkpt lat="43.8481917" lon="11.7532467"><ele>1047.0</ele><time>2026-04-07T13:26:42.73Z</time></trkpt><trkpt lat="43.8480817" lon="11.7527383"><ele>1040.6666666666667</ele><time>2026-04-07T13:26:43.73Z</time></trkpt><trkpt lat="43.8480233" lon="11.7524583"><ele>1034.3333333333335</ele><time>2026-04-07T13:26:44.728Z</time></trkpt><trkpt lat="43.847945" lon="11.7522567"><ele>1028.0</ele><time>2026-04-07T13:26:45.728Z</time></trkpt><trkpt lat="43.8478567" lon="11.75205"><ele>1028.0</ele><time>2026-04-07T13:26:46.728Z</time></trkpt><trkpt lat="43.8477617" lon="11.751895"><ele>1028.0</ele><time>2026-04-07T13:26:47.733Z</time></trkpt><trkpt lat="43.847635" lon="11.7517783"><ele>1028.0</ele><time>2026-04-07T13:26:48.729Z</time></trkpt><trkpt lat="43.8474883" lon="11.7516817"><ele>1023.6666666666667</ele><time>2026-04-07T13:26:49.731Z</time></trkpt><trkpt lat="43.8473217" lon="11.7516217"><ele>1019.3333333333333</ele><time>2026-04-07T13:26:50.731Z</time></trkpt><trkpt lat="43.8471467" lon="11.7515583"><ele>1015.0</ele><time>2026-04-07T13:26:51.731Z</time></trkpt><trkpt lat="43.847005" lon="11.75147"><ele>1015.0</ele><time>2026-04-07T13:26:52.73Z</time></trkpt><trkpt lat="43.8468833" lon="11.7513633"><ele>1015.0</ele><time>2026-04-07T13:26:53.73Z</time></trkpt><trkpt lat="43.8467633" lon="11.7512917"><ele>1015.0</ele><time>2026-04-07T13:26:54.73Z</time></trkpt><trkpt lat="43.8466433" lon="11.7512883"><ele>1015.0</ele><time>2026-04-07T13:26:55.732Z</time></trkpt><trkpt lat="43.8465183" lon="11.7513167"><ele>1016.25</ele><time>2026-04-07T13:26:56.726Z</time></trkpt><trkpt lat="43.8464" lon="11.7513783"><ele>1017.5</ele><time>2026-04-07T13:26:57.726Z</time></trkpt><trkpt lat="43.8462933" lon="11.7514617"><ele>1018.75</ele><time>2026-04-07T13:26:58.727Z</time></trkpt><trkpt lat="43.8461867" lon="11.75154"><ele>1020.0</ele><time>2026-04-07T13:26:59.728Z</time></trkpt><trkpt lat="43.8460917" lon="11.75157"><ele>1020.0</ele><time>2026-04-07T13:27:00.727Z</time></trkpt><trkpt lat="43.8460133" lon="11.7515767"><ele>1020.0</ele><time>2026-04-07T13:27:01.727Z</time></trkpt><trkpt lat="43.8459567" lon="11.7515267"><ele>1020.0</ele><time>2026-04-07T13:27:02.728Z</time></trkpt><trkpt lat="43.8459217" lon="11.75144"><ele>1020.0</ele><time>2026-04-07T13:27:03.726Z</time></trkpt><trkpt lat="43.8458717" lon="11.7513317"><ele>1020.0</ele><time>2026-04-07T13:27:04.729Z</time></trkpt><trkpt lat="43.8458483" lon="11.7511367"><ele>1015.3333333333333</ele><time>2026-04-07T13:27:05.727Z</time></trkpt><trkpt lat="43.8458267" lon="11.75087"><ele>1010.6666666666666</ele><time>2026-04-07T13:27:06.727Z</time></trkpt><trkpt lat="43.8458167" lon="11.7505333"><ele>1006.0</ele><time>2026-04-07T13:27:07.728Z</time></trkpt><trkpt lat="43.84579" lon="11.7502783"><ele>1002.0</ele><time>2026-04-07T13:27:08.728Z</time></trkpt><trkpt lat="43.8457617" lon="11.750075"><ele>998.0</ele><time>2026-04-07T13:27:09.728Z</time></trkpt><trkpt lat="43.8457217" lon="11.7499067"><ele>994.0</ele><time>2026-04-07T13:27:10.728Z</time></trkpt><trkpt lat="43.845655" lon="11.7497667"><ele>990.0</ele><time>2026-04-07T13:27:11.729Z</time></trkpt><trkpt lat="43.8456067" lon="11.7496933"><ele>990.0</ele><time>2026-04-07T13:27:12.727Z</time></trkpt><trkpt lat="43.84552" lon="11.749645"><ele>990.0</ele><time>2026-04-07T13:27:13.728Z</time></trkpt><trkpt lat="43.845435" lon="11.7496083"><ele>990.0</ele><time>2026-04-07T13:27:14.728Z</time></trkpt><trkpt lat="43.8453383" lon="11.74958"><ele>990.0</ele><time>2026-04-07T13:27:15.727Z</time></trkpt><trkpt lat="43.84522" lon="11.749585"><ele>990.0</ele><time>2026-04-07T13:27:16.729Z</time></trkpt><trkpt lat="43.8450617" lon="11.7497433"><ele>989.75</ele><time>2026-04-07T13:27:17.728Z</time></trkpt><trkpt lat="43.8449483" lon="11.7499083"><ele>989.5</ele><time>2026-04-07T13:27:18.727Z</time></trkpt><trkpt lat="43.844855" lon="11.75002"><ele>989.25</ele><time>2026-04-07T13:27:19.727Z</time></trkpt><trkpt lat="43.8447483" lon="11.7501383"><ele>989.0</ele><time>2026-04-07T13:27:20.727Z</time></trkpt><trkpt lat="43.8446633" lon="11.7501567"><ele>989.0000000000001</ele><time>2026-04-07T13:27:21.727Z</time></trkpt><trkpt lat="43.8445917" lon="11.7501583"><ele>989.0</ele><time>2026-04-07T13:27:22.728Z</time></trkpt><trkpt lat="43.8445283" lon="11.7501183"><ele>989.0</ele><time>2026-04-07T13:27:23.728Z</time></trkpt><trkpt lat="43.84449" lon="11.75004"><ele>989.0</ele><time>2026-04-07T13:27:24.728Z</time></trkpt><trkpt lat="43.8444867" lon="11.7498683"><ele>989.0000000000001</ele><time>2026-04-07T13:27:26.729Z</time></trkpt><trkpt lat="43.8445333" lon="11.7497333"><ele>989.0</ele><time>2026-04-07T13:27:27.727Z</time></trkpt><trkpt lat="43.8445283" lon="11.7495733"><ele>989.0</ele><time>2026-04-07T13:27:28.727Z</time></trkpt><trkpt lat="43.8445233" lon="11.7494133"><ele>989.0</ele><time>2026-04-07T13:27:29.728Z</time></trkpt><trkpt lat="43.8444867" lon="11.7492967"><ele>989.0</ele><time>2026-04-07T13:27:30.727Z</time></trkpt><trkpt lat="43.84441" lon="11.7491867"><ele>989.0</ele><time>2026-04-07T13:27:31.729Z</time></trkpt><trkpt lat="43.8443267" lon="11.749035"><ele>987.5</ele><time>2026-04-07T13:27:32.728Z</time></trkpt><trkpt lat="43.844255" lon="11.7488617"><ele>986.0</ele><time>2026-04-07T13:27:33.73Z</time></trkpt><trkpt lat="43.8441683" lon="11.7487067"><ele>984.5</ele><time>2026-04-07T13:27:34.73Z</time></trkpt><trkpt lat="43.8440817" lon="11.7486033"><ele>983.0</ele><time>2026-04-07T13:27:35.731Z</time></trkpt><trkpt lat="43.8439683" lon="11.7485367"><ele>983.0</ele><time>2026-04-07T13:27:36.731Z</time></trkpt><trkpt lat="43.84384" lon="11.7485367"><ele>983.0</ele><time>2026-04-07T13:27:37.73Z</time></trkpt><trkpt lat="43.8437" lon="11.7486067"><ele>983.0</ele><time>2026-04-07T13:27:38.73Z</time></trkpt><trkpt lat="43.8435533" lon="11.7487217"><ele>983.0</ele><time>2026-04-07T13:27:39.73Z</time></trkpt><trkpt lat="43.8434133" lon="11.7488433"><ele>983.5</ele><time>2026-04-07T13:27:40.731Z</time></trkpt><trkpt lat="43.8432767" lon="11.74897"><ele>984.0</ele><time>2026-04-07T13:27:41.732Z</time></trkpt><trkpt lat="43.8431483" lon="11.749075"><ele>984.5</ele><time>2026-04-07T13:27:42.73Z</time></trkpt><trkpt lat="43.8430483" lon="11.7491"><ele>985.0</ele><time>2026-04-07T13:27:43.731Z</time></trkpt><trkpt lat="43.8429633" lon="11.74904"><ele>985.0</ele><time>2026-04-07T13:27:44.731Z</time></trkpt><trkpt lat="43.8429017" lon="11.7488883"><ele>985.0</ele><time>2026-04-07T13:27:45.73Z</time></trkpt><trkpt lat="43.8428683" lon="11.748725"><ele>985.0</ele><time>2026-04-07T13:27:46.728Z</time></trkpt><trkpt lat="43.8428883" lon="11.7485533"><ele>985.0</ele><time>2026-04-07T13:27:47.728Z</time></trkpt><trkpt lat="43.8429567" lon="11.748355"><ele>976.6666666666666</ele><time>2026-04-07T13:27:48.729Z</time></trkpt><trkpt lat="43.8430033" lon="11.74815"><ele>968.3333333333333</ele><time>2026-04-07T13:27:49.729Z</time></trkpt><trkpt lat="43.8430417" lon="11.74794"><ele>960.0</ele><time>2026-04-07T13:27:50.727Z</time></trkpt><trkpt lat="43.843095" lon="11.7477467"><ele>957.25</ele><time>2026-04-07T13:27:51.728Z</time></trkpt><trkpt lat="43.8431517" lon="11.7475917"><ele>954.5</ele><time>2026-04-07T13:27:52.728Z</time></trkpt><trkpt lat="43.8432417" lon="11.74749"><ele>951.75</ele><time>2026-04-07T13:27:53.727Z</time></trkpt><trkpt lat="43.8433633" lon="11.7474517"><ele>949.0</ele><time>2026-04-07T13:27:54.728Z</time></trkpt><trkpt lat="43.84348" lon="11.747465"><ele>947.4000000000001</ele><time>2026-04-07T13:27:55.727Z</time></trkpt><trkpt lat="43.8435883" lon="11.7475483"><ele>945.8000000000001</ele><time>2026-04-07T13:27:56.731Z</time></trkpt><trkpt lat="43.843695" lon="11.747605"><ele>944.1999999999999</ele><time>2026-04-07T13:27:57.731Z</time></trkpt><trkpt lat="43.8437883" lon="11.747625"><ele>942.5999999999999</ele><time>2026-04-07T13:27:58.731Z</time></trkpt><trkpt lat="43.8438883" lon="11.74761"><ele>941.0</ele><time>2026-04-07T13:27:59.733Z</time></trkpt><trkpt lat="43.84397" lon="11.7475483"><ele>941.0</ele><time>2026-04-07T13:28:00.73Z</time></trkpt><trkpt lat="43.84402" lon="11.7474467"><ele>940.9999999999999</ele><time>2026-04-07T13:28:01.731Z</time></trkpt><trkpt lat="43.8440517" lon="11.74734"><ele>940.9999999999999</ele><time>2026-04-07T13:28:02.727Z</time></trkpt><trkpt lat="43.84402" lon="11.7472433"><ele>941.0</ele><time>2026-04-07T13:28:03.727Z</time></trkpt><trkpt lat="43.8438917" lon="11.74715"><ele>941.0</ele><time>2026-04-07T13:28:04.728Z</time></trkpt><trkpt lat="43.843785" lon="11.74711"><ele>941.0</ele><time>2026-04-07T13:28:05.728Z</time></trkpt><trkpt lat="43.8436717" lon="11.7470783"><ele>941.0</ele><time>2026-04-07T13:28:06.728Z</time></trkpt><trkpt lat="43.843495" lon="11.74706"><ele>941.0</ele><time>2026-04-07T13:28:07.728Z</time></trkpt><trkpt lat="43.8433383" lon="11.7470783"><ele>943.6666666666667</ele><time>2026-04-07T13:28:08.727Z</time></trkpt><trkpt lat="43.8431733" lon="11.74713"><ele>946.3333333333333</ele><time>2026-04-07T13:28:09.727Z</time></trkpt><trkpt lat="43.8429867" lon="11.74725"><ele>949.0</ele><time>2026-04-07T13:28:10.728Z</time></trkpt><trkpt lat="43.8428667" lon="11.74737"><ele>949.0</ele><time>2026-04-07T13:28:11.73Z</time></trkpt><trkpt lat="43.84278" lon="11.7475733"><ele>949.0</ele><time>2026-04-07T13:28:12.73Z</time></trkpt><trkpt lat="43.8426783" lon="11.747725"><ele>949.0</ele><time>2026-04-07T13:28:13.731Z</time></trkpt><trkpt lat="43.8425767" lon="11.747855"><ele>951.75</ele><time>2026-04-07T13:28:14.73Z</time></trkpt><trkpt lat="43.8424517" lon="11.747925"><ele>954.5</ele><time>2026-04-07T13:28:15.73Z</time></trkpt><trkpt lat="43.8423" lon="11.7479467"><ele>957.25</ele><time>2026-04-07T13:28:16.731Z</time></trkpt><trkpt lat="43.8421383" lon="11.7479367"><ele>960.0</ele><time>2026-04-07T13:28:17.727Z</time></trkpt><trkpt lat="43.8419583" lon="11.7479017"><ele>961.3333333333333</ele><time>2026-04-07T13:28:18.729Z</time></trkpt><trkpt lat="43.841785" lon="11.7478583"><ele>962.6666666666666</ele><time>2026-04-07T13:28:19.728Z</time></trkpt><trkpt lat="43.84161" lon="11.7478283"><ele>964.0</ele><time>2026-04-07T13:28:20.728Z</time></trkpt><trkpt lat="43.841435" lon="11.7478217"><ele>964.0</ele><time>2026-04-07T13:28:21.728Z</time></trkpt><trkpt lat="43.8412567" lon="11.74783"><ele>964.0</ele><time>2026-04-07T13:28:22.729Z</time></trkpt><trkpt lat="43.8410683" lon="11.7478567"><ele>964.0</ele><time>2026-04-07T13:28:23.729Z</time></trkpt><trkpt lat="43.8408867" lon="11.7478867"><ele>960.0</ele><time>2026-04-07T13:28:24.728Z</time></trkpt><trkpt lat="43.8407133" lon="11.7479217"><ele>956.0</ele><time>2026-04-07T13:28:25.728Z</time></trkpt><trkpt lat="43.84055" lon="11.7479717"><ele>952.0</ele><time>2026-04-07T13:28:26.729Z</time></trkpt><trkpt lat="43.840395" lon="11.7480483"><ele>952.0</ele><time>2026-04-07T13:28:27.729Z</time></trkpt><trkpt lat="43.8402633" lon="11.748165"><ele>952.0</ele><time>2026-04-07T13:28:28.727Z</time></trkpt><trkpt lat="43.8401533" lon="11.748315"><ele>952.0</ele><time>2026-04-07T13:28:29.731Z</time></trkpt><trkpt lat="43.84004" lon="11.748485"><ele>949.75</ele><time>2026-04-07T13:28:30.73Z</time></trkpt><trkpt lat="43.8399467" lon="11.748665"><ele>947.5</ele><time>2026-04-07T13:28:31.727Z</time></trkpt><trkpt lat="43.8398467" lon="11.7488167"><ele>945.25</ele><time>2026-04-07T13:28:32.731Z</time></trkpt><trkpt lat="43.839745" lon="11.7489483"><ele>943.0</ele><time>2026-04-07T13:28:33.73Z</time></trkpt><trkpt lat="43.8396233" lon="11.7490183"><ele>943.0</ele><time>2026-04-07T13:28:34.728Z</time></trkpt><trkpt lat="43.839475" lon="11.749055"><ele>943.0</ele><time>2026-04-07T13:28:35.728Z</time></trkpt><trkpt lat="43.8392917" lon="11.7490633"><ele>943.0</ele><time>2026-04-07T13:28:36.727Z</time></trkpt><trkpt lat="43.8390917" lon="11.7490683"><ele>938.0</ele><time>2026-04-07T13:28:37.729Z</time></trkpt><trkpt lat="43.8388967" lon="11.749075"><ele>933.0</ele><time>2026-04-07T13:28:38.729Z</time></trkpt><trkpt lat="43.8387033" lon="11.749045"><ele>928.0</ele><time>2026-04-07T13:28:39.727Z</time></trkpt><trkpt lat="43.8385267" lon="11.74897"><ele>930.0</ele><time>2026-04-07T13:28:40.727Z</time></trkpt><trkpt lat="43.83837" lon="11.7488133"><ele>932.0</ele><time>2026-04-07T13:28:41.731Z</time></trkpt><trkpt lat="43.8382317" lon="11.7486433"><ele>934.0</ele><time>2026-04-07T13:28:42.729Z</time></trkpt><trkpt lat="43.8381083" lon="11.7485017"><ele>929.25</ele><time>2026-04-07T13:28:43.728Z</time></trkpt><trkpt lat="43.837985" lon="11.748405"><ele>924.5</ele><time>2026-04-07T13:28:44.729Z</time></trkpt><trkpt lat="43.8378483" lon="11.748345"><ele>919.75</ele><time>2026-04-07T13:28:45.732Z</time></trkpt><trkpt lat="43.837705" lon="11.74832"><ele>915.0</ele><time>2026-04-07T13:28:46.728Z</time></trkpt><trkpt lat="43.8375667" lon="11.7483367"><ele>912.0</ele><time>2026-04-07T13:28:47.727Z</time></trkpt><trkpt lat="43.837415" lon="11.7483867"><ele>909.0</ele><time>2026-04-07T13:28:48.727Z</time></trkpt><trkpt lat="43.8372533" lon="11.7485417"><ele>906.0</ele><time>2026-04-07T13:28:49.729Z</time></trkpt><trkpt lat="43.8370883" lon="11.74868"><ele>906.6666666666667</ele><time>2026-04-07T13:28:50.728Z</time></trkpt><trkpt lat="43.8369267" lon="11.7488367"><ele>907.3333333333334</ele><time>2026-04-07T13:28:51.728Z</time></trkpt><trkpt lat="43.83678" lon="11.7490267"><ele>908.0</ele><time>2026-04-07T13:28:52.729Z</time></trkpt><trkpt lat="43.836645" lon="11.7491883"><ele>908.0</ele><time>2026-04-07T13:28:53.728Z</time></trkpt><trkpt lat="43.8365133" lon="11.7493483"><ele>908.0</ele><time>2026-04-07T13:28:54.728Z</time></trkpt><trkpt lat="43.8363733" lon="11.749445"><ele>908.0</ele><time>2026-04-07T13:28:55.728Z</time></trkpt><trkpt lat="43.8362267" lon="11.7494783"><ele>909.5</ele><time>2026-04-07T13:28:56.728Z</time></trkpt><trkpt lat="43.8360817" lon="11.749485"><ele>911.0</ele><time>2026-04-07T13:28:57.729Z</time></trkpt><trkpt lat="43.8359467" lon="11.7494917"><ele>912.5</ele><time>2026-04-07T13:28:58.73Z</time></trkpt><trkpt lat="43.8358267" lon="11.7495333"><ele>914.0</ele><time>2026-04-07T13:28:59.728Z</time></trkpt><trkpt lat="43.8357067" lon="11.74962"><ele>914.0</ele><time>2026-04-07T13:29:00.73Z</time></trkpt><trkpt lat="43.835605" lon="11.7497633"><ele>914.0</ele><time>2026-04-07T13:29:01.731Z</time></trkpt><trkpt lat="43.83551" lon="11.749905"><ele>914.0</ele><time>2026-04-07T13:29:02.728Z</time></trkpt><trkpt lat="43.83545" lon="11.7500733"><ele>914.0</ele><time>2026-04-07T13:29:03.731Z</time></trkpt><trkpt lat="43.8354233" lon="11.7502683"><ele>913.0</ele><time>2026-04-07T13:29:04.727Z</time></trkpt><trkpt lat="43.8354433" lon="11.7505"><ele>912.0</ele><time>2026-04-07T13:29:05.728Z</time></trkpt><trkpt lat="43.835465" lon="11.7507467"><ele>911.0</ele><time>2026-04-07T13:29:06.727Z</time></trkpt><trkpt lat="43.8354767" lon="11.7509883"><ele>904.75</ele><time>2026-04-07T13:29:07.73Z</time></trkpt><trkpt lat="43.8355033" lon="11.7512067"><ele>898.5</ele><time>2026-04-07T13:29:08.731Z</time></trkpt><trkpt lat="43.835545" lon="11.7513833"><ele>892.25</ele><time>2026-04-07T13:29:09.73Z</time></trkpt><trkpt lat="43.8356367" lon="11.7515467"><ele>886.0</ele><time>2026-04-07T13:29:10.73Z</time></trkpt><trkpt lat="43.83575" lon="11.7516517"><ele>886.0</ele><time>2026-04-07T13:29:11.731Z</time></trkpt><trkpt lat="43.8358517" lon="11.7517633"><ele>886.0</ele><time>2026-04-07T13:29:12.73Z</time></trkpt><trkpt lat="43.8359517" lon="11.7518967"><ele>886.0</ele><time>2026-04-07T13:29:13.732Z</time></trkpt><trkpt lat="43.83603" lon="11.7520783"><ele>886.0</ele><time>2026-04-07T13:29:14.73Z</time></trkpt><trkpt lat="43.83608" lon="11.75229"><ele>887.0</ele><time>2026-04-07T13:29:15.73Z</time></trkpt><trkpt lat="43.836115" lon="11.7524917"><ele>888.0</ele><time>2026-04-07T13:29:16.727Z</time></trkpt><trkpt lat="43.836175" lon="11.7526783"><ele>889.0</ele><time>2026-04-07T13:29:17.727Z</time></trkpt><trkpt lat="43.83625" lon="11.7528383"><ele>890.0</ele><time>2026-04-07T13:29:18.728Z</time></trkpt><trkpt lat="43.836365" lon="11.752995"><ele>890.0</ele><time>2026-04-07T13:29:19.728Z</time></trkpt><trkpt lat="43.8364917" lon="11.7531633"><ele>890.0</ele><time>2026-04-07T13:29:20.727Z</time></trkpt><trkpt lat="43.8366083" lon="11.75334"><ele>890.0</ele><time>2026-04-07T13:29:21.726Z</time></trkpt><trkpt lat="43.8366933" lon="11.7535417"><ele>886.0</ele><time>2026-04-07T13:29:22.728Z</time></trkpt><trkpt lat="43.8367583" lon="11.7537583"><ele>882.0</ele><time>2026-04-07T13:29:23.731Z</time></trkpt><trkpt lat="43.836785" lon="11.7539817"><ele>878.0</ele><time>2026-04-07T13:29:24.73Z</time></trkpt><trkpt lat="43.8367617" lon="11.7542383"><ele>876.3333333333334</ele><time>2026-04-07T13:29:25.732Z</time></trkpt><trkpt lat="43.8367267" lon="11.75451"><ele>874.6666666666667</ele><time>2026-04-07T13:29:26.731Z</time></trkpt><trkpt lat="43.8367083" lon="11.7548"><ele>873.0</ele><time>2026-04-07T13:29:27.729Z</time></trkpt><trkpt lat="43.836705" lon="11.7551"><ele>871.3333333333333</ele><time>2026-04-07T13:29:28.73Z</time></trkpt><trkpt lat="43.83671" lon="11.7554017"><ele>869.6666666666666</ele><time>2026-04-07T13:29:29.731Z</time></trkpt><trkpt lat="43.8367117" lon="11.7556783"><ele>868.0</ele><time>2026-04-07T13:29:30.727Z</time></trkpt><trkpt lat="43.8367033" lon="11.7559133"><ele>864.25</ele><time>2026-04-07T13:29:31.727Z</time></trkpt><trkpt lat="43.8366967" lon="11.7561"><ele>860.5</ele><time>2026-04-07T13:29:32.728Z</time></trkpt><trkpt lat="43.8367067" lon="11.756255"><ele>856.75</ele><time>2026-04-07T13:29:33.726Z</time></trkpt><trkpt lat="43.83676" lon="11.75638"><ele>853.0</ele><time>2026-04-07T13:29:34.732Z</time></trkpt><trkpt lat="43.83687" lon="11.7564917"><ele>859.0</ele><time>2026-04-07T13:29:35.731Z</time></trkpt><trkpt lat="43.836995" lon="11.7566117"><ele>865.0</ele><time>2026-04-07T13:29:36.727Z</time></trkpt><trkpt lat="43.8371067" lon="11.75677"><ele>871.0</ele><time>2026-04-07T13:29:37.731Z</time></trkpt><trkpt lat="43.8372067" lon="11.7569717"><ele>871.0</ele><time>2026-04-07T13:29:38.73Z</time></trkpt><trkpt lat="43.8373117" lon="11.7572033"><ele>871.0</ele><time>2026-04-07T13:29:39.731Z</time></trkpt><trkpt lat="43.8374067" lon="11.75743"><ele>871.0</ele><time>2026-04-07T13:29:40.727Z</time></trkpt><trkpt lat="43.8374767" lon="11.75768"><ele>867.3333333333333</ele><time>2026-04-07T13:29:41.727Z</time></trkpt><trkpt lat="43.83753" lon="11.7579367"><ele>863.6666666666667</ele><time>2026-04-07T13:29:42.728Z</time></trkpt><trkpt lat="43.8375717" lon="11.7581783"><ele>860.0</ele><time>2026-04-07T13:29:43.728Z</time></trkpt><trkpt lat="43.8375733" lon="11.7584083"><ele>859.0</ele><time>2026-04-07T13:29:44.731Z</time></trkpt><trkpt lat="43.837545" lon="11.758645"><ele>858.0</ele><time>2026-04-07T13:29:45.73Z</time></trkpt><trkpt lat="43.8375" lon="11.7588733"><ele>857.0</ele><time>2026-04-07T13:29:46.728Z</time></trkpt><trkpt lat="43.83746" lon="11.7590767"><ele>857.0</ele><time>2026-04-07T13:29:47.728Z</time></trkpt><trkpt lat="43.8374333" lon="11.7592667"><ele>857.0</ele><time>2026-04-07T13:29:48.727Z</time></trkpt><trkpt lat="43.83745" lon="11.75946"><ele>857.0</ele><time>2026-04-07T13:29:49.727Z</time></trkpt><trkpt lat="43.8375083" lon="11.759665"><ele>857.0</ele><time>2026-04-07T13:29:50.728Z</time></trkpt><trkpt lat="43.837595" lon="11.7598717"><ele>859.25</ele><time>2026-04-07T13:29:51.727Z</time></trkpt><trkpt lat="43.8376683" lon="11.76008"><ele>861.5</ele><time>2026-04-07T13:29:52.727Z</time></trkpt><trkpt lat="43.8376733" lon="11.7602767"><ele>863.75</ele><time>2026-04-07T13:29:53.731Z</time></trkpt><trkpt lat="43.83764" lon="11.7604483"><ele>866.0</ele><time>2026-04-07T13:29:54.731Z</time></trkpt><trkpt lat="43.8375883" lon="11.7605917"><ele>866.0</ele><time>2026-04-07T13:29:55.731Z</time></trkpt><trkpt lat="43.837505" lon="11.76069"><ele>865.9999999999999</ele><time>2026-04-07T13:29:56.73Z</time></trkpt><trkpt lat="43.83741" lon="11.760735"><ele>865.9999999999999</ele><time>2026-04-07T13:29:57.729Z</time></trkpt><trkpt lat="43.837315" lon="11.760745"><ele>866.0</ele><time>2026-04-07T13:29:58.728Z</time></trkpt><trkpt lat="43.8372267" lon="11.7607217"><ele>866.0</ele><time>2026-04-07T13:29:59.731Z</time></trkpt><trkpt lat="43.837145" lon="11.7606433"><ele>866.0</ele><time>2026-04-07T13:30:00.73Z</time></trkpt><trkpt lat="43.83701" lon="11.7603917"><ele>866.0</ele><time>2026-04-07T13:30:01.729Z</time></trkpt><trkpt lat="43.83683" lon="11.7601267"><ele>865.6666666666667</ele><time>2026-04-07T13:30:02.728Z</time></trkpt><trkpt lat="43.8367" lon="11.7599067"><ele>865.3333333333333</ele><time>2026-04-07T13:30:03.727Z</time></trkpt><trkpt lat="43.836565" lon="11.75971"><ele>865.0</ele><time>2026-04-07T13:30:04.728Z</time></trkpt><trkpt lat="43.83647" lon="11.7595283"><ele>861.0</ele><time>2026-04-07T13:30:05.728Z</time></trkpt><trkpt lat="43.8364" lon="11.759345"><ele>857.0</ele><time>2026-04-07T13:30:06.727Z</time></trkpt><trkpt lat="43.8363583" lon="11.7591583"><ele>853.0</ele><time>2026-04-07T13:30:07.728Z</time></trkpt><trkpt lat="43.8363467" lon="11.7589583"><ele>849.0</ele><time>2026-04-07T13:30:08.728Z</time></trkpt><trkpt lat="43.8363433" lon="11.7587483"><ele>849.0</ele><time>2026-04-07T13:30:09.727Z</time></trkpt><trkpt lat="43.83634" lon="11.75855"><ele>849.0</ele><time>2026-04-07T13:30:10.731Z</time></trkpt><trkpt lat="43.8363033" lon="11.7583767"><ele>849.0</ele><time>2026-04-07T13:30:11.731Z</time></trkpt><trkpt lat="43.836235" lon="11.7582333"><ele>849.0</ele><time>2026-04-07T13:30:12.731Z</time></trkpt><trkpt lat="43.836135" lon="11.75813"><ele>851.0</ele><time>2026-04-07T13:30:13.731Z</time></trkpt><trkpt lat="43.83599" lon="11.7580617"><ele>853.0</ele><time>2026-04-07T13:30:14.73Z</time></trkpt><trkpt lat="43.8358233" lon="11.7580167"><ele>855.0</ele><time>2026-04-07T13:30:15.73Z</time></trkpt><trkpt lat="43.8356417" lon="11.7580017"><ele>855.0</ele><time>2026-04-07T13:30:16.731Z</time></trkpt><trkpt lat="43.8354633" lon="11.758025"><ele>855.0</ele><time>2026-04-07T13:30:17.731Z</time></trkpt><trkpt lat="43.8352983" lon="11.7580433"><ele>855.0</ele><time>2026-04-07T13:30:18.731Z</time></trkpt><trkpt lat="43.8351683" lon="11.7580217"><ele>858.25</ele><time>2026-04-07T13:30:19.731Z</time></trkpt><trkpt lat="43.8350717" lon="11.7579433"><ele>861.5</ele><time>2026-04-07T13:30:20.731Z</time></trkpt><trkpt lat="43.834995" lon="11.757815"><ele>864.75</ele><time>2026-04-07T13:30:21.731Z</time></trkpt><trkpt lat="43.8349417" lon="11.757635"><ele>868.0</ele><time>2026-04-07T13:30:22.73Z</time></trkpt><trkpt lat="43.8349183" lon="11.7574433"><ele>858.6666666666666</ele><time>2026-04-07T13:30:23.729Z</time></trkpt><trkpt lat="43.83488" lon="11.75722"><ele>849.3333333333333</ele><time>2026-04-07T13:30:24.727Z</time></trkpt><trkpt lat="43.834825" lon="11.7569883"><ele>840.0</ele><time>2026-04-07T13:30:25.727Z</time></trkpt><trkpt lat="43.8347267" lon="11.756745"><ele>834.0</ele><time>2026-04-07T13:30:26.727Z</time></trkpt><trkpt lat="43.8346067" lon="11.7565117"><ele>828.0</ele><time>2026-04-07T13:30:27.725Z</time></trkpt><trkpt lat="43.8345067" lon="11.7562917"><ele>822.0</ele><time>2026-04-07T13:30:28.727Z</time></trkpt><trkpt lat="43.8344183" lon="11.7560633"><ele>818.0</ele><time>2026-04-07T13:30:29.727Z</time></trkpt><trkpt lat="43.8343217" lon="11.7558367"><ele>814.0</ele><time>2026-04-07T13:30:30.727Z</time></trkpt><trkpt lat="43.8343033" lon="11.7556067"><ele>810.0</ele><time>2026-04-07T13:30:31.728Z</time></trkpt><trkpt lat="43.834285" lon="11.755405"><ele>814.5</ele><time>2026-04-07T13:30:32.726Z</time></trkpt><trkpt lat="43.83423" lon="11.7552483"><ele>819.0</ele><time>2026-04-07T13:30:33.725Z</time></trkpt><trkpt lat="43.8341517" lon="11.755135"><ele>823.5</ele><time>2026-04-07T13:30:34.727Z</time></trkpt><trkpt lat="43.8340417" lon="11.7550217"><ele>828.0</ele><time>2026-04-07T13:30:35.729Z</time></trkpt><trkpt lat="43.8339333" lon="11.7548633"><ele>828.0</ele><time>2026-04-07T13:30:36.727Z</time></trkpt><trkpt lat="43.8338633" lon="11.7546683"><ele>828.0</ele><time>2026-04-07T13:30:37.728Z</time></trkpt><trkpt lat="43.83382" lon="11.7544583"><ele>828.0</ele><time>2026-04-07T13:30:38.73Z</time></trkpt><trkpt lat="43.8338083" lon="11.7542317"><ele>821.5</ele><time>2026-04-07T13:30:39.729Z</time></trkpt><trkpt lat="43.8338467" lon="11.75401"><ele>815.0</ele><time>2026-04-07T13:30:40.73Z</time></trkpt><trkpt lat="43.833875" lon="11.7538167"><ele>808.5</ele><time>2026-04-07T13:30:41.729Z</time></trkpt><trkpt lat="43.8338717" lon="11.7536417"><ele>802.0</ele><time>2026-04-07T13:30:42.73Z</time></trkpt><trkpt lat="43.8338133" lon="11.7534683"><ele>795.3333333333333</ele><time>2026-04-07T13:30:43.731Z</time></trkpt><trkpt lat="43.8337033" lon="11.7533033"><ele>788.6666666666667</ele><time>2026-04-07T13:30:44.729Z</time></trkpt><trkpt lat="43.8335683" lon="11.7531533"><ele>782.0</ele><time>2026-04-07T13:30:45.73Z</time></trkpt><trkpt lat="43.8334183" lon="11.7530233"><ele>787.6666666666667</ele><time>2026-04-07T13:30:46.729Z</time></trkpt><trkpt lat="43.8332767" lon="11.752905"><ele>793.3333333333333</ele><time>2026-04-07T13:30:47.729Z</time></trkpt><trkpt lat="43.833165" lon="11.7527767"><ele>799.0</ele><time>2026-04-07T13:30:48.729Z</time></trkpt><trkpt lat="43.833075" lon="11.7526267"><ele>799.0</ele><time>2026-04-07T13:30:49.73Z</time></trkpt><trkpt lat="43.83302" lon="11.7524483"><ele>799.0</ele><time>2026-04-07T13:30:50.728Z</time></trkpt><trkpt lat="43.8330067" lon="11.7522533"><ele>799.0</ele><time>2026-04-07T13:30:51.73Z</time></trkpt><trkpt lat="43.8329783" lon="11.75207"><ele>799.0</ele><time>2026-04-07T13:30:52.728Z</time></trkpt><trkpt lat="43.83292" lon="11.751865"><ele>790.6666666666666</ele><time>2026-04-07T13:30:53.73Z</time></trkpt><trkpt lat="43.8328417" lon="11.7516567"><ele>782.3333333333333</ele><time>2026-04-07T13:30:54.729Z</time></trkpt><trkpt lat="43.8327733" lon="11.7514383"><ele>774.0</ele><time>2026-04-07T13:30:55.731Z</time></trkpt><trkpt lat="43.832685" lon="11.7512317"><ele>787.0</ele><time>2026-04-07T13:30:56.729Z</time></trkpt><trkpt lat="43.8326017" lon="11.7510417"><ele>800.0</ele><time>2026-04-07T13:30:57.727Z</time></trkpt><trkpt lat="43.8325417" lon="11.750855"><ele>813.0</ele><time>2026-04-07T13:30:58.727Z</time></trkpt><trkpt lat="43.8325133" lon="11.75065"><ele>813.0</ele><time>2026-04-07T13:30:59.727Z</time></trkpt><trkpt lat="43.8325183" lon="11.75042"><ele>813.0</ele><time>2026-04-07T13:31:00.726Z</time></trkpt><trkpt lat="43.83254" lon="11.7501683"><ele>813.0</ele><time>2026-04-07T13:31:01.727Z</time></trkpt><trkpt lat="43.8325667" lon="11.749895"><ele>806.3333333333333</ele><time>2026-04-07T13:31:02.726Z</time></trkpt><trkpt lat="43.83257" lon="11.74961"><ele>799.6666666666666</ele><time>2026-04-07T13:31:03.728Z</time></trkpt><trkpt lat="43.832565" lon="11.7493367"><ele>793.0</ele><time>2026-04-07T13:31:04.725Z</time></trkpt><trkpt lat="43.8325667" lon="11.7491083"><ele>790.0</ele><time>2026-04-07T13:31:05.726Z</time></trkpt><trkpt lat="43.8325617" lon="11.7489183"><ele>787.0</ele><time>2026-04-07T13:31:06.726Z</time></trkpt><trkpt lat="43.83254" lon="11.74877"><ele>784.0</ele><time>2026-04-07T13:31:07.727Z</time></trkpt><trkpt lat="43.8324667" lon="11.7486567"><ele>781.0</ele><time>2026-04-07T13:31:08.725Z</time></trkpt><trkpt lat="43.8323617" lon="11.7485867"><ele>781.0</ele><time>2026-04-07T13:31:09.726Z</time></trkpt><trkpt lat="43.83225" lon="11.748595"><ele>781.0</ele><time>2026-04-07T13:31:10.73Z</time></trkpt><trkpt lat="43.8321383" lon="11.748685"><ele>781.0</ele><time>2026-04-07T13:31:11.732Z</time></trkpt><trkpt lat="43.8320167" lon="11.7488167"><ele>781.0</ele><time>2026-04-07T13:31:12.731Z</time></trkpt><trkpt lat="43.83189" lon="11.74895"><ele>781.0</ele><time>2026-04-07T13:31:13.73Z</time></trkpt><trkpt lat="43.8317617" lon="11.74903"><ele>781.0</ele><time>2026-04-07T13:31:14.73Z</time></trkpt><trkpt lat="43.8316333" lon="11.7490567"><ele>781.0</ele><time>2026-04-07T13:31:15.728Z</time></trkpt><trkpt lat="43.8314767" lon="11.7490083"><ele>781.0</ele><time>2026-04-07T13:31:16.73Z</time></trkpt><trkpt lat="43.8312983" lon="11.74889"><ele>781.0</ele><time>2026-04-07T13:31:17.73Z</time></trkpt><trkpt lat="43.8311067" lon="11.7487633"><ele>781.0</ele><time>2026-04-07T13:31:18.729Z</time></trkpt><trkpt lat="43.8309233" lon="11.7486383"><ele>781.0</ele><time>2026-04-07T13:31:19.731Z</time></trkpt><trkpt lat="43.830755" lon="11.7485083"><ele>774.3333333333333</ele><time>2026-04-07T13:31:20.729Z</time></trkpt><trkpt lat="43.8305833" lon="11.7483333"><ele>767.6666666666666</ele><time>2026-04-07T13:31:21.73Z</time></trkpt><trkpt lat="43.830415" lon="11.748105"><ele>761.0</ele><time>2026-04-07T13:31:22.73Z</time></trkpt><trkpt lat="43.8302483" lon="11.7478633"><ele>762.0</ele><time>2026-04-07T13:31:23.73Z</time></trkpt><trkpt lat="43.830105" lon="11.7476283"><ele>763.0</ele><time>2026-04-07T13:31:24.727Z</time></trkpt><trkpt lat="43.829985" lon="11.7474233"><ele>764.0</ele><time>2026-04-07T13:31:25.731Z</time></trkpt><trkpt lat="43.8298717" lon="11.747255"><ele>764.0</ele><time>2026-04-07T13:31:26.727Z</time></trkpt><trkpt lat="43.82974" lon="11.74712"><ele>764.0</ele><time>2026-04-07T13:31:27.725Z</time></trkpt><trkpt lat="43.8295717" lon="11.7470217"><ele>764.0</ele><time>2026-04-07T13:31:28.729Z</time></trkpt><trkpt lat="43.8293783" lon="11.7469367"><ele>759.0</ele><time>2026-04-07T13:31:29.73Z</time></trkpt><trkpt lat="43.8291867" lon="11.746835"><ele>754.0</ele><time>2026-04-07T13:31:30.727Z</time></trkpt><trkpt lat="43.8290083" lon="11.7466933"><ele>749.0</ele><time>2026-04-07T13:31:31.726Z</time></trkpt><trkpt lat="43.8288417" lon="11.74654"><ele>749.0</ele><time>2026-04-07T13:31:32.726Z</time></trkpt><trkpt lat="43.8286683" lon="11.74642"><ele>749.0</ele><time>2026-04-07T13:31:33.726Z</time></trkpt><trkpt lat="43.828475" lon="11.74634"><ele>749.0</ele><time>2026-04-07T13:31:34.727Z</time></trkpt><trkpt lat="43.8282783" lon="11.7462783"><ele>756.0</ele><time>2026-04-07T13:31:35.726Z</time></trkpt><trkpt lat="43.8281033" lon="11.7462017"><ele>763.0</ele><time>2026-04-07T13:31:36.725Z</time></trkpt><trkpt lat="43.827945" lon="11.74608"><ele>770.0</ele><time>2026-04-07T13:31:37.727Z</time></trkpt><trkpt lat="43.8277817" lon="11.7458917"><ele>761.0</ele><time>2026-04-07T13:31:38.728Z</time></trkpt><trkpt lat="43.8276067" lon="11.7456617"><ele>752.0</ele><time>2026-04-07T13:31:39.725Z</time></trkpt><trkpt lat="43.8274383" lon="11.745465"><ele>752.0</ele><time>2026-04-07T13:31:40.731Z</time></trkpt><trkpt lat="43.8273083" lon="11.745295"><ele>752.0</ele><time>2026-04-07T13:31:41.726Z</time></trkpt><trkpt lat="43.82722" lon="11.7451233"><ele>752.0</ele><time>2026-04-07T13:31:42.726Z</time></trkpt><trkpt lat="43.8271733" lon="11.74495"><ele>744.5</ele><time>2026-04-07T13:31:43.731Z</time></trkpt><trkpt lat="43.82715" lon="11.7447567"><ele>737.0</ele><time>2026-04-07T13:31:44.728Z</time></trkpt><trkpt lat="43.8271383" lon="11.7445667"><ele>729.5</ele><time>2026-04-07T13:31:45.725Z</time></trkpt><trkpt lat="43.827115" lon="11.7444"><ele>722.0</ele><time>2026-04-07T13:31:46.73Z</time></trkpt><trkpt lat="43.8270667" lon="11.7442617"><ele>721.3333333333333</ele><time>2026-04-07T13:31:47.726Z</time></trkpt><trkpt lat="43.8269767" lon="11.744165"><ele>720.6666666666666</ele><time>2026-04-07T13:31:48.729Z</time></trkpt><trkpt lat="43.8268183" lon="11.7441217"><ele>720.0</ele><time>2026-04-07T13:31:49.734Z</time></trkpt><trkpt lat="43.8266267" lon="11.7441017"><ele>720.0</ele><time>2026-04-07T13:31:50.729Z</time></trkpt><trkpt lat="43.8264417" lon="11.7440783"><ele>720.0</ele><time>2026-04-07T13:31:51.73Z</time></trkpt><trkpt lat="43.82628" lon="11.744065"><ele>720.0</ele><time>2026-04-07T13:31:52.73Z</time></trkpt><trkpt lat="43.8261283" lon="11.744085"><ele>718.0</ele><time>2026-04-07T13:31:53.729Z</time></trkpt><trkpt lat="43.8259683" lon="11.74417"><ele>716.0</ele><time>2026-04-07T13:31:54.729Z</time></trkpt><trkpt lat="43.8258067" lon="11.7442967"><ele>714.0</ele><time>2026-04-07T13:31:55.726Z</time></trkpt><trkpt lat="43.8256367" lon="11.7444083"><ele>722.3333333333334</ele><time>2026-04-07T13:31:56.724Z</time></trkpt><trkpt lat="43.8254533" lon="11.7444667"><ele>730.6666666666667</ele><time>2026-04-07T13:31:57.725Z</time></trkpt><trkpt lat="43.8252633" lon="11.7444517"><ele>739.0</ele><time>2026-04-07T13:31:58.728Z</time></trkpt><trkpt lat="43.8250817" lon="11.7444167"><ele>739.0</ele><time>2026-04-07T13:31:59.725Z</time></trkpt><trkpt lat="43.8248933" lon="11.74441"><ele>739.0</ele><time>2026-04-07T13:32:00.725Z</time></trkpt><trkpt lat="43.8246967" lon="11.74443"><ele>739.0</ele><time>2026-04-07T13:32:01.727Z</time></trkpt><trkpt lat="43.8244967" lon="11.7445033"><ele>733.3333333333334</ele><time>2026-04-07T13:32:02.729Z</time></trkpt><trkpt lat="43.8243083" lon="11.7445983"><ele>727.6666666666666</ele><time>2026-04-07T13:32:03.725Z</time></trkpt><trkpt lat="43.8241283" lon="11.7446567"><ele>722.0</ele><time>2026-04-07T13:32:04.729Z</time></trkpt><trkpt lat="43.8239667" lon="11.7446733"><ele>722.0</ele><time>2026-04-07T13:32:05.727Z</time></trkpt><trkpt lat="43.8237867" lon="11.7446283"><ele>722.0</ele><time>2026-04-07T13:32:06.726Z</time></trkpt><trkpt lat="43.823625" lon="11.74452"><ele>722.0</ele><time>2026-04-07T13:32:07.728Z</time></trkpt><trkpt lat="43.8234983" lon="11.7443733"><ele>713.3333333333333</ele><time>2026-04-07T13:32:08.726Z</time></trkpt><trkpt lat="43.82341" lon="11.7441733"><ele>704.6666666666666</ele><time>2026-04-07T13:32:09.728Z</time></trkpt><trkpt lat="43.823395" lon="11.74392"><ele>696.0</ele><time>2026-04-07T13:32:10.731Z</time></trkpt><trkpt lat="43.8233883" lon="11.7436967"><ele>692.5</ele><time>2026-04-07T13:32:11.73Z</time></trkpt><trkpt lat="43.8233483" lon="11.7435117"><ele>689.0</ele><time>2026-04-07T13:32:12.729Z</time></trkpt><trkpt lat="43.8232733" lon="11.7433667"><ele>685.5</ele><time>2026-04-07T13:32:13.726Z</time></trkpt><trkpt lat="43.8231483" lon="11.743265"><ele>682.0</ele><time>2026-04-07T13:32:14.73Z</time></trkpt><trkpt lat="43.8229767" lon="11.7431867"><ele>682.0</ele><time>2026-04-07T13:32:15.73Z</time></trkpt><trkpt lat="43.8227867" lon="11.743115"><ele>682.0</ele><time>2026-04-07T13:32:16.731Z</time></trkpt><trkpt lat="43.822575" lon="11.7430367"><ele>682.0</ele><time>2026-04-07T13:32:17.729Z</time></trkpt><trkpt lat="43.8223667" lon="11.7429683"><ele>684.6666666666667</ele><time>2026-04-07T13:32:18.73Z</time></trkpt><trkpt lat="43.8221833" lon="11.74293"><ele>687.3333333333334</ele><time>2026-04-07T13:32:19.73Z</time></trkpt><trkpt lat="43.8220067" lon="11.7429267"><ele>690.0</ele><time>2026-04-07T13:32:20.73Z</time></trkpt><trkpt lat="43.8218317" lon="11.7429633"><ele>688.0</ele><time>2026-04-07T13:32:21.729Z</time></trkpt><trkpt lat="43.8216517" lon="11.743035"><ele>686.0</ele><time>2026-04-07T13:32:22.73Z</time></trkpt><trkpt lat="43.821475" lon="11.743125"><ele>684.0</ele><time>2026-04-07T13:32:23.729Z</time></trkpt><trkpt lat="43.8213067" lon="11.7432"><ele>684.0</ele><time>2026-04-07T13:32:24.729Z</time></trkpt><trkpt lat="43.8211433" lon="11.743245"><ele>684.0</ele><time>2026-04-07T13:32:25.731Z</time></trkpt><trkpt lat="43.820985" lon="11.743255"><ele>684.0</ele><time>2026-04-07T13:32:26.73Z</time></trkpt><trkpt lat="43.820815" lon="11.7432317"><ele>679.6666666666666</ele><time>2026-04-07T13:32:27.726Z</time></trkpt><trkpt lat="43.82065" lon="11.7431667"><ele>675.3333333333333</ele><time>2026-04-07T13:32:28.728Z</time></trkpt><trkpt lat="43.8204917" lon="11.7430617"><ele>671.0</ele><time>2026-04-07T13:32:29.726Z</time></trkpt><trkpt lat="43.82033" lon="11.7429367"><ele>671.0</ele><time>2026-04-07T13:32:30.726Z</time></trkpt><trkpt lat="43.8201633" lon="11.7428117"><ele>671.0</ele><time>2026-04-07T13:32:31.727Z</time></trkpt><trkpt lat="43.81999" lon="11.74269"><ele>671.0</ele><time>2026-04-07T13:32:32.731Z</time></trkpt><trkpt lat="43.8198133" lon="11.7425733"><ele>669.6666666666666</ele><time>2026-04-07T13:32:33.725Z</time></trkpt><trkpt lat="43.8196317" lon="11.7424617"><ele>668.3333333333334</ele><time>2026-04-07T13:32:34.726Z</time></trkpt><trkpt lat="43.81944" lon="11.74235"><ele>667.0</ele><time>2026-04-07T13:32:35.728Z</time></trkpt><trkpt lat="43.81925" lon="11.74224"><ele>667.0</ele><time>2026-04-07T13:32:36.727Z</time></trkpt><trkpt lat="43.8190633" lon="11.7421333"><ele>667.0</ele><time>2026-04-07T13:32:37.727Z</time></trkpt><trkpt lat="43.8188833" lon="11.7420317"><ele>667.0</ele><time>2026-04-07T13:32:38.727Z</time></trkpt><trkpt lat="43.8187133" lon="11.7419383"><ele>658.6666666666667</ele><time>2026-04-07T13:32:39.726Z</time></trkpt><trkpt lat="43.8185517" lon="11.7418583"><ele>650.3333333333334</ele><time>2026-04-07T13:32:40.73Z</time></trkpt><trkpt lat="43.8183933" lon="11.7418217"><ele>642.0</ele><time>2026-04-07T13:32:41.731Z</time></trkpt><trkpt lat="43.8182267" lon="11.7418283"><ele>642.0</ele><time>2026-04-07T13:32:42.731Z</time></trkpt><trkpt lat="43.8180767" lon="11.7418533"><ele>642.0</ele><time>2026-04-07T13:32:43.73Z</time></trkpt><trkpt lat="43.8179533" lon="11.7418617"><ele>642.0</ele><time>2026-04-07T13:32:44.729Z</time></trkpt><trkpt lat="43.8178567" lon="11.7418267"><ele>642.0</ele><time>2026-04-07T13:32:45.73Z</time></trkpt><trkpt lat="43.8177867" lon="11.7417467"><ele>642.0</ele><time>2026-04-07T13:32:46.729Z</time></trkpt><trkpt lat="43.8177733" lon="11.7416367"><ele>642.0</ele><time>2026-04-07T13:32:47.731Z</time></trkpt><trkpt lat="43.8177917" lon="11.74152"><ele>642.0</ele><time>2026-04-07T13:32:48.729Z</time></trkpt><trkpt lat="43.817865" lon="11.74144"><ele>642.0</ele><time>2026-04-07T13:32:49.73Z</time></trkpt><trkpt lat="43.8179683" lon="11.7414117"><ele>642.0</ele><time>2026-04-07T13:32:50.73Z</time></trkpt><trkpt lat="43.8180817" lon="11.74143"><ele>642.0</ele><time>2026-04-07T13:32:51.731Z</time></trkpt><trkpt lat="43.81822" lon="11.7414783"><ele>642.0</ele><time>2026-04-07T13:32:52.73Z</time></trkpt><trkpt lat="43.818375" lon="11.74154"><ele>642.0</ele><time>2026-04-07T13:32:53.731Z</time></trkpt><trkpt lat="43.8185433" lon="11.741605"><ele>639.6666666666666</ele><time>2026-04-07T13:32:54.73Z</time></trkpt><trkpt lat="43.8187167" lon="11.74166"><ele>637.3333333333333</ele><time>2026-04-07T13:32:55.73Z</time></trkpt><trkpt lat="43.8188967" lon="11.7417033"><ele>635.0</ele><time>2026-04-07T13:32:56.73Z</time></trkpt><trkpt lat="43.8190717" lon="11.741715"><ele>635.0</ele><time>2026-04-07T13:32:57.726Z</time></trkpt><trkpt lat="43.8192467" lon="11.7416783"><ele>635.0</ele><time>2026-04-07T13:32:58.726Z</time></trkpt><trkpt lat="43.819415" lon="11.7416183"><ele>635.0</ele><time>2026-04-07T13:32:59.727Z</time></trkpt><trkpt lat="43.8195783" lon="11.741575"><ele>633.3333333333333</ele><time>2026-04-07T13:33:00.727Z</time></trkpt><trkpt lat="43.8197317" lon="11.7415767"><ele>631.6666666666666</ele><time>2026-04-07T13:33:01.728Z</time></trkpt><trkpt lat="43.8198867" lon="11.74165"><ele>630.0</ele><time>2026-04-07T13:33:02.726Z</time></trkpt><trkpt lat="43.820035" lon="11.7417533"><ele>629.75</ele><time>2026-04-07T13:33:03.725Z</time></trkpt><trkpt lat="43.8201783" lon="11.741845"><ele>629.5</ele><time>2026-04-07T13:33:04.729Z</time></trkpt><trkpt lat="43.8203067" lon="11.7419"><ele>629.25</ele><time>2026-04-07T13:33:05.728Z</time></trkpt><trkpt lat="43.820425" lon="11.7419117"><ele>629.0</ele><time>2026-04-07T13:33:06.727Z</time></trkpt><trkpt lat="43.820545" lon="11.7418517"><ele>629.0</ele><time>2026-04-07T13:33:07.727Z</time></trkpt><trkpt lat="43.82066" lon="11.74174"><ele>629.0</ele><time>2026-04-07T13:33:08.726Z</time></trkpt><trkpt lat="43.820785" lon="11.74158"><ele>629.0</ele><time>2026-04-07T13:33:09.726Z</time></trkpt><trkpt lat="43.8209" lon="11.7414017"><ele>628.6</ele><time>2026-04-07T13:33:10.727Z</time></trkpt><trkpt lat="43.8210033" lon="11.7412517"><ele>628.2</ele><time>2026-04-07T13:33:11.727Z</time></trkpt><trkpt lat="43.8210767" lon="11.741125"><ele>627.8000000000001</ele><time>2026-04-07T13:33:12.726Z</time></trkpt><trkpt lat="43.82111" lon="11.7410133"><ele>627.4</ele><time>2026-04-07T13:33:13.726Z</time></trkpt><trkpt lat="43.821095" lon="11.7409"><ele>627.0</ele><time>2026-04-07T13:33:14.727Z</time></trkpt><trkpt lat="43.8210483" lon="11.7407933"><ele>627.0</ele><time>2026-04-07T13:33:15.73Z</time></trkpt><trkpt lat="43.820985" lon="11.7407167"><ele>627.0</ele><time>2026-04-07T13:33:16.729Z</time></trkpt><trkpt lat="43.8208667" lon="11.7406333"><ele>627.0</ele><time>2026-04-07T13:33:17.727Z</time></trkpt><trkpt lat="43.8206783" lon="11.7406017"><ele>627.0</ele><time>2026-04-07T13:33:18.728Z</time></trkpt><trkpt lat="43.82051" lon="11.7405467"><ele>624.3333333333334</ele><time>2026-04-07T13:33:19.726Z</time></trkpt><trkpt lat="43.820325" lon="11.7404767"><ele>621.6666666666667</ele><time>2026-04-07T13:33:20.731Z</time></trkpt><trkpt lat="43.8201317" lon="11.74035"><ele>619.0</ele><time>2026-04-07T13:33:21.727Z</time></trkpt><trkpt lat="43.8199583" lon="11.7401867"><ele>619.0</ele><time>2026-04-07T13:33:22.729Z</time></trkpt><trkpt lat="43.8197983" lon="11.7400033"><ele>619.0</ele><time>2026-04-07T13:33:23.729Z</time></trkpt><trkpt lat="43.8196483" lon="11.7398167"><ele>619.0</ele><time>2026-04-07T13:33:24.729Z</time></trkpt><trkpt lat="43.81951" lon="11.7396483"><ele>619.0</ele><time>2026-04-07T13:33:25.73Z</time></trkpt><trkpt lat="43.8193583" lon="11.73953"><ele>619.0</ele><time>2026-04-07T13:33:26.729Z</time></trkpt><trkpt lat="43.8192017" lon="11.7394717"><ele>619.0</ele><time>2026-04-07T13:33:27.728Z</time></trkpt><trkpt lat="43.81903" lon="11.7394683"><ele>614.3333333333334</ele><time>2026-04-07T13:33:28.726Z</time></trkpt><trkpt lat="43.8188467" lon="11.73947"><ele>609.6666666666666</ele><time>2026-04-07T13:33:29.731Z</time></trkpt><trkpt lat="43.81865" lon="11.7394567"><ele>605.0</ele><time>2026-04-07T13:33:30.726Z</time></trkpt><trkpt lat="43.818465" lon="11.739415"><ele>609.0</ele><time>2026-04-07T13:33:31.727Z</time></trkpt><trkpt lat="43.8183133" lon="11.73935"><ele>613.0</ele><time>2026-04-07T13:33:32.728Z</time></trkpt><trkpt lat="43.818185" lon="11.739255"><ele>617.0</ele><time>2026-04-07T13:33:33.726Z</time></trkpt><trkpt lat="43.81806" lon="11.7391183"><ele>617.0</ele><time>2026-04-07T13:33:34.726Z</time></trkpt><trkpt lat="43.8179267" lon="11.738975"><ele>617.0</ele><time>2026-04-07T13:33:35.726Z</time></trkpt><trkpt lat="43.8177683" lon="11.73886"><ele>617.0</ele><time>2026-04-07T13:33:36.727Z</time></trkpt><trkpt lat="43.817585" lon="11.7387717"><ele>611.0</ele><time>2026-04-07T13:33:37.727Z</time></trkpt><trkpt lat="43.817395" lon="11.7387067"><ele>605.0</ele><time>2026-04-07T13:33:38.726Z</time></trkpt><trkpt lat="43.8172233" lon="11.7386583"><ele>599.0</ele><time>2026-04-07T13:33:39.726Z</time></trkpt><trkpt lat="43.817085" lon="11.7386167"><ele>599.0</ele><time>2026-04-07T13:33:40.73Z</time></trkpt><trkpt lat="43.8169867" lon="11.7385517"><ele>599.0</ele><time>2026-04-07T13:33:41.729Z</time></trkpt><trkpt lat="43.8169283" lon="11.7384517"><ele>599.0</ele><time>2026-04-07T13:33:42.728Z</time></trkpt><trkpt lat="43.8169" lon="11.7383133"><ele>599.0</ele><time>2026-04-07T13:33:43.73Z</time></trkpt><trkpt lat="43.8169183" lon="11.738135"><ele>599.0</ele><time>2026-04-07T13:33:44.729Z</time></trkpt><trkpt lat="43.8169533" lon="11.73793"><ele>608.0</ele><time>2026-04-07T13:33:45.73Z</time></trkpt><trkpt lat="43.8169817" lon="11.737705"><ele>617.0</ele><time>2026-04-07T13:33:46.727Z</time></trkpt><trkpt lat="43.8169867" lon="11.7374633"><ele>626.0</ele><time>2026-04-07T13:33:47.727Z</time></trkpt><trkpt lat="43.816975" lon="11.7371967"><ele>626.0</ele><time>2026-04-07T13:33:48.727Z</time></trkpt><trkpt lat="43.8169867" lon="11.736915"><ele>626.0</ele><time>2026-04-07T13:33:49.727Z</time></trkpt><trkpt lat="43.8170083" lon="11.73663"><ele>626.0</ele><time>2026-04-07T13:33:50.727Z</time></trkpt><trkpt lat="43.81704" lon="11.73636"><ele>622.3333333333333</ele><time>2026-04-07T13:33:51.726Z</time></trkpt><trkpt lat="43.81708" lon="11.7361183"><ele>618.6666666666666</ele><time>2026-04-07T13:33:52.727Z</time></trkpt><trkpt lat="43.8171317" lon="11.7359067"><ele>615.0</ele><time>2026-04-07T13:33:53.731Z</time></trkpt><trkpt lat="43.8171833" lon="11.7357167"><ele>614.5</ele><time>2026-04-07T13:33:54.73Z</time></trkpt><trkpt lat="43.8172083" lon="11.735525"><ele>614.0</ele><time>2026-04-07T13:33:55.731Z</time></trkpt><trkpt lat="43.817195" lon="11.73533"><ele>613.5</ele><time>2026-04-07T13:33:56.73Z</time></trkpt><trkpt lat="43.8171633" lon="11.7351417"><ele>613.0</ele><time>2026-04-07T13:33:57.728Z</time></trkpt><trkpt lat="43.817145" lon="11.7349583"><ele>613.0</ele><time>2026-04-07T13:33:58.726Z</time></trkpt><trkpt lat="43.8171483" lon="11.734775"><ele>613.0</ele><time>2026-04-07T13:33:59.727Z</time></trkpt><trkpt lat="43.8171767" lon="11.7345867"><ele>613.0</ele><time>2026-04-07T13:34:00.727Z</time></trkpt><trkpt lat="43.8172183" lon="11.7343867"><ele>613.0</ele><time>2026-04-07T13:34:01.727Z</time></trkpt><trkpt lat="43.8172617" lon="11.7341833"><ele>611.0</ele><time>2026-04-07T13:34:02.726Z</time></trkpt><trkpt lat="43.8173117" lon="11.733985"><ele>609.0</ele><time>2026-04-07T13:34:03.727Z</time></trkpt><trkpt lat="43.8173533" lon="11.7337883"><ele>607.0</ele><time>2026-04-07T13:34:04.727Z</time></trkpt><trkpt lat="43.8173633" lon="11.7335767"><ele>604.0</ele><time>2026-04-07T13:34:05.728Z</time></trkpt><trkpt lat="43.81735" lon="11.7333467"><ele>601.0</ele><time>2026-04-07T13:34:06.726Z</time></trkpt><trkpt lat="43.8173283" lon="11.7330967"><ele>598.0</ele><time>2026-04-07T13:34:07.727Z</time></trkpt><trkpt lat="43.8173083" lon="11.7328317"><ele>597.6666666666667</ele><time>2026-04-07T13:34:08.728Z</time></trkpt><trkpt lat="43.8172983" lon="11.7325617"><ele>597.3333333333334</ele><time>2026-04-07T13:34:09.726Z</time></trkpt><trkpt lat="43.8173017" lon="11.7323083"><ele>597.0</ele><time>2026-04-07T13:34:10.73Z</time></trkpt><trkpt lat="43.8172967" lon="11.7320717"><ele>596.6666666666666</ele><time>2026-04-07T13:34:11.73Z</time></trkpt><trkpt lat="43.817275" lon="11.7318283"><ele>596.3333333333333</ele><time>2026-04-07T13:34:12.73Z</time></trkpt><trkpt lat="43.8172433" lon="11.7315817"><ele>596.0</ele><time>2026-04-07T13:34:13.731Z</time></trkpt><trkpt lat="43.81721" lon="11.7313383"><ele>596.0</ele><time>2026-04-07T13:34:14.731Z</time></trkpt><trkpt lat="43.817175" lon="11.73111"><ele>596.0</ele><time>2026-04-07T13:34:15.729Z</time></trkpt><trkpt lat="43.81712" lon="11.7308933"><ele>596.0</ele><time>2026-04-07T13:34:16.727Z</time></trkpt><trkpt lat="43.817035" lon="11.7306883"><ele>597.0</ele><time>2026-04-07T13:34:17.728Z</time></trkpt><trkpt lat="43.81692" lon="11.7304917"><ele>598.0</ele><time>2026-04-07T13:34:18.726Z</time></trkpt><trkpt lat="43.816795" lon="11.730305"><ele>599.0</ele><time>2026-04-07T13:34:19.726Z</time></trkpt><trkpt lat="43.81667" lon="11.7301067"><ele>590.0</ele><time>2026-04-07T13:34:20.728Z</time></trkpt><trkpt lat="43.8165583" lon="11.72989"><ele>581.0</ele><time>2026-04-07T13:34:21.727Z</time></trkpt><trkpt lat="43.816465" lon="11.72965"><ele>572.0</ele><time>2026-04-07T13:34:22.726Z</time></trkpt><trkpt lat="43.8163833" lon="11.7294117"><ele>575.3333333333333</ele><time>2026-04-07T13:34:23.734Z</time></trkpt><trkpt lat="43.8163017" lon="11.7291767"><ele>578.6666666666666</ele><time>2026-04-07T13:34:24.731Z</time></trkpt><trkpt lat="43.8162217" lon="11.7289433"><ele>582.0</ele><time>2026-04-07T13:34:25.73Z</time></trkpt><trkpt lat="43.8161467" lon="11.7287133"><ele>584.6666666666666</ele><time>2026-04-07T13:34:26.73Z</time></trkpt><trkpt lat="43.8160767" lon="11.72848"><ele>587.3333333333333</ele><time>2026-04-07T13:34:27.727Z</time></trkpt><trkpt lat="43.8160067" lon="11.7282483"><ele>590.0</ele><time>2026-04-07T13:34:28.726Z</time></trkpt><trkpt lat="43.8159383" lon="11.7280217"><ele>582.0</ele><time>2026-04-07T13:34:29.727Z</time></trkpt><trkpt lat="43.8158733" lon="11.7278017"><ele>574.0</ele><time>2026-04-07T13:34:30.726Z</time></trkpt><trkpt lat="43.8158183" lon="11.7275883"><ele>566.0</ele><time>2026-04-07T13:34:31.726Z</time></trkpt><trkpt lat="43.8157867" lon="11.7273767"><ele>566.0</ele><time>2026-04-07T13:34:32.727Z</time></trkpt><trkpt lat="43.815775" lon="11.7271733"><ele>566.0</ele><time>2026-04-07T13:34:33.726Z</time></trkpt><trkpt lat="43.8157583" lon="11.7269933"><ele>566.0</ele><time>2026-04-07T13:34:34.728Z</time></trkpt><trkpt lat="43.8157033" lon="11.7268317"><ele>566.0</ele><time>2026-04-07T13:34:35.727Z</time></trkpt><trkpt lat="43.8156083" lon="11.72669"><ele>565.25</ele><time>2026-04-07T13:34:36.725Z</time></trkpt><trkpt lat="43.81549" lon="11.726575"><ele>564.5</ele><time>2026-04-07T13:34:37.726Z</time></trkpt><trkpt lat="43.81538" lon="11.7264617"><ele>563.75</ele><time>2026-04-07T13:34:38.728Z</time></trkpt><trkpt lat="43.8152917" lon="11.7263267"><ele>563.0</ele><time>2026-04-07T13:34:39.727Z</time></trkpt><trkpt lat="43.8152533" lon="11.7261483"><ele>563.75</ele><time>2026-04-07T13:34:40.731Z</time></trkpt><trkpt lat="43.8152783" lon="11.72595"><ele>564.5</ele><time>2026-04-07T13:34:41.731Z</time></trkpt><trkpt lat="43.8153267" lon="11.725745"><ele>565.25</ele><time>2026-04-07T13:34:42.73Z</time></trkpt><trkpt lat="43.8153583" lon="11.7255467"><ele>566.0</ele><time>2026-04-07T13:34:43.731Z</time></trkpt><trkpt lat="43.81535" lon="11.7253233"><ele>568.6666666666666</ele><time>2026-04-07T13:34:44.73Z</time></trkpt><trkpt lat="43.8153033" lon="11.725085"><ele>571.3333333333334</ele><time>2026-04-07T13:34:45.731Z</time></trkpt><trkpt lat="43.8152267" lon="11.72484"><ele>574.0</ele><time>2026-04-07T13:34:46.726Z</time></trkpt><trkpt lat="43.8151267" lon="11.7245967"><ele>566.3333333333334</ele><time>2026-04-07T13:34:47.726Z</time></trkpt><trkpt lat="43.815005" lon="11.7243583"><ele>558.6666666666666</ele><time>2026-04-07T13:34:48.727Z</time></trkpt><trkpt lat="43.8148833" lon="11.724125"><ele>551.0</ele><time>2026-04-07T13:34:49.727Z</time></trkpt><trkpt lat="43.8147617" lon="11.7239117"><ele>551.0</ele><time>2026-04-07T13:34:50.726Z</time></trkpt><trkpt lat="43.814645" lon="11.7237367"><ele>551.0</ele><time>2026-04-07T13:34:51.727Z</time></trkpt><trkpt lat="43.8145467" lon="11.72358"><ele>551.0</ele><time>2026-04-07T13:34:52.726Z</time></trkpt><trkpt lat="43.8144717" lon="11.7234233"><ele>551.6666666666666</ele><time>2026-04-07T13:34:53.731Z</time></trkpt><trkpt lat="43.81443" lon="11.7232233"><ele>552.3333333333334</ele><time>2026-04-07T13:34:54.73Z</time></trkpt><trkpt lat="43.8144267" lon="11.7229917"><ele>553.0</ele><time>2026-04-07T13:34:55.731Z</time></trkpt><trkpt lat="43.81442" lon="11.7227417"><ele>548.3333333333334</ele><time>2026-04-07T13:34:56.729Z</time></trkpt><trkpt lat="43.8143917" lon="11.722475"><ele>543.6666666666666</ele><time>2026-04-07T13:34:57.727Z</time></trkpt><trkpt lat="43.81434" lon="11.7222"><ele>539.0</ele><time>2026-04-07T13:34:58.727Z</time></trkpt><trkpt lat="43.8142767" lon="11.7219267"><ele>535.0</ele><time>2026-04-07T13:34:59.726Z</time></trkpt><trkpt lat="43.8142083" lon="11.721685"><ele>531.0</ele><time>2026-04-07T13:35:00.726Z</time></trkpt><trkpt lat="43.814125" lon="11.7214767"><ele>527.0</ele><time>2026-04-07T13:35:01.727Z</time></trkpt><trkpt lat="43.814" lon="11.7212967"><ele>527.0</ele><time>2026-04-07T13:35:02.726Z</time></trkpt><trkpt lat="43.8138433" lon="11.721145"><ele>527.0</ele><time>2026-04-07T13:35:03.727Z</time></trkpt><trkpt lat="43.8136917" lon="11.7210117"><ele>527.0</ele><time>2026-04-07T13:35:04.727Z</time></trkpt><trkpt lat="43.81358" lon="11.7208667"><ele>528.6666666666666</ele><time>2026-04-07T13:35:05.73Z</time></trkpt><trkpt lat="43.8135067" lon="11.7206917"><ele>530.3333333333334</ele><time>2026-04-07T13:35:06.73Z</time></trkpt><trkpt lat="43.8134833" lon="11.72049"><ele>532.0</ele><time>2026-04-07T13:35:07.731Z</time></trkpt><trkpt lat="43.8134883" lon="11.7202517"><ele>537.3333333333334</ele><time>2026-04-07T13:35:08.726Z</time></trkpt><trkpt lat="43.81351" lon="11.7200017"><ele>542.6666666666666</ele><time>2026-04-07T13:35:09.731Z</time></trkpt><trkpt lat="43.8135517" lon="11.7197667"><ele>548.0</ele><time>2026-04-07T13:35:10.729Z</time></trkpt><trkpt lat="43.8136217" lon="11.7195517"><ele>542.3333333333333</ele><time>2026-04-07T13:35:11.731Z</time></trkpt><trkpt lat="43.8137267" lon="11.7193483"><ele>536.6666666666666</ele><time>2026-04-07T13:35:12.731Z</time></trkpt><trkpt lat="43.8138617" lon="11.7191483"><ele>531.0</ele><time>2026-04-07T13:35:13.731Z</time></trkpt><trkpt lat="43.813995" lon="11.718925"><ele>531.0</ele><time>2026-04-07T13:35:14.73Z</time></trkpt><trkpt lat="43.8141183" lon="11.7186683"><ele>531.0</ele><time>2026-04-07T13:35:15.731Z</time></trkpt><trkpt lat="43.8142233" lon="11.718395"><ele>531.0</ele><time>2026-04-07T13:35:16.726Z</time></trkpt><trkpt lat="43.8143283" lon="11.718125"><ele>532.6666666666666</ele><time>2026-04-07T13:35:17.728Z</time></trkpt><trkpt lat="43.814425" lon="11.71787"><ele>534.3333333333333</ele><time>2026-04-07T13:35:18.727Z</time></trkpt><trkpt lat="43.8145183" lon="11.7176317"><ele>536.0</ele><time>2026-04-07T13:35:19.726Z</time></trkpt><trkpt lat="43.81461" lon="11.7174033"><ele>536.0</ele><time>2026-04-07T13:35:20.728Z</time></trkpt><trkpt lat="43.8146867" lon="11.7171783"><ele>536.0</ele><time>2026-04-07T13:35:21.726Z</time></trkpt><trkpt lat="43.814755" lon="11.7169567"><ele>536.0</ele><time>2026-04-07T13:35:22.727Z</time></trkpt><trkpt lat="43.81482" lon="11.7167383"><ele>532.3333333333333</ele><time>2026-04-07T13:35:23.731Z</time></trkpt><trkpt lat="43.8148783" lon="11.7165283"><ele>528.6666666666666</ele><time>2026-04-07T13:35:24.73Z</time></trkpt><trkpt lat="43.814935" lon="11.71633"><ele>525.0</ele><time>2026-04-07T13:35:25.731Z</time></trkpt><trkpt lat="43.8149733" lon="11.716145"><ele>524.0</ele><time>2026-04-07T13:35:26.729Z</time></trkpt><trkpt lat="43.8149767" lon="11.715965"><ele>523.0</ele><time>2026-04-07T13:35:27.726Z</time></trkpt><trkpt lat="43.8149433" lon="11.715795"><ele>522.0</ele><time>2026-04-07T13:35:28.726Z</time></trkpt><trkpt lat="43.81488" lon="11.7156367"><ele>521.0</ele><time>2026-04-07T13:35:29.727Z</time></trkpt><trkpt lat="43.8148017" lon="11.7154767"><ele>521.0</ele><time>2026-04-07T13:35:30.726Z</time></trkpt><trkpt lat="43.814725" lon="11.7153067"><ele>521.0</ele><time>2026-04-07T13:35:31.726Z</time></trkpt><trkpt lat="43.81465" lon="11.7151317"><ele>521.0</ele><time>2026-04-07T13:35:32.726Z</time></trkpt><trkpt lat="43.8145717" lon="11.714955"><ele>521.0</ele><time>2026-04-07T13:35:33.726Z</time></trkpt><trkpt lat="43.81449" lon="11.7147783"><ele>522.0</ele><time>2026-04-07T13:35:34.726Z</time></trkpt><trkpt lat="43.8144083" lon="11.7146017"><ele>523.0</ele><time>2026-04-07T13:35:35.727Z</time></trkpt><trkpt lat="43.8143217" lon="11.7144417"><ele>524.0</ele><time>2026-04-07T13:35:36.726Z</time></trkpt><trkpt lat="43.8142183" lon="11.7143117"><ele>525.0</ele><time>2026-04-07T13:35:37.727Z</time></trkpt><trkpt lat="43.814095" lon="11.7142133"><ele>520.5</ele><time>2026-04-07T13:35:38.726Z</time></trkpt><trkpt lat="43.813965" lon="11.714125"><ele>516.0</ele><time>2026-04-07T13:35:39.726Z</time></trkpt><trkpt lat="43.8138417" lon="11.7140167"><ele>511.5</ele><time>2026-04-07T13:35:40.731Z</time></trkpt><trkpt lat="43.813725" lon="11.7138783"><ele>507.0</ele><time>2026-04-07T13:35:41.73Z</time></trkpt><trkpt lat="43.813615" lon="11.7137167"><ele>503.66666666666663</ele><time>2026-04-07T13:35:42.73Z</time></trkpt><trkpt lat="43.8135183" lon="11.7135383"><ele>500.3333333333333</ele><time>2026-04-07T13:35:43.731Z</time></trkpt><trkpt lat="43.8134367" lon="11.71335"><ele>497.0</ele><time>2026-04-07T13:35:44.731Z</time></trkpt><trkpt lat="43.8133583" lon="11.7131633"><ele>497.0</ele><time>2026-04-07T13:35:45.731Z</time></trkpt><trkpt lat="43.8132717" lon="11.712995"><ele>497.0</ele><time>2026-04-07T13:35:46.729Z</time></trkpt><trkpt lat="43.8131583" lon="11.7128483"><ele>497.0</ele><time>2026-04-07T13:35:47.729Z</time></trkpt><trkpt lat="43.813025" lon="11.7127267"><ele>496.66666666666663</ele><time>2026-04-07T13:35:48.73Z</time></trkpt><trkpt lat="43.8128817" lon="11.7126233"><ele>496.33333333333337</ele><time>2026-04-07T13:35:49.73Z</time></trkpt><trkpt lat="43.8127367" lon="11.7125333"><ele>496.0</ele><time>2026-04-07T13:35:50.73Z</time></trkpt><trkpt lat="43.8125983" lon="11.7124483"><ele>496.0</ele><time>2026-04-07T13:35:51.73Z</time></trkpt><trkpt lat="43.8124817" lon="11.71235"><ele>496.0</ele><time>2026-04-07T13:35:52.73Z</time></trkpt><trkpt lat="43.81238" lon="11.7122417"><ele>496.0</ele><time>2026-04-07T13:35:53.73Z</time></trkpt><trkpt lat="43.81229" lon="11.7121183"><ele>496.0</ele><time>2026-04-07T13:35:54.729Z</time></trkpt><trkpt lat="43.812205" lon="11.7119917"><ele>497.0</ele><time>2026-04-07T13:35:55.727Z</time></trkpt><trkpt lat="43.8121267" lon="11.7118633"><ele>498.0</ele><time>2026-04-07T13:35:56.73Z</time></trkpt><trkpt lat="43.812045" lon="11.7117417"><ele>499.0</ele><time>2026-04-07T13:35:57.728Z</time></trkpt><trkpt lat="43.8119567" lon="11.7116283"><ele>500.0</ele><time>2026-04-07T13:35:58.727Z</time></trkpt><trkpt lat="43.81186" lon="11.711515"><ele>497.25</ele><time>2026-04-07T13:35:59.726Z</time></trkpt><trkpt lat="43.8117617" lon="11.7113983"><ele>494.5</ele><time>2026-04-07T13:36:00.728Z</time></trkpt><trkpt lat="43.81166" lon="11.711285"><ele>491.75</ele><time>2026-04-07T13:36:01.727Z</time></trkpt><trkpt lat="43.81156" lon="11.711175"><ele>489.0</ele><time>2026-04-07T13:36:02.726Z</time></trkpt><trkpt lat="43.8114583" lon="11.7110783"><ele>491.25</ele><time>2026-04-07T13:36:03.726Z</time></trkpt><trkpt lat="43.8113517" lon="11.71101"><ele>493.5</ele><time>2026-04-07T13:36:04.727Z</time></trkpt><trkpt lat="43.8112333" lon="11.710985"><ele>495.75</ele><time>2026-04-07T13:36:05.727Z</time></trkpt><trkpt lat="43.8111117" lon="11.711"><ele>498.0</ele><time>2026-04-07T13:36:06.728Z</time></trkpt><trkpt lat="43.8109867" lon="11.7110217"><ele>498.0</ele><time>2026-04-07T13:36:07.728Z</time></trkpt><trkpt lat="43.8108617" lon="11.7110083"><ele>498.0</ele><time>2026-04-07T13:36:08.727Z</time></trkpt><trkpt lat="43.810745" lon="11.7109533"><ele>498.0</ele><time>2026-04-07T13:36:09.726Z</time></trkpt><trkpt lat="43.810635" lon="11.7108667"><ele>498.0</ele><time>2026-04-07T13:36:10.727Z</time></trkpt><trkpt lat="43.8105233" lon="11.7107733"><ele>498.0</ele><time>2026-04-07T13:36:11.73Z</time></trkpt><trkpt lat="43.8104033" lon="11.7106817"><ele>498.0</ele><time>2026-04-07T13:36:12.73Z</time></trkpt><trkpt lat="43.8102717" lon="11.7106167"><ele>498.0</ele><time>2026-04-07T13:36:13.731Z</time></trkpt><trkpt lat="43.81013" lon="11.7105767"><ele>498.0</ele><time>2026-04-07T13:36:14.73Z</time></trkpt><trkpt lat="43.8099817" lon="11.7105617"><ele>497.0</ele><time>2026-04-07T13:36:15.73Z</time></trkpt><trkpt lat="43.8098333" lon="11.7105567"><ele>496.0</ele><time>2026-04-07T13:36:16.731Z</time></trkpt><trkpt lat="43.8096833" lon="11.7105317"><ele>495.0</ele><time>2026-04-07T13:36:17.73Z</time></trkpt><trkpt lat="43.8095333" lon="11.7104833"><ele>495.0</ele><time>2026-04-07T13:36:18.73Z</time></trkpt><trkpt lat="43.80939" lon="11.7104017"><ele>495.0</ele><time>2026-04-07T13:36:19.73Z</time></trkpt><trkpt lat="43.80925" lon="11.7102817"><ele>495.0</ele><time>2026-04-07T13:36:20.731Z</time></trkpt><trkpt lat="43.8091167" lon="11.71016"><ele>494.33333333333337</ele><time>2026-04-07T13:36:21.731Z</time></trkpt><trkpt lat="43.808975" lon="11.7100533"><ele>493.6666666666667</ele><time>2026-04-07T13:36:22.73Z</time></trkpt><trkpt lat="43.8088167" lon="11.7099833"><ele>493.0</ele><time>2026-04-07T13:36:23.731Z</time></trkpt><trkpt lat="43.8086467" lon="11.7099417"><ele>491.0</ele><time>2026-04-07T13:36:24.731Z</time></trkpt><trkpt lat="43.808475" lon="11.7099083"><ele>489.0</ele><time>2026-04-07T13:36:25.731Z</time></trkpt><trkpt lat="43.8082983" lon="11.709865"><ele>487.0</ele><time>2026-04-07T13:36:26.731Z</time></trkpt><trkpt lat="43.808125" lon="11.7097983"><ele>487.0</ele><time>2026-04-07T13:36:27.726Z</time></trkpt><trkpt lat="43.8079533" lon="11.7097117"><ele>487.0</ele><time>2026-04-07T13:36:28.727Z</time></trkpt><trkpt lat="43.8077767" lon="11.7096167"><ele>487.0</ele><time>2026-04-07T13:36:29.727Z</time></trkpt><trkpt lat="43.8076017" lon="11.7095283"><ele>485.0</ele><time>2026-04-07T13:36:30.728Z</time></trkpt><trkpt lat="43.8074267" lon="11.7094533"><ele>483.0</ele><time>2026-04-07T13:36:31.727Z</time></trkpt><trkpt lat="43.8072583" lon="11.709375"><ele>481.0</ele><time>2026-04-07T13:36:32.727Z</time></trkpt><trkpt lat="43.8070933" lon="11.7092917"><ele>478.6666666666667</ele><time>2026-04-07T13:36:33.726Z</time></trkpt><trkpt lat="43.80693" lon="11.7091967"><ele>476.33333333333337</ele><time>2026-04-07T13:36:34.727Z</time></trkpt><trkpt lat="43.8067783" lon="11.7090767"><ele>474.0</ele><time>2026-04-07T13:36:35.727Z</time></trkpt><trkpt lat="43.8066467" lon="11.7089417"><ele>474.0</ele><time>2026-04-07T13:36:36.726Z</time></trkpt><trkpt lat="43.80653" lon="11.70879"><ele>474.0</ele><time>2026-04-07T13:36:37.726Z</time></trkpt><trkpt lat="43.80643" lon="11.7086317"><ele>474.0</ele><time>2026-04-07T13:36:38.727Z</time></trkpt><trkpt lat="43.8063467" lon="11.7084767"><ele>473.75</ele><time>2026-04-07T13:36:39.726Z</time></trkpt><trkpt lat="43.80626" lon="11.7083517"><ele>473.5</ele><time>2026-04-07T13:36:40.731Z</time></trkpt><trkpt lat="43.8061517" lon="11.7082683"><ele>473.25</ele><time>2026-04-07T13:36:41.73Z</time></trkpt><trkpt lat="43.80602" lon="11.708235"><ele>473.0</ele><time>2026-04-07T13:36:42.731Z</time></trkpt><trkpt lat="43.8058867" lon="11.70825"><ele>473.0</ele><time>2026-04-07T13:36:43.731Z</time></trkpt><trkpt lat="43.8057433" lon="11.7082933"><ele>473.0</ele><time>2026-04-07T13:36:44.73Z</time></trkpt><trkpt lat="43.8055917" lon="11.7083533"><ele>473.0</ele><time>2026-04-07T13:36:45.731Z</time></trkpt><trkpt lat="43.8054383" lon="11.7084167"><ele>473.0</ele><time>2026-04-07T13:36:46.731Z</time></trkpt><trkpt lat="43.8052867" lon="11.7084683"><ele>473.0</ele><time>2026-04-07T13:36:47.732Z</time></trkpt><trkpt lat="43.8051383" lon="11.7085083"><ele>473.0</ele><time>2026-04-07T13:36:48.73Z</time></trkpt><trkpt lat="43.8049917" lon="11.7085383"><ele>472.25</ele><time>2026-04-07T13:36:49.731Z</time></trkpt><trkpt lat="43.8048483" lon="11.7085633"><ele>471.5</ele><time>2026-04-07T13:36:50.734Z</time></trkpt><trkpt lat="43.80471" lon="11.7085833"><ele>470.75</ele><time>2026-04-07T13:36:51.73Z</time></trkpt><trkpt lat="43.80458" lon="11.7086067"><ele>470.0</ele><time>2026-04-07T13:36:52.729Z</time></trkpt><trkpt lat="43.80446" lon="11.708625"><ele>469.66666666666663</ele><time>2026-04-07T13:36:53.73Z</time></trkpt><trkpt lat="43.804355" lon="11.7086367"><ele>469.3333333333333</ele><time>2026-04-07T13:36:54.731Z</time></trkpt><trkpt lat="43.8042633" lon="11.7086317"><ele>469.0</ele><time>2026-04-07T13:36:55.731Z</time></trkpt><trkpt lat="43.8041867" lon="11.7085967"><ele>468.66666666666663</ele><time>2026-04-07T13:36:56.731Z</time></trkpt><trkpt lat="43.804125" lon="11.708545"><ele>468.3333333333333</ele><time>2026-04-07T13:36:57.727Z</time></trkpt><trkpt lat="43.80408" lon="11.7084533"><ele>468.0</ele><time>2026-04-07T13:36:58.726Z</time></trkpt><trkpt lat="43.8040383" lon="11.7083433"><ele>468.0</ele><time>2026-04-07T13:36:59.728Z</time></trkpt><trkpt lat="43.8039933" lon="11.70821"><ele>468.0</ele><time>2026-04-07T13:37:00.726Z</time></trkpt><trkpt lat="43.8039233" lon="11.708085"><ele>468.0</ele><time>2026-04-07T13:37:01.727Z</time></trkpt><trkpt lat="43.8038317" lon="11.7079833"><ele>468.0</ele><time>2026-04-07T13:37:02.727Z</time></trkpt><trkpt lat="43.8037083" lon="11.7079183"><ele>468.0</ele><time>2026-04-07T13:37:03.726Z</time></trkpt><trkpt lat="43.803565" lon="11.707875"><ele>468.0</ele><time>2026-04-07T13:37:04.727Z</time></trkpt><trkpt lat="43.8034133" lon="11.70784"><ele>468.0</ele><time>2026-04-07T13:37:05.731Z</time></trkpt><trkpt lat="43.8032567" lon="11.7078183"><ele>469.0</ele><time>2026-04-07T13:37:06.727Z</time></trkpt><trkpt lat="43.803105" lon="11.7078017"><ele>470.0</ele><time>2026-04-07T13:37:07.727Z</time></trkpt><trkpt lat="43.8029717" lon="11.7077717"><ele>471.0</ele><time>2026-04-07T13:37:08.728Z</time></trkpt><trkpt lat="43.80286" lon="11.7077133"><ele>472.0</ele><time>2026-04-07T13:37:09.731Z</time></trkpt><trkpt lat="43.8027683" lon="11.7076233"><ele>472.0</ele><time>2026-04-07T13:37:10.73Z</time></trkpt><trkpt lat="43.8026967" lon="11.7074983"><ele>472.0</ele><time>2026-04-07T13:37:11.731Z</time></trkpt><trkpt lat="43.8026367" lon="11.7073567"><ele>472.0</ele><time>2026-04-07T13:37:12.731Z</time></trkpt><trkpt lat="43.8025733" lon="11.70721"><ele>472.0</ele><time>2026-04-07T13:37:13.73Z</time></trkpt><trkpt lat="43.80251" lon="11.7070683"><ele>472.0</ele><time>2026-04-07T13:37:14.732Z</time></trkpt><trkpt lat="43.8024483" lon="11.70693"><ele>472.0</ele><time>2026-04-07T13:37:15.73Z</time></trkpt><trkpt lat="43.8023767" lon="11.7067933"><ele>472.0</ele><time>2026-04-07T13:37:16.726Z</time></trkpt><trkpt lat="43.802295" lon="11.7066683"><ele>472.0</ele><time>2026-04-07T13:37:17.726Z</time></trkpt><trkpt lat="43.8021983" lon="11.7065583"><ele>472.0</ele><time>2026-04-07T13:37:18.727Z</time></trkpt><trkpt lat="43.8021033" lon="11.7064567"><ele>472.00000000000006</ele><time>2026-04-07T13:37:19.728Z</time></trkpt><trkpt lat="43.802025" lon="11.70635"><ele>472.00000000000006</ele><time>2026-04-07T13:37:20.726Z</time></trkpt><trkpt lat="43.801985" lon="11.7062233"><ele>472.0</ele><time>2026-04-07T13:37:21.726Z</time></trkpt><trkpt lat="43.8019933" lon="11.7061033"><ele>472.0</ele><time>2026-04-07T13:37:22.728Z</time></trkpt><trkpt lat="43.8020117" lon="11.705985"><ele>472.75</ele><time>2026-04-07T13:37:23.729Z</time></trkpt><trkpt lat="43.8020717" lon="11.7058567"><ele>473.5</ele><time>2026-04-07T13:37:24.731Z</time></trkpt><trkpt lat="43.8021683" lon="11.7057217"><ele>474.25</ele><time>2026-04-07T13:37:25.73Z</time></trkpt><trkpt lat="43.8022767" lon="11.70558"><ele>475.0</ele><time>2026-04-07T13:37:26.731Z</time></trkpt><trkpt lat="43.8023883" lon="11.70544"><ele>475.0</ele><time>2026-04-07T13:37:27.728Z</time></trkpt><trkpt lat="43.8025" lon="11.7053083"><ele>475.0</ele><time>2026-04-07T13:37:28.727Z</time></trkpt><trkpt lat="43.8026117" lon="11.7051833"><ele>475.0</ele><time>2026-04-07T13:37:29.727Z</time></trkpt><trkpt lat="43.802725" lon="11.7050617"><ele>475.0</ele><time>2026-04-07T13:37:30.727Z</time></trkpt><trkpt lat="43.8028367" lon="11.704945"><ele>475.4</ele><time>2026-04-07T13:37:31.727Z</time></trkpt><trkpt lat="43.8029467" lon="11.7048383"><ele>475.8</ele><time>2026-04-07T13:37:32.726Z</time></trkpt><trkpt lat="43.803045" lon="11.7047417"><ele>476.20000000000005</ele><time>2026-04-07T13:37:33.725Z</time></trkpt><trkpt lat="43.8031367" lon="11.7046633"><ele>476.6</ele><time>2026-04-07T13:37:34.728Z</time></trkpt><trkpt lat="43.8032017" lon="11.7046"><ele>477.0</ele><time>2026-04-07T13:37:35.727Z</time></trkpt><trkpt lat="43.8032567" lon="11.704515"><ele>477.0</ele><time>2026-04-07T13:37:37.727Z</time></trkpt><trkpt lat="43.80315" lon="11.7045267"><ele>477.00000000000006</ele><time>2026-04-07T13:37:40.731Z</time></trkpt><trkpt lat="43.8030967" lon="11.7045767"><ele>477.00000000000006</ele><time>2026-04-07T13:37:41.73Z</time></trkpt><trkpt lat="43.8030367" lon="11.704645"><ele>477.0</ele><time>2026-04-07T13:37:42.729Z</time></trkpt><trkpt lat="43.8029567" lon="11.70472"><ele>477.0</ele><time>2026-04-07T13:37:43.731Z</time></trkpt><trkpt lat="43.8028567" lon="11.7047683"><ele>477.0</ele><time>2026-04-07T13:37:44.731Z</time></trkpt><trkpt lat="43.8027317" lon="11.7048"><ele>477.0</ele><time>2026-04-07T13:37:45.73Z</time></trkpt><trkpt lat="43.80261" lon="11.7048433"><ele>477.0</ele><time>2026-04-07T13:37:46.73Z</time></trkpt><trkpt lat="43.8025017" lon="11.7049083"><ele>477.0</ele><time>2026-04-07T13:37:47.73Z</time></trkpt><trkpt lat="43.8023967" lon="11.70498"><ele>476.5</ele><time>2026-04-07T13:37:48.73Z</time></trkpt><trkpt lat="43.8022933" lon="11.7050683"><ele>476.0</ele><time>2026-04-07T13:37:49.728Z</time></trkpt><trkpt lat="43.8022033" lon="11.705185"><ele>475.5</ele><time>2026-04-07T13:37:50.732Z</time></trkpt><trkpt lat="43.8021267" lon="11.7053117"><ele>475.0</ele><time>2026-04-07T13:37:51.731Z</time></trkpt><trkpt lat="43.8020467" lon="11.7054317"><ele>475.0</ele><time>2026-04-07T13:37:52.73Z</time></trkpt><trkpt lat="43.80196" lon="11.7055317"><ele>475.0</ele><time>2026-04-07T13:37:53.731Z</time></trkpt><trkpt lat="43.8018767" lon="11.7055967"><ele>475.0</ele><time>2026-04-07T13:37:54.731Z</time></trkpt><trkpt lat="43.80179" lon="11.7056367"><ele>475.0</ele><time>2026-04-07T13:37:55.732Z</time></trkpt><trkpt lat="43.8016983" lon="11.7056667"><ele>475.0</ele><time>2026-04-07T13:37:56.731Z</time></trkpt><trkpt lat="43.8016067" lon="11.7056983"><ele>471.33333333333337</ele><time>2026-04-07T13:37:57.73Z</time></trkpt><trkpt lat="43.8015283" lon="11.70575"><ele>467.6666666666667</ele><time>2026-04-07T13:37:58.731Z</time></trkpt><trkpt lat="43.801455" lon="11.7058167"><ele>464.0</ele><time>2026-04-07T13:37:59.726Z</time></trkpt><trkpt lat="43.8013967" lon="11.7059017"><ele>460.33333333333337</ele><time>2026-04-07T13:38:00.727Z</time></trkpt><trkpt lat="43.8013383" lon="11.7059767"><ele>456.6666666666667</ele><time>2026-04-07T13:38:01.727Z</time></trkpt><trkpt lat="43.80127" lon="11.7060333"><ele>453.0</ele><time>2026-04-07T13:38:02.73Z</time></trkpt><trkpt lat="43.801205" lon="11.706045"><ele>453.0</ele><time>2026-04-07T13:38:03.729Z</time></trkpt><trkpt lat="43.8011283" lon="11.7059817"><ele>453.0</ele><time>2026-04-07T13:38:04.727Z</time></trkpt><trkpt lat="43.801045" lon="11.7059383"><ele>453.0</ele><time>2026-04-07T13:38:05.731Z</time></trkpt><trkpt lat="43.8009633" lon="11.7059067"><ele>453.0</ele><time>2026-04-07T13:38:06.727Z</time></trkpt><trkpt lat="43.8008883" lon="11.70589"><ele>453.0</ele><time>2026-04-07T13:38:07.726Z</time></trkpt><trkpt lat="43.800815" lon="11.7058733"><ele>453.0</ele><time>2026-04-07T13:38:08.728Z</time></trkpt><trkpt lat="43.800745" lon="11.7058617"><ele>451.6666666666667</ele><time>2026-04-07T13:38:09.727Z</time></trkpt><trkpt lat="43.8006367" lon="11.7058483"><ele>450.33333333333337</ele><time>2026-04-07T13:38:11.729Z</time></trkpt><trkpt lat="43.800575" lon="11.7058083"><ele>449.0</ele><time>2026-04-07T13:38:13.731Z</time></trkpt><trkpt lat="43.80055" lon="11.7057233"><ele>447.6666666666667</ele><time>2026-04-07T13:38:15.731Z</time></trkpt><trkpt lat="43.800545" lon="11.7055667"><ele>446.33333333333337</ele><time>2026-04-07T13:38:17.731Z</time></trkpt><trkpt lat="43.8005417" lon="11.705465"><ele>445.0</ele><time>2026-04-07T13:38:18.731Z</time></trkpt><trkpt lat="43.8005383" lon="11.7053583"><ele>444.6666666666667</ele><time>2026-04-07T13:38:19.731Z</time></trkpt><trkpt lat="43.8005333" lon="11.7052433"><ele>444.33333333333337</ele><time>2026-04-07T13:38:20.729Z</time></trkpt><trkpt lat="43.8005183" lon="11.7051283"><ele>444.0</ele><time>2026-04-07T13:38:21.729Z</time></trkpt><trkpt lat="43.8004967" lon="11.705025"><ele>443.66666666666663</ele><time>2026-04-07T13:38:22.73Z</time></trkpt><trkpt lat="43.80046" lon="11.7049367"><ele>443.3333333333333</ele><time>2026-04-07T13:38:23.73Z</time></trkpt><trkpt lat="43.8004033" lon="11.7048867"><ele>443.0</ele><time>2026-04-07T13:38:24.726Z</time></trkpt><trkpt lat="43.800335" lon="11.7048633"><ele>443.0</ele><time>2026-04-07T13:38:25.727Z</time></trkpt><trkpt lat="43.8002333" lon="11.7048667"><ele>442.99999999999994</ele><time>2026-04-07T13:38:26.731Z</time></trkpt><trkpt lat="43.8001383" lon="11.7048683"><ele>442.99999999999994</ele><time>2026-04-07T13:38:27.727Z</time></trkpt><trkpt lat="43.80003" lon="11.704885"><ele>443.0</ele><time>2026-04-07T13:38:28.728Z</time></trkpt><trkpt lat="43.7999067" lon="11.7048983"><ele>443.0</ele><time>2026-04-07T13:38:29.728Z</time></trkpt><trkpt lat="43.7997767" lon="11.7049167"><ele>444.66666666666663</ele><time>2026-04-07T13:38:30.726Z</time></trkpt><trkpt lat="43.799635" lon="11.7049417"><ele>446.33333333333337</ele><time>2026-04-07T13:38:31.726Z</time></trkpt><trkpt lat="43.7994833" lon="11.7049717"><ele>448.0</ele><time>2026-04-07T13:38:32.727Z</time></trkpt><trkpt lat="43.7993233" lon="11.7050133"><ele>449.33333333333337</ele><time>2026-04-07T13:38:33.732Z</time></trkpt><trkpt lat="43.7991633" lon="11.705055"><ele>450.66666666666663</ele><time>2026-04-07T13:38:34.727Z</time></trkpt><trkpt lat="43.7990067" lon="11.7050967"><ele>452.0</ele><time>2026-04-07T13:38:35.728Z</time></trkpt><trkpt lat="43.798845" lon="11.7051383"><ele>452.0</ele><time>2026-04-07T13:38:36.728Z</time></trkpt><trkpt lat="43.798685" lon="11.7051817"><ele>452.0</ele><time>2026-04-07T13:38:37.727Z</time></trkpt><trkpt lat="43.7985333" lon="11.70522"><ele>452.0</ele><time>2026-04-07T13:38:38.727Z</time></trkpt><trkpt lat="43.7983967" lon="11.7052517"><ele>451.40000000000003</ele><time>2026-04-07T13:38:39.726Z</time></trkpt><trkpt lat="43.7982783" lon="11.705265"><ele>450.80000000000007</ele><time>2026-04-07T13:38:40.731Z</time></trkpt><trkpt lat="43.7981733" lon="11.7052333"><ele>450.2</ele><time>2026-04-07T13:38:41.731Z</time></trkpt><trkpt lat="43.7980917" lon="11.7051483"><ele>449.6</ele><time>2026-04-07T13:38:42.732Z</time></trkpt><trkpt lat="43.7980333" lon="11.7050267"><ele>449.0</ele><time>2026-04-07T13:38:43.73Z</time></trkpt><trkpt lat="43.7980083" lon="11.7048833"><ele>452.75</ele><time>2026-04-07T13:38:44.729Z</time></trkpt><trkpt lat="43.798025" lon="11.7047317"><ele>456.5</ele><time>2026-04-07T13:38:45.731Z</time></trkpt><trkpt lat="43.7980867" lon="11.7045917"><ele>460.25</ele><time>2026-04-07T13:38:46.73Z</time></trkpt><trkpt lat="43.7981783" lon="11.7044633"><ele>464.0</ele><time>2026-04-07T13:38:47.73Z</time></trkpt><trkpt lat="43.7983133" lon="11.7043417"><ele>464.3333333333333</ele><time>2026-04-07T13:38:48.729Z</time></trkpt><trkpt lat="43.7984617" lon="11.7042183"><ele>464.66666666666663</ele><time>2026-04-07T13:38:49.731Z</time></trkpt><trkpt lat="43.7986117" lon="11.7040917"><ele>465.0</ele><time>2026-04-07T13:38:50.727Z</time></trkpt><trkpt lat="43.7987617" lon="11.7039633"><ele>465.0</ele><time>2026-04-07T13:38:51.731Z</time></trkpt><trkpt lat="43.79892" lon="11.70383"><ele>465.0</ele><time>2026-04-07T13:38:52.73Z</time></trkpt><trkpt lat="43.7990767" lon="11.7036917"><ele>465.0</ele><time>2026-04-07T13:38:53.731Z</time></trkpt><trkpt lat="43.7992333" lon="11.7035533"><ele>467.0</ele><time>2026-04-07T13:38:54.731Z</time></trkpt><trkpt lat="43.799385" lon="11.7034183"><ele>469.0</ele><time>2026-04-07T13:38:55.73Z</time></trkpt><trkpt lat="43.7995317" lon="11.7032967"><ele>471.0</ele><time>2026-04-07T13:38:56.731Z</time></trkpt><trkpt lat="43.79966" lon="11.703185"><ele>471.0</ele><time>2026-04-07T13:38:57.729Z</time></trkpt><trkpt lat="43.7997683" lon="11.703075"><ele>471.0</ele><time>2026-04-07T13:38:58.731Z</time></trkpt><trkpt lat="43.7998483" lon="11.7029583"><ele>471.0</ele><time>2026-04-07T13:38:59.727Z</time></trkpt><trkpt lat="43.79988" lon="11.7028333"><ele>471.0</ele><time>2026-04-07T13:39:00.727Z</time></trkpt><trkpt lat="43.79986" lon="11.7027083"><ele>471.0</ele><time>2026-04-07T13:39:01.726Z</time></trkpt><trkpt lat="43.7997983" lon="11.70259"><ele>474.20000000000005</ele><time>2026-04-07T13:39:02.726Z</time></trkpt><trkpt lat="43.799715" lon="11.70251"><ele>477.40000000000003</ele><time>2026-04-07T13:39:03.732Z</time></trkpt><trkpt lat="43.7996333" lon="11.7024633"><ele>480.6</ele><time>2026-04-07T13:39:04.73Z</time></trkpt><trkpt lat="43.7995333" lon="11.702465"><ele>483.8</ele><time>2026-04-07T13:39:05.73Z</time></trkpt><trkpt lat="43.7994183" lon="11.70253"><ele>487.0</ele><time>2026-04-07T13:39:06.729Z</time></trkpt><trkpt lat="43.79923" lon="11.7026867"><ele>484.0</ele><time>2026-04-07T13:39:07.728Z</time></trkpt><trkpt lat="43.7990633" lon="11.7028067"><ele>481.0</ele><time>2026-04-07T13:39:08.726Z</time></trkpt><trkpt lat="43.7988933" lon="11.7029183"><ele>478.0</ele><time>2026-04-07T13:39:09.731Z</time></trkpt><trkpt lat="43.7987067" lon="11.7030417"><ele>478.0</ele><time>2026-04-07T13:39:10.73Z</time></trkpt><trkpt lat="43.7985167" lon="11.70317"><ele>478.0</ele><time>2026-04-07T13:39:11.731Z</time></trkpt><trkpt lat="43.7983333" lon="11.703305"><ele>478.0</ele><time>2026-04-07T13:39:12.73Z</time></trkpt><trkpt lat="43.7981467" lon="11.703435"><ele>477.0</ele><time>2026-04-07T13:39:13.731Z</time></trkpt><trkpt lat="43.7979617" lon="11.70356"><ele>476.0</ele><time>2026-04-07T13:39:14.731Z</time></trkpt><trkpt lat="43.7977733" lon="11.7036717"><ele>475.0</ele><time>2026-04-07T13:39:15.731Z</time></trkpt><trkpt lat="43.7976033" lon="11.70377"><ele>478.33333333333337</ele><time>2026-04-07T13:39:16.731Z</time></trkpt><trkpt lat="43.7974367" lon="11.703845"><ele>481.66666666666663</ele><time>2026-04-07T13:39:17.728Z</time></trkpt><trkpt lat="43.7972733" lon="11.7038967"><ele>485.0</ele><time>2026-04-07T13:39:18.727Z</time></trkpt><trkpt lat="43.7971017" lon="11.7039267"><ele>485.0</ele><time>2026-04-07T13:39:19.735Z</time></trkpt><trkpt lat="43.7969167" lon="11.703935"><ele>485.0</ele><time>2026-04-07T13:39:20.725Z</time></trkpt><trkpt lat="43.7967233" lon="11.703935"><ele>485.0</ele><time>2026-04-07T13:39:21.726Z</time></trkpt><trkpt lat="43.7965333" lon="11.70393"><ele>486.66666666666663</ele><time>2026-04-07T13:39:22.728Z</time></trkpt><trkpt lat="43.7963483" lon="11.7038983"><ele>488.33333333333337</ele><time>2026-04-07T13:39:23.728Z</time></trkpt><trkpt lat="43.796165" lon="11.7038283"><ele>490.0</ele><time>2026-04-07T13:39:24.727Z</time></trkpt><trkpt lat="43.7959783" lon="11.703725"><ele>491.6666666666667</ele><time>2026-04-07T13:39:25.727Z</time></trkpt><trkpt lat="43.795805" lon="11.7036183"><ele>493.33333333333337</ele><time>2026-04-07T13:39:26.728Z</time></trkpt><trkpt lat="43.7956567" lon="11.7035333"><ele>495.0</ele><time>2026-04-07T13:39:27.726Z</time></trkpt><trkpt lat="43.795525" lon="11.7035067"><ele>495.0</ele><time>2026-04-07T13:39:28.726Z</time></trkpt><trkpt lat="43.7953983" lon="11.7035367"><ele>495.0</ele><time>2026-04-07T13:39:29.726Z</time></trkpt><trkpt lat="43.7952933" lon="11.7036183"><ele>495.0</ele><time>2026-04-07T13:39:30.727Z</time></trkpt><trkpt lat="43.7952067" lon="11.7037367"><ele>495.0</ele><time>2026-04-07T13:39:31.727Z</time></trkpt><trkpt lat="43.7951533" lon="11.7038883"><ele>501.0</ele><time>2026-04-07T13:39:32.726Z</time></trkpt><trkpt lat="43.7951317" lon="11.70408"><ele>507.0</ele><time>2026-04-07T13:39:33.726Z</time></trkpt><trkpt lat="43.7951317" lon="11.7043117"><ele>513.0</ele><time>2026-04-07T13:39:34.728Z</time></trkpt><trkpt lat="43.7951417" lon="11.70456"><ele>514.0</ele><time>2026-04-07T13:39:35.727Z</time></trkpt><trkpt lat="43.79515" lon="11.7048217"><ele>515.0</ele><time>2026-04-07T13:39:36.726Z</time></trkpt><trkpt lat="43.795155" lon="11.7050783"><ele>516.0</ele><time>2026-04-07T13:39:37.728Z</time></trkpt><trkpt lat="43.795135" lon="11.7053217"><ele>514.0</ele><time>2026-04-07T13:39:38.728Z</time></trkpt><trkpt lat="43.7950867" lon="11.7055433"><ele>512.0</ele><time>2026-04-07T13:39:39.726Z</time></trkpt><trkpt lat="43.7950083" lon="11.7057333"><ele>510.0</ele><time>2026-04-07T13:39:40.726Z</time></trkpt><trkpt lat="43.7949167" lon="11.705885"><ele>510.0</ele><time>2026-04-07T13:39:41.727Z</time></trkpt><trkpt lat="43.7948017" lon="11.70597"><ele>510.0</ele><time>2026-04-07T13:39:42.727Z</time></trkpt><trkpt lat="43.79467" lon="11.7059917"><ele>510.0</ele><time>2026-04-07T13:39:43.728Z</time></trkpt><trkpt lat="43.794515" lon="11.7059633"><ele>510.0</ele><time>2026-04-07T13:39:44.732Z</time></trkpt><trkpt lat="43.794345" lon="11.7059083"><ele>512.0</ele><time>2026-04-07T13:39:45.731Z</time></trkpt><trkpt lat="43.7941533" lon="11.7058467"><ele>514.0</ele><time>2026-04-07T13:39:46.73Z</time></trkpt><trkpt lat="43.7939533" lon="11.7057783"><ele>516.0</ele><time>2026-04-07T13:39:47.727Z</time></trkpt><trkpt lat="43.7937433" lon="11.7057133"><ele>516.0</ele><time>2026-04-07T13:39:48.727Z</time></trkpt><trkpt lat="43.79354" lon="11.7056533"><ele>516.0</ele><time>2026-04-07T13:39:49.728Z</time></trkpt><trkpt lat="43.7933617" lon="11.7055983"><ele>516.0</ele><time>2026-04-07T13:39:50.728Z</time></trkpt><trkpt lat="43.7932017" lon="11.70558"><ele>517.25</ele><time>2026-04-07T13:39:51.727Z</time></trkpt><trkpt lat="43.7930617" lon="11.7056033"><ele>518.5</ele><time>2026-04-07T13:39:52.727Z</time></trkpt><trkpt lat="43.7929567" lon="11.7056817"><ele>519.75</ele><time>2026-04-07T13:39:53.728Z</time></trkpt><trkpt lat="43.792875" lon="11.7058233"><ele>521.0</ele><time>2026-04-07T13:39:54.727Z</time></trkpt><trkpt lat="43.79281" lon="11.706"><ele>519.6666666666666</ele><time>2026-04-07T13:39:55.726Z</time></trkpt><trkpt lat="43.7928033" lon="11.7062217"><ele>518.3333333333334</ele><time>2026-04-07T13:39:56.728Z</time></trkpt><trkpt lat="43.7928317" lon="11.7064667"><ele>517.0</ele><time>2026-04-07T13:39:57.726Z</time></trkpt><trkpt lat="43.7928733" lon="11.7067317"><ele>516.0</ele><time>2026-04-07T13:39:58.727Z</time></trkpt><trkpt lat="43.7929033" lon="11.7069867"><ele>515.0</ele><time>2026-04-07T13:39:59.727Z</time></trkpt><trkpt lat="43.7929317" lon="11.707235"><ele>514.0</ele><time>2026-04-07T13:40:00.727Z</time></trkpt><trkpt lat="43.79292" lon="11.7074467"><ele>514.0</ele><time>2026-04-07T13:40:01.728Z</time></trkpt><trkpt lat="43.7928717" lon="11.70762"><ele>514.0</ele><time>2026-04-07T13:40:02.728Z</time></trkpt><trkpt lat="43.7927833" lon="11.7077483"><ele>514.0</ele><time>2026-04-07T13:40:03.727Z</time></trkpt><trkpt lat="43.7926667" lon="11.7078233"><ele>514.0</ele><time>2026-04-07T13:40:04.727Z</time></trkpt><trkpt lat="43.792535" lon="11.7078383"><ele>518.0</ele><time>2026-04-07T13:40:05.727Z</time></trkpt><trkpt lat="43.7923883" lon="11.707805"><ele>522.0</ele><time>2026-04-07T13:40:06.727Z</time></trkpt><trkpt lat="43.792215" lon="11.7077383"><ele>526.0</ele><time>2026-04-07T13:40:07.728Z</time></trkpt><trkpt lat="43.7920217" lon="11.7076617"><ele>532.0</ele><time>2026-04-07T13:40:08.726Z</time></trkpt><trkpt lat="43.7918183" lon="11.70759"><ele>538.0</ele><time>2026-04-07T13:40:09.731Z</time></trkpt><trkpt lat="43.791615" lon="11.7075217"><ele>544.0</ele><time>2026-04-07T13:40:10.731Z</time></trkpt><trkpt lat="43.7914217" lon="11.707455"><ele>544.0</ele><time>2026-04-07T13:40:11.73Z</time></trkpt><trkpt lat="43.7912417" lon="11.7073883"><ele>544.0</ele><time>2026-04-07T13:40:12.731Z</time></trkpt><trkpt lat="43.7910617" lon="11.7073217"><ele>544.0</ele><time>2026-04-07T13:40:13.731Z</time></trkpt><trkpt lat="43.7908817" lon="11.7072517"><ele>543.3333333333334</ele><time>2026-04-07T13:40:14.731Z</time></trkpt><trkpt lat="43.79069" lon="11.7071767"><ele>542.6666666666666</ele><time>2026-04-07T13:40:15.729Z</time></trkpt><trkpt lat="43.7904833" lon="11.7071033"><ele>542.0</ele><time>2026-04-07T13:40:16.728Z</time></trkpt><trkpt lat="43.7902717" lon="11.7070367"><ele>541.6666666666666</ele><time>2026-04-07T13:40:17.727Z</time></trkpt><trkpt lat="43.790075" lon="11.7069733"><ele>541.3333333333334</ele><time>2026-04-07T13:40:18.728Z</time></trkpt><trkpt lat="43.7898933" lon="11.70692"><ele>541.0</ele><time>2026-04-07T13:40:19.728Z</time></trkpt><trkpt lat="43.7897317" lon="11.7068817"><ele>543.75</ele><time>2026-04-07T13:40:20.728Z</time></trkpt><trkpt lat="43.789585" lon="11.7068633"><ele>546.5</ele><time>2026-04-07T13:40:21.726Z</time></trkpt><trkpt lat="43.7894433" lon="11.7068667"><ele>549.25</ele><time>2026-04-07T13:40:22.727Z</time></trkpt><trkpt lat="43.7893" lon="11.7068833"><ele>552.0</ele><time>2026-04-07T13:40:23.728Z</time></trkpt><trkpt lat="43.7891567" lon="11.7069017"><ele>549.6666666666666</ele><time>2026-04-07T13:40:24.728Z</time></trkpt><trkpt lat="43.789005" lon="11.7069167"><ele>547.3333333333333</ele><time>2026-04-07T13:40:25.728Z</time></trkpt><trkpt lat="43.788845" lon="11.7069283"><ele>545.0</ele><time>2026-04-07T13:40:26.727Z</time></trkpt><trkpt lat="43.78867" lon="11.7069483"><ele>549.0</ele><time>2026-04-07T13:40:27.726Z</time></trkpt><trkpt lat="43.788485" lon="11.7069783"><ele>553.0</ele><time>2026-04-07T13:40:28.728Z</time></trkpt><trkpt lat="43.7882917" lon="11.7070167"><ele>557.0</ele><time>2026-04-07T13:40:29.727Z</time></trkpt><trkpt lat="43.7881017" lon="11.7070733"><ele>557.0</ele><time>2026-04-07T13:40:30.728Z</time></trkpt><trkpt lat="43.78793" lon="11.707165"><ele>557.0</ele><time>2026-04-07T13:40:31.731Z</time></trkpt><trkpt lat="43.7877583" lon="11.70727"><ele>557.0</ele><time>2026-04-07T13:40:32.727Z</time></trkpt><trkpt lat="43.7875833" lon="11.70738"><ele>560.3333333333333</ele><time>2026-04-07T13:40:33.727Z</time></trkpt><trkpt lat="43.7874033" lon="11.7074833"><ele>563.6666666666666</ele><time>2026-04-07T13:40:34.727Z</time></trkpt><trkpt lat="43.787225" lon="11.707565"><ele>567.0</ele><time>2026-04-07T13:40:35.727Z</time></trkpt><trkpt lat="43.7870367" lon="11.7076117"><ele>570.3333333333334</ele><time>2026-04-07T13:40:36.728Z</time></trkpt><trkpt lat="43.78684" lon="11.707635"><ele>573.6666666666667</ele><time>2026-04-07T13:40:37.731Z</time></trkpt><trkpt lat="43.7866533" lon="11.7076533"><ele>577.0</ele><time>2026-04-07T13:40:38.73Z</time></trkpt><trkpt lat="43.7864783" lon="11.7076883"><ele>576.3333333333334</ele><time>2026-04-07T13:40:39.727Z</time></trkpt><trkpt lat="43.7863067" lon="11.7077717"><ele>575.6666666666666</ele><time>2026-04-07T13:40:40.732Z</time></trkpt><trkpt lat="43.7861333" lon="11.707905"><ele>575.0</ele><time>2026-04-07T13:40:41.731Z</time></trkpt><trkpt lat="43.7859567" lon="11.7080617"><ele>575.0</ele><time>2026-04-07T13:40:42.73Z</time></trkpt><trkpt lat="43.78578" lon="11.708225"><ele>575.0</ele><time>2026-04-07T13:40:43.73Z</time></trkpt><trkpt lat="43.7856017" lon="11.7083767"><ele>575.0</ele><time>2026-04-07T13:40:44.73Z</time></trkpt><trkpt lat="43.7854317" lon="11.7085183"><ele>576.0</ele><time>2026-04-07T13:40:45.73Z</time></trkpt><trkpt lat="43.7852717" lon="11.70863"><ele>577.0</ele><time>2026-04-07T13:40:46.727Z</time></trkpt><trkpt lat="43.785105" lon="11.708695"><ele>578.0</ele><time>2026-04-07T13:40:47.726Z</time></trkpt><trkpt lat="43.7849233" lon="11.7086983"><ele>578.0</ele><time>2026-04-07T13:40:48.727Z</time></trkpt><trkpt lat="43.784735" lon="11.7086483"><ele>578.0</ele><time>2026-04-07T13:40:49.726Z</time></trkpt><trkpt lat="43.78454" lon="11.7085933"><ele>578.0</ele><time>2026-04-07T13:40:50.726Z</time></trkpt><trkpt lat="43.7843383" lon="11.7085767"><ele>580.0</ele><time>2026-04-07T13:40:51.727Z</time></trkpt><trkpt lat="43.7841367" lon="11.7086133"><ele>582.0</ele><time>2026-04-07T13:40:52.727Z</time></trkpt><trkpt lat="43.78394" lon="11.7086817"><ele>584.0</ele><time>2026-04-07T13:40:53.728Z</time></trkpt><trkpt lat="43.7837567" lon="11.7087383"><ele>584.0</ele><time>2026-04-07T13:40:54.726Z</time></trkpt><trkpt lat="43.7835883" lon="11.70874"><ele>584.0</ele><time>2026-04-07T13:40:55.727Z</time></trkpt><trkpt lat="43.7834383" lon="11.7086883"><ele>584.0</ele><time>2026-04-07T13:40:56.728Z</time></trkpt><trkpt lat="43.7833133" lon="11.7085833"><ele>587.5</ele><time>2026-04-07T13:40:57.727Z</time></trkpt><trkpt lat="43.7832117" lon="11.7084467"><ele>591.0</ele><time>2026-04-07T13:40:58.73Z</time></trkpt><trkpt lat="43.78314" lon="11.7082733"><ele>594.5</ele><time>2026-04-07T13:40:59.731Z</time></trkpt><trkpt lat="43.7831083" lon="11.7080767"><ele>598.0</ele><time>2026-04-07T13:41:00.728Z</time></trkpt><trkpt lat="43.78311" lon="11.7078633"><ele>599.6666666666667</ele><time>2026-04-07T13:41:01.731Z</time></trkpt><trkpt lat="43.7831267" lon="11.7076267"><ele>601.3333333333334</ele><time>2026-04-07T13:41:02.728Z</time></trkpt><trkpt lat="43.7831517" lon="11.707375"><ele>603.0</ele><time>2026-04-07T13:41:03.731Z</time></trkpt><trkpt lat="43.7831733" lon="11.7071133"><ele>604.0</ele><time>2026-04-07T13:41:04.728Z</time></trkpt><trkpt lat="43.7832017" lon="11.7068467"><ele>605.0</ele><time>2026-04-07T13:41:05.731Z</time></trkpt><trkpt lat="43.7832417" lon="11.7065883"><ele>606.0</ele><time>2026-04-07T13:41:06.73Z</time></trkpt><trkpt lat="43.7833083" lon="11.7063383"><ele>606.0</ele><time>2026-04-07T13:41:07.73Z</time></trkpt><trkpt lat="43.783405" lon="11.7061"><ele>606.0</ele><time>2026-04-07T13:41:08.727Z</time></trkpt><trkpt lat="43.783525" lon="11.7058767"><ele>606.0</ele><time>2026-04-07T13:41:09.728Z</time></trkpt><trkpt lat="43.7836517" lon="11.7056683"><ele>611.0</ele><time>2026-04-07T13:41:10.731Z</time></trkpt><trkpt lat="43.7837617" lon="11.7054767"><ele>616.0</ele><time>2026-04-07T13:41:11.731Z</time></trkpt><trkpt lat="43.7838383" lon="11.7052783"><ele>621.0</ele><time>2026-04-07T13:41:12.73Z</time></trkpt><trkpt lat="43.7838717" lon="11.7050683"><ele>624.0</ele><time>2026-04-07T13:41:13.732Z</time></trkpt><trkpt lat="43.78386" lon="11.7048483"><ele>627.0</ele><time>2026-04-07T13:41:14.731Z</time></trkpt><trkpt lat="43.7837983" lon="11.704615"><ele>630.0</ele><time>2026-04-07T13:41:15.73Z</time></trkpt><trkpt lat="43.7837" lon="11.7043817"><ele>631.6666666666666</ele><time>2026-04-07T13:41:16.728Z</time></trkpt><trkpt lat="43.783595" lon="11.7041417"><ele>633.3333333333333</ele><time>2026-04-07T13:41:17.729Z</time></trkpt><trkpt lat="43.78351" lon="11.7039067"><ele>635.0</ele><time>2026-04-07T13:41:18.727Z</time></trkpt><trkpt lat="43.7834633" lon="11.7036767"><ele>635.0</ele><time>2026-04-07T13:41:19.728Z</time></trkpt><trkpt lat="43.7834683" lon="11.7034533"><ele>635.0</ele><time>2026-04-07T13:41:20.727Z</time></trkpt><trkpt lat="43.783515" lon="11.7032233"><ele>635.0</ele><time>2026-04-07T13:41:21.726Z</time></trkpt><trkpt lat="43.7836" lon="11.7029933"><ele>635.0</ele><time>2026-04-07T13:41:22.727Z</time></trkpt><trkpt lat="43.7837167" lon="11.70276"><ele>635.0</ele><time>2026-04-07T13:41:23.73Z</time></trkpt><trkpt lat="43.7838517" lon="11.7025233"><ele>635.0</ele><time>2026-04-07T13:41:24.73Z</time></trkpt><trkpt lat="43.7839883" lon="11.702275"><ele>633.0</ele><time>2026-04-07T13:41:25.731Z</time></trkpt><trkpt lat="43.7841333" lon="11.7020167"><ele>631.0</ele><time>2026-04-07T13:41:26.73Z</time></trkpt><trkpt lat="43.784275" lon="11.7017583"><ele>635.6666666666667</ele><time>2026-04-07T13:41:27.728Z</time></trkpt><trkpt lat="43.7844083" lon="11.701515"><ele>640.3333333333334</ele><time>2026-04-07T13:41:28.732Z</time></trkpt><trkpt lat="43.784535" lon="11.7012983"><ele>645.0</ele><time>2026-04-07T13:41:29.727Z</time></trkpt><trkpt lat="43.784645" lon="11.7011033"><ele>644.25</ele><time>2026-04-07T13:41:30.727Z</time></trkpt><trkpt lat="43.784735" lon="11.70093"><ele>643.5</ele><time>2026-04-07T13:41:31.728Z</time></trkpt><trkpt lat="43.7847933" lon="11.700775"><ele>642.75</ele><time>2026-04-07T13:41:32.727Z</time></trkpt><trkpt lat="43.784795" lon="11.70064"><ele>642.0</ele><time>2026-04-07T13:41:33.726Z</time></trkpt><trkpt lat="43.7847267" lon="11.700535"><ele>642.0</ele><time>2026-04-07T13:41:34.727Z</time></trkpt><trkpt lat="43.784645" lon="11.7004633"><ele>642.0</ele><time>2026-04-07T13:41:35.726Z</time></trkpt><trkpt lat="43.7845267" lon="11.7004117"><ele>642.0</ele><time>2026-04-07T13:41:36.731Z</time></trkpt><trkpt lat="43.7843817" lon="11.7003683"><ele>642.0</ele><time>2026-04-07T13:41:37.732Z</time></trkpt><trkpt lat="43.784235" lon="11.7002983"><ele>642.0</ele><time>2026-04-07T13:41:38.731Z</time></trkpt><trkpt lat="43.78409" lon="11.700195"><ele>642.0</ele><time>2026-04-07T13:41:39.731Z</time></trkpt><trkpt lat="43.7839583" lon="11.700055"><ele>642.0</ele><time>2026-04-07T13:41:40.731Z</time></trkpt><trkpt lat="43.783855" lon="11.6998767"><ele>642.0</ele><time>2026-04-07T13:41:41.73Z</time></trkpt><trkpt lat="43.7837667" lon="11.6996617"><ele>642.0</ele><time>2026-04-07T13:41:42.73Z</time></trkpt><trkpt lat="43.7836833" lon="11.6994217"><ele>642.0</ele><time>2026-04-07T13:41:43.73Z</time></trkpt><trkpt lat="43.7835917" lon="11.6991633"><ele>643.0</ele><time>2026-04-07T13:41:44.729Z</time></trkpt><trkpt lat="43.7834917" lon="11.6988983"><ele>644.0</ele><time>2026-04-07T13:41:45.727Z</time></trkpt><trkpt lat="43.7833867" lon="11.698625"><ele>645.0</ele><time>2026-04-07T13:41:46.727Z</time></trkpt><trkpt lat="43.783275" lon="11.6983467"><ele>648.3333333333334</ele><time>2026-04-07T13:41:47.728Z</time></trkpt><trkpt lat="43.7831633" lon="11.6980683"><ele>651.6666666666667</ele><time>2026-04-07T13:41:48.727Z</time></trkpt><trkpt lat="43.783065" lon="11.6978033"><ele>655.0</ele><time>2026-04-07T13:41:49.728Z</time></trkpt><trkpt lat="43.7829967" lon="11.6975467"><ele>656.6666666666667</ele><time>2026-04-07T13:41:50.727Z</time></trkpt><trkpt lat="43.7829633" lon="11.6972833"><ele>658.3333333333334</ele><time>2026-04-07T13:41:51.728Z</time></trkpt><trkpt lat="43.7829517" lon="11.6970083"><ele>660.0</ele><time>2026-04-07T13:41:52.727Z</time></trkpt><trkpt lat="43.7829483" lon="11.696725"><ele>661.6666666666666</ele><time>2026-04-07T13:41:53.731Z</time></trkpt><trkpt lat="43.7829417" lon="11.6964383"><ele>663.3333333333333</ele><time>2026-04-07T13:41:54.731Z</time></trkpt><trkpt lat="43.7829267" lon="11.6961417"><ele>665.0</ele><time>2026-04-07T13:41:55.731Z</time></trkpt><trkpt lat="43.7828967" lon="11.6958567"><ele>667.3333333333333</ele><time>2026-04-07T13:41:56.733Z</time></trkpt><trkpt lat="43.7828533" lon="11.6955833"><ele>669.6666666666666</ele><time>2026-04-07T13:41:57.726Z</time></trkpt><trkpt lat="43.7827917" lon="11.69533"><ele>672.0</ele><time>2026-04-07T13:41:58.726Z</time></trkpt><trkpt lat="43.782715" lon="11.695095"><ele>670.3333333333334</ele><time>2026-04-07T13:41:59.728Z</time></trkpt><trkpt lat="43.7826183" lon="11.6948767"><ele>668.6666666666667</ele><time>2026-04-07T13:42:00.727Z</time></trkpt><trkpt lat="43.7824967" lon="11.6946733"><ele>667.0</ele><time>2026-04-07T13:42:01.73Z</time></trkpt><trkpt lat="43.78235" lon="11.6944817"><ele>671.3333333333334</ele><time>2026-04-07T13:42:02.73Z</time></trkpt><trkpt lat="43.782195" lon="11.6942933"><ele>675.6666666666666</ele><time>2026-04-07T13:42:03.73Z</time></trkpt><trkpt lat="43.7820367" lon="11.6941017"><ele>680.0</ele><time>2026-04-07T13:42:04.73Z</time></trkpt><trkpt lat="43.7818867" lon="11.6939117"><ele>678.0</ele><time>2026-04-07T13:42:05.731Z</time></trkpt><trkpt lat="43.7817383" lon="11.6937567"><ele>676.0</ele><time>2026-04-07T13:42:06.73Z</time></trkpt><trkpt lat="43.78157" lon="11.6936467"><ele>674.0</ele><time>2026-04-07T13:42:07.727Z</time></trkpt><trkpt lat="43.781385" lon="11.693575"><ele>676.3333333333333</ele><time>2026-04-07T13:42:08.726Z</time></trkpt><trkpt lat="43.7812" lon="11.69353"><ele>678.6666666666666</ele><time>2026-04-07T13:42:09.732Z</time></trkpt><trkpt lat="43.7810367" lon="11.6934667"><ele>681.0</ele><time>2026-04-07T13:42:10.731Z</time></trkpt><trkpt lat="43.7808933" lon="11.6933533"><ele>681.0</ele><time>2026-04-07T13:42:11.731Z</time></trkpt><trkpt lat="43.780775" lon="11.693175"><ele>681.0</ele><time>2026-04-07T13:42:12.731Z</time></trkpt><trkpt lat="43.7806767" lon="11.692945"><ele>681.0</ele><time>2026-04-07T13:42:13.73Z</time></trkpt><trkpt lat="43.78058" lon="11.6927017"><ele>683.6666666666666</ele><time>2026-04-07T13:42:14.73Z</time></trkpt><trkpt lat="43.7804667" lon="11.6924633"><ele>686.3333333333333</ele><time>2026-04-07T13:42:15.731Z</time></trkpt><trkpt lat="43.7803383" lon="11.6922617"><ele>689.0</ele><time>2026-04-07T13:42:16.731Z</time></trkpt><trkpt lat="43.78019" lon="11.6920883"><ele>689.3333333333333</ele><time>2026-04-07T13:42:17.731Z</time></trkpt><trkpt lat="43.7800133" lon="11.6919417"><ele>689.6666666666666</ele><time>2026-04-07T13:42:18.731Z</time></trkpt><trkpt lat="43.77982" lon="11.691805"><ele>690.0</ele><time>2026-04-07T13:42:19.731Z</time></trkpt><trkpt lat="43.7796433" lon="11.6916767"><ele>690.0</ele><time>2026-04-07T13:42:20.73Z</time></trkpt><trkpt lat="43.7794833" lon="11.69156"><ele>690.0</ele><time>2026-04-07T13:42:21.731Z</time></trkpt><trkpt lat="43.779335" lon="11.69148"><ele>690.0</ele><time>2026-04-07T13:42:22.73Z</time></trkpt><trkpt lat="43.77918" lon="11.69146"><ele>689.75</ele><time>2026-04-07T13:42:23.732Z</time></trkpt><trkpt lat="43.7790317" lon="11.6914817"><ele>689.5</ele><time>2026-04-07T13:42:24.731Z</time></trkpt><trkpt lat="43.7789033" lon="11.6915467"><ele>689.25</ele><time>2026-04-07T13:42:25.732Z</time></trkpt><trkpt lat="43.7788" lon="11.6916567"><ele>689.0</ele><time>2026-04-07T13:42:26.731Z</time></trkpt><trkpt lat="43.7787267" lon="11.6918033"><ele>687.75</ele><time>2026-04-07T13:42:27.727Z</time></trkpt><trkpt lat="43.7786867" lon="11.6919833"><ele>686.5</ele><time>2026-04-07T13:42:28.732Z</time></trkpt><trkpt lat="43.778665" lon="11.69219"><ele>685.25</ele><time>2026-04-07T13:42:29.726Z</time></trkpt><trkpt lat="43.778635" lon="11.69241"><ele>684.0</ele><time>2026-04-07T13:42:30.727Z</time></trkpt><trkpt lat="43.77858" lon="11.6926133"><ele>686.6666666666666</ele><time>2026-04-07T13:42:31.728Z</time></trkpt><trkpt lat="43.7784833" lon="11.6927683"><ele>689.3333333333333</ele><time>2026-04-07T13:42:32.726Z</time></trkpt><trkpt lat="43.778355" lon="11.6928933"><ele>692.0</ele><time>2026-04-07T13:42:33.732Z</time></trkpt><trkpt lat="43.778205" lon="11.6930033"><ele>692.0</ele><time>2026-04-07T13:42:34.73Z</time></trkpt><trkpt lat="43.7780433" lon="11.69312"><ele>692.0</ele><time>2026-04-07T13:42:35.731Z</time></trkpt><trkpt lat="43.777865" lon="11.6932483"><ele>692.0</ele><time>2026-04-07T13:42:36.73Z</time></trkpt><trkpt lat="43.777675" lon="11.693385"><ele>691.3333333333333</ele><time>2026-04-07T13:42:37.73Z</time></trkpt><trkpt lat="43.77748" lon="11.69352"><ele>690.6666666666666</ele><time>2026-04-07T13:42:38.731Z</time></trkpt><trkpt lat="43.7772933" lon="11.6936567"><ele>690.0</ele><time>2026-04-07T13:42:39.726Z</time></trkpt><trkpt lat="43.7771217" lon="11.6937783"><ele>690.0</ele><time>2026-04-07T13:42:40.731Z</time></trkpt><trkpt lat="43.7769667" lon="11.6938767"><ele>690.0</ele><time>2026-04-07T13:42:41.731Z</time></trkpt><trkpt lat="43.7768317" lon="11.6939617"><ele>690.0</ele><time>2026-04-07T13:42:42.73Z</time></trkpt><trkpt lat="43.7767067" lon="11.6940383"><ele>691.75</ele><time>2026-04-07T13:42:43.73Z</time></trkpt><trkpt lat="43.7765767" lon="11.6941217"><ele>693.5</ele><time>2026-04-07T13:42:44.731Z</time></trkpt><trkpt lat="43.776445" lon="11.6942067"><ele>695.25</ele><time>2026-04-07T13:42:45.731Z</time></trkpt><trkpt lat="43.776315" lon="11.6942833"><ele>697.0</ele><time>2026-04-07T13:42:46.731Z</time></trkpt><trkpt lat="43.7761867" lon="11.6943467"><ele>697.0</ele><time>2026-04-07T13:42:47.731Z</time></trkpt><trkpt lat="43.7760617" lon="11.69439"><ele>697.0</ele><time>2026-04-07T13:42:48.731Z</time></trkpt><trkpt lat="43.775935" lon="11.6943933"><ele>697.0</ele><time>2026-04-07T13:42:49.73Z</time></trkpt><trkpt lat="43.775825" lon="11.6943483"><ele>697.0</ele><time>2026-04-07T13:42:50.73Z</time></trkpt><trkpt lat="43.7757433" lon="11.69427"><ele>697.0</ele><time>2026-04-07T13:42:51.73Z</time></trkpt><trkpt lat="43.77569" lon="11.6941733"><ele>697.0</ele><time>2026-04-07T13:42:52.731Z</time></trkpt><trkpt lat="43.7756633" lon="11.6940583"><ele>697.0</ele><time>2026-04-07T13:42:53.73Z</time></trkpt><trkpt lat="43.775665" lon="11.693925"><ele>697.0</ele><time>2026-04-07T13:42:54.73Z</time></trkpt><trkpt lat="43.775705" lon="11.6937833"><ele>697.0</ele><time>2026-04-07T13:42:55.731Z</time></trkpt><trkpt lat="43.775755" lon="11.6936367"><ele>696.5</ele><time>2026-04-07T13:42:56.731Z</time></trkpt><trkpt lat="43.7758267" lon="11.6934917"><ele>696.0</ele><time>2026-04-07T13:42:57.726Z</time></trkpt><trkpt lat="43.7759117" lon="11.6933383"><ele>695.5</ele><time>2026-04-07T13:42:58.728Z</time></trkpt><trkpt lat="43.7760083" lon="11.6931833"><ele>695.0</ele><time>2026-04-07T13:42:59.728Z</time></trkpt><trkpt lat="43.776105" lon="11.6930167"><ele>697.25</ele><time>2026-04-07T13:43:00.728Z</time></trkpt><trkpt lat="43.776195" lon="11.6928583"><ele>699.5</ele><time>2026-04-07T13:43:01.728Z</time></trkpt><trkpt lat="43.7762683" lon="11.6927133"><ele>701.75</ele><time>2026-04-07T13:43:02.728Z</time></trkpt><trkpt lat="43.7763317" lon="11.6925633"><ele>704.0</ele><time>2026-04-07T13:43:03.727Z</time></trkpt><trkpt lat="43.77637" lon="11.6923967"><ele>704.8000000000001</ele><time>2026-04-07T13:43:04.727Z</time></trkpt><trkpt lat="43.7763817" lon="11.6922333"><ele>705.6</ele><time>2026-04-07T13:43:05.731Z</time></trkpt><trkpt lat="43.776375" lon="11.692095"><ele>706.4</ele><time>2026-04-07T13:43:06.728Z</time></trkpt><trkpt lat="43.776305" lon="11.691975"><ele>707.2</ele><time>2026-04-07T13:43:07.729Z</time></trkpt><trkpt lat="43.7762067" lon="11.69189"><ele>708.0</ele><time>2026-04-07T13:43:08.727Z</time></trkpt><trkpt lat="43.7760917" lon="11.69181"><ele>707.75</ele><time>2026-04-07T13:43:09.726Z</time></trkpt><trkpt lat="43.7759717" lon="11.6917017"><ele>707.5</ele><time>2026-04-07T13:43:10.731Z</time></trkpt><trkpt lat="43.77586" lon="11.691555"><ele>707.25</ele><time>2026-04-07T13:43:11.73Z</time></trkpt><trkpt lat="43.7757667" lon="11.6914167"><ele>707.0</ele><time>2026-04-07T13:43:12.731Z</time></trkpt><trkpt lat="43.775675" lon="11.691325"><ele>707.0</ele><time>2026-04-07T13:43:13.732Z</time></trkpt><trkpt lat="43.77558" lon="11.6912917"><ele>707.0</ele><time>2026-04-07T13:43:14.732Z</time></trkpt><trkpt lat="43.7754883" lon="11.6912917"><ele>707.0</ele><time>2026-04-07T13:43:15.73Z</time></trkpt><trkpt lat="43.775395" lon="11.691345"><ele>707.0</ele><time>2026-04-07T13:43:16.731Z</time></trkpt><trkpt lat="43.77531" lon="11.6914317"><ele>707.0</ele><time>2026-04-07T13:43:17.731Z</time></trkpt><trkpt lat="43.7752233" lon="11.6915083"><ele>706.6</ele><time>2026-04-07T13:43:18.73Z</time></trkpt><trkpt lat="43.7751367" lon="11.6915467"><ele>706.2</ele><time>2026-04-07T13:43:19.732Z</time></trkpt><trkpt lat="43.775045" lon="11.6915283"><ele>705.8</ele><time>2026-04-07T13:43:20.732Z</time></trkpt><trkpt lat="43.7749583" lon="11.6914617"><ele>705.4</ele><time>2026-04-07T13:43:21.731Z</time></trkpt><trkpt lat="43.7748867" lon="11.691345"><ele>705.0</ele><time>2026-04-07T13:43:22.732Z</time></trkpt><trkpt lat="43.7748433" lon="11.6911917"><ele>709.0</ele><time>2026-04-07T13:43:23.731Z</time></trkpt><trkpt lat="43.7748083" lon="11.69101"><ele>713.0</ele><time>2026-04-07T13:43:24.731Z</time></trkpt><trkpt lat="43.7747733" lon="11.6908083"><ele>717.0</ele><time>2026-04-07T13:43:25.731Z</time></trkpt><trkpt lat="43.77474" lon="11.69058"><ele>717.0</ele><time>2026-04-07T13:43:26.732Z</time></trkpt><trkpt lat="43.774715" lon="11.690325"><ele>717.0</ele><time>2026-04-07T13:43:27.731Z</time></trkpt><trkpt lat="43.7747017" lon="11.690045"><ele>717.0</ele><time>2026-04-07T13:43:28.73Z</time></trkpt><trkpt lat="43.7747033" lon="11.689755"><ele>719.6666666666666</ele><time>2026-04-07T13:43:29.732Z</time></trkpt><trkpt lat="43.7747067" lon="11.689455"><ele>722.3333333333333</ele><time>2026-04-07T13:43:30.731Z</time></trkpt><trkpt lat="43.77471" lon="11.689155"><ele>725.0</ele><time>2026-04-07T13:43:31.729Z</time></trkpt><trkpt lat="43.7747017" lon="11.6888733"><ele>729.0</ele><time>2026-04-07T13:43:32.731Z</time></trkpt><trkpt lat="43.7746883" lon="11.6886083"><ele>733.0</ele><time>2026-04-07T13:43:33.731Z</time></trkpt><trkpt lat="43.7746883" lon="11.6883517"><ele>737.0</ele><time>2026-04-07T13:43:34.728Z</time></trkpt><trkpt lat="43.77471" lon="11.6881017"><ele>738.0</ele><time>2026-04-07T13:43:35.728Z</time></trkpt><trkpt lat="43.7747633" lon="11.6878733"><ele>739.0</ele><time>2026-04-07T13:43:36.729Z</time></trkpt><trkpt lat="43.7748483" lon="11.6876617"><ele>740.0</ele><time>2026-04-07T13:43:37.727Z</time></trkpt><trkpt lat="43.7749383" lon="11.6874583"><ele>737.6666666666666</ele><time>2026-04-07T13:43:38.727Z</time></trkpt><trkpt lat="43.7750133" lon="11.6872583"><ele>735.3333333333334</ele><time>2026-04-07T13:43:39.727Z</time></trkpt><trkpt lat="43.7750467" lon="11.6870467"><ele>733.0</ele><time>2026-04-07T13:43:40.731Z</time></trkpt><trkpt lat="43.7750583" lon="11.6868283"><ele>732.25</ele><time>2026-04-07T13:43:41.73Z</time></trkpt><trkpt lat="43.7750367" lon="11.6866167"><ele>731.5</ele><time>2026-04-07T13:43:42.728Z</time></trkpt><trkpt lat="43.7750533" lon="11.686435"><ele>730.75</ele><time>2026-04-07T13:43:43.731Z</time></trkpt><trkpt lat="43.775105" lon="11.6862817"><ele>730.0</ele><time>2026-04-07T13:43:44.728Z</time></trkpt><trkpt lat="43.7752367" lon="11.6861383"><ele>735.0</ele><time>2026-04-07T13:43:45.727Z</time></trkpt><trkpt lat="43.7753833" lon="11.6859917"><ele>740.0</ele><time>2026-04-07T13:43:46.731Z</time></trkpt><trkpt lat="43.7755433" lon="11.685855"><ele>745.0</ele><time>2026-04-07T13:43:47.732Z</time></trkpt><trkpt lat="43.77572" lon="11.685725"><ele>745.0</ele><time>2026-04-07T13:43:48.73Z</time></trkpt><trkpt lat="43.775905" lon="11.68561"><ele>745.0</ele><time>2026-04-07T13:43:49.731Z</time></trkpt><trkpt lat="43.7760933" lon="11.6855233"><ele>745.0</ele><time>2026-04-07T13:43:50.732Z</time></trkpt><trkpt lat="43.77627" lon="11.685445"><ele>748.0</ele><time>2026-04-07T13:43:51.731Z</time></trkpt><trkpt lat="43.776435" lon="11.6853433"><ele>751.0</ele><time>2026-04-07T13:43:52.73Z</time></trkpt><trkpt lat="43.776585" lon="11.685205"><ele>754.0</ele><time>2026-04-07T13:43:53.731Z</time></trkpt><trkpt lat="43.776715" lon="11.6850183"><ele>754.0</ele><time>2026-04-07T13:43:54.732Z</time></trkpt><trkpt lat="43.7768183" lon="11.68479"><ele>754.0</ele><time>2026-04-07T13:43:55.731Z</time></trkpt><trkpt lat="43.7769167" lon="11.68455"><ele>754.0</ele><time>2026-04-07T13:43:56.73Z</time></trkpt><trkpt lat="43.7770367" lon="11.68433"><ele>760.0</ele><time>2026-04-07T13:43:57.728Z</time></trkpt><trkpt lat="43.7771633" lon="11.68412"><ele>766.0</ele><time>2026-04-07T13:43:58.727Z</time></trkpt><trkpt lat="43.777275" lon="11.6838883"><ele>772.0</ele><time>2026-04-07T13:43:59.732Z</time></trkpt><trkpt lat="43.777375" lon="11.6836417"><ele>770.6666666666666</ele><time>2026-04-07T13:44:00.729Z</time></trkpt><trkpt lat="43.7774833" lon="11.68338"><ele>769.3333333333333</ele><time>2026-04-07T13:44:01.728Z</time></trkpt><trkpt lat="43.7776067" lon="11.6831217"><ele>768.0</ele><time>2026-04-07T13:44:02.727Z</time></trkpt><trkpt lat="43.777735" lon="11.68286"><ele>773.0</ele><time>2026-04-07T13:44:03.727Z</time></trkpt><trkpt lat="43.77785" lon="11.6826117"><ele>778.0</ele><time>2026-04-07T13:44:04.727Z</time></trkpt><trkpt lat="43.7779417" lon="11.6823667"><ele>783.0</ele><time>2026-04-07T13:44:05.731Z</time></trkpt><trkpt lat="43.7779933" lon="11.6821133"><ele>783.0</ele><time>2026-04-07T13:44:06.73Z</time></trkpt><trkpt lat="43.77801" lon="11.681845"><ele>783.0</ele><time>2026-04-07T13:44:07.727Z</time></trkpt><trkpt lat="43.7779933" lon="11.6815583"><ele>783.0</ele><time>2026-04-07T13:44:08.728Z</time></trkpt><trkpt lat="43.7779583" lon="11.6812517"><ele>786.5</ele><time>2026-04-07T13:44:09.73Z</time></trkpt><trkpt lat="43.777925" lon="11.6809433"><ele>790.0</ele><time>2026-04-07T13:44:10.731Z</time></trkpt><trkpt lat="43.7778833" lon="11.6806283"><ele>790.0</ele><time>2026-04-07T13:44:11.727Z</time></trkpt><trkpt lat="43.7778383" lon="11.68031"><ele>790.0</ele><time>2026-04-07T13:44:12.732Z</time></trkpt><trkpt lat="43.777805" lon="11.68002"><ele>790.0</ele><time>2026-04-07T13:44:13.73Z</time></trkpt><trkpt lat="43.7777933" lon="11.6797383"><ele>794.0</ele><time>2026-04-07T13:44:14.73Z</time></trkpt><trkpt lat="43.7778083" lon="11.679455"><ele>798.0</ele><time>2026-04-07T13:44:15.731Z</time></trkpt><trkpt lat="43.77785" lon="11.6791867"><ele>802.0</ele><time>2026-04-07T13:44:16.731Z</time></trkpt><trkpt lat="43.7779067" lon="11.6789617"><ele>802.75</ele><time>2026-04-07T13:44:17.731Z</time></trkpt><trkpt lat="43.77797" lon="11.6787967"><ele>803.5</ele><time>2026-04-07T13:44:18.73Z</time></trkpt><trkpt lat="43.7780517" lon="11.6786917"><ele>804.25</ele><time>2026-04-07T13:44:19.733Z</time></trkpt><trkpt lat="43.7781683" lon="11.6786317"><ele>805.0</ele><time>2026-04-07T13:44:20.73Z</time></trkpt><trkpt lat="43.77831" lon="11.6786033"><ele>802.6666666666666</ele><time>2026-04-07T13:44:21.73Z</time></trkpt><trkpt lat="43.77847" lon="11.6785817"><ele>800.3333333333333</ele><time>2026-04-07T13:44:22.729Z</time></trkpt><trkpt lat="43.7786367" lon="11.67855"><ele>798.0</ele><time>2026-04-07T13:44:23.731Z</time></trkpt><trkpt lat="43.7787917" lon="11.678505"><ele>802.75</ele><time>2026-04-07T13:44:24.73Z</time></trkpt><trkpt lat="43.7789267" lon="11.6784283"><ele>807.5</ele><time>2026-04-07T13:44:25.73Z</time></trkpt><trkpt lat="43.7790383" lon="11.6782983"><ele>812.25</ele><time>2026-04-07T13:44:26.731Z</time></trkpt><trkpt lat="43.7791217" lon="11.678125"><ele>817.0</ele><time>2026-04-07T13:44:27.727Z</time></trkpt><trkpt lat="43.7791817" lon="11.6779083"><ele>816.3333333333333</ele><time>2026-04-07T13:44:28.729Z</time></trkpt><trkpt lat="43.7792317" lon="11.677655"><ele>815.6666666666667</ele><time>2026-04-07T13:44:29.73Z</time></trkpt><trkpt lat="43.77929" lon="11.6773883"><ele>815.0</ele><time>2026-04-07T13:44:30.727Z</time></trkpt><trkpt lat="43.7793583" lon="11.67711"><ele>822.3333333333334</ele><time>2026-04-07T13:44:31.727Z</time></trkpt><trkpt lat="43.7794233" lon="11.6768183"><ele>829.6666666666667</ele><time>2026-04-07T13:44:32.727Z</time></trkpt><trkpt lat="43.77948" lon="11.676515"><ele>837.0</ele><time>2026-04-07T13:44:33.727Z</time></trkpt><trkpt lat="43.7795217" lon="11.6761983"><ele>838.5</ele><time>2026-04-07T13:44:34.728Z</time></trkpt><trkpt lat="43.7795567" lon="11.6758733"><ele>840.0</ele><time>2026-04-07T13:44:35.728Z</time></trkpt><trkpt lat="43.7795967" lon="11.6755467"><ele>841.0</ele><time>2026-04-07T13:44:36.727Z</time></trkpt><trkpt lat="43.7796467" lon="11.6752267"><ele>842.0</ele><time>2026-04-07T13:44:37.732Z</time></trkpt><trkpt lat="43.7797017" lon="11.6749233"><ele>842.0</ele><time>2026-04-07T13:44:38.73Z</time></trkpt><trkpt lat="43.7797633" lon="11.67465"><ele>842.0</ele><time>2026-04-07T13:44:39.729Z</time></trkpt><trkpt lat="43.77981" lon="11.674395"><ele>842.0</ele><time>2026-04-07T13:44:40.731Z</time></trkpt><trkpt lat="43.779825" lon="11.674135"><ele>843.3333333333334</ele><time>2026-04-07T13:44:41.731Z</time></trkpt><trkpt lat="43.77982" lon="11.67388"><ele>844.6666666666667</ele><time>2026-04-07T13:44:42.73Z</time></trkpt><trkpt lat="43.779825" lon="11.6736583"><ele>846.0</ele><time>2026-04-07T13:44:43.732Z</time></trkpt><trkpt lat="43.7798683" lon="11.6734867"><ele>846.75</ele><time>2026-04-07T13:44:44.731Z</time></trkpt><trkpt lat="43.7799433" lon="11.6733633"><ele>847.5</ele><time>2026-04-07T13:44:45.731Z</time></trkpt><trkpt lat="43.7800483" lon="11.6732917"><ele>848.25</ele><time>2026-04-07T13:44:46.73Z</time></trkpt><trkpt lat="43.780175" lon="11.6732483"><ele>849.0</ele><time>2026-04-07T13:44:47.73Z</time></trkpt><trkpt lat="43.7803067" lon="11.67318"><ele>852.3333333333333</ele><time>2026-04-07T13:44:48.731Z</time></trkpt><trkpt lat="43.7804383" lon="11.673055"><ele>855.6666666666666</ele><time>2026-04-07T13:44:49.731Z</time></trkpt><trkpt lat="43.7805567" lon="11.6728783"><ele>859.0</ele><time>2026-04-07T13:44:50.731Z</time></trkpt><trkpt lat="43.7806633" lon="11.6726617"><ele>859.0</ele><time>2026-04-07T13:44:51.731Z</time></trkpt><trkpt lat="43.7807717" lon="11.672425"><ele>859.0</ele><time>2026-04-07T13:44:52.73Z</time></trkpt><trkpt lat="43.7808817" lon="11.6721833"><ele>859.0</ele><time>2026-04-07T13:44:53.73Z</time></trkpt><trkpt lat="43.7809983" lon="11.6719367"><ele>866.6666666666666</ele><time>2026-04-07T13:44:54.731Z</time></trkpt><trkpt lat="43.7811067" lon="11.671675"><ele>874.3333333333333</ele><time>2026-04-07T13:44:55.731Z</time></trkpt><trkpt lat="43.7812017" lon="11.6714"><ele>882.0</ele><time>2026-04-07T13:44:56.73Z</time></trkpt><trkpt lat="43.7812833" lon="11.6711133"><ele>882.0</ele><time>2026-04-07T13:44:57.73Z</time></trkpt><trkpt lat="43.7813483" lon="11.6708133"><ele>882.0</ele><time>2026-04-07T13:44:58.73Z</time></trkpt><trkpt lat="43.7814" lon="11.6705167"><ele>882.0</ele><time>2026-04-07T13:44:59.73Z</time></trkpt><trkpt lat="43.7814467" lon="11.6702383"><ele>883.0</ele><time>2026-04-07T13:45:00.731Z</time></trkpt><trkpt lat="43.7814667" lon="11.6699683"><ele>884.0</ele><time>2026-04-07T13:45:01.731Z</time></trkpt><trkpt lat="43.781455" lon="11.6697033"><ele>885.0</ele><time>2026-04-07T13:45:02.73Z</time></trkpt><trkpt lat="43.7814067" lon="11.66944"><ele>890.0</ele><time>2026-04-07T13:45:03.73Z</time></trkpt><trkpt lat="43.78133" lon="11.66918"><ele>895.0</ele><time>2026-04-07T13:45:04.73Z</time></trkpt><trkpt lat="43.7812633" lon="11.66894"><ele>900.0</ele><time>2026-04-07T13:45:05.731Z</time></trkpt><trkpt lat="43.78123" lon="11.6687017"><ele>902.3333333333333</ele><time>2026-04-07T13:45:06.731Z</time></trkpt><trkpt lat="43.7812317" lon="11.6684483"><ele>904.6666666666666</ele><time>2026-04-07T13:45:07.731Z</time></trkpt><trkpt lat="43.7812483" lon="11.6681783"><ele>907.0</ele><time>2026-04-07T13:45:08.731Z</time></trkpt><trkpt lat="43.78125" lon="11.6679183"><ele>907.6666666666666</ele><time>2026-04-07T13:45:09.732Z</time></trkpt><trkpt lat="43.78123" lon="11.667685"><ele>908.3333333333333</ele><time>2026-04-07T13:45:10.731Z</time></trkpt><trkpt lat="43.781165" lon="11.66747"><ele>909.0</ele><time>2026-04-07T13:45:11.731Z</time></trkpt><trkpt lat="43.7810633" lon="11.6672683"><ele>905.0</ele><time>2026-04-07T13:45:12.732Z</time></trkpt><trkpt lat="43.780945" lon="11.6670683"><ele>901.0</ele><time>2026-04-07T13:45:13.73Z</time></trkpt><trkpt lat="43.7808583" lon="11.6668633"><ele>897.0</ele><time>2026-04-07T13:45:14.731Z</time></trkpt><trkpt lat="43.7808117" lon="11.6666433"><ele>897.0</ele><time>2026-04-07T13:45:15.73Z</time></trkpt><trkpt lat="43.7808017" lon="11.6664067"><ele>897.0</ele><time>2026-04-07T13:45:16.731Z</time></trkpt><trkpt lat="43.7808083" lon="11.6661533"><ele>897.0</ele><time>2026-04-07T13:45:17.73Z</time></trkpt><trkpt lat="43.7808233" lon="11.6658917"><ele>898.6666666666667</ele><time>2026-04-07T13:45:18.732Z</time></trkpt><trkpt lat="43.7808433" lon="11.6656433"><ele>900.3333333333334</ele><time>2026-04-07T13:45:19.73Z</time></trkpt><trkpt lat="43.78088" lon="11.6654233"><ele>902.0</ele><time>2026-04-07T13:45:20.731Z</time></trkpt><trkpt lat="43.7809567" lon="11.665205"><ele>911.3333333333334</ele><time>2026-04-07T13:45:21.728Z</time></trkpt><trkpt lat="43.7810533" lon="11.66498"><ele>920.6666666666667</ele><time>2026-04-07T13:45:22.73Z</time></trkpt><trkpt lat="43.7811583" lon="11.6647533"><ele>930.0</ele><time>2026-04-07T13:45:23.73Z</time></trkpt><trkpt lat="43.7812633" lon="11.664525"><ele>929.3333333333333</ele><time>2026-04-07T13:45:24.731Z</time></trkpt><trkpt lat="43.7813717" lon="11.664295"><ele>928.6666666666666</ele><time>2026-04-07T13:45:25.731Z</time></trkpt><trkpt lat="43.7814767" lon="11.6640667"><ele>928.0</ele><time>2026-04-07T13:45:26.733Z</time></trkpt><trkpt lat="43.7815783" lon="11.6638467"><ele>928.0</ele><time>2026-04-07T13:45:27.73Z</time></trkpt><trkpt lat="43.781665" lon="11.6636333"><ele>928.0</ele><time>2026-04-07T13:45:28.731Z</time></trkpt><trkpt lat="43.7817233" lon="11.6634183"><ele>928.0</ele><time>2026-04-07T13:45:29.73Z</time></trkpt><trkpt lat="43.7817533" lon="11.6632033"><ele>928.6666666666666</ele><time>2026-04-07T13:45:30.731Z</time></trkpt><trkpt lat="43.78175" lon="11.6629867"><ele>929.3333333333333</ele><time>2026-04-07T13:45:31.73Z</time></trkpt><trkpt lat="43.7817267" lon="11.66276"><ele>930.0</ele><time>2026-04-07T13:45:32.731Z</time></trkpt><trkpt lat="43.7816783" lon="11.6625133"><ele>930.0</ele><time>2026-04-07T13:45:33.731Z</time></trkpt><trkpt lat="43.78163" lon="11.6622567"><ele>930.0</ele><time>2026-04-07T13:45:34.73Z</time></trkpt><trkpt lat="43.781575" lon="11.661985"><ele>930.0</ele><time>2026-04-07T13:45:35.731Z</time></trkpt><trkpt lat="43.78151" lon="11.6617133"><ele>932.3333333333333</ele><time>2026-04-07T13:45:36.73Z</time></trkpt><trkpt lat="43.7814483" lon="11.6614733"><ele>934.6666666666666</ele><time>2026-04-07T13:45:37.731Z</time></trkpt><trkpt lat="43.7814067" lon="11.6612683"><ele>937.0</ele><time>2026-04-07T13:45:38.73Z</time></trkpt><trkpt lat="43.7814017" lon="11.6610733"><ele>938.6666666666666</ele><time>2026-04-07T13:45:39.731Z</time></trkpt><trkpt lat="43.781445" lon="11.6608633"><ele>940.3333333333333</ele><time>2026-04-07T13:45:40.729Z</time></trkpt><trkpt lat="43.7815167" lon="11.6606383"><ele>942.0</ele><time>2026-04-07T13:45:41.731Z</time></trkpt><trkpt lat="43.7815733" lon="11.6604117"><ele>943.3333333333333</ele><time>2026-04-07T13:45:42.731Z</time></trkpt><trkpt lat="43.7815883" lon="11.660175"><ele>944.6666666666666</ele><time>2026-04-07T13:45:43.732Z</time></trkpt><trkpt lat="43.7815667" lon="11.6599317"><ele>946.0</ele><time>2026-04-07T13:45:44.731Z</time></trkpt><trkpt lat="43.7815267" lon="11.659675"><ele>947.3333333333333</ele><time>2026-04-07T13:45:45.731Z</time></trkpt><trkpt lat="43.7814883" lon="11.6594033"><ele>948.6666666666667</ele><time>2026-04-07T13:45:46.726Z</time></trkpt><trkpt lat="43.781465" lon="11.6591083"><ele>950.0</ele><time>2026-04-07T13:45:47.729Z</time></trkpt><trkpt lat="43.7814533" lon="11.658805"><ele>950.6666666666667</ele><time>2026-04-07T13:45:48.727Z</time></trkpt><trkpt lat="43.781445" lon="11.658495"><ele>951.3333333333333</ele><time>2026-04-07T13:45:49.728Z</time></trkpt><trkpt lat="43.7814417" lon="11.6582033"><ele>952.0</ele><time>2026-04-07T13:45:50.728Z</time></trkpt><trkpt lat="43.7814483" lon="11.6579483"><ele>949.3333333333333</ele><time>2026-04-07T13:45:51.728Z</time></trkpt><trkpt lat="43.78147" lon="11.6577217"><ele>946.6666666666667</ele><time>2026-04-07T13:45:52.727Z</time></trkpt><trkpt lat="43.78152" lon="11.6575167"><ele>944.0</ele><time>2026-04-07T13:45:53.73Z</time></trkpt><trkpt lat="43.78161" lon="11.657335"><ele>944.0</ele><time>2026-04-07T13:45:54.732Z</time></trkpt><trkpt lat="43.7817467" lon="11.6571733"><ele>944.0</ele><time>2026-04-07T13:45:55.731Z</time></trkpt><trkpt lat="43.7819167" lon="11.6570267"><ele>944.0</ele><time>2026-04-07T13:45:56.73Z</time></trkpt><trkpt lat="43.7820933" lon="11.65688"><ele>944.3333333333334</ele><time>2026-04-07T13:45:57.732Z</time></trkpt><trkpt lat="43.782245" lon="11.6567283"><ele>944.6666666666667</ele><time>2026-04-07T13:45:58.731Z</time></trkpt><trkpt lat="43.78236" lon="11.6565583"><ele>945.0</ele><time>2026-04-07T13:45:59.731Z</time></trkpt><trkpt lat="43.7824417" lon="11.656355"><ele>945.0</ele><time>2026-04-07T13:46:00.73Z</time></trkpt><trkpt lat="43.7824917" lon="11.656125"><ele>945.0</ele><time>2026-04-07T13:46:01.732Z</time></trkpt><trkpt lat="43.7825067" lon="11.65588"><ele>945.0</ele><time>2026-04-07T13:46:02.731Z</time></trkpt><trkpt lat="43.782475" lon="11.65563"><ele>944.0</ele><time>2026-04-07T13:46:03.727Z</time></trkpt><trkpt lat="43.7823933" lon="11.6553867"><ele>943.0</ele><time>2026-04-07T13:46:04.728Z</time></trkpt><trkpt lat="43.7822717" lon="11.6551617"><ele>942.0</ele><time>2026-04-07T13:46:05.731Z</time></trkpt><trkpt lat="43.7821133" lon="11.65494"><ele>945.5</ele><time>2026-04-07T13:46:06.731Z</time></trkpt><trkpt lat="43.7819383" lon="11.6547167"><ele>949.0</ele><time>2026-04-07T13:46:07.731Z</time></trkpt><trkpt lat="43.7817717" lon="11.6545017"><ele>946.3333333333333</ele><time>2026-04-07T13:46:08.73Z</time></trkpt><trkpt lat="43.7816283" lon="11.6542983"><ele>943.6666666666667</ele><time>2026-04-07T13:46:09.732Z</time></trkpt><trkpt lat="43.7815167" lon="11.654095"><ele>941.0</ele><time>2026-04-07T13:46:10.73Z</time></trkpt><trkpt lat="43.781445" lon="11.6538717"><ele>945.0</ele><time>2026-04-07T13:46:11.731Z</time></trkpt><trkpt lat="43.7814017" lon="11.65362"><ele>949.0</ele><time>2026-04-07T13:46:12.726Z</time></trkpt><trkpt lat="43.7813617" lon="11.65335"><ele>953.0</ele><time>2026-04-07T13:46:13.731Z</time></trkpt><trkpt lat="43.7812983" lon="11.6530767"><ele>953.0</ele><time>2026-04-07T13:46:14.731Z</time></trkpt><trkpt lat="43.7812217" lon="11.6528217"><ele>953.0</ele><time>2026-04-07T13:46:15.731Z</time></trkpt><trkpt lat="43.7811717" lon="11.6525633"><ele>953.0</ele><time>2026-04-07T13:46:16.729Z</time></trkpt><trkpt lat="43.781165" lon="11.6522833"><ele>954.3333333333334</ele><time>2026-04-07T13:46:17.728Z</time></trkpt><trkpt lat="43.7811917" lon="11.6519917"><ele>955.6666666666667</ele><time>2026-04-07T13:46:18.728Z</time></trkpt><trkpt lat="43.7812267" lon="11.6517017"><ele>957.0</ele><time>2026-04-07T13:46:19.727Z</time></trkpt><trkpt lat="43.7812633" lon="11.6514467"><ele>957.3333333333333</ele><time>2026-04-07T13:46:20.728Z</time></trkpt><trkpt lat="43.7813067" lon="11.65123"><ele>957.6666666666666</ele><time>2026-04-07T13:46:21.728Z</time></trkpt><trkpt lat="43.781385" lon="11.651045"><ele>958.0</ele><time>2026-04-07T13:46:22.729Z</time></trkpt><trkpt lat="43.7815067" lon="11.6508733"><ele>954.0</ele><time>2026-04-07T13:46:23.731Z</time></trkpt><trkpt lat="43.7816567" lon="11.650725"><ele>950.0</ele><time>2026-04-07T13:46:24.731Z</time></trkpt><trkpt lat="43.7818333" lon="11.6506"><ele>946.0</ele><time>2026-04-07T13:46:25.73Z</time></trkpt><trkpt lat="43.7820183" lon="11.6504617"><ele>945.6666666666666</ele><time>2026-04-07T13:46:26.729Z</time></trkpt><trkpt lat="43.7822017" lon="11.6502983"><ele>945.3333333333333</ele><time>2026-04-07T13:46:27.731Z</time></trkpt><trkpt lat="43.7823883" lon="11.65012"><ele>945.0</ele><time>2026-04-07T13:46:28.731Z</time></trkpt><trkpt lat="43.7825833" lon="11.6499617"><ele>949.3333333333333</ele><time>2026-04-07T13:46:29.731Z</time></trkpt><trkpt lat="43.78278" lon="11.6498417"><ele>953.6666666666666</ele><time>2026-04-07T13:46:30.73Z</time></trkpt><trkpt lat="43.7829833" lon="11.649775"><ele>958.0</ele><time>2026-04-07T13:46:31.732Z</time></trkpt><trkpt lat="43.7832033" lon="11.649735"><ele>958.0</ele><time>2026-04-07T13:46:32.73Z</time></trkpt><trkpt lat="43.7834183" lon="11.6497183"><ele>958.0</ele><time>2026-04-07T13:46:33.732Z</time></trkpt><trkpt lat="43.7836133" lon="11.6497383"><ele>958.0</ele><time>2026-04-07T13:46:34.731Z</time></trkpt><trkpt lat="43.7838017" lon="11.6497983"><ele>957.0</ele><time>2026-04-07T13:46:35.731Z</time></trkpt><trkpt lat="43.7840033" lon="11.64989"><ele>956.0</ele><time>2026-04-07T13:46:36.731Z</time></trkpt><trkpt lat="43.7842067" lon="11.6499917"><ele>955.0</ele><time>2026-04-07T13:46:37.731Z</time></trkpt><trkpt lat="43.7844283" lon="11.6501067"><ele>955.0</ele><time>2026-04-07T13:46:38.732Z</time></trkpt><trkpt lat="43.7846533" lon="11.6502317"><ele>955.0</ele><time>2026-04-07T13:46:39.731Z</time></trkpt><trkpt lat="43.7848683" lon="11.6503533"><ele>955.0</ele><time>2026-04-07T13:46:40.731Z</time></trkpt><trkpt lat="43.7850667" lon="11.650445"><ele>955.0</ele><time>2026-04-07T13:46:41.73Z</time></trkpt><trkpt lat="43.7852617" lon="11.6505133"><ele>955.0</ele><time>2026-04-07T13:46:42.732Z</time></trkpt><trkpt lat="43.785445" lon="11.650545"><ele>955.3333333333333</ele><time>2026-04-07T13:46:43.728Z</time></trkpt><trkpt lat="43.7856217" lon="11.65053"><ele>955.6666666666667</ele><time>2026-04-07T13:46:44.73Z</time></trkpt><trkpt lat="43.785795" lon="11.6504567"><ele>956.0</ele><time>2026-04-07T13:46:45.731Z</time></trkpt><trkpt lat="43.7859717" lon="11.6503283"><ele>956.0</ele><time>2026-04-07T13:46:46.728Z</time></trkpt><trkpt lat="43.78614" lon="11.6501783"><ele>956.0</ele><time>2026-04-07T13:46:47.727Z</time></trkpt><trkpt lat="43.786285" lon="11.6500267"><ele>956.0</ele><time>2026-04-07T13:46:48.726Z</time></trkpt><trkpt lat="43.7863967" lon="11.6498467"><ele>956.0</ele><time>2026-04-07T13:46:49.728Z</time></trkpt><trkpt lat="43.7864767" lon="11.6496367"><ele>956.0</ele><time>2026-04-07T13:46:50.728Z</time></trkpt><trkpt lat="43.7865317" lon="11.6494033"><ele>956.0</ele><time>2026-04-07T13:46:51.726Z</time></trkpt><trkpt lat="43.7865617" lon="11.6491533"><ele>954.3333333333334</ele><time>2026-04-07T13:46:52.727Z</time></trkpt><trkpt lat="43.7865667" lon="11.648885"><ele>952.6666666666667</ele><time>2026-04-07T13:46:53.731Z</time></trkpt><trkpt lat="43.786565" lon="11.6486183"><ele>951.0</ele><time>2026-04-07T13:46:54.732Z</time></trkpt><trkpt lat="43.78656" lon="11.6483767"><ele>950.25</ele><time>2026-04-07T13:46:55.731Z</time></trkpt><trkpt lat="43.7865533" lon="11.6481667"><ele>949.5</ele><time>2026-04-07T13:46:56.731Z</time></trkpt><trkpt lat="43.7865517" lon="11.6479833"><ele>948.75</ele><time>2026-04-07T13:46:57.731Z</time></trkpt><trkpt lat="43.7865583" lon="11.6478083"><ele>948.0</ele><time>2026-04-07T13:46:58.73Z</time></trkpt><trkpt lat="43.7865833" lon="11.64762"><ele>947.6666666666667</ele><time>2026-04-07T13:46:59.731Z</time></trkpt><trkpt lat="43.7866317" lon="11.6474117"><ele>947.3333333333334</ele><time>2026-04-07T13:47:00.73Z</time></trkpt><trkpt lat="43.7867033" lon="11.6471783"><ele>947.0</ele><time>2026-04-07T13:47:01.731Z</time></trkpt><trkpt lat="43.7867867" lon="11.646925"><ele>952.0</ele><time>2026-04-07T13:47:02.732Z</time></trkpt><trkpt lat="43.7868767" lon="11.6466583"><ele>957.0</ele><time>2026-04-07T13:47:03.73Z</time></trkpt><trkpt lat="43.7869717" lon="11.6463783"><ele>962.0</ele><time>2026-04-07T13:47:04.73Z</time></trkpt><trkpt lat="43.7870667" lon="11.6460817"><ele>962.0</ele><time>2026-04-07T13:47:05.73Z</time></trkpt><trkpt lat="43.7871683" lon="11.645775"><ele>962.0</ele><time>2026-04-07T13:47:06.731Z</time></trkpt><trkpt lat="43.787275" lon="11.6454767"><ele>960.3333333333334</ele><time>2026-04-07T13:47:07.732Z</time></trkpt><trkpt lat="43.78737" lon="11.6452167"><ele>958.6666666666667</ele><time>2026-04-07T13:47:08.731Z</time></trkpt><trkpt lat="43.7874417" lon="11.6449883"><ele>957.0</ele><time>2026-04-07T13:47:09.73Z</time></trkpt><trkpt lat="43.787475" lon="11.6447533"><ele>957.0</ele><time>2026-04-07T13:47:10.731Z</time></trkpt><trkpt lat="43.7874567" lon="11.6445067"><ele>957.0</ele><time>2026-04-07T13:47:11.73Z</time></trkpt><trkpt lat="43.787375" lon="11.64426"><ele>957.0</ele><time>2026-04-07T13:47:12.731Z</time></trkpt><trkpt lat="43.7872667" lon="11.6440083"><ele>958.3333333333333</ele><time>2026-04-07T13:47:13.731Z</time></trkpt><trkpt lat="43.7871517" lon="11.6437567"><ele>959.6666666666666</ele><time>2026-04-07T13:47:14.731Z</time></trkpt><trkpt lat="43.78706" lon="11.6435033"><ele>961.0</ele><time>2026-04-07T13:47:15.73Z</time></trkpt><trkpt lat="43.7870067" lon="11.64325"><ele>961.6666666666666</ele><time>2026-04-07T13:47:16.728Z</time></trkpt><trkpt lat="43.786985" lon="11.642985"><ele>962.3333333333333</ele><time>2026-04-07T13:47:17.728Z</time></trkpt><trkpt lat="43.7869883" lon="11.6427133"><ele>963.0</ele><time>2026-04-07T13:47:18.728Z</time></trkpt><trkpt lat="43.7869983" lon="11.64246"><ele>962.3333333333333</ele><time>2026-04-07T13:47:19.728Z</time></trkpt><trkpt lat="43.787025" lon="11.6422283"><ele>961.6666666666666</ele><time>2026-04-07T13:47:20.727Z</time></trkpt><trkpt lat="43.7870717" lon="11.6419917"><ele>961.0</ele><time>2026-04-07T13:47:21.727Z</time></trkpt><trkpt lat="43.7871267" lon="11.6417467"><ele>961.0</ele><time>2026-04-07T13:47:22.728Z</time></trkpt><trkpt lat="43.7871883" lon="11.641505"><ele>961.0</ele><time>2026-04-07T13:47:23.731Z</time></trkpt><trkpt lat="43.78724" lon="11.641275"><ele>961.0</ele><time>2026-04-07T13:47:24.731Z</time></trkpt><trkpt lat="43.7872667" lon="11.6410617"><ele>962.6666666666666</ele><time>2026-04-07T13:47:25.732Z</time></trkpt><trkpt lat="43.7872517" lon="11.6408467"><ele>964.3333333333333</ele><time>2026-04-07T13:47:26.733Z</time></trkpt><trkpt lat="43.7871917" lon="11.6406367"><ele>966.0</ele><time>2026-04-07T13:47:27.733Z</time></trkpt><trkpt lat="43.7870983" lon="11.6404317"><ele>965.75</ele><time>2026-04-07T13:47:28.73Z</time></trkpt><trkpt lat="43.787015" lon="11.640255"><ele>965.5</ele><time>2026-04-07T13:47:29.73Z</time></trkpt><trkpt lat="43.7869617" lon="11.6400983"><ele>965.25</ele><time>2026-04-07T13:47:30.731Z</time></trkpt><trkpt lat="43.7869433" lon="11.63995"><ele>965.0</ele><time>2026-04-07T13:47:31.731Z</time></trkpt><trkpt lat="43.7869617" lon="11.63982"><ele>965.0</ele><time>2026-04-07T13:47:32.732Z</time></trkpt><trkpt lat="43.78704" lon="11.639715"><ele>965.0</ele><time>2026-04-07T13:47:33.731Z</time></trkpt><trkpt lat="43.7871717" lon="11.63964"><ele>965.0</ele><time>2026-04-07T13:47:34.73Z</time></trkpt><trkpt lat="43.787325" lon="11.6395667"><ele>965.0</ele><time>2026-04-07T13:47:35.731Z</time></trkpt><trkpt lat="43.787485" lon="11.63949"><ele>961.6666666666667</ele><time>2026-04-07T13:47:36.731Z</time></trkpt><trkpt lat="43.7876317" lon="11.6394017"><ele>958.3333333333333</ele><time>2026-04-07T13:47:37.731Z</time></trkpt><trkpt lat="43.7877483" lon="11.6392683"><ele>955.0</ele><time>2026-04-07T13:47:38.731Z</time></trkpt><trkpt lat="43.7878317" lon="11.6390833"><ele>955.0</ele><time>2026-04-07T13:47:39.73Z</time></trkpt><trkpt lat="43.7878917" lon="11.6388467"><ele>955.0</ele><time>2026-04-07T13:47:40.731Z</time></trkpt><trkpt lat="43.78794" lon="11.63859"><ele>955.0</ele><time>2026-04-07T13:47:41.731Z</time></trkpt><trkpt lat="43.7879617" lon="11.6383083"><ele>956.3333333333333</ele><time>2026-04-07T13:47:42.731Z</time></trkpt><trkpt lat="43.78796" lon="11.6380133"><ele>957.6666666666667</ele><time>2026-04-07T13:47:43.732Z</time></trkpt><trkpt lat="43.7879433" lon="11.6377117"><ele>959.0</ele><time>2026-04-07T13:47:44.73Z</time></trkpt><trkpt lat="43.78794" lon="11.6374083"><ele>961.3333333333334</ele><time>2026-04-07T13:47:45.731Z</time></trkpt><trkpt lat="43.7879483" lon="11.6371"><ele>963.6666666666667</ele><time>2026-04-07T13:47:46.731Z</time></trkpt><trkpt lat="43.78796" lon="11.636795"><ele>966.0</ele><time>2026-04-07T13:47:47.73Z</time></trkpt><trkpt lat="43.7879533" lon="11.6365033"><ele>967.0</ele><time>2026-04-07T13:47:48.73Z</time></trkpt><trkpt lat="43.7879267" lon="11.63624"><ele>968.0</ele><time>2026-04-07T13:47:49.731Z</time></trkpt><trkpt lat="43.7879017" lon="11.635995"><ele>969.0</ele><time>2026-04-07T13:47:50.731Z</time></trkpt><trkpt lat="43.787885" lon="11.6357567"><ele>969.0</ele><time>2026-04-07T13:47:51.729Z</time></trkpt><trkpt lat="43.7878933" lon="11.6355"><ele>969.0</ele><time>2026-04-07T13:47:52.731Z</time></trkpt><trkpt lat="43.7879333" lon="11.6352433"><ele>969.0</ele><time>2026-04-07T13:47:53.73Z</time></trkpt><trkpt lat="43.787995" lon="11.635015"><ele>966.6666666666667</ele><time>2026-04-07T13:47:54.727Z</time></trkpt><trkpt lat="43.7880817" lon="11.6348033"><ele>964.3333333333334</ele><time>2026-04-07T13:47:55.728Z</time></trkpt><trkpt lat="43.7881967" lon="11.6346067"><ele>962.0</ele><time>2026-04-07T13:47:56.73Z</time></trkpt><trkpt lat="43.7883133" lon="11.634395"><ele>959.6666666666667</ele><time>2026-04-07T13:47:57.733Z</time></trkpt><trkpt lat="43.7884067" lon="11.63417"><ele>957.3333333333333</ele><time>2026-04-07T13:47:58.731Z</time></trkpt><trkpt lat="43.7884467" lon="11.6339167"><ele>955.0</ele><time>2026-04-07T13:47:59.731Z</time></trkpt><trkpt lat="43.7884333" lon="11.6336367"><ele>954.6666666666666</ele><time>2026-04-07T13:48:00.732Z</time></trkpt><trkpt lat="43.7883983" lon="11.6333467"><ele>954.3333333333333</ele><time>2026-04-07T13:48:01.731Z</time></trkpt><trkpt lat="43.7883633" lon="11.6330483"><ele>954.0</ele><time>2026-04-07T13:48:02.731Z</time></trkpt><trkpt lat="43.7883367" lon="11.6327433"><ele>956.3333333333333</ele><time>2026-04-07T13:48:03.731Z</time></trkpt><trkpt lat="43.7883117" lon="11.63244"><ele>958.6666666666666</ele><time>2026-04-07T13:48:04.73Z</time></trkpt><trkpt lat="43.7882833" lon="11.6321667"><ele>961.0</ele><time>2026-04-07T13:48:05.731Z</time></trkpt><trkpt lat="43.7882417" lon="11.6319267"><ele>962.0</ele><time>2026-04-07T13:48:06.731Z</time></trkpt><trkpt lat="43.7881783" lon="11.6317183"><ele>963.0</ele><time>2026-04-07T13:48:07.731Z</time></trkpt><trkpt lat="43.7880867" lon="11.63155"><ele>964.0</ele><time>2026-04-07T13:48:08.731Z</time></trkpt><trkpt lat="43.7879583" lon="11.6314367"><ele>964.0</ele><time>2026-04-07T13:48:09.731Z</time></trkpt><trkpt lat="43.7877967" lon="11.6313383"><ele>964.0</ele><time>2026-04-07T13:48:10.732Z</time></trkpt><trkpt lat="43.7876283" lon="11.6312117"><ele>964.0</ele><time>2026-04-07T13:48:11.731Z</time></trkpt><trkpt lat="43.7874783" lon="11.6310617"><ele>966.25</ele><time>2026-04-07T13:48:12.73Z</time></trkpt><trkpt lat="43.78736" lon="11.63091"><ele>968.5</ele><time>2026-04-07T13:48:13.731Z</time></trkpt><trkpt lat="43.7872817" lon="11.6307633"><ele>970.75</ele><time>2026-04-07T13:48:14.731Z</time></trkpt><trkpt lat="43.7872383" lon="11.6306017"><ele>973.0</ele><time>2026-04-07T13:48:15.73Z</time></trkpt><trkpt lat="43.787245" lon="11.63041"><ele>974.0</ele><time>2026-04-07T13:48:16.731Z</time></trkpt><trkpt lat="43.7872917" lon="11.6301967"><ele>975.0</ele><time>2026-04-07T13:48:17.731Z</time></trkpt><trkpt lat="43.7873783" lon="11.63"><ele>976.0</ele><time>2026-04-07T13:48:18.731Z</time></trkpt><trkpt lat="43.78749" lon="11.6298183"><ele>976.0</ele><time>2026-04-07T13:48:19.732Z</time></trkpt><trkpt lat="43.7876067" lon="11.6296617"><ele>976.0</ele><time>2026-04-07T13:48:20.731Z</time></trkpt><trkpt lat="43.7877067" lon="11.6295133"><ele>976.0</ele><time>2026-04-07T13:48:21.731Z</time></trkpt><trkpt lat="43.7877733" lon="11.6293533"><ele>976.0</ele><time>2026-04-07T13:48:22.731Z</time></trkpt><trkpt lat="43.7877883" lon="11.6291783"><ele>975.25</ele><time>2026-04-07T13:48:23.731Z</time></trkpt><trkpt lat="43.7877333" lon="11.6290117"><ele>974.5</ele><time>2026-04-07T13:48:24.731Z</time></trkpt><trkpt lat="43.7876233" lon="11.6288667"><ele>973.75</ele><time>2026-04-07T13:48:25.731Z</time></trkpt><trkpt lat="43.7875167" lon="11.6287267"><ele>973.0</ele><time>2026-04-07T13:48:26.728Z</time></trkpt><trkpt lat="43.7874333" lon="11.6285967"><ele>974.5</ele><time>2026-04-07T13:48:27.731Z</time></trkpt><trkpt lat="43.7874083" lon="11.6284667"><ele>976.0</ele><time>2026-04-07T13:48:28.727Z</time></trkpt><trkpt lat="43.7874567" lon="11.6283217"><ele>977.5</ele><time>2026-04-07T13:48:29.732Z</time></trkpt><trkpt lat="43.7875517" lon="11.6281867"><ele>979.0</ele><time>2026-04-07T13:48:30.731Z</time></trkpt><trkpt lat="43.7876917" lon="11.6280833"><ele>980.0</ele><time>2026-04-07T13:48:31.732Z</time></trkpt><trkpt lat="43.7878383" lon="11.62801"><ele>981.0</ele><time>2026-04-07T13:48:32.73Z</time></trkpt><trkpt lat="43.7879683" lon="11.6279483"><ele>982.0</ele><time>2026-04-07T13:48:33.727Z</time></trkpt><trkpt lat="43.7880517" lon="11.6278533"><ele>983.0</ele><time>2026-04-07T13:48:34.726Z</time></trkpt><trkpt lat="43.7880967" lon="11.6277317"><ele>983.0</ele><time>2026-04-07T13:48:35.731Z</time></trkpt><trkpt lat="43.7880733" lon="11.6275783"><ele>983.0</ele><time>2026-04-07T13:48:36.731Z</time></trkpt><trkpt lat="43.7879883" lon="11.627415"><ele>983.0</ele><time>2026-04-07T13:48:37.731Z</time></trkpt><trkpt lat="43.787865" lon="11.6272217"><ele>983.0</ele><time>2026-04-07T13:48:38.731Z</time></trkpt><trkpt lat="43.7877367" lon="11.6270017"><ele>976.3333333333334</ele><time>2026-04-07T13:48:39.73Z</time></trkpt><trkpt lat="43.787615" lon="11.6267633"><ele>969.6666666666667</ele><time>2026-04-07T13:48:40.73Z</time></trkpt><trkpt lat="43.78747" lon="11.6265333"><ele>963.0</ele><time>2026-04-07T13:48:41.731Z</time></trkpt><trkpt lat="43.7873233" lon="11.6263217"><ele>962.6666666666667</ele><time>2026-04-07T13:48:42.731Z</time></trkpt><trkpt lat="43.787195" lon="11.6261233"><ele>962.3333333333334</ele><time>2026-04-07T13:48:43.731Z</time></trkpt><trkpt lat="43.7870917" lon="11.6259267"><ele>962.0</ele><time>2026-04-07T13:48:44.73Z</time></trkpt><trkpt lat="43.7870233" lon="11.625725"><ele>962.0</ele><time>2026-04-07T13:48:45.73Z</time></trkpt><trkpt lat="43.7869817" lon="11.62552"><ele>962.0</ele><time>2026-04-07T13:48:46.73Z</time></trkpt><trkpt lat="43.7869667" lon="11.6253217"><ele>962.0</ele><time>2026-04-07T13:48:47.731Z</time></trkpt><trkpt lat="43.7869867" lon="11.62514"><ele>962.0</ele><time>2026-04-07T13:48:48.731Z</time></trkpt><trkpt lat="43.7870533" lon="11.62496"><ele>958.3333333333334</ele><time>2026-04-07T13:48:49.732Z</time></trkpt><trkpt lat="43.7871567" lon="11.624785"><ele>954.6666666666667</ele><time>2026-04-07T13:48:50.73Z</time></trkpt><trkpt lat="43.7872817" lon="11.6246467"><ele>951.0</ele><time>2026-04-07T13:48:51.732Z</time></trkpt><trkpt lat="43.7874367" lon="11.6245367"><ele>948.0</ele><time>2026-04-07T13:48:52.733Z</time></trkpt><trkpt lat="43.7876233" lon="11.6244433"><ele>945.0</ele><time>2026-04-07T13:48:53.73Z</time></trkpt><trkpt lat="43.7878183" lon="11.62435"><ele>942.0</ele><time>2026-04-07T13:48:54.73Z</time></trkpt><trkpt lat="43.7879983" lon="11.6242617"><ele>942.0</ele><time>2026-04-07T13:48:55.73Z</time></trkpt><trkpt lat="43.7881467" lon="11.6241817"><ele>942.0</ele><time>2026-04-07T13:48:56.73Z</time></trkpt><trkpt lat="43.7882617" lon="11.6240917"><ele>942.0</ele><time>2026-04-07T13:48:57.732Z</time></trkpt><trkpt lat="43.7883467" lon="11.623965"><ele>942.0</ele><time>2026-04-07T13:48:58.732Z</time></trkpt><trkpt lat="43.7883917" lon="11.6237967"><ele>937.6666666666667</ele><time>2026-04-07T13:48:59.73Z</time></trkpt><trkpt lat="43.7883883" lon="11.6235883"><ele>933.3333333333334</ele><time>2026-04-07T13:49:00.731Z</time></trkpt><trkpt lat="43.7883383" lon="11.62335"><ele>929.0</ele><time>2026-04-07T13:49:01.732Z</time></trkpt><trkpt lat="43.7882633" lon="11.6230983"><ele>929.0</ele><time>2026-04-07T13:49:02.73Z</time></trkpt><trkpt lat="43.788175" lon="11.62284"><ele>929.0</ele><time>2026-04-07T13:49:03.731Z</time></trkpt><trkpt lat="43.7880683" lon="11.622575"><ele>929.0</ele><time>2026-04-07T13:49:04.731Z</time></trkpt><trkpt lat="43.7879317" lon="11.6223083"><ele>929.0</ele><time>2026-04-07T13:49:05.732Z</time></trkpt><trkpt lat="43.7877733" lon="11.6220533"><ele>929.0</ele><time>2026-04-07T13:49:06.731Z</time></trkpt><trkpt lat="43.7876" lon="11.621805"><ele>932.5</ele><time>2026-04-07T13:49:07.731Z</time></trkpt><trkpt lat="43.7874133" lon="11.6215517"><ele>936.0</ele><time>2026-04-07T13:49:08.728Z</time></trkpt><trkpt lat="43.7872233" lon="11.62129"><ele>937.0</ele><time>2026-04-07T13:49:09.731Z</time></trkpt><trkpt lat="43.7870317" lon="11.6210233"><ele>938.0</ele><time>2026-04-07T13:49:10.731Z</time></trkpt><trkpt lat="43.7868433" lon="11.620755"><ele>938.0</ele><time>2026-04-07T13:49:11.732Z</time></trkpt><trkpt lat="43.7866633" lon="11.6205017"><ele>938.0</ele><time>2026-04-07T13:49:12.731Z</time></trkpt><trkpt lat="43.7864783" lon="11.62028"><ele>942.0</ele><time>2026-04-07T13:49:13.732Z</time></trkpt><trkpt lat="43.7862817" lon="11.6200983"><ele>946.0</ele><time>2026-04-07T13:49:14.731Z</time></trkpt><trkpt lat="43.7860917" lon="11.6199533"><ele>946.3333333333333</ele><time>2026-04-07T13:49:15.731Z</time></trkpt><trkpt lat="43.7859067" lon="11.6198183"><ele>946.6666666666667</ele><time>2026-04-07T13:49:16.728Z</time></trkpt><trkpt lat="43.785735" lon="11.6196917"><ele>947.0</ele><time>2026-04-07T13:49:17.727Z</time></trkpt><trkpt lat="43.785575" lon="11.6195883"><ele>947.0</ele><time>2026-04-07T13:49:18.728Z</time></trkpt><trkpt lat="43.7854217" lon="11.6195333"><ele>947.0</ele><time>2026-04-07T13:49:19.727Z</time></trkpt><trkpt lat="43.7852717" lon="11.6195433"><ele>947.0</ele><time>2026-04-07T13:49:20.728Z</time></trkpt><trkpt lat="43.78512" lon="11.6196083"><ele>948.3333333333334</ele><time>2026-04-07T13:49:21.726Z</time></trkpt><trkpt lat="43.7849667" lon="11.61967"><ele>949.6666666666667</ele><time>2026-04-07T13:49:22.728Z</time></trkpt><trkpt lat="43.78481" lon="11.6196783"><ele>951.0</ele><time>2026-04-07T13:49:23.732Z</time></trkpt><trkpt lat="43.7846567" lon="11.61963"><ele>951.0</ele><time>2026-04-07T13:49:24.73Z</time></trkpt><trkpt lat="43.78451" lon="11.619525"><ele>951.0</ele><time>2026-04-07T13:49:25.73Z</time></trkpt><trkpt lat="43.78439" lon="11.6193817"><ele>951.0</ele><time>2026-04-07T13:49:26.731Z</time></trkpt><trkpt lat="43.7843067" lon="11.6192133"><ele>954.0</ele><time>2026-04-07T13:49:27.731Z</time></trkpt><trkpt lat="43.7842617" lon="11.61902"><ele>957.0</ele><time>2026-04-07T13:49:28.73Z</time></trkpt><trkpt lat="43.7842567" lon="11.6188017"><ele>960.0</ele><time>2026-04-07T13:49:29.726Z</time></trkpt><trkpt lat="43.78427" lon="11.618575"><ele>963.0</ele><time>2026-04-07T13:49:30.728Z</time></trkpt><trkpt lat="43.784295" lon="11.6183167"><ele>966.0</ele><time>2026-04-07T13:49:31.728Z</time></trkpt><trkpt lat="43.7843083" lon="11.6180417"><ele>969.0</ele><time>2026-04-07T13:49:32.726Z</time></trkpt><trkpt lat="43.784315" lon="11.6177567"><ele>971.0</ele><time>2026-04-07T13:49:33.73Z</time></trkpt><trkpt lat="43.78431" lon="11.6174567"><ele>973.0</ele><time>2026-04-07T13:49:34.731Z</time></trkpt><trkpt lat="43.7842967" lon="11.6171517"><ele>975.0</ele><time>2026-04-07T13:49:35.731Z</time></trkpt><trkpt lat="43.784285" lon="11.6168517"><ele>977.3333333333333</ele><time>2026-04-07T13:49:36.731Z</time></trkpt><trkpt lat="43.7842933" lon="11.61656"><ele>979.6666666666666</ele><time>2026-04-07T13:49:37.732Z</time></trkpt><trkpt lat="43.7843383" lon="11.616295"><ele>982.0</ele><time>2026-04-07T13:49:38.73Z</time></trkpt><trkpt lat="43.7844183" lon="11.61607"><ele>985.3333333333333</ele><time>2026-04-07T13:49:39.73Z</time></trkpt><trkpt lat="43.784535" lon="11.6158833"><ele>988.6666666666667</ele><time>2026-04-07T13:49:40.731Z</time></trkpt><trkpt lat="43.7846717" lon="11.6157067"><ele>992.0</ele><time>2026-04-07T13:49:41.731Z</time></trkpt><trkpt lat="43.7847933" lon="11.6155183"><ele>992.0</ele><time>2026-04-07T13:49:42.73Z</time></trkpt><trkpt lat="43.7848817" lon="11.61529"><ele>992.0</ele><time>2026-04-07T13:49:43.731Z</time></trkpt><trkpt lat="43.784945" lon="11.6150267"><ele>992.0</ele><time>2026-04-07T13:49:44.729Z</time></trkpt><trkpt lat="43.7849933" lon="11.6147467"><ele>993.0</ele><time>2026-04-07T13:49:45.732Z</time></trkpt><trkpt lat="43.785035" lon="11.6144617"><ele>994.0</ele><time>2026-04-07T13:49:46.731Z</time></trkpt><trkpt lat="43.7850733" lon="11.61418"><ele>995.0</ele><time>2026-04-07T13:49:47.73Z</time></trkpt><trkpt lat="43.7851183" lon="11.613935"><ele>995.0</ele><time>2026-04-07T13:49:48.731Z</time></trkpt><trkpt lat="43.7851717" lon="11.6137383"><ele>995.0</ele><time>2026-04-07T13:49:49.732Z</time></trkpt><trkpt lat="43.7852483" lon="11.6135967"><ele>995.0</ele><time>2026-04-07T13:49:50.731Z</time></trkpt><trkpt lat="43.785345" lon="11.613495"><ele>995.0</ele><time>2026-04-07T13:49:51.73Z</time></trkpt><trkpt lat="43.785465" lon="11.6134317"><ele>999.0</ele><time>2026-04-07T13:49:52.731Z</time></trkpt><trkpt lat="43.785605" lon="11.6133917"><ele>1003.0</ele><time>2026-04-07T13:49:53.73Z</time></trkpt><trkpt lat="43.7857433" lon="11.6133483"><ele>1007.0</ele><time>2026-04-07T13:49:54.731Z</time></trkpt><trkpt lat="43.7858633" lon="11.6132883"><ele>1011.0</ele><time>2026-04-07T13:49:55.731Z</time></trkpt><trkpt lat="43.78595" lon="11.6131967"><ele>1008.5</ele><time>2026-04-07T13:49:56.731Z</time></trkpt><trkpt lat="43.7860117" lon="11.6130767"><ele>1006.0</ele><time>2026-04-07T13:49:57.731Z</time></trkpt><trkpt lat="43.78603" lon="11.6129167"><ele>1003.5</ele><time>2026-04-07T13:49:58.731Z</time></trkpt><trkpt lat="43.7860183" lon="11.6127433"><ele>1001.0</ele><time>2026-04-07T13:49:59.732Z</time></trkpt><trkpt lat="43.7859817" lon="11.6125333"><ele>1007.6666666666667</ele><time>2026-04-07T13:50:00.73Z</time></trkpt><trkpt lat="43.78595" lon="11.6122917"><ele>1014.3333333333333</ele><time>2026-04-07T13:50:01.731Z</time></trkpt><trkpt lat="43.7859267" lon="11.6120333"><ele>1021.0</ele><time>2026-04-07T13:50:02.731Z</time></trkpt><trkpt lat="43.7858917" lon="11.6117917"><ele>1021.3333333333333</ele><time>2026-04-07T13:50:03.726Z</time></trkpt><trkpt lat="43.7858367" lon="11.6115567"><ele>1021.6666666666667</ele><time>2026-04-07T13:50:04.73Z</time></trkpt><trkpt lat="43.7857483" lon="11.6113283"><ele>1022.0</ele><time>2026-04-07T13:50:05.732Z</time></trkpt><trkpt lat="43.785635" lon="11.6111017"><ele>1022.0</ele><time>2026-04-07T13:50:06.731Z</time></trkpt><trkpt lat="43.78552" lon="11.6108633"><ele>1022.0</ele><time>2026-04-07T13:50:07.732Z</time></trkpt><trkpt lat="43.7854233" lon="11.6106167"><ele>1022.0</ele><time>2026-04-07T13:50:08.731Z</time></trkpt><trkpt lat="43.7853533" lon="11.6103417"><ele>1022.0</ele><time>2026-04-07T13:50:09.728Z</time></trkpt><trkpt lat="43.7853017" lon="11.610065"><ele>1022.0</ele><time>2026-04-07T13:50:10.727Z</time></trkpt><trkpt lat="43.7852533" lon="11.6097783"><ele>1022.0</ele><time>2026-04-07T13:50:11.728Z</time></trkpt><trkpt lat="43.7852" lon="11.6094817"><ele>1025.6666666666667</ele><time>2026-04-07T13:50:12.731Z</time></trkpt><trkpt lat="43.7851483" lon="11.6091783"><ele>1029.3333333333333</ele><time>2026-04-07T13:50:13.726Z</time></trkpt><trkpt lat="43.7850967" lon="11.6088817"><ele>1033.0</ele><time>2026-04-07T13:50:14.728Z</time></trkpt><trkpt lat="43.78505" lon="11.6085883"><ele>1033.0</ele><time>2026-04-07T13:50:15.726Z</time></trkpt><trkpt lat="43.7849983" lon="11.6083083"><ele>1033.0</ele><time>2026-04-07T13:50:16.731Z</time></trkpt><trkpt lat="43.78495" lon="11.6080283"><ele>1033.0</ele><time>2026-04-07T13:50:17.731Z</time></trkpt><trkpt lat="43.7849083" lon="11.60777"><ele>1034.0</ele><time>2026-04-07T13:50:18.732Z</time></trkpt><trkpt lat="43.7848717" lon="11.6075233"><ele>1035.0</ele><time>2026-04-07T13:50:19.731Z</time></trkpt><trkpt lat="43.78484" lon="11.6072933"><ele>1036.0</ele><time>2026-04-07T13:50:20.731Z</time></trkpt><trkpt lat="43.7848117" lon="11.6070733"><ele>1038.0</ele><time>2026-04-07T13:50:21.728Z</time></trkpt><trkpt lat="43.7847983" lon="11.60686"><ele>1040.0</ele><time>2026-04-07T13:50:22.727Z</time></trkpt><trkpt lat="43.78481" lon="11.6066483"><ele>1042.0</ele><time>2026-04-07T13:50:23.732Z</time></trkpt><trkpt lat="43.7848433" lon="11.6064417"><ele>1042.0</ele><time>2026-04-07T13:50:24.73Z</time></trkpt><trkpt lat="43.7848917" lon="11.606245"><ele>1042.0</ele><time>2026-04-07T13:50:25.733Z</time></trkpt><trkpt lat="43.784965" lon="11.60605"><ele>1042.0</ele><time>2026-04-07T13:50:26.731Z</time></trkpt><trkpt lat="43.7850517" lon="11.60586"><ele>1042.0</ele><time>2026-04-07T13:50:27.731Z</time></trkpt><trkpt lat="43.7851417" lon="11.6056633"><ele>1042.0</ele><time>2026-04-07T13:50:28.73Z</time></trkpt><trkpt lat="43.785235" lon="11.6054583"><ele>1042.0</ele><time>2026-04-07T13:50:29.73Z</time></trkpt><trkpt lat="43.7853267" lon="11.6052483"><ele>1045.25</ele><time>2026-04-07T13:50:30.731Z</time></trkpt><trkpt lat="43.7854117" lon="11.60505"><ele>1048.5</ele><time>2026-04-07T13:50:31.731Z</time></trkpt><trkpt lat="43.785485" lon="11.6048733"><ele>1051.75</ele><time>2026-04-07T13:50:32.731Z</time></trkpt><trkpt lat="43.7855367" lon="11.60472"><ele>1055.0</ele><time>2026-04-07T13:50:33.731Z</time></trkpt><trkpt lat="43.78556" lon="11.60457"><ele>1055.0</ele><time>2026-04-07T13:50:34.732Z</time></trkpt><trkpt lat="43.78554" lon="11.604435"><ele>1055.0</ele><time>2026-04-07T13:50:35.73Z</time></trkpt><trkpt lat="43.78549" lon="11.6043217"><ele>1055.0</ele><time>2026-04-07T13:50:36.73Z</time></trkpt><trkpt lat="43.7854083" lon="11.604235"><ele>1055.0</ele><time>2026-04-07T13:50:37.726Z</time></trkpt><trkpt lat="43.7852967" lon="11.6041633"><ele>1055.0</ele><time>2026-04-07T13:50:38.728Z</time></trkpt><trkpt lat="43.7851617" lon="11.6041067"><ele>1055.0</ele><time>2026-04-07T13:50:39.732Z</time></trkpt><trkpt lat="43.78502" lon="11.6040683"><ele>1055.0</ele><time>2026-04-07T13:50:40.732Z</time></trkpt><trkpt lat="43.784885" lon="11.6040383"><ele>1055.0</ele><time>2026-04-07T13:50:41.73Z</time></trkpt><trkpt lat="43.7847533" lon="11.6040133"><ele>1055.0</ele><time>2026-04-07T13:50:42.728Z</time></trkpt><trkpt lat="43.7846333" lon="11.6039783"><ele>1055.0</ele><time>2026-04-07T13:50:43.728Z</time></trkpt><trkpt lat="43.78452" lon="11.603935"><ele>1055.0</ele><time>2026-04-07T13:50:44.727Z</time></trkpt><trkpt lat="43.7844183" lon="11.603865"><ele>1055.0</ele><time>2026-04-07T13:50:45.727Z</time></trkpt><trkpt lat="43.784335" lon="11.6037617"><ele>1055.0</ele><time>2026-04-07T13:50:46.728Z</time></trkpt><trkpt lat="43.784245" lon="11.6036333"><ele>1056.75</ele><time>2026-04-07T13:50:47.727Z</time></trkpt><trkpt lat="43.7841617" lon="11.60349"><ele>1058.5</ele><time>2026-04-07T13:50:48.731Z</time></trkpt><trkpt lat="43.7840817" lon="11.6033383"><ele>1060.25</ele><time>2026-04-07T13:50:49.731Z</time></trkpt><trkpt lat="43.783995" lon="11.6031817"><ele>1062.0</ele><time>2026-04-07T13:50:50.727Z</time></trkpt><trkpt lat="43.783905" lon="11.6030183"><ele>1062.0</ele><time>2026-04-07T13:50:51.728Z</time></trkpt><trkpt lat="43.7838167" lon="11.602855"><ele>1062.0</ele><time>2026-04-07T13:50:52.731Z</time></trkpt><trkpt lat="43.7837317" lon="11.6026917"><ele>1062.0</ele><time>2026-04-07T13:50:53.825Z</time></trkpt><trkpt lat="43.783645" lon="11.6025317"><ele>1062.0</ele><time>2026-04-07T13:50:54.728Z</time></trkpt><trkpt lat="43.7835533" lon="11.6023733"><ele>1063.5</ele><time>2026-04-07T13:50:55.73Z</time></trkpt><trkpt lat="43.7834583" lon="11.6022267"><ele>1065.0</ele><time>2026-04-07T13:50:56.731Z</time></trkpt><trkpt lat="43.7833533" lon="11.6021183"><ele>1066.5</ele><time>2026-04-07T13:50:57.732Z</time></trkpt><trkpt lat="43.7832417" lon="11.602045"><ele>1068.0</ele><time>2026-04-07T13:50:58.731Z</time></trkpt><trkpt lat="43.783145" lon="11.6019783"><ele>1068.0</ele><time>2026-04-07T13:50:59.732Z</time></trkpt><trkpt lat="43.7830617" lon="11.6018983"><ele>1068.0</ele><time>2026-04-07T13:51:00.732Z</time></trkpt><trkpt lat="43.7829967" lon="11.60179"><ele>1068.0</ele><time>2026-04-07T13:51:01.73Z</time></trkpt><trkpt lat="43.78295" lon="11.6016833"><ele>1068.0</ele><time>2026-04-07T13:51:02.73Z</time></trkpt><trkpt lat="43.7829117" lon="11.6015883"><ele>1068.0</ele><time>2026-04-07T13:51:03.73Z</time></trkpt><trkpt lat="43.7828667" lon="11.601515"><ele>1068.0</ele><time>2026-04-07T13:51:04.731Z</time></trkpt><trkpt lat="43.7828017" lon="11.60141"><ele>1068.0</ele><time>2026-04-07T13:51:06.732Z</time></trkpt><trkpt lat="43.7827933" lon="11.60132"><ele>1068.0</ele><time>2026-04-07T13:51:09.73Z</time></trkpt><trkpt lat="43.7828267" lon="11.6014"><ele>1068.0</ele><time>2026-04-07T14:09:10.729Z</time></trkpt><trkpt lat="43.7828217" lon="11.6014983"><ele>1068.0</ele><time>2026-04-07T14:09:12.729Z</time></trkpt><trkpt lat="43.782805" lon="11.60161"><ele>1068.0</ele><time>2026-04-07T14:09:15.73Z</time></trkpt></trkseg></trk></gpx>